<?xml version='1.0' encoding='UTF-8'?><gpx version="1.1" creator="JPX - https://github.com/jenetics/jpx" xmlns="http://www.topografix.com/GPX/1/1"><trk><trkseg><trkpt lat="42.422166190905585" lon="-8.048490720618076"><ele>427.0</ele><time>2026-04-03T09:46:50Z</time></trkpt><trkpt lat="42.42219450441575" lon="-8.04857398765139"><ele>427.0</ele><time>2026-04-03T09:46:52Z</time></trkpt><trkpt lat="42.42218060963753" lon="-8.04865967249094"><ele>427.0</ele><time>2026-04-03T09:46:53Z</time></trkpt><trkpt lat="42.42217313321039" lon="-8.048763989024385"><ele>427.0</ele><time>2026-04-03T09:46:54Z</time></trkpt><trkpt lat="42.422176786454514" lon="-8.048852819895245"><ele>427.0</ele><time>2026-04-03T09:46:55Z</time></trkpt><trkpt lat="42.42217639130215" lon="-8.0489579723523"><ele>427.0</ele><time>2026-04-03T09:46:56Z</time></trkpt><trkpt lat="42.4221905946739" lon="-8.04908576526285"><ele>427.0</ele><time>2026-04-03T09:46:57Z</time></trkpt><trkpt lat="42.42220042261685" lon="-8.049230570031622"><ele>427.0</ele><time>2026-04-03T09:46:58Z</time></trkpt><trkpt lat="42.42220852617369" lon="-8.049390029144599"><ele>427.0</ele><time>2026-04-03T09:46:59Z</time></trkpt><trkpt lat="42.42222022284362" lon="-8.049553041463147"><ele>427.0</ele><time>2026-04-03T09:47:00Z</time></trkpt><trkpt lat="42.42222872010916" lon="-8.049705409204655"><ele>427.0</ele><time>2026-04-03T09:47:01Z</time></trkpt><trkpt lat="42.4222393001251" lon="-8.049853053233386"><ele>427.8</ele><time>2026-04-03T09:47:02Z</time></trkpt><trkpt lat="42.42224907362098" lon="-8.049996488720359"><ele>428.6</ele><time>2026-04-03T09:47:03Z</time></trkpt><trkpt lat="42.42225603104911" lon="-8.050140040785259"><ele>429.40000000000003</ele><time>2026-04-03T09:47:04Z</time></trkpt><trkpt lat="42.422262970402855" lon="-8.05028088108364"><ele>430.20000000000005</ele><time>2026-04-03T09:47:04.999Z</time></trkpt><trkpt lat="42.42227333962093" lon="-8.050422458885288"><ele>431.0</ele><time>2026-04-03T09:47:05.999Z</time></trkpt><trkpt lat="42.4222812051788" lon="-8.050559804854995"><ele>431.0</ele><time>2026-04-03T09:47:06.999Z</time></trkpt><trkpt lat="42.42229669435667" lon="-8.050691130379004"><ele>431.0</ele><time>2026-04-03T09:47:07.999Z</time></trkpt><trkpt lat="42.422332740204226" lon="-8.05081543091789"><ele>431.0</ele><time>2026-04-03T09:47:08.999Z</time></trkpt><trkpt lat="42.42240078697132" lon="-8.050915156139425"><ele>431.0</ele><time>2026-04-03T09:47:09.999Z</time></trkpt><trkpt lat="42.422475810557245" lon="-8.051003204810819"><ele>431.0</ele><time>2026-04-03T09:47:10.999Z</time></trkpt><trkpt lat="42.422561428817346" lon="-8.05109167338863"><ele>430.0</ele><time>2026-04-03T09:47:11.999Z</time></trkpt><trkpt lat="42.42265182379626" lon="-8.051180572292722"><ele>429.0</ele><time>2026-04-03T09:47:12.999Z</time></trkpt><trkpt lat="42.42274433288265" lon="-8.051269209295967"><ele>428.0</ele><time>2026-04-03T09:47:13.999Z</time></trkpt><trkpt lat="42.42284098029898" lon="-8.051363787056253"><ele>427.0</ele><time>2026-04-03T09:47:14.999Z</time></trkpt><trkpt lat="42.422933753664815" lon="-8.05146856863447"><ele>427.0</ele><time>2026-04-03T09:47:15.999Z</time></trkpt><trkpt lat="42.423030298881216" lon="-8.05156659732106"><ele>427.0</ele><time>2026-04-03T09:47:16.999Z</time></trkpt><trkpt lat="42.423123024020924" lon="-8.051675175145887"><ele>427.0</ele><time>2026-04-03T09:47:17.999Z</time></trkpt><trkpt lat="42.42321853321174" lon="-8.051791576575859"><ele>427.0</ele><time>2026-04-03T09:47:18.999Z</time></trkpt><trkpt lat="42.42331035614358" lon="-8.051917763552"><ele>425.5</ele><time>2026-04-03T09:47:19.999Z</time></trkpt><trkpt lat="42.423394530023344" lon="-8.052050004153896"><ele>424.0</ele><time>2026-04-03T09:47:20.999Z</time></trkpt><trkpt lat="42.423469372741714" lon="-8.052196967075421"><ele>422.5</ele><time>2026-04-03T09:47:21.999Z</time></trkpt><trkpt lat="42.423525229314436" lon="-8.05235412931148"><ele>421.0</ele><time>2026-04-03T09:47:22.999Z</time></trkpt><trkpt lat="42.42356216308026" lon="-8.052522045330686"><ele>420.0</ele><time>2026-04-03T09:47:23.999Z</time></trkpt><trkpt lat="42.423592993085585" lon="-8.05270303942666"><ele>419.0</ele><time>2026-04-03T09:47:24.999Z</time></trkpt><trkpt lat="42.42359551006859" lon="-8.052864012205601"><ele>418.0</ele><time>2026-04-03T09:47:25.999Z</time></trkpt><trkpt lat="42.42360647475047" lon="-8.053032562075899"><ele>417.0</ele><time>2026-04-03T09:47:26.999Z</time></trkpt><trkpt lat="42.423621143469994" lon="-8.053200350094237"><ele>417.25</ele><time>2026-04-03T09:47:27.999Z</time></trkpt><trkpt lat="42.42363831080506" lon="-8.053362810391738"><ele>417.5</ele><time>2026-04-03T09:47:28.999Z</time></trkpt><trkpt lat="42.42366262748073" lon="-8.053523739320084"><ele>417.75</ele><time>2026-04-03T09:47:29.999Z</time></trkpt><trkpt lat="42.42370757332567" lon="-8.053687125652676"><ele>418.0</ele><time>2026-04-03T09:47:30.999Z</time></trkpt><trkpt lat="42.42376158189141" lon="-8.053839889723129"><ele>418.75</ele><time>2026-04-03T09:47:31.999Z</time></trkpt><trkpt lat="42.42382511378965" lon="-8.053996262240881"><ele>419.5</ele><time>2026-04-03T09:47:32.999Z</time></trkpt><trkpt lat="42.42389788454624" lon="-8.054166497141322"><ele>420.25</ele><time>2026-04-03T09:47:33.999Z</time></trkpt><trkpt lat="42.42397475052395" lon="-8.054333791762426"><ele>421.0</ele><time>2026-04-03T09:47:34.999Z</time></trkpt><trkpt lat="42.4240474183019" lon="-8.054506319718785"><ele>421.0</ele><time>2026-04-03T09:47:35.999Z</time></trkpt><trkpt lat="42.424119103189874" lon="-8.05467590878683"><ele>421.0</ele><time>2026-04-03T09:47:36.999Z</time></trkpt><trkpt lat="42.424189582481965" lon="-8.054842833389433"><ele>421.0</ele><time>2026-04-03T09:47:37.999Z</time></trkpt><trkpt lat="42.42426052921688" lon="-8.055019587031714"><ele>421.0</ele><time>2026-04-03T09:47:38.999Z</time></trkpt><trkpt lat="42.4243309936593" lon="-8.055183425899259"><ele>420.25</ele><time>2026-04-03T09:47:39.999Z</time></trkpt><trkpt lat="42.424392892515684" lon="-8.055349573568092"><ele>419.5</ele><time>2026-04-03T09:47:40.999Z</time></trkpt><trkpt lat="42.42445334338781" lon="-8.055513339137757"><ele>418.75</ele><time>2026-04-03T09:47:41.999Z</time></trkpt><trkpt lat="42.4245083164265" lon="-8.055669478422837"><ele>418.0</ele><time>2026-04-03T09:47:42.999Z</time></trkpt><trkpt lat="42.4245693723632" lon="-8.055840403716347"><ele>418.25</ele><time>2026-04-03T09:47:43.999Z</time></trkpt><trkpt lat="42.42463095001046" lon="-8.056009409469151"><ele>418.5</ele><time>2026-04-03T09:47:44.999Z</time></trkpt><trkpt lat="42.42468915702011" lon="-8.056181852186047"><ele>418.75</ele><time>2026-04-03T09:47:45.999Z</time></trkpt><trkpt lat="42.424738820705024" lon="-8.056343635943163"><ele>419.0</ele><time>2026-04-03T09:47:46.999Z</time></trkpt><trkpt lat="42.424784837577086" lon="-8.056493703505616"><ele>418.4</ele><time>2026-04-03T09:47:47.999Z</time></trkpt><trkpt lat="42.424833103713375" lon="-8.056634594812"><ele>417.79999999999995</ele><time>2026-04-03T09:47:48.999Z</time></trkpt><trkpt lat="42.42488306787334" lon="-8.056759437942125"><ele>417.20000000000005</ele><time>2026-04-03T09:47:49.999Z</time></trkpt><trkpt lat="42.42493338152807" lon="-8.05688971985344"><ele>416.6</ele><time>2026-04-03T09:47:50.999Z</time></trkpt><trkpt lat="42.42498421816696" lon="-8.057010333643698"><ele>416.0</ele><time>2026-04-03T09:47:51.999Z</time></trkpt><trkpt lat="42.425035628870965" lon="-8.057118468441388"><ele>416.0</ele><time>2026-04-03T09:47:52.999Z</time></trkpt><trkpt lat="42.425082108453324" lon="-8.057230450928056"><ele>416.0</ele><time>2026-04-03T09:47:53.999Z</time></trkpt><trkpt lat="42.42513169625778" lon="-8.057349307454075"><ele>416.0</ele><time>2026-04-03T09:47:54.999Z</time></trkpt><trkpt lat="42.42518176118187" lon="-8.057461865091536"><ele>416.0</ele><time>2026-04-03T09:47:55.999Z</time></trkpt><trkpt lat="42.42523291309907" lon="-8.05757459862605"><ele>416.0</ele><time>2026-04-03T09:47:56.999Z</time></trkpt><trkpt lat="42.42528584705157" lon="-8.057664018699796"><ele>415.20000000000005</ele><time>2026-04-03T09:47:57.999Z</time></trkpt><trkpt lat="42.42534688541191" lon="-8.057732546506662"><ele>414.40000000000003</ele><time>2026-04-03T09:47:58.999Z</time></trkpt><trkpt lat="42.42541330072835" lon="-8.05777584481476"><ele>413.6</ele><time>2026-04-03T09:47:59.999Z</time></trkpt><trkpt lat="42.42553962548159" lon="-8.057811630387123"><ele>412.8</ele><time>2026-04-03T09:48:01.999Z</time></trkpt><trkpt lat="42.42564048199094" lon="-8.057828098000615"><ele>412.0</ele><time>2026-04-03T09:48:03.999Z</time></trkpt><trkpt lat="42.42573548395899" lon="-8.057867865382063"><ele>411.25</ele><time>2026-04-03T09:48:05.999Z</time></trkpt><trkpt lat="42.42578565421005" lon="-8.0579406970046"><ele>410.5</ele><time>2026-04-03T09:48:08.998Z</time></trkpt><trkpt lat="42.425726335843706" lon="-8.058279975103755"><ele>409.75</ele><time>2026-04-03T09:51:20.999Z</time></trkpt><trkpt lat="42.425794159077206" lon="-8.058365676858845"><ele>409.0</ele><time>2026-04-03T09:51:22.999Z</time></trkpt><trkpt lat="42.425721204629994" lon="-8.058319459454697"><ele>408.6</ele><time>2026-04-03T09:51:23.999Z</time></trkpt><trkpt lat="42.425723883343814" lon="-8.058418225192094"><ele>408.2</ele><time>2026-04-03T09:51:32.999Z</time></trkpt><trkpt lat="42.42570779744849" lon="-8.058526226504755"><ele>407.8</ele><time>2026-04-03T09:51:36.999Z</time></trkpt><trkpt lat="42.42575131599563" lon="-8.058692506075856"><ele>407.40000000000003</ele><time>2026-04-03T09:51:38.999Z</time></trkpt><trkpt lat="42.42578788115006" lon="-8.058768472992366"><ele>407.0</ele><time>2026-04-03T09:51:39.999Z</time></trkpt><trkpt lat="42.42585229641145" lon="-8.058919283149221"><ele>407.0</ele><time>2026-04-03T09:51:41.999Z</time></trkpt><trkpt lat="42.4258909598106" lon="-8.059033196389274"><ele>407.0</ele><time>2026-04-03T09:51:42.999Z</time></trkpt><trkpt lat="42.425940639505036" lon="-8.059154099572819"><ele>407.0</ele><time>2026-04-03T09:51:43.999Z</time></trkpt><trkpt lat="42.42599931667161" lon="-8.059279426440865"><ele>407.0</ele><time>2026-04-03T09:51:44.999Z</time></trkpt><trkpt lat="42.4260646989595" lon="-8.05940709921028"><ele>407.0</ele><time>2026-04-03T09:51:45.999Z</time></trkpt><trkpt lat="42.42613443754359" lon="-8.05956216709935"><ele>407.25</ele><time>2026-04-03T09:51:46.999Z</time></trkpt><trkpt lat="42.42620342781741" lon="-8.05971484404545"><ele>407.5</ele><time>2026-04-03T09:51:47.999Z</time></trkpt><trkpt lat="42.426275319057915" lon="-8.059868908463702"><ele>407.75</ele><time>2026-04-03T09:51:48.999Z</time></trkpt><trkpt lat="42.42634914714095" lon="-8.060028415369521"><ele>408.0</ele><time>2026-04-03T09:51:49.999Z</time></trkpt><trkpt lat="42.42641861811646" lon="-8.060183637482359"><ele>406.33333333333337</ele><time>2026-04-03T09:51:50.999Z</time></trkpt><trkpt lat="42.42649381356369" lon="-8.060368335574866"><ele>404.6666666666667</ele><time>2026-04-03T09:51:51.999Z</time></trkpt><trkpt lat="42.42657844820511" lon="-8.06054008252292"><ele>403.0</ele><time>2026-04-03T09:51:52.999Z</time></trkpt><trkpt lat="42.4266561191994" lon="-8.060705364069257"><ele>401.75</ele><time>2026-04-03T09:51:53.999Z</time></trkpt><trkpt lat="42.42673824476045" lon="-8.060878651050995"><ele>400.5</ele><time>2026-04-03T09:51:54.999Z</time></trkpt><trkpt lat="42.42681985484" lon="-8.061051814526552"><ele>399.25</ele><time>2026-04-03T09:51:55.999Z</time></trkpt><trkpt lat="42.42689413458431" lon="-8.061218326461644"><ele>398.0</ele><time>2026-04-03T09:51:56.999Z</time></trkpt><trkpt lat="42.4269612246842" lon="-8.06137001339852"><ele>398.0</ele><time>2026-04-03T09:51:57.999Z</time></trkpt><trkpt lat="42.42702798986285" lon="-8.061525879390656"><ele>398.0</ele><time>2026-04-03T09:51:58.999Z</time></trkpt><trkpt lat="42.42709736666799" lon="-8.06166963367743"><ele>398.0</ele><time>2026-04-03T09:51:59.999Z</time></trkpt><trkpt lat="42.427164886839265" lon="-8.061803137087585"><ele>398.0</ele><time>2026-04-03T09:52:00.999Z</time></trkpt><trkpt lat="42.427238036424825" lon="-8.061939525977396"><ele>396.0</ele><time>2026-04-03T09:52:01.999Z</time></trkpt><trkpt lat="42.42731323192175" lon="-8.06207482181752"><ele>394.0</ele><time>2026-04-03T09:52:02.999Z</time></trkpt><trkpt lat="42.42738720124472" lon="-8.062203105808836"><ele>392.0</ele><time>2026-04-03T09:52:03.999Z</time></trkpt><trkpt lat="42.427467321851715" lon="-8.062320134280371"><ele>390.0</ele><time>2026-04-03T09:52:04.999Z</time></trkpt><trkpt lat="42.42753994840877" lon="-8.06243516024075"><ele>390.0</ele><time>2026-04-03T09:52:05.999Z</time></trkpt><trkpt lat="42.42761588563114" lon="-8.06253499450492"><ele>390.0</ele><time>2026-04-03T09:52:06.999Z</time></trkpt><trkpt lat="42.42769216271822" lon="-8.062633730198696"><ele>390.0</ele><time>2026-04-03T09:52:07.999Z</time></trkpt><trkpt lat="42.42776315077338" lon="-8.06272463233311"><ele>390.0</ele><time>2026-04-03T09:52:08.999Z</time></trkpt><trkpt lat="42.427833728402646" lon="-8.062817212742774"><ele>390.0</ele><time>2026-04-03T09:52:09.999Z</time></trkpt><trkpt lat="42.42790237545346" lon="-8.062898486812882"><ele>390.0</ele><time>2026-04-03T09:52:10.999Z</time></trkpt><trkpt lat="42.42797590515785" lon="-8.062934587039994"><ele>390.0</ele><time>2026-04-03T09:52:11.999Z</time></trkpt><trkpt lat="42.428105865170544" lon="-8.062891359840249"><ele>390.0</ele><time>2026-04-03T09:52:13.999Z</time></trkpt><trkpt lat="42.42818575598218" lon="-8.06286497859954"><ele>390.0</ele><time>2026-04-03T09:52:14.999Z</time></trkpt><trkpt lat="42.42826447074318" lon="-8.06288457136008"><ele>390.0</ele><time>2026-04-03T09:52:15.999Z</time></trkpt><trkpt lat="42.42833779971413" lon="-8.062945246799444"><ele>390.0</ele><time>2026-04-03T09:52:16.999Z</time></trkpt><trkpt lat="42.42839090657943" lon="-8.063033763780004"><ele>390.0</ele><time>2026-04-03T09:52:17.999Z</time></trkpt><trkpt lat="42.428432689496006" lon="-8.06314712604446"><ele>390.0</ele><time>2026-04-03T09:52:18.999Z</time></trkpt><trkpt lat="42.428460850800356" lon="-8.063269085946144"><ele>390.0</ele><time>2026-04-03T09:52:19.999Z</time></trkpt><trkpt lat="42.42848432122399" lon="-8.063393798755428"><ele>390.0</ele><time>2026-04-03T09:52:20.999Z</time></trkpt><trkpt lat="42.428521367898284" lon="-8.063519570239349"><ele>389.8</ele><time>2026-04-03T09:52:21.999Z</time></trkpt><trkpt lat="42.42857092728822" lon="-8.063644476415671"><ele>389.6</ele><time>2026-04-03T09:52:22.999Z</time></trkpt><trkpt lat="42.42862696106379" lon="-8.063764981888184"><ele>389.4</ele><time>2026-04-03T09:52:23.999Z</time></trkpt><trkpt lat="42.428676935811914" lon="-8.063882579839031"><ele>389.2</ele><time>2026-04-03T09:52:24.999Z</time></trkpt><trkpt lat="42.42873676266876" lon="-8.064001508464363"><ele>389.0</ele><time>2026-04-03T09:52:25.999Z</time></trkpt><trkpt lat="42.428800401616165" lon="-8.064110464949218"><ele>390.0</ele><time>2026-04-03T09:52:26.999Z</time></trkpt><trkpt lat="42.42885155448893" lon="-8.064221869775213"><ele>391.0</ele><time>2026-04-03T09:52:27.999Z</time></trkpt><trkpt lat="42.42889927063736" lon="-8.064323961905984"><ele>392.0</ele><time>2026-04-03T09:52:28.999Z</time></trkpt><trkpt lat="42.42895554787798" lon="-8.064439545978981"><ele>393.0</ele><time>2026-04-03T09:52:29.999Z</time></trkpt><trkpt lat="42.42900534307132" lon="-8.064561318900925"><ele>394.0</ele><time>2026-04-03T09:52:30.998Z</time></trkpt><trkpt lat="42.4290607749163" lon="-8.06467906334332"><ele>394.0</ele><time>2026-04-03T09:52:31.998Z</time></trkpt><trkpt lat="42.42911233422324" lon="-8.064798200590083"><ele>394.0</ele><time>2026-04-03T09:52:32.998Z</time></trkpt><trkpt lat="42.42916206659331" lon="-8.064913180178353"><ele>394.0</ele><time>2026-04-03T09:52:33.998Z</time></trkpt><trkpt lat="42.4292236364662" lon="-8.065036612532657"><ele>394.0</ele><time>2026-04-03T09:52:34.998Z</time></trkpt><trkpt lat="42.42927085969959" lon="-8.065149480929392"><ele>394.0</ele><time>2026-04-03T09:52:35.998Z</time></trkpt><trkpt lat="42.42932441982657" lon="-8.065266545023526"><ele>393.6</ele><time>2026-04-03T09:52:36.998Z</time></trkpt><trkpt lat="42.429381268338545" lon="-8.065389388373362"><ele>393.2</ele><time>2026-04-03T09:52:37.998Z</time></trkpt><trkpt lat="42.42943505865231" lon="-8.065506847230024"><ele>392.8</ele><time>2026-04-03T09:52:39Z</time></trkpt><trkpt lat="42.429485942631615" lon="-8.065627970301112"><ele>392.40000000000003</ele><time>2026-04-03T09:52:40Z</time></trkpt><trkpt lat="42.42954116107975" lon="-8.065751680466233"><ele>392.0</ele><time>2026-04-03T09:52:41Z</time></trkpt><trkpt lat="42.42959758507614" lon="-8.06587282108076"><ele>392.8</ele><time>2026-04-03T09:52:42Z</time></trkpt><trkpt lat="42.429653984749635" lon="-8.06599881539115"><ele>393.6</ele><time>2026-04-03T09:52:43Z</time></trkpt><trkpt lat="42.429708666773614" lon="-8.066119340623668"><ele>394.40000000000003</ele><time>2026-04-03T09:52:44Z</time></trkpt><trkpt lat="42.429769909865925" lon="-8.066238357167476"><ele>395.20000000000005</ele><time>2026-04-03T09:52:45Z</time></trkpt><trkpt lat="42.42981992161895" lon="-8.066362140342344"><ele>396.0</ele><time>2026-04-03T09:52:46Z</time></trkpt><trkpt lat="42.42987475357376" lon="-8.066461027214334"><ele>396.0</ele><time>2026-04-03T09:52:47Z</time></trkpt><trkpt lat="42.42992396433108" lon="-8.066604290892801"><ele>396.0</ele><time>2026-04-03T09:52:48Z</time></trkpt><trkpt lat="42.42998037729459" lon="-8.066732522032721"><ele>396.0</ele><time>2026-04-03T09:52:49Z</time></trkpt><trkpt lat="42.43003965957487" lon="-8.066861365645433"><ele>396.0</ele><time>2026-04-03T09:52:50Z</time></trkpt><trkpt lat="42.43010040311706" lon="-8.066993128453467"><ele>395.5</ele><time>2026-04-03T09:52:51Z</time></trkpt><trkpt lat="42.430156628403246" lon="-8.067129904340442"><ele>395.0</ele><time>2026-04-03T09:52:52Z</time></trkpt><trkpt lat="42.43021689378709" lon="-8.067269105470892"><ele>394.5</ele><time>2026-04-03T09:52:53Z</time></trkpt><trkpt lat="42.430278473686194" lon="-8.067404505743003"><ele>394.0</ele><time>2026-04-03T09:52:54Z</time></trkpt><trkpt lat="42.43034248545143" lon="-8.067541873823663"><ele>394.5</ele><time>2026-04-03T09:52:55Z</time></trkpt><trkpt lat="42.43040812335064" lon="-8.067678501481819"><ele>395.0</ele><time>2026-04-03T09:52:56Z</time></trkpt><trkpt lat="42.430469389038365" lon="-8.067821086505695"><ele>395.5</ele><time>2026-04-03T09:52:57Z</time></trkpt><trkpt lat="42.430528849347716" lon="-8.06795644315126"><ele>396.0</ele><time>2026-04-03T09:52:58Z</time></trkpt><trkpt lat="42.43058767415484" lon="-8.068079117946727"><ele>396.0</ele><time>2026-04-03T09:52:59Z</time></trkpt><trkpt lat="42.430645057949114" lon="-8.068215526763298"><ele>396.0</ele><time>2026-04-03T09:53:00Z</time></trkpt><trkpt lat="42.43070699916464" lon="-8.068340891077218"><ele>396.0</ele><time>2026-04-03T09:53:01Z</time></trkpt><trkpt lat="42.430757916703264" lon="-8.06845617581068"><ele>396.0</ele><time>2026-04-03T09:53:02Z</time></trkpt><trkpt lat="42.43080017639972" lon="-8.068539003569438"><ele>396.0</ele><time>2026-04-03T09:53:03Z</time></trkpt><trkpt lat="42.430832865964575" lon="-8.068640327277862"><ele>396.0</ele><time>2026-04-03T09:53:04Z</time></trkpt><trkpt lat="42.43090144266553" lon="-8.068771242290778"><ele>396.0</ele><time>2026-04-03T09:53:06Z</time></trkpt><trkpt lat="42.43095638334972" lon="-8.068890836243492"><ele>396.0</ele><time>2026-04-03T09:53:08Z</time></trkpt><trkpt lat="42.43101751252146" lon="-8.06903082192361"><ele>396.0</ele><time>2026-04-03T09:53:10Z</time></trkpt><trkpt lat="42.43108278754508" lon="-8.06917366771024"><ele>396.0</ele><time>2026-04-03T09:53:12Z</time></trkpt><trkpt lat="42.43111578074194" lon="-8.069249486704967"><ele>396.0</ele><time>2026-04-03T09:53:12.999Z</time></trkpt><trkpt lat="42.43115190525037" lon="-8.069328293773866"><ele>396.0</ele><time>2026-04-03T09:53:13.999Z</time></trkpt><trkpt lat="42.431186388819754" lon="-8.069407513431717"><ele>396.0</ele><time>2026-04-03T09:53:14.999Z</time></trkpt><trkpt lat="42.431223085929915" lon="-8.06948817048588"><ele>396.0</ele><time>2026-04-03T09:53:15.999Z</time></trkpt><trkpt lat="42.43126104457829" lon="-8.069573935908156"><ele>396.0</ele><time>2026-04-03T09:53:16.999Z</time></trkpt><trkpt lat="42.4312941573423" lon="-8.06965957606181"><ele>396.0</ele><time>2026-04-03T09:53:17.999Z</time></trkpt><trkpt lat="42.431334643692296" lon="-8.069747345768535"><ele>396.0</ele><time>2026-04-03T09:53:18.999Z</time></trkpt><trkpt lat="42.43137850894061" lon="-8.0698434189037"><ele>396.0</ele><time>2026-04-03T09:53:19.999Z</time></trkpt><trkpt lat="42.43142359981294" lon="-8.069946119213455"><ele>396.0</ele><time>2026-04-03T09:53:20.999Z</time></trkpt><trkpt lat="42.431469338346794" lon="-8.070052637688804"><ele>396.0</ele><time>2026-04-03T09:53:21.999Z</time></trkpt><trkpt lat="42.431515076763546" lon="-8.070160814801717"><ele>396.0</ele><time>2026-04-03T09:53:22.999Z</time></trkpt><trkpt lat="42.431566909583736" lon="-8.070275095160843"><ele>396.0</ele><time>2026-04-03T09:53:23.999Z</time></trkpt><trkpt lat="42.431621538407825" lon="-8.070391038284816"><ele>396.0</ele><time>2026-04-03T09:53:24.999Z</time></trkpt><trkpt lat="42.43168467526404" lon="-8.070501402962387"><ele>396.0</ele><time>2026-04-03T09:53:25.999Z</time></trkpt><trkpt lat="42.43172501312563" lon="-8.0706296351266"><ele>396.0</ele><time>2026-04-03T09:53:26.999Z</time></trkpt><trkpt lat="42.43178303143672" lon="-8.070742633087628"><ele>396.0</ele><time>2026-04-03T09:53:27.999Z</time></trkpt><trkpt lat="42.43182807052692" lon="-8.070865540959934"><ele>396.0</ele><time>2026-04-03T09:53:28.999Z</time></trkpt><trkpt lat="42.43187923892552" lon="-8.070977288619694"><ele>396.0</ele><time>2026-04-03T09:53:29.999Z</time></trkpt><trkpt lat="42.43192433788131" lon="-8.071083710652502"><ele>396.0</ele><time>2026-04-03T09:53:30.999Z</time></trkpt><trkpt lat="42.43197536377281" lon="-8.071179167669928"><ele>396.0</ele><time>2026-04-03T09:53:31.999Z</time></trkpt><trkpt lat="42.432014725772675" lon="-8.071269857437814"><ele>396.0</ele><time>2026-04-03T09:53:32.999Z</time></trkpt><trkpt lat="42.432054275185656" lon="-8.071347875049014"><ele>396.0</ele><time>2026-04-03T09:53:33.999Z</time></trkpt><trkpt lat="42.43210953188672" lon="-8.071467630920006"><ele>396.0</ele><time>2026-04-03T09:53:35.999Z</time></trkpt><trkpt lat="42.43215111226321" lon="-8.07155990619257"><ele>396.0</ele><time>2026-04-03T09:53:37.999Z</time></trkpt><trkpt lat="42.432225322575164" lon="-8.071712421340395"><ele>396.0</ele><time>2026-04-03T09:53:39.999Z</time></trkpt><trkpt lat="42.43227308370958" lon="-8.071813161217822"><ele>396.0</ele><time>2026-04-03T09:53:40.999Z</time></trkpt><trkpt lat="42.432307514301066" lon="-8.071900081260035"><ele>396.0</ele><time>2026-04-03T09:53:41.999Z</time></trkpt><trkpt lat="42.43235332752722" lon="-8.072003579131076"><ele>396.4</ele><time>2026-04-03T09:53:42.999Z</time></trkpt><trkpt lat="42.43240327755202" lon="-8.072109272391291"><ele>396.8</ele><time>2026-04-03T09:53:43.999Z</time></trkpt><trkpt lat="42.432444169691735" lon="-8.072220993948742"><ele>397.2</ele><time>2026-04-03T09:53:44.999Z</time></trkpt><trkpt lat="42.43249523925943" lon="-8.072334140404836"><ele>397.59999999999997</ele><time>2026-04-03T09:53:45.999Z</time></trkpt><trkpt lat="42.432543767530156" lon="-8.072447595718652"><ele>398.0</ele><time>2026-04-03T09:53:46.999Z</time></trkpt><trkpt lat="42.43260352147342" lon="-8.072561638150512"><ele>398.4</ele><time>2026-04-03T09:53:47.999Z</time></trkpt><trkpt lat="42.43265693668276" lon="-8.072683354059157"><ele>398.79999999999995</ele><time>2026-04-03T09:53:48.999Z</time></trkpt><trkpt lat="42.432703084825064" lon="-8.072796389851813"><ele>399.2</ele><time>2026-04-03T09:53:49.999Z</time></trkpt><trkpt lat="42.43275229291037" lon="-8.07292491158813"><ele>399.6</ele><time>2026-04-03T09:53:50.999Z</time></trkpt><trkpt lat="42.4328100271474" lon="-8.073048992785514"><ele>400.0</ele><time>2026-04-03T09:53:51.999Z</time></trkpt><trkpt lat="42.43287358404898" lon="-8.073176142232452"><ele>400.5</ele><time>2026-04-03T09:53:52.999Z</time></trkpt><trkpt lat="42.43292454471685" lon="-8.0733089305624"><ele>401.0</ele><time>2026-04-03T09:53:53.999Z</time></trkpt><trkpt lat="42.432987531790225" lon="-8.073441729529117"><ele>401.5</ele><time>2026-04-03T09:53:54.999Z</time></trkpt><trkpt lat="42.433043624368935" lon="-8.07356860617563"><ele>402.0</ele><time>2026-04-03T09:53:55.999Z</time></trkpt><trkpt lat="42.43310327590148" lon="-8.07372924552955"><ele>402.25</ele><time>2026-04-03T09:53:56.999Z</time></trkpt><trkpt lat="42.43317794612014" lon="-8.073880960306683"><ele>402.5</ele><time>2026-04-03T09:53:57.999Z</time></trkpt><trkpt lat="42.43324292260361" lon="-8.07401932519849"><ele>402.75</ele><time>2026-04-03T09:53:58.999Z</time></trkpt><trkpt lat="42.43330374079223" lon="-8.074158548666057"><ele>403.0</ele><time>2026-04-03T09:53:59.999Z</time></trkpt><trkpt lat="42.433364632316334" lon="-8.074278626538893"><ele>403.83333333333337</ele><time>2026-04-03T09:54:00.999Z</time></trkpt><trkpt lat="42.433417993808874" lon="-8.074394117001683"><ele>404.6666666666667</ele><time>2026-04-03T09:54:01.999Z</time></trkpt><trkpt lat="42.43346325035665" lon="-8.074496830301317"><ele>405.5</ele><time>2026-04-03T09:54:02.999Z</time></trkpt><trkpt lat="42.43350025850072" lon="-8.074574186563037"><ele>406.33333333333337</ele><time>2026-04-03T09:54:03.999Z</time></trkpt><trkpt lat="42.433545164104416" lon="-8.074678293353312"><ele>407.1666666666667</ele><time>2026-04-03T09:54:05.999Z</time></trkpt><trkpt lat="42.433588567677226" lon="-8.07478486275639"><ele>408.0</ele><time>2026-04-03T09:54:08.999Z</time></trkpt><trkpt lat="42.43363543807137" lon="-8.074895290664257"><ele>408.0</ele><time>2026-04-03T09:54:37.998Z</time></trkpt><trkpt lat="42.4336829661371" lon="-8.07498697258803"><ele>408.0</ele><time>2026-04-03T09:54:38.998Z</time></trkpt><trkpt lat="42.433732872879695" lon="-8.075086419214687"><ele>408.0</ele><time>2026-04-03T09:54:39.998Z</time></trkpt><trkpt lat="42.43378077904043" lon="-8.075211493320069"><ele>408.0</ele><time>2026-04-03T09:54:40.998Z</time></trkpt><trkpt lat="42.43385275766178" lon="-8.075355338361915"><ele>408.0</ele><time>2026-04-03T09:54:41.998Z</time></trkpt><trkpt lat="42.43392317003153" lon="-8.075502141923602"><ele>408.0</ele><time>2026-04-03T09:54:42.998Z</time></trkpt><trkpt lat="42.43398006306998" lon="-8.075642340091449"><ele>408.0</ele><time>2026-04-03T09:54:43.998Z</time></trkpt><trkpt lat="42.4340457998978" lon="-8.075784074685709"><ele>408.0</ele><time>2026-04-03T09:54:44.999Z</time></trkpt><trkpt lat="42.43410717338214" lon="-8.075934069549897"><ele>408.0</ele><time>2026-04-03T09:54:45.999Z</time></trkpt><trkpt lat="42.43416842610921" lon="-8.076070691907086"><ele>408.0</ele><time>2026-04-03T09:54:46.999Z</time></trkpt><trkpt lat="42.43423509722819" lon="-8.07620201932771"><ele>408.0</ele><time>2026-04-03T09:54:47.999Z</time></trkpt><trkpt lat="42.43429710703711" lon="-8.076341816742906"><ele>408.0</ele><time>2026-04-03T09:54:48.999Z</time></trkpt><trkpt lat="42.434356804521514" lon="-8.076463723835388"><ele>408.0</ele><time>2026-04-03T09:54:49.999Z</time></trkpt><trkpt lat="42.43441629419798" lon="-8.076580582725686"><ele>407.79999999999995</ele><time>2026-04-03T09:54:50.999Z</time></trkpt><trkpt lat="42.43447503368431" lon="-8.076697807218599"><ele>407.6</ele><time>2026-04-03T09:54:51.999Z</time></trkpt><trkpt lat="42.4345268856714" lon="-8.0768187369545"><ele>407.4</ele><time>2026-04-03T09:54:52.999Z</time></trkpt><trkpt lat="42.43457798919648" lon="-8.076930686870947"><ele>407.20000000000005</ele><time>2026-04-03T09:54:53.999Z</time></trkpt><trkpt lat="42.43463543850885" lon="-8.077046217137166"><ele>407.0</ele><time>2026-04-03T09:54:54.999Z</time></trkpt><trkpt lat="42.43469012768812" lon="-8.077149612855553"><ele>406.49999999999994</ele><time>2026-04-03T09:54:55.999Z</time></trkpt><trkpt lat="42.43475278464392" lon="-8.077244448276817"><ele>406.0</ele><time>2026-04-03T09:54:56.999Z</time></trkpt><trkpt lat="42.434808654138315" lon="-8.077339194213923"><ele>405.5</ele><time>2026-04-03T09:54:57.999Z</time></trkpt><trkpt lat="42.434860280758826" lon="-8.077433894359146"><ele>405.0</ele><time>2026-04-03T09:54:58.999Z</time></trkpt><trkpt lat="42.43491185010015" lon="-8.077506598334066"><ele>404.49999999999994</ele><time>2026-04-03T09:54:59.999Z</time></trkpt><trkpt lat="42.4349690548979" lon="-8.077576719765336"><ele>404.0</ele><time>2026-04-03T09:55:00.999Z</time></trkpt><trkpt lat="42.43500644390676" lon="-8.077653168782986"><ele>403.99999999999994</ele><time>2026-04-03T09:55:01.999Z</time></trkpt><trkpt lat="42.43501019863426" lon="-8.077745798624536"><ele>404.0</ele><time>2026-04-03T09:55:02.999Z</time></trkpt><trkpt lat="42.43498364109567" lon="-8.077840294976797"><ele>404.0</ele><time>2026-04-03T09:55:03.999Z</time></trkpt><trkpt lat="42.43493416305249" lon="-8.07791249462865"><ele>404.0</ele><time>2026-04-03T09:55:04.999Z</time></trkpt><trkpt lat="42.434875170807416" lon="-8.077993841457557"><ele>403.99999999999994</ele><time>2026-04-03T09:55:05.999Z</time></trkpt><trkpt lat="42.43483617299751" lon="-8.078070773563836"><ele>404.0</ele><time>2026-04-03T09:55:06.999Z</time></trkpt><trkpt lat="42.434825460926675" lon="-8.078189372423484"><ele>403.79999999999995</ele><time>2026-04-03T09:55:07.999Z</time></trkpt><trkpt lat="42.434799963571976" lon="-8.078317816841466"><ele>403.59999999999997</ele><time>2026-04-03T09:55:08.999Z</time></trkpt><trkpt lat="42.434768601638474" lon="-8.078460250958088"><ele>403.4</ele><time>2026-04-03T09:55:09.999Z</time></trkpt><trkpt lat="42.434738086974555" lon="-8.078589923175297"><ele>403.2</ele><time>2026-04-03T09:55:10.999Z</time></trkpt><trkpt lat="42.434702818938234" lon="-8.078735891240806"><ele>403.0</ele><time>2026-04-03T09:55:11.999Z</time></trkpt><trkpt lat="42.43466466317926" lon="-8.078881133134717"><ele>402.25</ele><time>2026-04-03T09:55:12.999Z</time></trkpt><trkpt lat="42.43461641354717" lon="-8.07903104431603"><ele>401.5</ele><time>2026-04-03T09:55:13.999Z</time></trkpt><trkpt lat="42.43456217693054" lon="-8.079171970621934"><ele>400.75</ele><time>2026-04-03T09:55:14.999Z</time></trkpt><trkpt lat="42.4344939362776" lon="-8.079322651152689"><ele>400.0</ele><time>2026-04-03T09:55:15.999Z</time></trkpt><trkpt lat="42.43442823670127" lon="-8.079445641301376"><ele>398.5</ele><time>2026-04-03T09:55:16.999Z</time></trkpt><trkpt lat="42.43434728211007" lon="-8.07957220383053"><ele>397.0</ele><time>2026-04-03T09:55:17.999Z</time></trkpt><trkpt lat="42.43426050770674" lon="-8.07968167554882"><ele>395.5</ele><time>2026-04-03T09:55:18.999Z</time></trkpt><trkpt lat="42.434163861822995" lon="-8.079786434072282"><ele>394.0</ele><time>2026-04-03T09:55:19.999Z</time></trkpt><trkpt lat="42.43406934363915" lon="-8.079875532260042"><ele>393.2</ele><time>2026-04-03T09:55:20.999Z</time></trkpt><trkpt lat="42.43397114531904" lon="-8.079955519142533"><ele>392.4</ele><time>2026-04-03T09:55:21.999Z</time></trkpt><trkpt lat="42.43387520520676" lon="-8.080013332277655"><ele>391.6</ele><time>2026-04-03T09:55:22.999Z</time></trkpt><trkpt lat="42.433779728793915" lon="-8.080038123034862"><ele>390.8</ele><time>2026-04-03T09:55:23.999Z</time></trkpt><trkpt lat="42.433682602877916" lon="-8.080083046697933"><ele>390.0</ele><time>2026-04-03T09:55:24.999Z</time></trkpt><trkpt lat="42.433595000549126" lon="-8.080112532149615"><ele>389.8</ele><time>2026-04-03T09:55:25.999Z</time></trkpt><trkpt lat="42.43348366025214" lon="-8.080135954831885"><ele>389.6</ele><time>2026-04-03T09:55:26.999Z</time></trkpt><trkpt lat="42.43337746843313" lon="-8.080165204700494"><ele>389.4</ele><time>2026-04-03T09:55:27.999Z</time></trkpt><trkpt lat="42.43326892225365" lon="-8.080195711556392"><ele>389.2</ele><time>2026-04-03T09:55:28.999Z</time></trkpt><trkpt lat="42.43316219363514" lon="-8.08024866073646"><ele>389.0</ele><time>2026-04-03T09:55:29.999Z</time></trkpt><trkpt lat="42.43305597146983" lon="-8.080279962919578"><ele>389.0</ele><time>2026-04-03T09:55:30.999Z</time></trkpt><trkpt lat="42.43294363368654" lon="-8.080311969674922"><ele>389.0</ele><time>2026-04-03T09:55:31.999Z</time></trkpt><trkpt lat="42.43283533834618" lon="-8.080337598777103"><ele>389.0</ele><time>2026-04-03T09:55:32.999Z</time></trkpt><trkpt lat="42.432727820097845" lon="-8.080360347382467"><ele>389.0</ele><time>2026-04-03T09:55:33.999Z</time></trkpt><trkpt lat="42.43261864073843" lon="-8.08035955274264"><ele>389.0</ele><time>2026-04-03T09:55:34.999Z</time></trkpt><trkpt lat="42.432515639576245" lon="-8.0803824235552"><ele>389.0</ele><time>2026-04-03T09:55:35.999Z</time></trkpt><trkpt lat="42.43241069946199" lon="-8.080399641461511"><ele>389.0</ele><time>2026-04-03T09:55:36.999Z</time></trkpt><trkpt lat="42.43231175074545" lon="-8.080421858646975"><ele>389.0</ele><time>2026-04-03T09:55:37.999Z</time></trkpt><trkpt lat="42.432219034367535" lon="-8.080447547562512"><ele>389.0</ele><time>2026-04-03T09:55:38.999Z</time></trkpt><trkpt lat="42.43213724739742" lon="-8.080482937981289"><ele>389.0</ele><time>2026-04-03T09:55:39.999Z</time></trkpt><trkpt lat="42.43205326084072" lon="-8.080534243084482"><ele>389.16666666666663</ele><time>2026-04-03T09:55:40.999Z</time></trkpt><trkpt lat="42.43198095222776" lon="-8.080612238071947"><ele>389.3333333333333</ele><time>2026-04-03T09:55:41.999Z</time></trkpt><trkpt lat="42.43190066591636" lon="-8.08068027203081"><ele>389.5</ele><time>2026-04-03T09:55:42.999Z</time></trkpt><trkpt lat="42.431826884409894" lon="-8.080748992773362"><ele>389.66666666666663</ele><time>2026-04-03T09:55:43.999Z</time></trkpt><trkpt lat="42.43176184914038" lon="-8.080816750508614"><ele>389.8333333333333</ele><time>2026-04-03T09:55:44.999Z</time></trkpt><trkpt lat="42.43170405270617" lon="-8.080882532510293"><ele>390.0</ele><time>2026-04-03T09:55:45.999Z</time></trkpt><trkpt lat="42.43164387419748" lon="-8.080925937247159"><ele>390.0</ele><time>2026-04-03T09:55:46.999Z</time></trkpt><trkpt lat="42.431593534045135" lon="-8.080980804835102"><ele>390.0</ele><time>2026-04-03T09:55:47.999Z</time></trkpt><trkpt lat="42.4315186490946" lon="-8.081086237563534"><ele>390.0</ele><time>2026-04-03T09:55:49.999Z</time></trkpt><trkpt lat="42.431462766989384" lon="-8.081144761669032"><ele>390.0</ele><time>2026-04-03T09:56:08.999Z</time></trkpt><trkpt lat="42.431528809045936" lon="-8.08107559727825"><ele>390.0</ele><time>2026-04-03T09:56:11.999Z</time></trkpt><trkpt lat="42.43160846172374" lon="-8.080992178745147"><ele>390.0</ele><time>2026-04-03T09:56:13.999Z</time></trkpt><trkpt lat="42.43166444864552" lon="-8.080926965806263"><ele>390.0</ele><time>2026-04-03T09:56:15.999Z</time></trkpt><trkpt lat="42.4317292336829" lon="-8.080854280999196"><ele>390.0</ele><time>2026-04-03T09:56:18.999Z</time></trkpt><trkpt lat="42.43178196977985" lon="-8.080795984972049"><ele>390.0</ele><time>2026-04-03T09:56:33.998Z</time></trkpt><trkpt lat="42.43167533207074" lon="-8.080787767626"><ele>390.0</ele><time>2026-04-03T10:05:57Z</time></trkpt><trkpt lat="42.43160751804988" lon="-8.080881278723815"><ele>390.0</ele><time>2026-04-03T10:05:58Z</time></trkpt><trkpt lat="42.431527621519784" lon="-8.081009672218109"><ele>390.0</ele><time>2026-04-03T10:05:59Z</time></trkpt><trkpt lat="42.431457016877346" lon="-8.08117614575321"><ele>390.0</ele><time>2026-04-03T10:06:00Z</time></trkpt><trkpt lat="42.43135519609785" lon="-8.081274379218481"><ele>390.0</ele><time>2026-04-03T10:06:01Z</time></trkpt><trkpt lat="42.43129455961763" lon="-8.08136204503259"><ele>390.0</ele><time>2026-04-03T10:06:02Z</time></trkpt><trkpt lat="42.43123155514422" lon="-8.081256674186704"><ele>389.7142857142857</ele><time>2026-04-03T10:06:03Z</time></trkpt><trkpt lat="42.43118969822614" lon="-8.081377571510657"><ele>389.42857142857144</ele><time>2026-04-03T10:06:04Z</time></trkpt><trkpt lat="42.43113170965648" lon="-8.081415927179577"><ele>389.1428571428571</ele><time>2026-04-03T10:06:05Z</time></trkpt><trkpt lat="42.43106903607048" lon="-8.08145192365104"><ele>388.8571428571429</ele><time>2026-04-03T10:06:06Z</time></trkpt><trkpt lat="42.43100888676576" lon="-8.081485003010958"><ele>388.5714285714286</ele><time>2026-04-03T10:06:07Z</time></trkpt><trkpt lat="42.43094263413559" lon="-8.081521005246117"><ele>388.2857142857143</ele><time>2026-04-03T10:06:08Z</time></trkpt><trkpt lat="42.43088178241257" lon="-8.081556856383187"><ele>388.0</ele><time>2026-04-03T10:06:09Z</time></trkpt><trkpt lat="42.43081809518446" lon="-8.08159897711784"><ele>388.0</ele><time>2026-04-03T10:06:10Z</time></trkpt><trkpt lat="42.4307565586203" lon="-8.081639675464245"><ele>388.0</ele><time>2026-04-03T10:06:11Z</time></trkpt><trkpt lat="42.43064760725733" lon="-8.08171173246774"><ele>388.0</ele><time>2026-04-03T10:06:13Z</time></trkpt><trkpt lat="42.43057582694862" lon="-8.081759205704815"><ele>388.0</ele><time>2026-04-03T10:06:14.999Z</time></trkpt><trkpt lat="42.43034314837861" lon="-8.08176175297834"><ele>385.0</ele><time>2026-04-03T10:06:18.999Z</time></trkpt></trkseg><trkseg><trkpt lat="42.43048722498451" lon="-8.08177784016027"><ele>388.00000000000006</ele><time>2026-04-03T10:40:53.596Z</time></trkpt><trkpt lat="42.430571867903346" lon="-8.081716736911048"><ele>388.0</ele><time>2026-04-03T10:40:57.999Z</time></trkpt><trkpt lat="42.43052102030276" lon="-8.081812737390493"><ele>388.0</ele><time>2026-04-03T10:41:01.999Z</time></trkpt><trkpt lat="42.43044918148489" lon="-8.081825945839151"><ele>388.0</ele><time>2026-04-03T10:41:05.999Z</time></trkpt><trkpt lat="42.43038109561505" lon="-8.08179784216124"><ele>388.00000000000006</ele><time>2026-04-03T10:41:11.999Z</time></trkpt><trkpt lat="42.43033000935331" lon="-8.08167110176996"><ele>388.0</ele><time>2026-04-03T10:41:12.999Z</time></trkpt><trkpt lat="42.430308830007306" lon="-8.081548309040896"><ele>389.0</ele><time>2026-04-03T10:41:13.999Z</time></trkpt><trkpt lat="42.43027584638987" lon="-8.081469039698565"><ele>390.0</ele><time>2026-04-03T10:41:14.999Z</time></trkpt><trkpt lat="42.43023902122443" lon="-8.081367874018348"><ele>391.0</ele><time>2026-04-03T10:41:15.999Z</time></trkpt><trkpt lat="42.430183160472836" lon="-8.081201338755754"><ele>392.0</ele><time>2026-04-03T10:41:17.999Z</time></trkpt><trkpt lat="42.4301493733448" lon="-8.081103009194218"><ele>393.0</ele><time>2026-04-03T10:41:18.999Z</time></trkpt><trkpt lat="42.430094055186466" lon="-8.080995849873167"><ele>393.0</ele><time>2026-04-03T10:41:20Z</time></trkpt><trkpt lat="42.43004431655155" lon="-8.080854834410257"><ele>393.0</ele><time>2026-04-03T10:41:21Z</time></trkpt><trkpt lat="42.42999776222729" lon="-8.0807163071781"><ele>393.0</ele><time>2026-04-03T10:41:22Z</time></trkpt><trkpt lat="42.429956368465774" lon="-8.080576135420488"><ele>393.0</ele><time>2026-04-03T10:41:23Z</time></trkpt><trkpt lat="42.429891070324835" lon="-8.080448763197916"><ele>393.59999999999997</ele><time>2026-04-03T10:41:24Z</time></trkpt><trkpt lat="42.42984528391322" lon="-8.080340785278606"><ele>394.2</ele><time>2026-04-03T10:41:25Z</time></trkpt><trkpt lat="42.42977254035861" lon="-8.080261151602816"><ele>394.8</ele><time>2026-04-03T10:41:26Z</time></trkpt><trkpt lat="42.429742629209166" lon="-8.080181049535687"><ele>395.4</ele><time>2026-04-03T10:41:27Z</time></trkpt><trkpt lat="42.4297044695419" lon="-8.080077044852736"><ele>396.0</ele><time>2026-04-03T10:41:29Z</time></trkpt><trkpt lat="42.42960995212946" lon="-8.080175239274968"><ele>396.0</ele><time>2026-04-03T10:41:31Z</time></trkpt><trkpt lat="42.42954126620435" lon="-8.080230387761182"><ele>396.0</ele><time>2026-04-03T10:41:32Z</time></trkpt><trkpt lat="42.429467930327036" lon="-8.0802892786933"><ele>396.0</ele><time>2026-04-03T10:41:33Z</time></trkpt><trkpt lat="42.42936727144099" lon="-8.080355741923993"><ele>396.0</ele><time>2026-04-03T10:41:34Z</time></trkpt><trkpt lat="42.429261848938516" lon="-8.080454485001594"><ele>396.0</ele><time>2026-04-03T10:41:35Z</time></trkpt><trkpt lat="42.429155228906126" lon="-8.080537801536071"><ele>396.0</ele><time>2026-04-03T10:41:36Z</time></trkpt><trkpt lat="42.42904521687211" lon="-8.080632493580334"><ele>396.0</ele><time>2026-04-03T10:41:37Z</time></trkpt><trkpt lat="42.428937343015576" lon="-8.08072656641173"><ele>396.0</ele><time>2026-04-03T10:41:38Z</time></trkpt><trkpt lat="42.428837152888974" lon="-8.080811186845914"><ele>396.0</ele><time>2026-04-03T10:41:39Z</time></trkpt><trkpt lat="42.42873389196563" lon="-8.080891709690661"><ele>395.0</ele><time>2026-04-03T10:41:39.999Z</time></trkpt><trkpt lat="42.42864419810381" lon="-8.080979293488403"><ele>394.0</ele><time>2026-04-03T10:41:40.999Z</time></trkpt><trkpt lat="42.428552694018336" lon="-8.08107495929709"><ele>393.0</ele><time>2026-04-03T10:41:41.999Z</time></trkpt><trkpt lat="42.42845292976581" lon="-8.081157047744865"><ele>392.0</ele><time>2026-04-03T10:41:42.999Z</time></trkpt><trkpt lat="42.42835512733403" lon="-8.081241420851756"><ele>392.0</ele><time>2026-04-03T10:41:43.999Z</time></trkpt><trkpt lat="42.428256456529674" lon="-8.08133166723861"><ele>392.0</ele><time>2026-04-03T10:41:44.999Z</time></trkpt><trkpt lat="42.428170453050036" lon="-8.081409027021731"><ele>392.0</ele><time>2026-04-03T10:41:45.999Z</time></trkpt><trkpt lat="42.42808006918514" lon="-8.081504844247446"><ele>392.0</ele><time>2026-04-03T10:41:46.999Z</time></trkpt><trkpt lat="42.427982803979816" lon="-8.08159272198848"><ele>392.20000000000005</ele><time>2026-04-03T10:41:47.999Z</time></trkpt><trkpt lat="42.42789933597934" lon="-8.081647571498479"><ele>392.4</ele><time>2026-04-03T10:41:48.999Z</time></trkpt><trkpt lat="42.427818664981515" lon="-8.081740376907206"><ele>392.6</ele><time>2026-04-03T10:41:49.999Z</time></trkpt><trkpt lat="42.427743266113616" lon="-8.081807727029323"><ele>392.79999999999995</ele><time>2026-04-03T10:41:50.999Z</time></trkpt><trkpt lat="42.427631464063104" lon="-8.081906390070536"><ele>393.0</ele><time>2026-04-03T10:41:51.999Z</time></trkpt><trkpt lat="42.42753104044608" lon="-8.08197519585314"><ele>393.0</ele><time>2026-04-03T10:41:52.999Z</time></trkpt><trkpt lat="42.42744190177538" lon="-8.08211035919229"><ele>393.0</ele><time>2026-04-03T10:41:53.999Z</time></trkpt><trkpt lat="42.427312313739904" lon="-8.082215098110677"><ele>393.0</ele><time>2026-04-03T10:41:54.999Z</time></trkpt><trkpt lat="42.42718198358006" lon="-8.082307860367125"><ele>393.0</ele><time>2026-04-03T10:41:55.999Z</time></trkpt><trkpt lat="42.42707476648693" lon="-8.082385556592858"><ele>393.4</ele><time>2026-04-03T10:41:56.999Z</time></trkpt><trkpt lat="42.42699404471354" lon="-8.082452840847429"><ele>393.79999999999995</ele><time>2026-04-03T10:41:57.999Z</time></trkpt><trkpt lat="42.42689846257008" lon="-8.082502708985432"><ele>394.2</ele><time>2026-04-03T10:41:58.999Z</time></trkpt><trkpt lat="42.426835464799915" lon="-8.082567963935256"><ele>394.6</ele><time>2026-04-03T10:41:59.999Z</time></trkpt><trkpt lat="42.42679211378187" lon="-8.082643043063907"><ele>395.0</ele><time>2026-04-03T10:42:00.999Z</time></trkpt><trkpt lat="42.426794056537084" lon="-8.08288659722215"><ele>395.0</ele><time>2026-04-03T10:42:02.999Z</time></trkpt><trkpt lat="42.4268075088827" lon="-8.083033616385821"><ele>395.0</ele><time>2026-04-03T10:42:03.999Z</time></trkpt><trkpt lat="42.42681675823824" lon="-8.083187883520514"><ele>395.0</ele><time>2026-04-03T10:42:04.999Z</time></trkpt><trkpt lat="42.42682244260344" lon="-8.08335618111847"><ele>395.0</ele><time>2026-04-03T10:42:05.999Z</time></trkpt><trkpt lat="42.426814462812125" lon="-8.083518911985806"><ele>396.0</ele><time>2026-04-03T10:42:06.999Z</time></trkpt><trkpt lat="42.42680078858434" lon="-8.083695017783189"><ele>397.0</ele><time>2026-04-03T10:42:07.999Z</time></trkpt><trkpt lat="42.42678717274085" lon="-8.083857118021573"><ele>398.0</ele><time>2026-04-03T10:42:08.999Z</time></trkpt><trkpt lat="42.42675204352522" lon="-8.084021285880674"><ele>399.0</ele><time>2026-04-03T10:42:09.999Z</time></trkpt><trkpt lat="42.426721065890824" lon="-8.084181520711514"><ele>399.4</ele><time>2026-04-03T10:42:10.999Z</time></trkpt><trkpt lat="42.42669382983344" lon="-8.08433800378324"><ele>399.79999999999995</ele><time>2026-04-03T10:42:11.999Z</time></trkpt><trkpt lat="42.426671765732586" lon="-8.084483014329917"><ele>400.20000000000005</ele><time>2026-04-03T10:42:12.999Z</time></trkpt><trkpt lat="42.42665127070232" lon="-8.084604486327093"><ele>400.6</ele><time>2026-04-03T10:42:13.999Z</time></trkpt><trkpt lat="42.426640623469325" lon="-8.08469682079261"><ele>401.0</ele><time>2026-04-03T10:42:14.999Z</time></trkpt><trkpt lat="42.426630887834484" lon="-8.084815755019614"><ele>401.0</ele><time>2026-04-03T10:42:16.999Z</time></trkpt><trkpt lat="42.42648582863851" lon="-8.084792462912494"><ele>401.0</ele><time>2026-04-03T10:42:17.999Z</time></trkpt><trkpt lat="42.426411940245956" lon="-8.084760209345937"><ele>401.0</ele><time>2026-04-03T10:42:18.999Z</time></trkpt><trkpt lat="42.42633299156404" lon="-8.08471038686791"><ele>401.0</ele><time>2026-04-03T10:42:19.999Z</time></trkpt><trkpt lat="42.426249048256544" lon="-8.084667774803094"><ele>401.0</ele><time>2026-04-03T10:42:20.999Z</time></trkpt><trkpt lat="42.4261570397795" lon="-8.084616293454966"><ele>401.0</ele><time>2026-04-03T10:42:21.999Z</time></trkpt><trkpt lat="42.42606502873991" lon="-8.084577817481438"><ele>401.0</ele><time>2026-04-03T10:42:22.999Z</time></trkpt><trkpt lat="42.42597875625225" lon="-8.084533682437671"><ele>401.0</ele><time>2026-04-03T10:42:23.999Z</time></trkpt><trkpt lat="42.42590939555073" lon="-8.084503558407588"><ele>401.0</ele><time>2026-04-03T10:42:24.999Z</time></trkpt><trkpt lat="42.42583920489317" lon="-8.08447700089687"><ele>401.0</ele><time>2026-04-03T10:42:26.999Z</time></trkpt><trkpt lat="42.42586593889027" lon="-8.084285593978239"><ele>401.0</ele><time>2026-04-03T10:42:28.999Z</time></trkpt><trkpt lat="42.42590308024447" lon="-8.08419452384234"><ele>401.0</ele><time>2026-04-03T10:42:29.999Z</time></trkpt><trkpt lat="42.425940561410364" lon="-8.08408058617627"><ele>401.0</ele><time>2026-04-03T10:42:30.999Z</time></trkpt><trkpt lat="42.42596415150562" lon="-8.083954773534819"><ele>401.0</ele><time>2026-04-03T10:42:31.999Z</time></trkpt><trkpt lat="42.425998960465414" lon="-8.083824371211215"><ele>401.0</ele><time>2026-04-03T10:42:32.999Z</time></trkpt><trkpt lat="42.42605346918087" lon="-8.083705150263382"><ele>401.0</ele><time>2026-04-03T10:42:33.999Z</time></trkpt><trkpt lat="42.42610073650583" lon="-8.083562644269696"><ele>401.0</ele><time>2026-04-03T10:42:34.999Z</time></trkpt><trkpt lat="42.426128672493874" lon="-8.083427006882829"><ele>401.0</ele><time>2026-04-03T10:42:35.999Z</time></trkpt><trkpt lat="42.42618287301954" lon="-8.083306370691151"><ele>401.0</ele><time>2026-04-03T10:42:36.999Z</time></trkpt><trkpt lat="42.42622757508889" lon="-8.083177479651738"><ele>401.0</ele><time>2026-04-03T10:42:37.999Z</time></trkpt><trkpt lat="42.42626365113941" lon="-8.08304891964077"><ele>399.8</ele><time>2026-04-03T10:42:38.999Z</time></trkpt><trkpt lat="42.4263243028313" lon="-8.082922838579739"><ele>398.6</ele><time>2026-04-03T10:42:39.999Z</time></trkpt><trkpt lat="42.426347512691805" lon="-8.082799591996388"><ele>397.4</ele><time>2026-04-03T10:42:40.999Z</time></trkpt><trkpt lat="42.42638876193002" lon="-8.082663022552698"><ele>396.2</ele><time>2026-04-03T10:42:41.999Z</time></trkpt><trkpt lat="42.4264342215902" lon="-8.082540203827111"><ele>395.0</ele><time>2026-04-03T10:42:42.999Z</time></trkpt><trkpt lat="42.42647639572791" lon="-8.082426203354204"><ele>394.99999999999994</ele><time>2026-04-03T10:42:43.999Z</time></trkpt><trkpt lat="42.42650801383678" lon="-8.08231973721287"><ele>395.0</ele><time>2026-04-03T10:42:44.999Z</time></trkpt><trkpt lat="42.426547330378895" lon="-8.082227995315074"><ele>395.0</ele><time>2026-04-03T10:42:45.999Z</time></trkpt><trkpt lat="42.42658784577295" lon="-8.082146783409854"><ele>395.0</ele><time>2026-04-03T10:42:46.999Z</time></trkpt><trkpt lat="42.426643454948284" lon="-8.08201721790179"><ele>394.99999999999994</ele><time>2026-04-03T10:42:48.999Z</time></trkpt><trkpt lat="42.426735104677384" lon="-8.08200480170886"><ele>395.0</ele><time>2026-04-03T10:42:51.999Z</time></trkpt><trkpt lat="42.4267852537203" lon="-8.08181770860869"><ele>395.0</ele><time>2026-04-03T10:42:53.999Z</time></trkpt><trkpt lat="42.42682994077165" lon="-8.08171476009967"><ele>395.0</ele><time>2026-04-03T10:42:54.999Z</time></trkpt><trkpt lat="42.4268820537176" lon="-8.081600669041023"><ele>395.0</ele><time>2026-04-03T10:42:55.999Z</time></trkpt><trkpt lat="42.42691506370706" lon="-8.08149863372723"><ele>395.0</ele><time>2026-04-03T10:42:56.999Z</time></trkpt><trkpt lat="42.426958170241164" lon="-8.081414749064544"><ele>395.0</ele><time>2026-04-03T10:42:57.999Z</time></trkpt><trkpt lat="42.42703448308256" lon="-8.081291533854317"><ele>395.16666666666663</ele><time>2026-04-03T10:42:59.999Z</time></trkpt><trkpt lat="42.42709450744964" lon="-8.081164156522275"><ele>395.3333333333333</ele><time>2026-04-03T10:43:01.998Z</time></trkpt><trkpt lat="42.42713845824605" lon="-8.081088431778417"><ele>395.5</ele><time>2026-04-03T10:43:02.999Z</time></trkpt><trkpt lat="42.42719306360409" lon="-8.0809988405711"><ele>395.66666666666663</ele><time>2026-04-03T10:43:03.999Z</time></trkpt><trkpt lat="42.42724467954678" lon="-8.080914880183482"><ele>395.8333333333333</ele><time>2026-04-03T10:43:04.999Z</time></trkpt><trkpt lat="42.427308153466505" lon="-8.080825155741154"><ele>396.0</ele><time>2026-04-03T10:43:05.999Z</time></trkpt><trkpt lat="42.427382408316355" lon="-8.0807388017908"><ele>396.0</ele><time>2026-04-03T10:43:06.999Z</time></trkpt><trkpt lat="42.42747728860974" lon="-8.080658398353075"><ele>396.0</ele><time>2026-04-03T10:43:07.999Z</time></trkpt><trkpt lat="42.42754407480512" lon="-8.080579049401498"><ele>396.0</ele><time>2026-04-03T10:43:08.999Z</time></trkpt><trkpt lat="42.427627615295314" lon="-8.080490993136468"><ele>396.0</ele><time>2026-04-03T10:43:09.999Z</time></trkpt><trkpt lat="42.427698374824" lon="-8.080413184031212"><ele>396.0</ele><time>2026-04-03T10:43:10.999Z</time></trkpt><trkpt lat="42.427772998579854" lon="-8.080338462461224"><ele>396.0</ele><time>2026-04-03T10:43:11.999Z</time></trkpt><trkpt lat="42.42784444880445" lon="-8.0802550693339"><ele>396.0</ele><time>2026-04-03T10:43:12.999Z</time></trkpt><trkpt lat="42.42791045470712" lon="-8.080169345193493"><ele>396.0</ele><time>2026-04-03T10:43:13.999Z</time></trkpt><trkpt lat="42.42798883919036" lon="-8.080107623142526"><ele>396.0</ele><time>2026-04-03T10:43:14.999Z</time></trkpt><trkpt lat="42.428060890289686" lon="-8.080041331900093"><ele>396.0</ele><time>2026-04-03T10:43:15.999Z</time></trkpt><trkpt lat="42.42812642983871" lon="-8.079997039707006"><ele>396.0</ele><time>2026-04-03T10:43:16.999Z</time></trkpt><trkpt lat="42.42819513156688" lon="-8.079910852381772"><ele>397.0</ele><time>2026-04-03T10:43:18.999Z</time></trkpt><trkpt lat="42.428323215405676" lon="-8.080086896590311"><ele>398.0</ele><time>2026-04-03T10:43:22.999Z</time></trkpt><trkpt lat="42.42837859689664" lon="-8.080188335532931"><ele>399.0</ele><time>2026-04-03T10:43:23.999Z</time></trkpt><trkpt lat="42.42843666776128" lon="-8.080294700386043"><ele>400.0</ele><time>2026-04-03T10:43:24.999Z</time></trkpt><trkpt lat="42.42849470018467" lon="-8.080402660028769"><ele>400.00000000000006</ele><time>2026-04-03T10:43:25.999Z</time></trkpt><trkpt lat="42.4285589951567" lon="-8.080508246256382"><ele>400.0</ele><time>2026-04-03T10:43:26.999Z</time></trkpt><trkpt lat="42.42861075440519" lon="-8.08060051631314"><ele>400.0</ele><time>2026-04-03T10:43:27.999Z</time></trkpt><trkpt lat="42.428641321450655" lon="-8.080696432731074"><ele>400.0</ele><time>2026-04-03T10:43:28.999Z</time></trkpt><trkpt lat="42.42868601620746" lon="-8.080773785970072"><ele>400.00000000000006</ele><time>2026-04-03T10:43:29.999Z</time></trkpt><trkpt lat="42.42871714794111" lon="-8.08085642050398"><ele>400.0</ele><time>2026-04-03T10:43:32.999Z</time></trkpt><trkpt lat="42.42882191269915" lon="-8.080798069367487"><ele>399.2</ele><time>2026-04-03T10:43:33.999Z</time></trkpt><trkpt lat="42.428895018025365" lon="-8.080706682937572"><ele>398.4</ele><time>2026-04-03T10:43:34.999Z</time></trkpt><trkpt lat="42.428989129865286" lon="-8.080642067690356"><ele>397.6</ele><time>2026-04-03T10:43:35.999Z</time></trkpt><trkpt lat="42.42908654642615" lon="-8.080559631366096"><ele>396.8</ele><time>2026-04-03T10:43:36.999Z</time></trkpt><trkpt lat="42.42918462652161" lon="-8.080483968924403"><ele>396.0</ele><time>2026-04-03T10:43:37.999Z</time></trkpt><trkpt lat="42.42927836974369" lon="-8.080399301518607"><ele>396.0</ele><time>2026-04-03T10:43:38.999Z</time></trkpt><trkpt lat="42.42937341273157" lon="-8.080314277954937"><ele>396.0</ele><time>2026-04-03T10:43:39.999Z</time></trkpt><trkpt lat="42.42945831141001" lon="-8.080238851692002"><ele>396.0</ele><time>2026-04-03T10:43:40.999Z</time></trkpt><trkpt lat="42.42953093668967" lon="-8.08018730498693"><ele>396.0</ele><time>2026-04-03T10:43:41.999Z</time></trkpt><trkpt lat="42.429590439491086" lon="-8.080135228495188"><ele>396.0</ele><time>2026-04-03T10:43:42.999Z</time></trkpt><trkpt lat="42.429651812352986" lon="-8.080089988862968"><ele>396.0</ele><time>2026-04-03T10:43:43.999Z</time></trkpt><trkpt lat="42.429726031681575" lon="-8.080030716990677"><ele>397.0</ele><time>2026-04-03T10:43:44.999Z</time></trkpt><trkpt lat="42.42982504425474" lon="-8.079947942044342"><ele>398.0</ele><time>2026-04-03T10:43:46.999Z</time></trkpt><trkpt lat="42.42993596588917" lon="-8.079855481231135"><ele>399.0</ele><time>2026-04-03T10:43:48.999Z</time></trkpt><trkpt lat="42.43001373851375" lon="-8.079788409886453"><ele>400.0</ele><time>2026-04-03T10:43:49.999Z</time></trkpt><trkpt lat="42.430092426002034" lon="-8.079720390876394"><ele>401.0</ele><time>2026-04-03T10:43:50.999Z</time></trkpt><trkpt lat="42.43016904219596" lon="-8.079658284444772"><ele>401.3333333333333</ele><time>2026-04-03T10:43:51.999Z</time></trkpt><trkpt lat="42.43023587332549" lon="-8.079589928772402"><ele>401.66666666666663</ele><time>2026-04-03T10:43:52.999Z</time></trkpt><trkpt lat="42.430296810340494" lon="-8.079535752395806"><ele>402.0</ele><time>2026-04-03T10:43:53.999Z</time></trkpt><trkpt lat="42.4304011378936" lon="-8.079444434118347"><ele>402.33333333333337</ele><time>2026-04-03T10:43:55.999Z</time></trkpt><trkpt lat="42.43046648658846" lon="-8.079393085927242"><ele>402.6666666666667</ele><time>2026-04-03T10:43:57.999Z</time></trkpt><trkpt lat="42.43048630299295" lon="-8.079312100296828"><ele>403.0</ele><time>2026-04-03T10:44:00.999Z</time></trkpt><trkpt lat="42.430428729521935" lon="-8.079361372948426"><ele>403.0</ele><time>2026-04-03T10:44:05.999Z</time></trkpt></trkseg><trkseg><trkpt lat="42.43049272309267" lon="-8.079403126626659"><ele>404.0</ele><time>2026-04-03T11:02:45.999Z</time></trkpt><trkpt lat="42.43059820415959" lon="-8.079307195029374"><ele>404.0</ele><time>2026-04-03T11:02:50.999Z</time></trkpt><trkpt lat="42.4306722724945" lon="-8.079239406513452"><ele>404.0</ele><time>2026-04-03T11:02:51.999Z</time></trkpt><trkpt lat="42.43075642394912" lon="-8.079154120733081"><ele>404.0</ele><time>2026-04-03T11:02:52.999Z</time></trkpt><trkpt lat="42.430853815417926" lon="-8.07908407841409"><ele>404.0</ele><time>2026-04-03T11:02:53.999Z</time></trkpt><trkpt lat="42.430933361918164" lon="-8.079020102338093"><ele>404.79999999999995</ele><time>2026-04-03T11:02:54.999Z</time></trkpt><trkpt lat="42.43098154075765" lon="-8.078944826115164"><ele>405.59999999999997</ele><time>2026-04-03T11:02:55.999Z</time></trkpt><trkpt lat="42.431045770569916" lon="-8.078889555470527"><ele>406.4</ele><time>2026-04-03T11:02:56.999Z</time></trkpt><trkpt lat="42.4311277630162" lon="-8.078818465408352"><ele>407.2</ele><time>2026-04-03T11:02:58.999Z</time></trkpt><trkpt lat="42.43121998600698" lon="-8.078739463889521"><ele>408.0</ele><time>2026-04-03T11:03:00.999Z</time></trkpt><trkpt lat="42.43130877636437" lon="-8.078652905032499"><ele>408.1666666666667</ele><time>2026-04-03T11:03:02.999Z</time></trkpt><trkpt lat="42.43137051172629" lon="-8.078555499987722"><ele>408.33333333333337</ele><time>2026-04-03T11:03:04.999Z</time></trkpt><trkpt lat="42.43139063214836" lon="-8.078458083660681"><ele>408.5</ele><time>2026-04-03T11:03:06.999Z</time></trkpt><trkpt lat="42.431415372181974" lon="-8.078319785175708"><ele>408.6666666666667</ele><time>2026-04-03T11:03:09.999Z</time></trkpt><trkpt lat="42.43141619326509" lon="-8.078231908444804"><ele>408.83333333333337</ele><time>2026-04-03T11:03:11.999Z</time></trkpt><trkpt lat="42.4314065669665" lon="-8.078099175460121"><ele>409.0</ele><time>2026-04-03T11:03:13.999Z</time></trkpt><trkpt lat="42.43138094557308" lon="-8.077990073992716"><ele>408.83333333333337</ele><time>2026-04-03T11:03:15.999Z</time></trkpt><trkpt lat="42.43136340605098" lon="-8.077874366711603"><ele>408.6666666666667</ele><time>2026-04-03T11:03:17.999Z</time></trkpt><trkpt lat="42.431285786618034" lon="-8.077814228568148"><ele>408.5</ele><time>2026-04-03T11:03:19.999Z</time></trkpt><trkpt lat="42.431225731759596" lon="-8.077753040646394"><ele>408.33333333333337</ele><time>2026-04-03T11:03:21.999Z</time></trkpt><trkpt lat="42.431219206972195" lon="-8.07765376223226"><ele>408.1666666666667</ele><time>2026-04-03T11:03:23.999Z</time></trkpt><trkpt lat="42.4312902790024" lon="-8.077570664973019"><ele>408.0</ele><time>2026-04-03T11:03:25.999Z</time></trkpt><trkpt lat="42.43139650716464" lon="-8.077606500314241"><ele>409.0</ele><time>2026-04-03T11:03:27.999Z</time></trkpt><trkpt lat="42.43152901812471" lon="-8.077665719320798"><ele>410.0</ele><time>2026-04-03T11:03:29.999Z</time></trkpt><trkpt lat="42.431638312076345" lon="-8.077697536323347"><ele>411.0</ele><time>2026-04-03T11:03:31.999Z</time></trkpt><trkpt lat="42.431752941337386" lon="-8.077716258468797"><ele>412.0</ele><time>2026-04-03T11:03:33.999Z</time></trkpt><trkpt lat="42.43187154725915" lon="-8.07772091807526"><ele>412.0</ele><time>2026-04-03T11:03:35.999Z</time></trkpt><trkpt lat="42.431991253689176" lon="-8.077718553644551"><ele>412.0</ele><time>2026-04-03T11:03:37.999Z</time></trkpt><trkpt lat="42.4321099237245" lon="-8.07770985975467"><ele>412.0</ele><time>2026-04-03T11:03:39.999Z</time></trkpt><trkpt lat="42.43224485978538" lon="-8.077710674066987"><ele>412.0</ele><time>2026-04-03T11:03:41.999Z</time></trkpt><trkpt lat="42.43236815636273" lon="-8.077711109080983"><ele>411.33333333333337</ele><time>2026-04-03T11:03:43.999Z</time></trkpt><trkpt lat="42.432495470121296" lon="-8.077714848463415"><ele>410.6666666666667</ele><time>2026-04-03T11:03:45.999Z</time></trkpt><trkpt lat="42.432559609090305" lon="-8.077716732316745"><ele>410.0</ele><time>2026-04-03T11:03:46.999Z</time></trkpt><trkpt lat="42.432626024498155" lon="-8.077718683031256"><ele>409.33333333333337</ele><time>2026-04-03T11:03:47.999Z</time></trkpt><trkpt lat="42.432689931811645" lon="-8.07772056007816"><ele>408.6666666666667</ele><time>2026-04-03T11:03:48.999Z</time></trkpt><trkpt lat="42.43275907712666" lon="-8.077722590952058"><ele>408.0</ele><time>2026-04-03T11:03:49.999Z</time></trkpt><trkpt lat="42.43283166673229" lon="-8.077724825855084"><ele>408.0</ele><time>2026-04-03T11:03:50.999Z</time></trkpt><trkpt lat="42.43290241028034" lon="-8.077726964773543"><ele>408.0</ele><time>2026-04-03T11:03:51.999Z</time></trkpt><trkpt lat="42.43298092450424" lon="-8.077729338636168"><ele>408.0</ele><time>2026-04-03T11:03:52.999Z</time></trkpt><trkpt lat="42.4330609722245" lon="-8.077731758870014"><ele>408.0</ele><time>2026-04-03T11:03:53.999Z</time></trkpt><trkpt lat="42.43313822098267" lon="-8.07773380519154"><ele>408.0</ele><time>2026-04-03T11:03:54.999Z</time></trkpt><trkpt lat="42.43322041200941" lon="-8.077736083041852"><ele>408.0</ele><time>2026-04-03T11:03:55.999Z</time></trkpt><trkpt lat="42.43330017873426" lon="-8.07773829371057"><ele>407.3333333333333</ele><time>2026-04-03T11:03:56.999Z</time></trkpt><trkpt lat="42.43338675173451" lon="-8.07774069300724"><ele>406.66666666666663</ele><time>2026-04-03T11:03:57.999Z</time></trkpt><trkpt lat="42.433466610783015" lon="-8.077754731919587"><ele>406.0</ele><time>2026-04-03T11:03:58.999Z</time></trkpt><trkpt lat="42.4335448567831" lon="-8.077754822073562"><ele>405.3333333333333</ele><time>2026-04-03T11:03:59.999Z</time></trkpt><trkpt lat="42.43362384566722" lon="-8.077756186103635"><ele>404.66666666666663</ele><time>2026-04-03T11:04:00.999Z</time></trkpt><trkpt lat="42.43369882127823" lon="-8.077761187926656"><ele>404.0</ele><time>2026-04-03T11:04:01.999Z</time></trkpt><trkpt lat="42.43377788118637" lon="-8.077754471453252"><ele>404.2857142857143</ele><time>2026-04-03T11:04:02.999Z</time></trkpt><trkpt lat="42.43385212654831" lon="-8.077751576979622"><ele>404.57142857142856</ele><time>2026-04-03T11:04:03.999Z</time></trkpt><trkpt lat="42.43392199545436" lon="-8.077742719443158"><ele>404.8571428571429</ele><time>2026-04-03T11:04:04.999Z</time></trkpt><trkpt lat="42.4339955303584" lon="-8.077742719442627"><ele>405.1428571428571</ele><time>2026-04-03T11:04:05.999Z</time></trkpt><trkpt lat="42.43406694546173" lon="-8.077744137913458"><ele>405.42857142857144</ele><time>2026-04-03T11:04:06.999Z</time></trkpt><trkpt lat="42.43413744132223" lon="-8.07774760492437"><ele>405.7142857142857</ele><time>2026-04-03T11:04:07.999Z</time></trkpt><trkpt lat="42.43420039334389" lon="-8.077750700927831"><ele>406.0</ele><time>2026-04-03T11:04:08.997Z</time></trkpt><trkpt lat="42.43432725422959" lon="-8.07775118965652"><ele>406.0</ele><time>2026-04-03T11:04:10.997Z</time></trkpt><trkpt lat="42.43439524741989" lon="-8.077750537471475"><ele>406.0</ele><time>2026-04-03T11:04:11.997Z</time></trkpt><trkpt lat="42.434460380882314" lon="-8.077764831206848"><ele>406.0</ele><time>2026-04-03T11:04:12.998Z</time></trkpt><trkpt lat="42.43458054428653" lon="-8.077730895941043"><ele>406.0</ele><time>2026-04-03T11:04:14.998Z</time></trkpt><trkpt lat="42.43468011353834" lon="-8.077652302935928"><ele>406.0</ele><time>2026-04-03T11:04:16.998Z</time></trkpt><trkpt lat="42.43476658048765" lon="-8.077525164184243"><ele>405.6666666666667</ele><time>2026-04-03T11:04:18.998Z</time></trkpt><trkpt lat="42.43483768648875" lon="-8.077494850567884"><ele>405.33333333333337</ele><time>2026-04-03T11:04:20.998Z</time></trkpt><trkpt lat="42.43491430283832" lon="-8.07751202631396"><ele>405.0</ele><time>2026-04-03T11:04:22.998Z</time></trkpt><trkpt lat="42.43500075474858" lon="-8.077622791225235"><ele>404.66666666666663</ele><time>2026-04-03T11:04:24.998Z</time></trkpt><trkpt lat="42.435014276124576" lon="-8.077711077833555"><ele>404.3333333333333</ele><time>2026-04-03T11:04:25.998Z</time></trkpt><trkpt lat="42.43500287986848" lon="-8.077801511325426"><ele>404.0</ele><time>2026-04-03T11:04:26.998Z</time></trkpt><trkpt lat="42.43496306284129" lon="-8.077874569724951"><ele>404.0</ele><time>2026-04-03T11:04:27.998Z</time></trkpt><trkpt lat="42.43488550548699" lon="-8.07799240278053"><ele>404.0</ele><time>2026-04-03T11:04:29.998Z</time></trkpt><trkpt lat="42.43484176460566" lon="-8.078091209631213"><ele>404.0</ele><time>2026-04-03T11:04:31.998Z</time></trkpt><trkpt lat="42.434787733295686" lon="-8.078149836278266"><ele>404.0</ele><time>2026-04-03T11:04:33.999Z</time></trkpt><trkpt lat="42.43474908702595" lon="-8.07807021925784"><ele>404.0</ele><time>2026-04-03T11:04:35.999Z</time></trkpt><trkpt lat="42.434796936320545" lon="-8.077972613986315"><ele>404.0</ele><time>2026-04-03T11:04:37.999Z</time></trkpt></trkseg><trkseg><trkpt lat="42.43474554815646" lon="-8.077591762008618"><ele>403.75</ele><time>2026-04-03T11:29:53.662Z</time></trkpt><trkpt lat="42.434732573882606" lon="-8.077395265108999"><ele>403.5</ele><time>2026-04-03T11:29:56.042Z</time></trkpt><trkpt lat="42.43464675176332" lon="-8.077207657951577"><ele>403.25</ele><time>2026-04-03T11:29:58.022Z</time></trkpt><trkpt lat="42.4345748859656" lon="-8.077050911143143"><ele>403.0</ele><time>2026-04-03T11:29:59.02Z</time></trkpt><trkpt lat="42.43451284278212" lon="-8.076916283351308"><ele>404.0</ele><time>2026-04-03T11:30:00.019Z</time></trkpt><trkpt lat="42.43444518775397" lon="-8.076769478390903"><ele>405.0</ele><time>2026-04-03T11:30:01.018Z</time></trkpt><trkpt lat="42.43439635252356" lon="-8.076663510610146"><ele>406.0</ele><time>2026-04-03T11:30:02.016Z</time></trkpt><trkpt lat="42.43432835648762" lon="-8.076515965692566"><ele>407.0</ele><time>2026-04-03T11:30:03.015Z</time></trkpt><trkpt lat="42.43426308308249" lon="-8.076373792203004"><ele>407.20000000000005</ele><time>2026-04-03T11:30:04.014Z</time></trkpt><trkpt lat="42.43420122384908" lon="-8.07623890735285"><ele>407.4</ele><time>2026-04-03T11:30:05.013Z</time></trkpt><trkpt lat="42.43414228714239" lon="-8.076110395105939"><ele>407.6</ele><time>2026-04-03T11:30:06.012Z</time></trkpt><trkpt lat="42.43408602143531" lon="-8.075987971256511"><ele>407.79999999999995</ele><time>2026-04-03T11:30:07.012Z</time></trkpt><trkpt lat="42.434039660754706" lon="-8.07588725668663"><ele>408.0</ele><time>2026-04-03T11:30:08.011Z</time></trkpt><trkpt lat="42.43395935665193" lon="-8.075712259164835"><ele>408.0</ele><time>2026-04-03T11:30:09.01Z</time></trkpt><trkpt lat="42.43389083315884" lon="-8.075562320359161"><ele>408.0</ele><time>2026-04-03T11:30:10.009Z</time></trkpt><trkpt lat="42.433816763183195" lon="-8.075401615984806"><ele>408.0</ele><time>2026-04-03T11:30:11.009Z</time></trkpt><trkpt lat="42.433746876169636" lon="-8.075248876056186"><ele>408.0</ele><time>2026-04-03T11:30:12.008Z</time></trkpt><trkpt lat="42.43369277705687" lon="-8.075130756181103"><ele>408.0</ele><time>2026-04-03T11:30:13.008Z</time></trkpt><trkpt lat="42.43363492414514" lon="-8.075004753434863"><ele>408.0</ele><time>2026-04-03T11:30:14.007Z</time></trkpt><trkpt lat="42.433581892703046" lon="-8.074886604743282"><ele>408.0</ele><time>2026-04-03T11:30:15.007Z</time></trkpt><trkpt lat="42.433525512286" lon="-8.074759288559573"><ele>408.0</ele><time>2026-04-03T11:30:16.006Z</time></trkpt><trkpt lat="42.43346666841937" lon="-8.074626409501011"><ele>408.0</ele><time>2026-04-03T11:30:17.006Z</time></trkpt><trkpt lat="42.4334049365591" lon="-8.074487215931223"><ele>408.0</ele><time>2026-04-03T11:30:18.005Z</time></trkpt><trkpt lat="42.43334590660467" lon="-8.074354749149641"><ele>408.0</ele><time>2026-04-03T11:30:19.005Z</time></trkpt><trkpt lat="42.43328659071489" lon="-8.07422164070802"><ele>408.0</ele><time>2026-04-03T11:30:20.004Z</time></trkpt><trkpt lat="42.433229084167294" lon="-8.074092592545119"><ele>408.0</ele><time>2026-04-03T11:30:21.004Z</time></trkpt><trkpt lat="42.43317120095472" lon="-8.073962699120301"><ele>407.0</ele><time>2026-04-03T11:30:22.004Z</time></trkpt><trkpt lat="42.43311211868545" lon="-8.073830114941144"><ele>406.0</ele><time>2026-04-03T11:30:23.003Z</time></trkpt><trkpt lat="42.433052857562224" lon="-8.07369712939765"><ele>405.0</ele><time>2026-04-03T11:30:24.003Z</time></trkpt><trkpt lat="42.43300129586174" lon="-8.073568895223838"><ele>404.0</ele><time>2026-04-03T11:30:25.003Z</time></trkpt><trkpt lat="42.432938925331094" lon="-8.07345764538889"><ele>403.0</ele><time>2026-04-03T11:30:26.003Z</time></trkpt><trkpt lat="42.43288503926075" lon="-8.073336342949766"><ele>402.25</ele><time>2026-04-03T11:30:27.002Z</time></trkpt><trkpt lat="42.43283630584144" lon="-8.073214809617157"><ele>401.5</ele><time>2026-04-03T11:30:28.002Z</time></trkpt><trkpt lat="42.43276747412158" lon="-8.07307243186161"><ele>400.75</ele><time>2026-04-03T11:30:29.002Z</time></trkpt><trkpt lat="42.43269668368845" lon="-8.072901563994222"><ele>400.0</ele><time>2026-04-03T11:30:30.002Z</time></trkpt><trkpt lat="42.432618115228934" lon="-8.07272497036482"><ele>400.0</ele><time>2026-04-03T11:30:31.002Z</time></trkpt><trkpt lat="42.4325666040019" lon="-8.072575250924977"><ele>400.0</ele><time>2026-04-03T11:30:32.001Z</time></trkpt><trkpt lat="42.4324911115317" lon="-8.07243892148726"><ele>400.0</ele><time>2026-04-03T11:30:33.001Z</time></trkpt><trkpt lat="42.43242972353468" lon="-8.072301058101782"><ele>400.0</ele><time>2026-04-03T11:30:34.001Z</time></trkpt><trkpt lat="42.43237137933612" lon="-8.072162290095623"><ele>399.6</ele><time>2026-04-03T11:30:35.001Z</time></trkpt><trkpt lat="42.43230726289559" lon="-8.072039621062698"><ele>399.2</ele><time>2026-04-03T11:30:36.001Z</time></trkpt><trkpt lat="42.43224651207407" lon="-8.071920191803843"><ele>398.79999999999995</ele><time>2026-04-03T11:30:37.001Z</time></trkpt><trkpt lat="42.43219944492474" lon="-8.071801518915068"><ele>398.4</ele><time>2026-04-03T11:30:38.001Z</time></trkpt><trkpt lat="42.43215519739928" lon="-8.071699464679563"><ele>398.0</ele><time>2026-04-03T11:30:39.001Z</time></trkpt><trkpt lat="42.432108207640795" lon="-8.071596087798538"><ele>397.66666666666663</ele><time>2026-04-03T11:30:40Z</time></trkpt><trkpt lat="42.43206761252789" lon="-8.071507676809142"><ele>397.3333333333333</ele><time>2026-04-03T11:30:41Z</time></trkpt><trkpt lat="42.43202751150144" lon="-8.071430549035611"><ele>397.0</ele><time>2026-04-03T11:30:42Z</time></trkpt><trkpt lat="42.43199761675503" lon="-8.071352600328197"><ele>396.66666666666663</ele><time>2026-04-03T11:30:43Z</time></trkpt><trkpt lat="42.43196146494073" lon="-8.071260774045527"><ele>396.3333333333333</ele><time>2026-04-03T11:30:44Z</time></trkpt><trkpt lat="42.431918025794914" lon="-8.071147115569378"><ele>396.0</ele><time>2026-04-03T11:30:45Z</time></trkpt><trkpt lat="42.431856491604826" lon="-8.071041110151965"><ele>396.0</ele><time>2026-04-03T11:30:46Z</time></trkpt><trkpt lat="42.431807185282615" lon="-8.07091976319374"><ele>396.0</ele><time>2026-04-03T11:30:47Z</time></trkpt><trkpt lat="42.43175541627401" lon="-8.070795915835498"><ele>396.0</ele><time>2026-04-03T11:30:48Z</time></trkpt><trkpt lat="42.43169370084311" lon="-8.070679621707628"><ele>396.0</ele><time>2026-04-03T11:30:49Z</time></trkpt><trkpt lat="42.43163977571949" lon="-8.070555350004529"><ele>396.0</ele><time>2026-04-03T11:30:50Z</time></trkpt><trkpt lat="42.431593116155135" lon="-8.070434749056425"><ele>396.0</ele><time>2026-04-03T11:30:51Z</time></trkpt><trkpt lat="42.431544139863924" lon="-8.070311606096428"><ele>396.0</ele><time>2026-04-03T11:30:51.999Z</time></trkpt><trkpt lat="42.43148906529758" lon="-8.070188043675813"><ele>396.0</ele><time>2026-04-03T11:30:52.999Z</time></trkpt><trkpt lat="42.43143810096393" lon="-8.070068118272795"><ele>396.0</ele><time>2026-04-03T11:30:53.999Z</time></trkpt><trkpt lat="42.43138116697128" lon="-8.069962114160383"><ele>396.0</ele><time>2026-04-03T11:30:54.999Z</time></trkpt><trkpt lat="42.43134009130522" lon="-8.069854668400504"><ele>396.0</ele><time>2026-04-03T11:30:55.999Z</time></trkpt><trkpt lat="42.43129306461921" lon="-8.069755577530135"><ele>396.0</ele><time>2026-04-03T11:30:56.999Z</time></trkpt><trkpt lat="42.43124662137202" lon="-8.069654998625548"><ele>396.0</ele><time>2026-04-03T11:30:57.999Z</time></trkpt><trkpt lat="42.431208265863305" lon="-8.069552791113383"><ele>396.0</ele><time>2026-04-03T11:30:58.999Z</time></trkpt><trkpt lat="42.431152315910055" lon="-8.069446744026987"><ele>396.0</ele><time>2026-04-03T11:30:59.999Z</time></trkpt><trkpt lat="42.43110478112626" lon="-8.069334586929207"><ele>396.0</ele><time>2026-04-03T11:31:00.999Z</time></trkpt><trkpt lat="42.43105375924536" lon="-8.069221251459268"><ele>396.0</ele><time>2026-04-03T11:31:01.999Z</time></trkpt><trkpt lat="42.43100286509115" lon="-8.069104129824815"><ele>396.0</ele><time>2026-04-03T11:31:02.999Z</time></trkpt><trkpt lat="42.43094869682902" lon="-8.068983280703478"><ele>396.0</ele><time>2026-04-03T11:31:03.999Z</time></trkpt><trkpt lat="42.43088635266866" lon="-8.068859321576173"><ele>396.0</ele><time>2026-04-03T11:31:04.999Z</time></trkpt><trkpt lat="42.43082954056469" lon="-8.068740564951371"><ele>396.0</ele><time>2026-04-03T11:31:05.999Z</time></trkpt><trkpt lat="42.43077637578202" lon="-8.068612775920396"><ele>396.0</ele><time>2026-04-03T11:31:06.999Z</time></trkpt><trkpt lat="42.430722815392464" lon="-8.068486738673723"><ele>396.0</ele><time>2026-04-03T11:31:07.999Z</time></trkpt><trkpt lat="42.430666368549375" lon="-8.068355312797957"><ele>396.0</ele><time>2026-04-03T11:31:08.999Z</time></trkpt><trkpt lat="42.430609035608136" lon="-8.068237530145833"><ele>396.0</ele><time>2026-04-03T11:31:09.999Z</time></trkpt><trkpt lat="42.43055206064537" lon="-8.06810555038831"><ele>396.0</ele><time>2026-04-03T11:31:10.999Z</time></trkpt><trkpt lat="42.43048963845751" lon="-8.067967984902324"><ele>396.0</ele><time>2026-04-03T11:31:11.999Z</time></trkpt><trkpt lat="42.430424203791986" lon="-8.067835856658318"><ele>396.0</ele><time>2026-04-03T11:31:12.999Z</time></trkpt><trkpt lat="42.43036803580914" lon="-8.067689770858605"><ele>396.0</ele><time>2026-04-03T11:31:13.999Z</time></trkpt><trkpt lat="42.43030441144436" lon="-8.067549030267378"><ele>395.5</ele><time>2026-04-03T11:31:14.999Z</time></trkpt><trkpt lat="42.43024084962546" lon="-8.067400452146664"><ele>395.0</ele><time>2026-04-03T11:31:15.999Z</time></trkpt><trkpt lat="42.43017638851321" lon="-8.067253753619143"><ele>394.5</ele><time>2026-04-03T11:31:16.999Z</time></trkpt><trkpt lat="42.43010956693149" lon="-8.067107144635814"><ele>394.0</ele><time>2026-04-03T11:31:17.999Z</time></trkpt><trkpt lat="42.430042499854224" lon="-8.066954307099728"><ele>394.0</ele><time>2026-04-03T11:31:18.999Z</time></trkpt><trkpt lat="42.42997306427874" lon="-8.06680291994376"><ele>394.0</ele><time>2026-04-03T11:31:19.998Z</time></trkpt><trkpt lat="42.42990257529863" lon="-8.066651672268966"><ele>394.0</ele><time>2026-04-03T11:31:20.998Z</time></trkpt><trkpt lat="42.42983046009179" lon="-8.066497263453696"><ele>394.0</ele><time>2026-04-03T11:31:21.998Z</time></trkpt><trkpt lat="42.42976857770944" lon="-8.066355086326695"><ele>394.5</ele><time>2026-04-03T11:31:22.998Z</time></trkpt><trkpt lat="42.429706458533026" lon="-8.066213353603004"><ele>395.0</ele><time>2026-04-03T11:31:23.998Z</time></trkpt><trkpt lat="42.429648096350185" lon="-8.066081145923263"><ele>395.5</ele><time>2026-04-03T11:31:24.998Z</time></trkpt><trkpt lat="42.42958171371352" lon="-8.065941928247048"><ele>396.0</ele><time>2026-04-03T11:31:25.998Z</time></trkpt><trkpt lat="42.42952015791632" lon="-8.065796264632965"><ele>395.0</ele><time>2026-04-03T11:31:26.998Z</time></trkpt><trkpt lat="42.42945528755611" lon="-8.065648034124495"><ele>394.0</ele><time>2026-04-03T11:31:27.998Z</time></trkpt><trkpt lat="42.42938935508887" lon="-8.065491950600139"><ele>393.0</ele><time>2026-04-03T11:31:28.998Z</time></trkpt><trkpt lat="42.42931907195896" lon="-8.06534244872352"><ele>392.0</ele><time>2026-04-03T11:31:29.998Z</time></trkpt><trkpt lat="42.42925313591308" lon="-8.06519335052371"><ele>392.0</ele><time>2026-04-03T11:31:30.998Z</time></trkpt><trkpt lat="42.42918501935146" lon="-8.065039610307563"><ele>392.0</ele><time>2026-04-03T11:31:31.998Z</time></trkpt><trkpt lat="42.429119303523755" lon="-8.064887521947517"><ele>392.0</ele><time>2026-04-03T11:31:32.998Z</time></trkpt><trkpt lat="42.42905022763846" lon="-8.064730854640018"><ele>392.0</ele><time>2026-04-03T11:31:33.998Z</time></trkpt><trkpt lat="42.42898156448994" lon="-8.064576472496098"><ele>392.5</ele><time>2026-04-03T11:31:34.998Z</time></trkpt><trkpt lat="42.42890947918778" lon="-8.064419422926653"><ele>393.0</ele><time>2026-04-03T11:31:35.998Z</time></trkpt><trkpt lat="42.42883583224904" lon="-8.06426563779841"><ele>393.5</ele><time>2026-04-03T11:31:36.998Z</time></trkpt><trkpt lat="42.428771411360046" lon="-8.06411970820029"><ele>394.0</ele><time>2026-04-03T11:31:37.998Z</time></trkpt><trkpt lat="42.428702506242175" lon="-8.063995260957846"><ele>393.0</ele><time>2026-04-03T11:31:38.998Z</time></trkpt><trkpt lat="42.428637968799116" lon="-8.063884133496837"><ele>392.0</ele><time>2026-04-03T11:31:39.998Z</time></trkpt><trkpt lat="42.42856367436867" lon="-8.0637851891544"><ele>391.0</ele><time>2026-04-03T11:31:40.998Z</time></trkpt><trkpt lat="42.42847630309423" lon="-8.063702609101718"><ele>390.0</ele><time>2026-04-03T11:31:41.998Z</time></trkpt><trkpt lat="42.428392304427106" lon="-8.063635734918908"><ele>389.0</ele><time>2026-04-03T11:31:42.998Z</time></trkpt><trkpt lat="42.42830255361455" lon="-8.063609838027626"><ele>389.0</ele><time>2026-04-03T11:31:43.998Z</time></trkpt><trkpt lat="42.42820718279773" lon="-8.063630536516785"><ele>389.0</ele><time>2026-04-03T11:31:44.998Z</time></trkpt><trkpt lat="42.42810333491153" lon="-8.06366080654238"><ele>389.0</ele><time>2026-04-03T11:31:45.998Z</time></trkpt><trkpt lat="42.42800615384014" lon="-8.06364265101607"><ele>389.0</ele><time>2026-04-03T11:31:46.998Z</time></trkpt><trkpt lat="42.42792509648897" lon="-8.063568719971906"><ele>389.0</ele><time>2026-04-03T11:31:47.998Z</time></trkpt><trkpt lat="42.427864485510185" lon="-8.063451343750526"><ele>389.2</ele><time>2026-04-03T11:31:48.998Z</time></trkpt><trkpt lat="42.427835699226584" lon="-8.06331401902981"><ele>389.4</ele><time>2026-04-03T11:31:49.998Z</time></trkpt><trkpt lat="42.42782906532318" lon="-8.063171405074712"><ele>389.6</ele><time>2026-04-03T11:31:50.998Z</time></trkpt><trkpt lat="42.42783926749926" lon="-8.063012460987215"><ele>389.8</ele><time>2026-04-03T11:31:51.998Z</time></trkpt><trkpt lat="42.42779698967293" lon="-8.06286564403618"><ele>390.0</ele><time>2026-04-03T11:31:52.998Z</time></trkpt><trkpt lat="42.42771741039071" lon="-8.06272957256577"><ele>390.0</ele><time>2026-04-03T11:31:53.998Z</time></trkpt><trkpt lat="42.42761711977077" lon="-8.062598124013672"><ele>390.0</ele><time>2026-04-03T11:31:54.998Z</time></trkpt><trkpt lat="42.42751812097785" lon="-8.062471799336697"><ele>390.0</ele><time>2026-04-03T11:31:55.998Z</time></trkpt><trkpt lat="42.42742861985519" lon="-8.062334401888268"><ele>390.0</ele><time>2026-04-03T11:31:56.998Z</time></trkpt><trkpt lat="42.42733932004151" lon="-8.062178437280066"><ele>390.0</ele><time>2026-04-03T11:31:57.998Z</time></trkpt><trkpt lat="42.4272586893841" lon="-8.06203329538409"><ele>390.0</ele><time>2026-04-03T11:31:58.998Z</time></trkpt><trkpt lat="42.427175652490426" lon="-8.061881306416739"><ele>390.0</ele><time>2026-04-03T11:31:59.998Z</time></trkpt><trkpt lat="42.42709486355421" lon="-8.061719897639952"><ele>390.0</ele><time>2026-04-03T11:32:00.998Z</time></trkpt><trkpt lat="42.4270221962066" lon="-8.06155944912099"><ele>392.0</ele><time>2026-04-03T11:32:01.998Z</time></trkpt><trkpt lat="42.42693346741546" lon="-8.061415015160064"><ele>394.0</ele><time>2026-04-03T11:32:02.999Z</time></trkpt><trkpt lat="42.4268717326312" lon="-8.061249814280277"><ele>396.0</ele><time>2026-04-03T11:32:03.999Z</time></trkpt><trkpt lat="42.42679910850463" lon="-8.061100968531958"><ele>398.0</ele><time>2026-04-03T11:32:04.999Z</time></trkpt><trkpt lat="42.42672507645045" lon="-8.060951604497708"><ele>398.0</ele><time>2026-04-03T11:32:05.999Z</time></trkpt><trkpt lat="42.426657840268476" lon="-8.060806262550113"><ele>398.0</ele><time>2026-04-03T11:32:06.999Z</time></trkpt><trkpt lat="42.426592227332364" lon="-8.060653443590859"><ele>398.0</ele><time>2026-04-03T11:32:07.999Z</time></trkpt><trkpt lat="42.42652274911935" lon="-8.06050911714845"><ele>398.0</ele><time>2026-04-03T11:32:08.999Z</time></trkpt><trkpt lat="42.42645393843604" lon="-8.060360440461915"><ele>399.25</ele><time>2026-04-03T11:32:09.999Z</time></trkpt><trkpt lat="42.426386251665264" lon="-8.06021605824403"><ele>400.5</ele><time>2026-04-03T11:32:10.999Z</time></trkpt><trkpt lat="42.426316582113806" lon="-8.060067168204984"><ele>401.75</ele><time>2026-04-03T11:32:11.999Z</time></trkpt><trkpt lat="42.426254077900005" lon="-8.059923954649186"><ele>403.0</ele><time>2026-04-03T11:32:12.999Z</time></trkpt><trkpt lat="42.42618852717197" lon="-8.059782888844747"><ele>404.25</ele><time>2026-04-03T11:32:13.999Z</time></trkpt><trkpt lat="42.426121398054185" lon="-8.059636056672879"><ele>405.5</ele><time>2026-04-03T11:32:14.999Z</time></trkpt><trkpt lat="42.42605523159018" lon="-8.059490549924298"><ele>406.75</ele><time>2026-04-03T11:32:15.999Z</time></trkpt><trkpt lat="42.42599031748841" lon="-8.05934875484816"><ele>408.0</ele><time>2026-04-03T11:32:16.999Z</time></trkpt><trkpt lat="42.425918910649784" lon="-8.05920179667793"><ele>407.75</ele><time>2026-04-03T11:32:17.999Z</time></trkpt><trkpt lat="42.42585173384358" lon="-8.059064858800479"><ele>407.5</ele><time>2026-04-03T11:32:18.999Z</time></trkpt><trkpt lat="42.42577980060153" lon="-8.058912999563196"><ele>407.25</ele><time>2026-04-03T11:32:19.999Z</time></trkpt><trkpt lat="42.42571692915114" lon="-8.058770850513586"><ele>407.0</ele><time>2026-04-03T11:32:20.999Z</time></trkpt><trkpt lat="42.42564483088855" lon="-8.058620149404518"><ele>407.0</ele><time>2026-04-03T11:32:21.999Z</time></trkpt><trkpt lat="42.425580245351" lon="-8.058476073148178"><ele>407.0</ele><time>2026-04-03T11:32:22.999Z</time></trkpt><trkpt lat="42.42551258898326" lon="-8.0583283797387"><ele>407.0</ele><time>2026-04-03T11:32:23.999Z</time></trkpt><trkpt lat="42.425443792499756" lon="-8.058175881986195"><ele>407.0</ele><time>2026-04-03T11:32:24.999Z</time></trkpt><trkpt lat="42.42537712814547" lon="-8.058030366644676"><ele>408.25</ele><time>2026-04-03T11:32:25.999Z</time></trkpt><trkpt lat="42.425308557528616" lon="-8.05788154502962"><ele>409.5</ele><time>2026-04-03T11:32:26.999Z</time></trkpt><trkpt lat="42.425238384236295" lon="-8.05772299917463"><ele>410.75</ele><time>2026-04-03T11:32:27.999Z</time></trkpt><trkpt lat="42.425175569159165" lon="-8.057571132091512"><ele>412.0</ele><time>2026-04-03T11:32:28.999Z</time></trkpt><trkpt lat="42.42510799937221" lon="-8.05741710521408"><ele>413.0</ele><time>2026-04-03T11:32:29.999Z</time></trkpt><trkpt lat="42.42503991207298" lon="-8.057261975152251"><ele>414.0</ele><time>2026-04-03T11:32:30.999Z</time></trkpt><trkpt lat="42.4249763261977" lon="-8.057099505044754"><ele>415.0</ele><time>2026-04-03T11:32:31.999Z</time></trkpt><trkpt lat="42.424912253087214" lon="-8.056940444921993"><ele>416.0</ele><time>2026-04-03T11:32:32.999Z</time></trkpt><trkpt lat="42.424853689086646" lon="-8.056782832754736"><ele>415.5</ele><time>2026-04-03T11:32:33.999Z</time></trkpt><trkpt lat="42.42479988109493" lon="-8.056610004235184"><ele>415.0</ele><time>2026-04-03T11:32:34.999Z</time></trkpt><trkpt lat="42.42473775568385" lon="-8.056440865627097"><ele>414.5</ele><time>2026-04-03T11:32:35.999Z</time></trkpt><trkpt lat="42.42467708822537" lon="-8.056276972317708"><ele>414.0</ele><time>2026-04-03T11:32:36.999Z</time></trkpt><trkpt lat="42.42461576216587" lon="-8.05610934355882"><ele>414.0</ele><time>2026-04-03T11:32:37.999Z</time></trkpt><trkpt lat="42.424556827425725" lon="-8.055943949629386"><ele>414.0</ele><time>2026-04-03T11:32:38.999Z</time></trkpt><trkpt lat="42.42450050845239" lon="-8.055772667972517"><ele>414.0</ele><time>2026-04-03T11:32:39.999Z</time></trkpt><trkpt lat="42.424438540694034" lon="-8.055608595339288"><ele>414.0</ele><time>2026-04-03T11:32:40.999Z</time></trkpt><trkpt lat="42.42437708999396" lon="-8.055443758351526"><ele>415.0</ele><time>2026-04-03T11:32:41.999Z</time></trkpt><trkpt lat="42.42431399384957" lon="-8.05526007460565"><ele>416.0</ele><time>2026-04-03T11:32:42.999Z</time></trkpt><trkpt lat="42.42425055052798" lon="-8.05509827509857"><ele>417.0</ele><time>2026-04-03T11:32:43.999Z</time></trkpt><trkpt lat="42.424179246781264" lon="-8.054925444447047"><ele>418.0</ele><time>2026-04-03T11:32:44.999Z</time></trkpt><trkpt lat="42.424112053469706" lon="-8.054761159174127"><ele>418.75</ele><time>2026-04-03T11:32:45.999Z</time></trkpt><trkpt lat="42.42404192168272" lon="-8.054588849049251"><ele>419.5</ele><time>2026-04-03T11:32:46.999Z</time></trkpt><trkpt lat="42.423971450898264" lon="-8.054417809560569"><ele>420.25</ele><time>2026-04-03T11:32:47.999Z</time></trkpt><trkpt lat="42.42389697694832" lon="-8.054240210189072"><ele>421.0</ele><time>2026-04-03T11:32:48.999Z</time></trkpt><trkpt lat="42.42382479091452" lon="-8.05406983336413"><ele>420.25</ele><time>2026-04-03T11:32:49.999Z</time></trkpt><trkpt lat="42.42375149895935" lon="-8.053892739079696"><ele>419.5</ele><time>2026-04-03T11:32:50.999Z</time></trkpt><trkpt lat="42.4236873622212" lon="-8.053721609599066"><ele>418.75</ele><time>2026-04-03T11:32:51.999Z</time></trkpt><trkpt lat="42.423627110407494" lon="-8.053535567344653"><ele>418.0</ele><time>2026-04-03T11:32:52.999Z</time></trkpt><trkpt lat="42.4235833961431" lon="-8.05334059469639"><ele>417.6666666666667</ele><time>2026-04-03T11:32:53.999Z</time></trkpt><trkpt lat="42.42355347108465" lon="-8.053132620045155"><ele>417.33333333333337</ele><time>2026-04-03T11:32:54.999Z</time></trkpt><trkpt lat="42.423531327232034" lon="-8.052928520056748"><ele>417.0</ele><time>2026-04-03T11:32:55.999Z</time></trkpt><trkpt lat="42.42352166885853" lon="-8.052722170355931"><ele>417.0</ele><time>2026-04-03T11:32:56.999Z</time></trkpt><trkpt lat="42.42350005296117" lon="-8.052511622604353"><ele>417.0</ele><time>2026-04-03T11:32:57.999Z</time></trkpt><trkpt lat="42.423464382621006" lon="-8.052306009081704"><ele>417.0</ele><time>2026-04-03T11:32:58.999Z</time></trkpt><trkpt lat="42.42338942892359" lon="-8.052128820672866"><ele>418.33333333333337</ele><time>2026-04-03T11:32:59.999Z</time></trkpt><trkpt lat="42.42329682626971" lon="-8.051959168979526"><ele>419.6666666666667</ele><time>2026-04-03T11:33:00.999Z</time></trkpt><trkpt lat="42.423195356931394" lon="-8.051808989013585"><ele>421.0</ele><time>2026-04-03T11:33:01.999Z</time></trkpt><trkpt lat="42.423082081481446" lon="-8.051671410264687"><ele>422.5</ele><time>2026-04-03T11:33:02.999Z</time></trkpt><trkpt lat="42.422982289839794" lon="-8.051540398257792"><ele>424.0</ele><time>2026-04-03T11:33:03.999Z</time></trkpt><trkpt lat="42.422852728863184" lon="-8.05142234614653"><ele>425.5</ele><time>2026-04-03T11:33:04.999Z</time></trkpt><trkpt lat="42.42273451847702" lon="-8.051306042041633"><ele>427.0</ele><time>2026-04-03T11:33:05.999Z</time></trkpt><trkpt lat="42.42261870030386" lon="-8.051188562583727"><ele>427.0</ele><time>2026-04-03T11:33:06.999Z</time></trkpt><trkpt lat="42.422506561711536" lon="-8.051077415163146"><ele>427.0</ele><time>2026-04-03T11:33:07.999Z</time></trkpt><trkpt lat="42.422399694302676" lon="-8.050969709035668"><ele>427.0</ele><time>2026-04-03T11:33:08.999Z</time></trkpt><trkpt lat="42.42232165818978" lon="-8.050833387356612"><ele>427.0</ele><time>2026-04-03T11:33:09.999Z</time></trkpt><trkpt lat="42.42226293691415" lon="-8.050684062741249"><ele>428.0</ele><time>2026-04-03T11:33:10.999Z</time></trkpt><trkpt lat="42.422230365404715" lon="-8.05052152637642"><ele>429.0</ele><time>2026-04-03T11:33:11.999Z</time></trkpt><trkpt lat="42.42221311751969" lon="-8.050347617944333"><ele>430.0</ele><time>2026-04-03T11:33:12.999Z</time></trkpt><trkpt lat="42.42220487021041" lon="-8.0501721014562"><ele>431.0</ele><time>2026-04-03T11:33:13.999Z</time></trkpt><trkpt lat="42.4221980005812" lon="-8.049997496209746"><ele>430.0</ele><time>2026-04-03T11:33:14.999Z</time></trkpt><trkpt lat="42.42219203073144" lon="-8.049816943999138"><ele>429.0</ele><time>2026-04-03T11:33:15.999Z</time></trkpt><trkpt lat="42.42218354490146" lon="-8.049627762299128"><ele>428.0</ele><time>2026-04-03T11:33:16.999Z</time></trkpt><trkpt lat="42.422181238874735" lon="-8.04943754377508"><ele>427.0</ele><time>2026-04-03T11:33:17.999Z</time></trkpt><trkpt lat="42.42217392064355" lon="-8.049252655181819"><ele>427.0</ele><time>2026-04-03T11:33:18.999Z</time></trkpt><trkpt lat="42.4221555503906" lon="-8.049074453331096"><ele>427.0</ele><time>2026-04-03T11:33:19.999Z</time></trkpt><trkpt lat="42.42213814074168" lon="-8.048917931288292"><ele>427.0</ele><time>2026-04-03T11:33:20.999Z</time></trkpt><trkpt lat="42.422127455046606" lon="-8.048767632381557"><ele>427.0</ele><time>2026-04-03T11:33:21.999Z</time></trkpt><trkpt lat="42.42211231623613" lon="-8.048623340582594"><ele>425.0</ele><time>2026-04-03T11:33:22.999Z</time></trkpt><trkpt lat="42.422103636825454" lon="-8.048462706024955"><ele>423.0</ele><time>2026-04-03T11:33:23.999Z</time></trkpt><trkpt lat="42.422090407811815" lon="-8.048292440518082"><ele>421.0</ele><time>2026-04-03T11:33:24.999Z</time></trkpt><trkpt lat="42.42207488384454" lon="-8.04810750504102"><ele>419.0</ele><time>2026-04-03T11:33:25.999Z</time></trkpt><trkpt lat="42.42206068837899" lon="-8.04791841843232"><ele>418.25</ele><time>2026-04-03T11:33:26.999Z</time></trkpt><trkpt lat="42.42205005696327" lon="-8.04772314572414"><ele>417.5</ele><time>2026-04-03T11:33:27.999Z</time></trkpt><trkpt lat="42.4220328471391" lon="-8.047529379680633"><ele>416.75</ele><time>2026-04-03T11:33:28.999Z</time></trkpt><trkpt lat="42.42201610369244" lon="-8.047329362115986"><ele>416.0</ele><time>2026-04-03T11:33:29.999Z</time></trkpt><trkpt lat="42.42199422631082" lon="-8.047130961763877"><ele>416.0</ele><time>2026-04-03T11:33:30.999Z</time></trkpt><trkpt lat="42.42197869930281" lon="-8.046923988389391"><ele>416.0</ele><time>2026-04-03T11:33:31.999Z</time></trkpt><trkpt lat="42.42196208149254" lon="-8.046717919820779"><ele>416.0</ele><time>2026-04-03T11:33:32.999Z</time></trkpt><trkpt lat="42.421953539312035" lon="-8.046518740736834"><ele>415.3333333333333</ele><time>2026-04-03T11:33:33.999Z</time></trkpt><trkpt lat="42.42195050002643" lon="-8.04630648181996"><ele>414.66666666666663</ele><time>2026-04-03T11:33:34.999Z</time></trkpt><trkpt lat="42.42195854383075" lon="-8.04610225024405"><ele>414.0</ele><time>2026-04-03T11:33:35.999Z</time></trkpt><trkpt lat="42.42198145923368" lon="-8.045895361940792"><ele>413.25</ele><time>2026-04-03T11:33:36.999Z</time></trkpt><trkpt lat="42.42201247815786" lon="-8.045702641871811"><ele>412.5</ele><time>2026-04-03T11:33:37.999Z</time></trkpt><trkpt lat="42.42203842626462" lon="-8.045511403968911"><ele>411.75</ele><time>2026-04-03T11:33:38.999Z</time></trkpt><trkpt lat="42.42206898834887" lon="-8.04531571330505"><ele>411.0</ele><time>2026-04-03T11:33:39.999Z</time></trkpt><trkpt lat="42.42210094646835" lon="-8.045138465189469"><ele>410.5</ele><time>2026-04-03T11:33:40.999Z</time></trkpt><trkpt lat="42.42211833507656" lon="-8.044950429437831"><ele>410.0</ele><time>2026-04-03T11:33:41.999Z</time></trkpt><trkpt lat="42.422119991268325" lon="-8.044768544428745"><ele>409.5</ele><time>2026-04-03T11:33:42.999Z</time></trkpt><trkpt lat="42.42210381841526" lon="-8.044584971675807"><ele>409.0</ele><time>2026-04-03T11:33:43.999Z</time></trkpt><trkpt lat="42.422065528377054" lon="-8.04440416288099"><ele>409.0</ele><time>2026-04-03T11:33:44.999Z</time></trkpt><trkpt lat="42.42201067164378" lon="-8.044235200646526"><ele>409.0</ele><time>2026-04-03T11:33:45.999Z</time></trkpt><trkpt lat="42.42194667737001" lon="-8.044076060509237"><ele>409.0</ele><time>2026-04-03T11:33:46.999Z</time></trkpt><trkpt lat="42.42187918524802" lon="-8.043923537917077"><ele>409.0</ele><time>2026-04-03T11:33:47.999Z</time></trkpt><trkpt lat="42.421803024150535" lon="-8.043774686441612"><ele>409.0</ele><time>2026-04-03T11:33:48.999Z</time></trkpt><trkpt lat="42.42171981318039" lon="-8.04362332715299"><ele>409.0</ele><time>2026-04-03T11:33:49.999Z</time></trkpt><trkpt lat="42.421632842620575" lon="-8.043469603133145"><ele>409.0</ele><time>2026-04-03T11:33:50.999Z</time></trkpt><trkpt lat="42.42154344119068" lon="-8.04331173263364"><ele>409.0</ele><time>2026-04-03T11:33:51.999Z</time></trkpt><trkpt lat="42.42144679540688" lon="-8.043152592668203"><ele>408.25</ele><time>2026-04-03T11:33:52.999Z</time></trkpt><trkpt lat="42.42135605223368" lon="-8.04300236764236"><ele>407.5</ele><time>2026-04-03T11:33:53.999Z</time></trkpt><trkpt lat="42.421260939356" lon="-8.042861413462857"><ele>406.75</ele><time>2026-04-03T11:33:54.999Z</time></trkpt><trkpt lat="42.42115515380537" lon="-8.04272171550086"><ele>406.0</ele><time>2026-04-03T11:33:55.999Z</time></trkpt><trkpt lat="42.42104623887268" lon="-8.042588409726454"><ele>406.0</ele><time>2026-04-03T11:33:56.999Z</time></trkpt><trkpt lat="42.42093791975389" lon="-8.042468300756537"><ele>406.0</ele><time>2026-04-03T11:33:57.999Z</time></trkpt><trkpt lat="42.42081866710989" lon="-8.042362123195067"><ele>406.0</ele><time>2026-04-03T11:33:58.999Z</time></trkpt><trkpt lat="42.420702393244184" lon="-8.042260225291077"><ele>406.0</ele><time>2026-04-03T11:33:59.998Z</time></trkpt><trkpt lat="42.420582149278594" lon="-8.042164261958002"><ele>407.75</ele><time>2026-04-03T11:34:00.998Z</time></trkpt><trkpt lat="42.42046591406179" lon="-8.042082286228922"><ele>409.5</ele><time>2026-04-03T11:34:01.998Z</time></trkpt><trkpt lat="42.42034714646046" lon="-8.04200922863373"><ele>411.25</ele><time>2026-04-03T11:34:02.998Z</time></trkpt><trkpt lat="42.42022370715314" lon="-8.041942087586106"><ele>413.0</ele><time>2026-04-03T11:34:03.998Z</time></trkpt><trkpt lat="42.4201020100901" lon="-8.041885352980799"><ele>413.0</ele><time>2026-04-03T11:34:04.998Z</time></trkpt><trkpt lat="42.419984117140416" lon="-8.04183281689737"><ele>413.0</ele><time>2026-04-03T11:34:05.998Z</time></trkpt><trkpt lat="42.41986319494533" lon="-8.041785540893763"><ele>413.0</ele><time>2026-04-03T11:34:06.998Z</time></trkpt><trkpt lat="42.41975190041631" lon="-8.041755661156015"><ele>413.0</ele><time>2026-04-03T11:34:07.998Z</time></trkpt><trkpt lat="42.41962668192802" lon="-8.041710136226305"><ele>413.0</ele><time>2026-04-03T11:34:08.999Z</time></trkpt><trkpt lat="42.41951927672838" lon="-8.041666496059781"><ele>413.0</ele><time>2026-04-03T11:34:09.999Z</time></trkpt><trkpt lat="42.41941139792949" lon="-8.041644615608634"><ele>413.0</ele><time>2026-04-03T11:34:10.999Z</time></trkpt><trkpt lat="42.419309992292995" lon="-8.041609221292656"><ele>413.0</ele><time>2026-04-03T11:34:11.999Z</time></trkpt><trkpt lat="42.41921187238477" lon="-8.041574973817145"><ele>413.0</ele><time>2026-04-03T11:34:12.999Z</time></trkpt><trkpt lat="42.41902146029322" lon="-8.041505670481017"><ele>414.5</ele><time>2026-04-03T11:34:13.999Z</time></trkpt><trkpt lat="42.41888338204101" lon="-8.041436163150614"><ele>416.0</ele><time>2026-04-03T11:34:14.999Z</time></trkpt><trkpt lat="42.41875319764952" lon="-8.041381172634253"><ele>417.5</ele><time>2026-04-03T11:34:15.999Z</time></trkpt><trkpt lat="42.41862368078751" lon="-8.041289315012385"><ele>419.0</ele><time>2026-04-03T11:34:16.999Z</time></trkpt><trkpt lat="42.418501727890046" lon="-8.041187114328611"><ele>419.0</ele><time>2026-04-03T11:34:17.999Z</time></trkpt><trkpt lat="42.41838337516616" lon="-8.041069576464466"><ele>419.0</ele><time>2026-04-03T11:34:18.999Z</time></trkpt><trkpt lat="42.41826584665482" lon="-8.040947577819944"><ele>419.0</ele><time>2026-04-03T11:34:19.999Z</time></trkpt><trkpt lat="42.41815753632562" lon="-8.040840159178142"><ele>419.0</ele><time>2026-04-03T11:34:20.999Z</time></trkpt><trkpt lat="42.418092569634794" lon="-8.040754777208006"><ele>418.5</ele><time>2026-04-03T11:34:21.999Z</time></trkpt><trkpt lat="42.41798956543439" lon="-8.04064667828709"><ele>418.0</ele><time>2026-04-03T11:34:22.999Z</time></trkpt><trkpt lat="42.417890595589235" lon="-8.040525841995002"><ele>417.5</ele><time>2026-04-03T11:34:23.999Z</time></trkpt><trkpt lat="42.417797483606044" lon="-8.040392143504071"><ele>417.0</ele><time>2026-04-03T11:34:24.999Z</time></trkpt><trkpt lat="42.417721036023906" lon="-8.040239953509895"><ele>417.0</ele><time>2026-04-03T11:34:25.999Z</time></trkpt><trkpt lat="42.41766432990978" lon="-8.040074702021773"><ele>417.0</ele><time>2026-04-03T11:34:26.999Z</time></trkpt><trkpt lat="42.4176111806779" lon="-8.039892502785047"><ele>417.0</ele><time>2026-04-03T11:34:27.999Z</time></trkpt><trkpt lat="42.41756445919519" lon="-8.039716337236468"><ele>417.0</ele><time>2026-04-03T11:34:28.999Z</time></trkpt><trkpt lat="42.41750689236901" lon="-8.039534533867343"><ele>418.0</ele><time>2026-04-03T11:34:29.999Z</time></trkpt><trkpt lat="42.41745406661895" lon="-8.039363125851489"><ele>419.0</ele><time>2026-04-03T11:34:30.999Z</time></trkpt><trkpt lat="42.41739281813134" lon="-8.039180205501454"><ele>420.0</ele><time>2026-04-03T11:34:31.999Z</time></trkpt><trkpt lat="42.41732827188013" lon="-8.039017154607837"><ele>421.0</ele><time>2026-04-03T11:34:32.999Z</time></trkpt><trkpt lat="42.41728027622669" lon="-8.03883647275675"><ele>422.25</ele><time>2026-04-03T11:34:33.999Z</time></trkpt><trkpt lat="42.4172326915341" lon="-8.038661167536945"><ele>423.5</ele><time>2026-04-03T11:34:34.999Z</time></trkpt><trkpt lat="42.4171890572727" lon="-8.038509112251907"><ele>424.75</ele><time>2026-04-03T11:34:35.999Z</time></trkpt><trkpt lat="42.41713413804664" lon="-8.03837751013807"><ele>426.0</ele><time>2026-04-03T11:34:36.999Z</time></trkpt><trkpt lat="42.41708326958568" lon="-8.038270663587781"><ele>426.6666666666667</ele><time>2026-04-03T11:34:37.999Z</time></trkpt><trkpt lat="42.417025033684865" lon="-8.038198656479135"><ele>427.33333333333337</ele><time>2026-04-03T11:34:38.999Z</time></trkpt><trkpt lat="42.41697504618941" lon="-8.038141588244299"><ele>428.0</ele><time>2026-04-03T11:34:39.999Z</time></trkpt><trkpt lat="42.41689817094023" lon="-8.03811362725723"><ele>428.6666666666667</ele><time>2026-04-03T11:34:41.999Z</time></trkpt><trkpt lat="42.41679670851334" lon="-8.038195094696551"><ele>429.33333333333337</ele><time>2026-04-03T11:34:44.999Z</time></trkpt><trkpt lat="42.41674428440998" lon="-8.038246475785726"><ele>430.0</ele><time>2026-04-03T11:34:46.999Z</time></trkpt><trkpt lat="42.41668143308717" lon="-8.038264163552688"><ele>429.6666666666667</ele><time>2026-04-03T11:34:48.999Z</time></trkpt><trkpt lat="42.41660333807276" lon="-8.03832530331846"><ele>429.33333333333337</ele><time>2026-04-03T11:34:51.999Z</time></trkpt><trkpt lat="42.41652194997643" lon="-8.03837254755183"><ele>429.0</ele><time>2026-04-03T11:34:54.999Z</time></trkpt><trkpt lat="42.4164614767159" lon="-8.038407651126734"><ele>428.66666666666663</ele><time>2026-04-03T11:34:56.999Z</time></trkpt><trkpt lat="42.41640179763429" lon="-8.038442293695004"><ele>428.3333333333333</ele><time>2026-04-03T11:34:58.999Z</time></trkpt><trkpt lat="42.416340935431236" lon="-8.03847762302877"><ele>428.0</ele><time>2026-04-03T11:35:39.999Z</time></trkpt><trkpt lat="42.41627197449902" lon="-8.03854132996844"><ele>427.79999999999995</ele><time>2026-04-03T11:35:44.999Z</time></trkpt><trkpt lat="42.41637574554783" lon="-8.038457416415318"><ele>427.59999999999997</ele><time>2026-04-03T11:37:00.999Z</time></trkpt><trkpt lat="42.41644237514345" lon="-8.038418739203633"><ele>427.40000000000003</ele><time>2026-04-03T11:37:02.999Z</time></trkpt><trkpt lat="42.41654175913307" lon="-8.038361048734851"><ele>427.20000000000005</ele><time>2026-04-03T11:37:04.999Z</time></trkpt><trkpt lat="42.41664972215756" lon="-8.03829907341851"><ele>427.0</ele><time>2026-04-03T11:37:06.999Z</time></trkpt><trkpt lat="42.41674833081151" lon="-8.038244224978666"><ele>427.6</ele><time>2026-04-03T11:37:08.999Z</time></trkpt><trkpt lat="42.41682123048095" lon="-8.038203676494437"><ele>428.20000000000005</ele><time>2026-04-03T11:37:10.999Z</time></trkpt><trkpt lat="42.4168888485091" lon="-8.038169061757415"><ele>428.8</ele><time>2026-04-03T11:37:13.999Z</time></trkpt><trkpt lat="42.41695196559278" lon="-8.038053232984309"><ele>429.4</ele><time>2026-04-03T11:42:44Z</time></trkpt><trkpt lat="42.41700751995625" lon="-8.038154858068452"><ele>430.0</ele><time>2026-04-03T11:42:47Z</time></trkpt><trkpt lat="42.41733074224507" lon="-8.037755524147766"><ele>430.00000000000006</ele><time>2026-04-03T11:42:51Z</time></trkpt><trkpt lat="42.4173882358335" lon="-8.037674682452112"><ele>430.0</ele><time>2026-04-03T11:42:52Z</time></trkpt><trkpt lat="42.417440188700056" lon="-8.037590483386007"><ele>430.0</ele><time>2026-04-03T11:42:53Z</time></trkpt><trkpt lat="42.4174947409507" lon="-8.037507125869732"><ele>430.0</ele><time>2026-04-03T11:42:54Z</time></trkpt><trkpt lat="42.417545813091955" lon="-8.03741944401338"><ele>430.00000000000006</ele><time>2026-04-03T11:42:55Z</time></trkpt><trkpt lat="42.417579703513546" lon="-8.037323746216588"><ele>430.0</ele><time>2026-04-03T11:42:56Z</time></trkpt><trkpt lat="42.417578614165244" lon="-8.037219791572108"><ele>431.0</ele><time>2026-04-03T11:42:57Z</time></trkpt><trkpt lat="42.41754951577015" lon="-8.037109396253742"><ele>432.0</ele><time>2026-04-03T11:42:58Z</time></trkpt><trkpt lat="42.417515176762066" lon="-8.036994486413377"><ele>433.0</ele><time>2026-04-03T11:42:59Z</time></trkpt><trkpt lat="42.41748179477522" lon="-8.036875255351429"><ele>434.0</ele><time>2026-04-03T11:43:00Z</time></trkpt><trkpt lat="42.417451568468834" lon="-8.036762775840472"><ele>435.0</ele><time>2026-04-03T11:43:01Z</time></trkpt><trkpt lat="42.41742622925668" lon="-8.036644156155887"><ele>435.8</ele><time>2026-04-03T11:43:02Z</time></trkpt><trkpt lat="42.41740659890369" lon="-8.036519342853817"><ele>436.6</ele><time>2026-04-03T11:43:03Z</time></trkpt><trkpt lat="42.41739797528422" lon="-8.036389899416791"><ele>437.4</ele><time>2026-04-03T11:43:04Z</time></trkpt><trkpt lat="42.41739079273958" lon="-8.036260674797031"><ele>438.2</ele><time>2026-04-03T11:43:05Z</time></trkpt><trkpt lat="42.417384954757104" lon="-8.036130297200756"><ele>439.0</ele><time>2026-04-03T11:43:06Z</time></trkpt><trkpt lat="42.41737828593795" lon="-8.036002375265907"><ele>439.00000000000006</ele><time>2026-04-03T11:43:07Z</time></trkpt><trkpt lat="42.41737095425123" lon="-8.035880165826418"><ele>439.0</ele><time>2026-04-03T11:43:08Z</time></trkpt><trkpt lat="42.41736824761823" lon="-8.035763936892875"><ele>439.0</ele><time>2026-04-03T11:43:09Z</time></trkpt><trkpt lat="42.41737255562859" lon="-8.035652390531679"><ele>439.0</ele><time>2026-04-03T11:43:10Z</time></trkpt><trkpt lat="42.417389976746335" lon="-8.035546521931122"><ele>439.00000000000006</ele><time>2026-04-03T11:43:11Z</time></trkpt><trkpt lat="42.41741248587655" lon="-8.035463634460573"><ele>439.0</ele><time>2026-04-03T11:43:12Z</time></trkpt><trkpt lat="42.41744358671282" lon="-8.035386275275993"><ele>439.1666666666667</ele><time>2026-04-03T11:43:15Z</time></trkpt><trkpt lat="42.417513564716344" lon="-8.035262845468754"><ele>439.33333333333337</ele><time>2026-04-03T11:45:20Z</time></trkpt><trkpt lat="42.417544560462524" lon="-8.035174082577488"><ele>439.5</ele><time>2026-04-03T11:45:21Z</time></trkpt><trkpt lat="42.417588909921264" lon="-8.035090229353154"><ele>439.66666666666663</ele><time>2026-04-03T11:45:22Z</time></trkpt><trkpt lat="42.41762710932868" lon="-8.035013533962065"><ele>439.8333333333333</ele><time>2026-04-03T11:45:23Z</time></trkpt><trkpt lat="42.41767828954373" lon="-8.034879479949941"><ele>440.0</ele><time>2026-04-03T11:45:25Z</time></trkpt><trkpt lat="42.41769052892634" lon="-8.03478006563051"><ele>440.0</ele><time>2026-04-03T11:45:26.999Z</time></trkpt><trkpt lat="42.41764261691929" lon="-8.034646173356533"><ele>440.0</ele><time>2026-04-03T11:45:28.999Z</time></trkpt><trkpt lat="42.417509050759435" lon="-8.03470240294224"><ele>440.0</ele><time>2026-04-03T11:45:29.999Z</time></trkpt><trkpt lat="42.417424112186296" lon="-8.034697879671539"><ele>440.0</ele><time>2026-04-03T11:45:30.999Z</time></trkpt><trkpt lat="42.41733911693943" lon="-8.03469190871658"><ele>440.0</ele><time>2026-04-03T11:45:31.999Z</time></trkpt><trkpt lat="42.41726126925633" lon="-8.034692323385647"><ele>439.99999999999994</ele><time>2026-04-03T11:45:32.999Z</time></trkpt><trkpt lat="42.417173562356375" lon="-8.03469142842583"><ele>440.0</ele><time>2026-04-03T11:45:33.999Z</time></trkpt><trkpt lat="42.41709939373911" lon="-8.034686781729757"><ele>440.0</ele><time>2026-04-03T11:45:34.999Z</time></trkpt><trkpt lat="42.41702014361058" lon="-8.034683437500773"><ele>440.0</ele><time>2026-04-03T11:45:35.999Z</time></trkpt><trkpt lat="42.416938890190856" lon="-8.034677960380352"><ele>439.99999999999994</ele><time>2026-04-03T11:45:36.999Z</time></trkpt><trkpt lat="42.41685132019782" lon="-8.034675857568015"><ele>440.0</ele><time>2026-04-03T11:45:37.999Z</time></trkpt><trkpt lat="42.41677350051909" lon="-8.034661658223243"><ele>439.6</ele><time>2026-04-03T11:45:38.999Z</time></trkpt><trkpt lat="42.41668956807296" lon="-8.034650609298158"><ele>439.2</ele><time>2026-04-03T11:45:39.999Z</time></trkpt><trkpt lat="42.41657954413529" lon="-8.034650037909636"><ele>438.79999999999995</ele><time>2026-04-03T11:45:40.999Z</time></trkpt><trkpt lat="42.416480456807875" lon="-8.03464079182621"><ele>438.4</ele><time>2026-04-03T11:45:41.999Z</time></trkpt><trkpt lat="42.41638405710764" lon="-8.03462980535873"><ele>438.0</ele><time>2026-04-03T11:45:42.999Z</time></trkpt><trkpt lat="42.41629872420239" lon="-8.034625942451619"><ele>437.1666666666667</ele><time>2026-04-03T11:45:43.999Z</time></trkpt><trkpt lat="42.416221794058686" lon="-8.034627475432073"><ele>436.33333333333337</ele><time>2026-04-03T11:45:44.999Z</time></trkpt><trkpt lat="42.41614913920062" lon="-8.0346259769886"><ele>435.5</ele><time>2026-04-03T11:45:45.999Z</time></trkpt><trkpt lat="42.416075999158686" lon="-8.034626577837637"><ele>434.6666666666667</ele><time>2026-04-03T11:45:46.999Z</time></trkpt><trkpt lat="42.41595398500865" lon="-8.034642665113696"><ele>433.83333333333337</ele><time>2026-04-03T11:45:48.999Z</time></trkpt><trkpt lat="42.415874907966696" lon="-8.034652812844403"><ele>433.0</ele><time>2026-04-03T11:45:49.999Z</time></trkpt><trkpt lat="42.415741799137194" lon="-8.034707531736201"><ele>433.00000000000006</ele><time>2026-04-03T11:45:51.999Z</time></trkpt><trkpt lat="42.415661853307626" lon="-8.034723345159483"><ele>433.0</ele><time>2026-04-03T11:45:52.999Z</time></trkpt><trkpt lat="42.41559069265958" lon="-8.034736610233782"><ele>433.0</ele><time>2026-04-03T11:45:53.999Z</time></trkpt><trkpt lat="42.415513873894284" lon="-8.034751158852773"><ele>433.0</ele><time>2026-04-03T11:45:54.999Z</time></trkpt><trkpt lat="42.4154318933517" lon="-8.034770827356335"><ele>433.00000000000006</ele><time>2026-04-03T11:45:55.999Z</time></trkpt><trkpt lat="42.41535080387708" lon="-8.034783251758281"><ele>433.0</ele><time>2026-04-03T11:45:56.999Z</time></trkpt><trkpt lat="42.4152872900737" lon="-8.034841052422355"><ele>432.4</ele><time>2026-04-03T11:45:57.999Z</time></trkpt><trkpt lat="42.415219633259916" lon="-8.034888886385994"><ele>431.79999999999995</ele><time>2026-04-03T11:45:58.999Z</time></trkpt><trkpt lat="42.41516189052016" lon="-8.03494614268787"><ele>431.2</ele><time>2026-04-03T11:46:01.999Z</time></trkpt><trkpt lat="42.41520793396951" lon="-8.035107258181293"><ele>430.6</ele><time>2026-04-03T11:46:04.999Z</time></trkpt><trkpt lat="42.41524824272156" lon="-8.035217689653473"><ele>430.0</ele><time>2026-04-03T11:46:05.999Z</time></trkpt><trkpt lat="42.415302633741476" lon="-8.035329484179933"><ele>430.0</ele><time>2026-04-03T11:46:06.999Z</time></trkpt><trkpt lat="42.41535251456306" lon="-8.035453310487984"><ele>430.0</ele><time>2026-04-03T11:46:07.999Z</time></trkpt><trkpt lat="42.41540553992101" lon="-8.035573264991564"><ele>430.0</ele><time>2026-04-03T11:46:08.999Z</time></trkpt><trkpt lat="42.41546230866522" lon="-8.03570909602282"><ele>430.0</ele><time>2026-04-03T11:46:09.999Z</time></trkpt><trkpt lat="42.41552471134126" lon="-8.03584108501609"><ele>430.0</ele><time>2026-04-03T11:46:10.999Z</time></trkpt><trkpt lat="42.41558868993379" lon="-8.035970727056421"><ele>431.25</ele><time>2026-04-03T11:46:11.999Z</time></trkpt><trkpt lat="42.415655826952104" lon="-8.036108474477082"><ele>432.5</ele><time>2026-04-03T11:46:12.999Z</time></trkpt><trkpt lat="42.41572749031508" lon="-8.036241689220693"><ele>433.75</ele><time>2026-04-03T11:46:13.999Z</time></trkpt><trkpt lat="42.415808581769895" lon="-8.036371892469267"><ele>435.0</ele><time>2026-04-03T11:46:14.999Z</time></trkpt><trkpt lat="42.41589970738193" lon="-8.036498061436475"><ele>435.0</ele><time>2026-04-03T11:46:15.999Z</time></trkpt><trkpt lat="42.415995867870265" lon="-8.036622249865184"><ele>435.0</ele><time>2026-04-03T11:46:16.999Z</time></trkpt><trkpt lat="42.41609068100287" lon="-8.03675357854121"><ele>435.0</ele><time>2026-04-03T11:46:17.999Z</time></trkpt><trkpt lat="42.41618508058417" lon="-8.036890743731293"><ele>435.0</ele><time>2026-04-03T11:46:18.999Z</time></trkpt><trkpt lat="42.41629107773996" lon="-8.037031803608913"><ele>434.75</ele><time>2026-04-03T11:46:19.999Z</time></trkpt><trkpt lat="42.41638292213381" lon="-8.037172302148576"><ele>434.5</ele><time>2026-04-03T11:46:20.999Z</time></trkpt><trkpt lat="42.41647891798087" lon="-8.03730503856955"><ele>434.25</ele><time>2026-04-03T11:46:21.999Z</time></trkpt><trkpt lat="42.41657956051963" lon="-8.037451688292563"><ele>434.0</ele><time>2026-04-03T11:46:22.999Z</time></trkpt><trkpt lat="42.41667615999344" lon="-8.037587410566575"><ele>433.0</ele><time>2026-04-03T11:46:23.999Z</time></trkpt><trkpt lat="42.41677157663369" lon="-8.037735972427404"><ele>432.0</ele><time>2026-04-03T11:46:24.999Z</time></trkpt><trkpt lat="42.41686846461228" lon="-8.037870727345831"><ele>431.0</ele><time>2026-04-03T11:46:25.999Z</time></trkpt><trkpt lat="42.41696119818761" lon="-8.038016875664521"><ele>430.0</ele><time>2026-04-03T11:46:26.999Z</time></trkpt><trkpt lat="42.417044550545455" lon="-8.038153467156272"><ele>429.25</ele><time>2026-04-03T11:46:27.999Z</time></trkpt><trkpt lat="42.41712033000839" lon="-8.038321266438425"><ele>428.5</ele><time>2026-04-03T11:46:28.999Z</time></trkpt><trkpt lat="42.417190018281175" lon="-8.03848781428451"><ele>427.75</ele><time>2026-04-03T11:46:29.999Z</time></trkpt><trkpt lat="42.417259913239185" lon="-8.038662717790793"><ele>427.0</ele><time>2026-04-03T11:46:30.999Z</time></trkpt><trkpt lat="42.417325244142" lon="-8.0388419337711"><ele>426.6666666666667</ele><time>2026-04-03T11:46:31.999Z</time></trkpt><trkpt lat="42.41738773159288" lon="-8.039030792577037"><ele>426.33333333333337</ele><time>2026-04-03T11:46:32.999Z</time></trkpt><trkpt lat="42.417455619354726" lon="-8.039229452413526"><ele>426.0</ele><time>2026-04-03T11:46:33.999Z</time></trkpt><trkpt lat="42.41752381680773" lon="-8.039429718772366"><ele>424.33333333333337</ele><time>2026-04-03T11:46:34.999Z</time></trkpt><trkpt lat="42.41758940705219" lon="-8.039635057187207"><ele>422.6666666666667</ele><time>2026-04-03T11:46:35.999Z</time></trkpt><trkpt lat="42.41765030161255" lon="-8.039841144790804"><ele>421.0</ele><time>2026-04-03T11:46:36.999Z</time></trkpt><trkpt lat="42.41771937624281" lon="-8.040038344982095"><ele>421.75</ele><time>2026-04-03T11:46:37.999Z</time></trkpt><trkpt lat="42.41778228335429" lon="-8.04022322413897"><ele>422.5</ele><time>2026-04-03T11:46:38.999Z</time></trkpt><trkpt lat="42.41786194079025" lon="-8.040384721418029"><ele>423.25</ele><time>2026-04-03T11:46:39.999Z</time></trkpt><trkpt lat="42.41794562658607" lon="-8.040520287990706"><ele>424.0</ele><time>2026-04-03T11:46:40.999Z</time></trkpt><trkpt lat="42.418044538808715" lon="-8.040637029502074"><ele>424.0</ele><time>2026-04-03T11:46:41.999Z</time></trkpt><trkpt lat="42.418150679553634" lon="-8.04074112629293"><ele>424.0</ele><time>2026-04-03T11:46:42.999Z</time></trkpt><trkpt lat="42.41825773416184" lon="-8.040850426138533"><ele>424.0</ele><time>2026-04-03T11:46:43.999Z</time></trkpt><trkpt lat="42.41835857025971" lon="-8.04096319318437"><ele>424.0</ele><time>2026-04-03T11:46:44.999Z</time></trkpt><trkpt lat="42.418459986649374" lon="-8.041070928100934"><ele>423.0</ele><time>2026-04-03T11:46:45.999Z</time></trkpt><trkpt lat="42.41856771690813" lon="-8.041173090825158"><ele>422.0</ele><time>2026-04-03T11:46:46.999Z</time></trkpt><trkpt lat="42.41868568853125" lon="-8.041266392780146"><ele>421.0</ele><time>2026-04-03T11:46:47.999Z</time></trkpt><trkpt lat="42.41881027095843" lon="-8.041350671884832"><ele>420.0</ele><time>2026-04-03T11:46:48.999Z</time></trkpt><trkpt lat="42.41892962201464" lon="-8.041421005572108"><ele>420.0</ele><time>2026-04-03T11:46:49.999Z</time></trkpt><trkpt lat="42.41906725794292" lon="-8.041491241226096"><ele>420.0</ele><time>2026-04-03T11:46:50.999Z</time></trkpt><trkpt lat="42.41920442112504" lon="-8.041535541035236"><ele>420.0</ele><time>2026-04-03T11:46:51.999Z</time></trkpt><trkpt lat="42.41934645035587" lon="-8.041582739243092"><ele>420.0</ele><time>2026-04-03T11:46:52.999Z</time></trkpt><trkpt lat="42.41950087033684" lon="-8.041635964854573"><ele>417.66666666666663</ele><time>2026-04-03T11:46:53.999Z</time></trkpt><trkpt lat="42.41965365599912" lon="-8.041692896368263"><ele>415.3333333333333</ele><time>2026-04-03T11:46:54.999Z</time></trkpt><trkpt lat="42.41982748578989" lon="-8.041760771327457"><ele>413.0</ele><time>2026-04-03T11:46:55.999Z</time></trkpt><trkpt lat="42.41999095848879" lon="-8.041842372753221"><ele>413.0</ele><time>2026-04-03T11:46:56.999Z</time></trkpt><trkpt lat="42.42014336594553" lon="-8.041882741738933"><ele>413.0</ele><time>2026-04-03T11:46:57.999Z</time></trkpt><trkpt lat="42.420303649203944" lon="-8.041949385806756"><ele>413.0</ele><time>2026-04-03T11:46:58.999Z</time></trkpt><trkpt lat="42.42046212229784" lon="-8.042045485712261"><ele>413.66666666666663</ele><time>2026-04-03T11:46:59.999Z</time></trkpt><trkpt lat="42.420616026338166" lon="-8.042156574158811"><ele>414.33333333333337</ele><time>2026-04-03T11:47:00.999Z</time></trkpt><trkpt lat="42.420765062676026" lon="-8.042273722514299"><ele>415.0</ele><time>2026-04-03T11:47:01.999Z</time></trkpt><trkpt lat="42.42091581615831" lon="-8.04240810167257"><ele>414.33333333333337</ele><time>2026-04-03T11:47:02.999Z</time></trkpt><trkpt lat="42.421056622901155" lon="-8.04255623423606"><ele>413.66666666666663</ele><time>2026-04-03T11:47:03.999Z</time></trkpt><trkpt lat="42.42118522265388" lon="-8.042708486410119"><ele>413.0</ele><time>2026-04-03T11:47:04.999Z</time></trkpt><trkpt lat="42.42131725158816" lon="-8.042882344976864"><ele>413.0</ele><time>2026-04-03T11:47:05.999Z</time></trkpt><trkpt lat="42.42143406821504" lon="-8.043064323696244"><ele>413.0</ele><time>2026-04-03T11:47:06.999Z</time></trkpt><trkpt lat="42.42154393266674" lon="-8.043254477224373"><ele>413.0</ele><time>2026-04-03T11:47:07.999Z</time></trkpt><trkpt lat="42.42165060945282" lon="-8.043444649957582"><ele>411.66666666666663</ele><time>2026-04-03T11:47:08.999Z</time></trkpt><trkpt lat="42.42175477936225" lon="-8.043635281092707"><ele>410.33333333333337</ele><time>2026-04-03T11:47:09.999Z</time></trkpt><trkpt lat="42.42185490636449" lon="-8.043823414555538"><ele>409.0</ele><time>2026-04-03T11:47:10.999Z</time></trkpt><trkpt lat="42.421951347923724" lon="-8.044008346448596"><ele>409.0</ele><time>2026-04-03T11:47:11.999Z</time></trkpt><trkpt lat="42.42203147054822" lon="-8.044200114298688"><ele>409.0</ele><time>2026-04-03T11:47:13Z</time></trkpt><trkpt lat="42.42209618926429" lon="-8.044395760361953"><ele>409.0</ele><time>2026-04-03T11:47:14Z</time></trkpt><trkpt lat="42.42213682182901" lon="-8.044605853938092"><ele>409.6666666666667</ele><time>2026-04-03T11:47:15Z</time></trkpt><trkpt lat="42.4221536738816" lon="-8.044821739171983"><ele>410.33333333333337</ele><time>2026-04-03T11:47:16Z</time></trkpt><trkpt lat="42.42215221130941" lon="-8.045045504046708"><ele>411.0</ele><time>2026-04-03T11:47:17Z</time></trkpt><trkpt lat="42.42212735345709" lon="-8.045274705790899"><ele>411.0</ele><time>2026-04-03T11:47:18Z</time></trkpt><trkpt lat="42.42208065019698" lon="-8.04550319758022"><ele>411.0</ele><time>2026-04-03T11:47:19Z</time></trkpt><trkpt lat="42.422031183793294" lon="-8.045733660727512"><ele>411.0</ele><time>2026-04-03T11:47:20Z</time></trkpt><trkpt lat="42.42198771412302" lon="-8.045966813046983"><ele>412.0</ele><time>2026-04-03T11:47:21Z</time></trkpt><trkpt lat="42.421961930654454" lon="-8.046214705615924"><ele>413.0</ele><time>2026-04-03T11:47:22Z</time></trkpt><trkpt lat="42.42195857525394" lon="-8.046460699397668"><ele>414.0</ele><time>2026-04-03T11:47:23Z</time></trkpt><trkpt lat="42.421973098810554" lon="-8.04671248193424"><ele>414.66666666666663</ele><time>2026-04-03T11:47:24Z</time></trkpt><trkpt lat="42.422000272199064" lon="-8.04696153570918"><ele>415.3333333333333</ele><time>2026-04-03T11:47:25Z</time></trkpt><trkpt lat="42.42202549243166" lon="-8.047198942844515"><ele>416.0</ele><time>2026-04-03T11:47:26Z</time></trkpt><trkpt lat="42.42204675331218" lon="-8.047418863816548"><ele>416.0</ele><time>2026-04-03T11:47:27Z</time></trkpt><trkpt lat="42.42205914552564" lon="-8.047622741281822"><ele>416.0</ele><time>2026-04-03T11:47:28Z</time></trkpt><trkpt lat="42.42207301444629" lon="-8.047807166549164"><ele>416.0</ele><time>2026-04-03T11:47:29Z</time></trkpt><trkpt lat="42.42209124302336" lon="-8.047977266853488"><ele>416.0</ele><time>2026-04-03T11:47:30Z</time></trkpt><trkpt lat="42.422105702207126" lon="-8.048145120599765"><ele>416.0</ele><time>2026-04-03T11:47:31Z</time></trkpt><trkpt lat="42.42210836821899" lon="-8.048291846614005"><ele>416.0</ele><time>2026-04-03T11:47:32Z</time></trkpt><trkpt lat="42.42212346317451" lon="-8.04842605071542"><ele>416.0</ele><time>2026-04-03T11:47:33Z</time></trkpt><trkpt lat="42.42213375002025" lon="-8.048547702335464"><ele>416.0</ele><time>2026-04-03T11:47:34Z</time></trkpt><trkpt lat="42.42214441499754" lon="-8.048662189645919"><ele>416.0</ele><time>2026-04-03T11:47:35Z</time></trkpt><trkpt lat="42.422145901011454" lon="-8.04876524737326"><ele>417.8333333333333</ele><time>2026-04-03T11:47:36Z</time></trkpt><trkpt lat="42.4221514495302" lon="-8.048861615350713"><ele>419.66666666666663</ele><time>2026-04-03T11:47:37Z</time></trkpt><trkpt lat="42.4221614272124" lon="-8.048963523368903"><ele>421.5</ele><time>2026-04-03T11:47:38Z</time></trkpt><trkpt lat="42.42216928169737" lon="-8.04908119026657"><ele>423.33333333333337</ele><time>2026-04-03T11:47:39Z</time></trkpt><trkpt lat="42.42217884093227" lon="-8.049212533852028"><ele>425.1666666666667</ele><time>2026-04-03T11:47:40Z</time></trkpt><trkpt lat="42.42219127374259" lon="-8.049359477885726"><ele>427.0</ele><time>2026-04-03T11:47:41Z</time></trkpt><trkpt lat="42.42220439715058" lon="-8.04951884440506"><ele>427.0</ele><time>2026-04-03T11:47:42Z</time></trkpt><trkpt lat="42.42221471385313" lon="-8.0496950590624"><ele>427.0</ele><time>2026-04-03T11:47:43Z</time></trkpt><trkpt lat="42.422227242451925" lon="-8.049865631762243"><ele>427.0</ele><time>2026-04-03T11:47:44Z</time></trkpt><trkpt lat="42.42223820959071" lon="-8.050040257494514"><ele>427.0</ele><time>2026-04-03T11:47:45Z</time></trkpt><trkpt lat="42.42225043991691" lon="-8.050212750838131"><ele>427.0</ele><time>2026-04-03T11:47:46Z</time></trkpt><trkpt lat="42.422263516605334" lon="-8.050384637350568"><ele>427.0</ele><time>2026-04-03T11:47:47Z</time></trkpt><trkpt lat="42.42227932554803" lon="-8.050544973442648"><ele>427.0</ele><time>2026-04-03T11:47:48Z</time></trkpt><trkpt lat="42.42230354339816" lon="-8.050711943200556"><ele>427.0</ele><time>2026-04-03T11:47:49Z</time></trkpt><trkpt lat="42.42235154843436" lon="-8.050873431217326"><ele>427.0</ele><time>2026-04-03T11:47:50Z</time></trkpt><trkpt lat="42.42245522489097" lon="-8.050979990377943"><ele>427.0</ele><time>2026-04-03T11:47:51Z</time></trkpt><trkpt lat="42.422563881326084" lon="-8.051094280647321"><ele>427.0</ele><time>2026-04-03T11:47:52Z</time></trkpt><trkpt lat="42.422678573010764" lon="-8.0512062026039"><ele>427.0</ele><time>2026-04-03T11:47:53Z</time></trkpt><trkpt lat="42.42278934280279" lon="-8.051336325209826"><ele>427.0</ele><time>2026-04-03T11:47:54Z</time></trkpt><trkpt lat="42.42292648073037" lon="-8.051462102526264"><ele>427.0</ele><time>2026-04-03T11:47:55Z</time></trkpt><trkpt lat="42.42303853541097" lon="-8.051583346516823"><ele>427.0</ele><time>2026-04-03T11:47:56Z</time></trkpt><trkpt lat="42.42315960815555" lon="-8.051702703522276"><ele>425.0</ele><time>2026-04-03T11:47:57Z</time></trkpt><trkpt lat="42.42327183306415" lon="-8.051852761791313"><ele>423.0</ele><time>2026-04-03T11:47:58Z</time></trkpt><trkpt lat="42.42337438419895" lon="-8.052019897227293"><ele>421.0</ele><time>2026-04-03T11:47:59Z</time></trkpt><trkpt lat="42.4234493899621" lon="-8.052213710638489"><ele>421.0</ele><time>2026-04-03T11:48:00Z</time></trkpt><trkpt lat="42.42350699676646" lon="-8.052405337736573"><ele>421.0</ele><time>2026-04-03T11:48:01Z</time></trkpt><trkpt lat="42.4235385938058" lon="-8.052609318091836"><ele>421.0</ele><time>2026-04-03T11:48:02Z</time></trkpt><trkpt lat="42.423561613846445" lon="-8.052813367066266"><ele>420.25</ele><time>2026-04-03T11:48:03Z</time></trkpt><trkpt lat="42.423583334269765" lon="-8.053006795022242"><ele>419.5</ele><time>2026-04-03T11:48:04Z</time></trkpt><trkpt lat="42.42360180710666" lon="-8.053207433731655"><ele>418.75</ele><time>2026-04-03T11:48:05Z</time></trkpt><trkpt lat="42.423625462550035" lon="-8.053410692907253"><ele>418.0</ele><time>2026-04-03T11:48:06Z</time></trkpt><trkpt lat="42.4236671351866" lon="-8.05360167653591"><ele>418.0</ele><time>2026-04-03T11:48:07Z</time></trkpt><trkpt lat="42.423720231222674" lon="-8.053781224801737"><ele>418.0</ele><time>2026-04-03T11:48:08Z</time></trkpt><trkpt lat="42.42379629949911" lon="-8.05395307780301"><ele>418.0</ele><time>2026-04-03T11:48:09Z</time></trkpt><trkpt lat="42.42388511437037" lon="-8.054127106500918"><ele>418.0</ele><time>2026-04-03T11:48:10Z</time></trkpt><trkpt lat="42.423950552104806" lon="-8.054300333318263"><ele>419.0</ele><time>2026-04-03T11:48:10.999Z</time></trkpt><trkpt lat="42.424027067635585" lon="-8.054473811894834"><ele>420.0</ele><time>2026-04-03T11:48:11.999Z</time></trkpt><trkpt lat="42.42409981460909" lon="-8.054650867162941"><ele>421.0</ele><time>2026-04-03T11:48:12.999Z</time></trkpt><trkpt lat="42.42417413040936" lon="-8.054839866016293"><ele>420.0</ele><time>2026-04-03T11:48:13.999Z</time></trkpt><trkpt lat="42.424257593633094" lon="-8.055035876145338"><ele>419.0</ele><time>2026-04-03T11:48:14.999Z</time></trkpt><trkpt lat="42.42434321884723" lon="-8.055230486109076"><ele>418.0</ele><time>2026-04-03T11:48:15.999Z</time></trkpt><trkpt lat="42.42441043353512" lon="-8.055410928519997"><ele>418.0</ele><time>2026-04-03T11:48:16.999Z</time></trkpt><trkpt lat="42.424475183073014" lon="-8.055584558820728"><ele>418.0</ele><time>2026-04-03T11:48:17.999Z</time></trkpt><trkpt lat="42.424532384271124" lon="-8.055748641111801"><ele>418.0</ele><time>2026-04-03T11:48:18.999Z</time></trkpt><trkpt lat="42.42458477552651" lon="-8.055909610139269"><ele>418.0</ele><time>2026-04-03T11:48:19.999Z</time></trkpt><trkpt lat="42.424636509713544" lon="-8.056065273736378"><ele>418.25</ele><time>2026-04-03T11:48:20.999Z</time></trkpt><trkpt lat="42.424694060578645" lon="-8.056233403330408"><ele>418.5</ele><time>2026-04-03T11:48:21.999Z</time></trkpt><trkpt lat="42.4247518313913" lon="-8.056409021643534"><ele>418.75</ele><time>2026-04-03T11:48:22.999Z</time></trkpt><trkpt lat="42.42481249219744" lon="-8.056588674110415"><ele>419.0</ele><time>2026-04-03T11:48:23.999Z</time></trkpt><trkpt lat="42.424892506367286" lon="-8.056762415963943"><ele>418.0</ele><time>2026-04-03T11:48:24.999Z</time></trkpt><trkpt lat="42.42494892194332" lon="-8.056957732982797"><ele>417.0</ele><time>2026-04-03T11:48:25.999Z</time></trkpt><trkpt lat="42.4250222029441" lon="-8.05714063720571"><ele>416.0</ele><time>2026-04-03T11:48:26.999Z</time></trkpt><trkpt lat="42.42509958711137" lon="-8.05732736598839"><ele>414.66666666666663</ele><time>2026-04-03T11:48:27.999Z</time></trkpt><trkpt lat="42.425182611840846" lon="-8.057517111336107"><ele>413.33333333333337</ele><time>2026-04-03T11:48:28.999Z</time></trkpt><trkpt lat="42.42526519030653" lon="-8.057709424377316"><ele>412.0</ele><time>2026-04-03T11:48:29.999Z</time></trkpt><trkpt lat="42.42536725853223" lon="-8.057893921136468"><ele>412.0</ele><time>2026-04-03T11:48:30.999Z</time></trkpt><trkpt lat="42.425456616099254" lon="-8.058089520511379"><ele>412.0</ele><time>2026-04-03T11:48:31.999Z</time></trkpt><trkpt lat="42.42553394716662" lon="-8.058301238368877"><ele>412.0</ele><time>2026-04-03T11:48:32.999Z</time></trkpt><trkpt lat="42.42562536651743" lon="-8.05849610865495"><ele>410.33333333333337</ele><time>2026-04-03T11:48:33.999Z</time></trkpt><trkpt lat="42.42571598935728" lon="-8.058696420793007"><ele>408.66666666666663</ele><time>2026-04-03T11:48:34.999Z</time></trkpt><trkpt lat="42.425808166916056" lon="-8.058898403379636"><ele>407.0</ele><time>2026-04-03T11:48:35.999Z</time></trkpt><trkpt lat="42.42590204795078" lon="-8.05909401591095"><ele>407.3333333333333</ele><time>2026-04-03T11:48:36.999Z</time></trkpt><trkpt lat="42.4259934170774" lon="-8.059291350792225"><ele>407.66666666666663</ele><time>2026-04-03T11:48:37.999Z</time></trkpt><trkpt lat="42.42608970459237" lon="-8.059489910382158"><ele>408.0</ele><time>2026-04-03T11:48:38.999Z</time></trkpt><trkpt lat="42.426176383446325" lon="-8.059684646474532"><ele>408.0</ele><time>2026-04-03T11:48:39.999Z</time></trkpt><trkpt lat="42.42626670560818" lon="-8.059872266122268"><ele>408.0</ele><time>2026-04-03T11:48:40.999Z</time></trkpt><trkpt lat="42.42635569768886" lon="-8.06006269363839"><ele>408.0</ele><time>2026-04-03T11:48:41.999Z</time></trkpt><trkpt lat="42.42643639887466" lon="-8.060243595357946"><ele>406.33333333333337</ele><time>2026-04-03T11:48:42.999Z</time></trkpt><trkpt lat="42.42651890025082" lon="-8.060431943366767"><ele>404.6666666666667</ele><time>2026-04-03T11:48:43.999Z</time></trkpt><trkpt lat="42.42660698357768" lon="-8.060618615536912"><ele>403.0</ele><time>2026-04-03T11:48:44.999Z</time></trkpt><trkpt lat="42.42669401911611" lon="-8.060804621811283"><ele>401.33333333333337</ele><time>2026-04-03T11:48:45.999Z</time></trkpt><trkpt lat="42.426778001789394" lon="-8.060986098827692"><ele>399.66666666666663</ele><time>2026-04-03T11:48:46.999Z</time></trkpt><trkpt lat="42.426862084104435" lon="-8.06116752276262"><ele>398.0</ele><time>2026-04-03T11:48:47.999Z</time></trkpt><trkpt lat="42.42694686992096" lon="-8.061343982472044"><ele>398.0</ele><time>2026-04-03T11:48:48.999Z</time></trkpt><trkpt lat="42.42702682862592" lon="-8.06152224741741"><ele>398.0</ele><time>2026-04-03T11:48:49.999Z</time></trkpt><trkpt lat="42.42710667646068" lon="-8.061695735104655"><ele>398.0</ele><time>2026-04-03T11:48:50.999Z</time></trkpt><trkpt lat="42.42718598457889" lon="-8.061859405433609"><ele>398.0</ele><time>2026-04-03T11:48:51.999Z</time></trkpt><trkpt lat="42.42726334397706" lon="-8.062022584957619"><ele>396.0</ele><time>2026-04-03T11:48:52.999Z</time></trkpt><trkpt lat="42.42734687340261" lon="-8.06215942912381"><ele>394.0</ele><time>2026-04-03T11:48:53.999Z</time></trkpt><trkpt lat="42.42743098856691" lon="-8.062299422822434"><ele>392.0</ele><time>2026-04-03T11:48:54.999Z</time></trkpt><trkpt lat="42.42751429458491" lon="-8.062430306672066"><ele>390.0</ele><time>2026-04-03T11:48:55.999Z</time></trkpt><trkpt lat="42.4276038981667" lon="-8.062540855966995"><ele>390.0</ele><time>2026-04-03T11:48:56.999Z</time></trkpt><trkpt lat="42.4276894692594" lon="-8.062653003911818"><ele>390.0</ele><time>2026-04-03T11:48:57.999Z</time></trkpt><trkpt lat="42.427765259603255" lon="-8.062760402115686"><ele>390.0</ele><time>2026-04-03T11:48:58.999Z</time></trkpt><trkpt lat="42.4278352310859" lon="-8.062857060169724"><ele>390.0</ele><time>2026-04-03T11:48:59.999Z</time></trkpt><trkpt lat="42.42790825065836" lon="-8.062930536781083"><ele>390.0</ele><time>2026-04-03T11:49:00.999Z</time></trkpt><trkpt lat="42.42798642199076" lon="-8.062975888585227"><ele>390.0</ele><time>2026-04-03T11:49:01.999Z</time></trkpt><trkpt lat="42.428075627556396" lon="-8.062954140086484"><ele>390.0</ele><time>2026-04-03T11:49:02.999Z</time></trkpt><trkpt lat="42.42816918689774" lon="-8.06291479898492"><ele>390.0</ele><time>2026-04-03T11:49:03.999Z</time></trkpt><trkpt lat="42.428266884203495" lon="-8.062919173172181"><ele>390.0</ele><time>2026-04-03T11:49:04.999Z</time></trkpt><trkpt lat="42.428348385097294" lon="-8.062985096116579"><ele>390.0</ele><time>2026-04-03T11:49:05.999Z</time></trkpt><trkpt lat="42.42840747515759" lon="-8.063082925873276"><ele>390.0</ele><time>2026-04-03T11:49:06.999Z</time></trkpt><trkpt lat="42.428440981802915" lon="-8.06320390542522"><ele>390.0</ele><time>2026-04-03T11:49:07.999Z</time></trkpt><trkpt lat="42.42844440539384" lon="-8.063340711079075"><ele>390.0</ele><time>2026-04-03T11:49:08.999Z</time></trkpt><trkpt lat="42.42842105012405" lon="-8.063469554948048"><ele>390.0</ele><time>2026-04-03T11:49:09.999Z</time></trkpt><trkpt lat="42.42836622734388" lon="-8.063582682828972"><ele>390.0</ele><time>2026-04-03T11:49:10.999Z</time></trkpt><trkpt lat="42.42829253862551" lon="-8.063665922297199"><ele>389.8</ele><time>2026-04-03T11:49:11.999Z</time></trkpt><trkpt lat="42.428215048573236" lon="-8.063729166175008"><ele>389.6</ele><time>2026-04-03T11:49:12.999Z</time></trkpt><trkpt lat="42.428160350510495" lon="-8.063817208371047"><ele>389.4</ele><time>2026-04-03T11:49:13.999Z</time></trkpt><trkpt lat="42.428147250234375" lon="-8.063934593968176"><ele>389.2</ele><time>2026-04-03T11:49:14.999Z</time></trkpt><trkpt lat="42.4281723864973" lon="-8.064079365555347"><ele>389.0</ele><time>2026-04-03T11:49:16Z</time></trkpt><trkpt lat="42.42821752278747" lon="-8.064224270533108"><ele>388.75</ele><time>2026-04-03T11:49:17Z</time></trkpt><trkpt lat="42.42827442221382" lon="-8.064369259637294"><ele>388.5</ele><time>2026-04-03T11:49:18Z</time></trkpt><trkpt lat="42.4283264360035" lon="-8.064515797730532"><ele>388.25</ele><time>2026-04-03T11:49:19Z</time></trkpt><trkpt lat="42.42838188993235" lon="-8.064665831429936"><ele>388.0</ele><time>2026-04-03T11:49:20Z</time></trkpt><trkpt lat="42.428438765937045" lon="-8.064821232502478"><ele>387.75</ele><time>2026-04-03T11:49:21Z</time></trkpt><trkpt lat="42.42849810779963" lon="-8.06498827712399"><ele>387.5</ele><time>2026-04-03T11:49:22Z</time></trkpt><trkpt lat="42.42855397010672" lon="-8.065140762099137"><ele>387.25</ele><time>2026-04-03T11:49:23Z</time></trkpt><trkpt lat="42.42860368318472" lon="-8.065278992139874"><ele>387.0</ele><time>2026-04-03T11:49:24Z</time></trkpt><trkpt lat="42.428653103339" lon="-8.065408550592272"><ele>387.0</ele><time>2026-04-03T11:49:25Z</time></trkpt><trkpt lat="42.42869819060567" lon="-8.065527804146413"><ele>387.0</ele><time>2026-04-03T11:49:26Z</time></trkpt><trkpt lat="42.42874259446452" lon="-8.065627623914795"><ele>387.0</ele><time>2026-04-03T11:49:27Z</time></trkpt><trkpt lat="42.428796300736074" lon="-8.06573590874503"><ele>387.0</ele><time>2026-04-03T11:49:28Z</time></trkpt><trkpt lat="42.428841640772966" lon="-8.065820611201296"><ele>387.0</ele><time>2026-04-03T11:49:29Z</time></trkpt><trkpt lat="42.42888464803134" lon="-8.065914796310636"><ele>387.0</ele><time>2026-04-03T11:49:30Z</time></trkpt><trkpt lat="42.42890314353831" lon="-8.06603008350225"><ele>387.6</ele><time>2026-04-03T11:49:31Z</time></trkpt><trkpt lat="42.42894501711379" lon="-8.066143037597879"><ele>388.20000000000005</ele><time>2026-04-03T11:49:32Z</time></trkpt><trkpt lat="42.42898977869431" lon="-8.066257572116875"><ele>388.8</ele><time>2026-04-03T11:49:33Z</time></trkpt><trkpt lat="42.429025792119226" lon="-8.066379621290368"><ele>389.4</ele><time>2026-04-03T11:49:34Z</time></trkpt><trkpt lat="42.42907171188833" lon="-8.066494594796266"><ele>390.0</ele><time>2026-04-03T11:49:35Z</time></trkpt><trkpt lat="42.42910760192424" lon="-8.066602147706979"><ele>389.6666666666667</ele><time>2026-04-03T11:49:36Z</time></trkpt><trkpt lat="42.42914952574104" lon="-8.066698681000444"><ele>389.33333333333337</ele><time>2026-04-03T11:49:37Z</time></trkpt><trkpt lat="42.42919138662938" lon="-8.066796811471958"><ele>389.0</ele><time>2026-04-03T11:49:38Z</time></trkpt><trkpt lat="42.429232082418046" lon="-8.066895523641659"><ele>388.6666666666667</ele><time>2026-04-03T11:49:39Z</time></trkpt><trkpt lat="42.42926615874619" lon="-8.067004728148339"><ele>388.33333333333337</ele><time>2026-04-03T11:49:40Z</time></trkpt><trkpt lat="42.42930982096417" lon="-8.067118189442594"><ele>388.0</ele><time>2026-04-03T11:49:41Z</time></trkpt><trkpt lat="42.42935664715044" lon="-8.067237239037771"><ele>388.0</ele><time>2026-04-03T11:49:42Z</time></trkpt><trkpt lat="42.42939691541095" lon="-8.067355900871553"><ele>388.0</ele><time>2026-04-03T11:49:43Z</time></trkpt><trkpt lat="42.42944461350542" lon="-8.067471195158449"><ele>388.0</ele><time>2026-04-03T11:49:44Z</time></trkpt><trkpt lat="42.42948632796437" lon="-8.067595974279454"><ele>388.0</ele><time>2026-04-03T11:49:45Z</time></trkpt><trkpt lat="42.42951991988786" lon="-8.067725452774244"><ele>388.0</ele><time>2026-04-03T11:49:46Z</time></trkpt><trkpt lat="42.42956176491757" lon="-8.067852222040175"><ele>387.33333333333337</ele><time>2026-04-03T11:49:47Z</time></trkpt><trkpt lat="42.42959510676998" lon="-8.067975568370873"><ele>386.6666666666667</ele><time>2026-04-03T11:49:48Z</time></trkpt><trkpt lat="42.4296107227894" lon="-8.068099708790122"><ele>386.0</ele><time>2026-04-03T11:49:49Z</time></trkpt><trkpt lat="42.429611849734435" lon="-8.06821940191562"><ele>385.33333333333337</ele><time>2026-04-03T11:49:50Z</time></trkpt><trkpt lat="42.4296122378979" lon="-8.068337099060619"><ele>384.6666666666667</ele><time>2026-04-03T11:49:51Z</time></trkpt><trkpt lat="42.42960924066833" lon="-8.068442974806551"><ele>384.0</ele><time>2026-04-03T11:49:52Z</time></trkpt><trkpt lat="42.42960943778981" lon="-8.068552407071717"><ele>383.8333333333333</ele><time>2026-04-03T11:49:53Z</time></trkpt><trkpt lat="42.42961355626323" lon="-8.068657389691161"><ele>383.6666666666667</ele><time>2026-04-03T11:49:54Z</time></trkpt><trkpt lat="42.429617233574604" lon="-8.068753707229176"><ele>383.5</ele><time>2026-04-03T11:49:55Z</time></trkpt><trkpt lat="42.42961595216497" lon="-8.068855042739168"><ele>383.33333333333337</ele><time>2026-04-03T11:49:56Z</time></trkpt><trkpt lat="42.42961825058622" lon="-8.068960203580112"><ele>383.1666666666667</ele><time>2026-04-03T11:49:57Z</time></trkpt><trkpt lat="42.42962375215391" lon="-8.069057947791553"><ele>383.0</ele><time>2026-04-03T11:49:58Z</time></trkpt><trkpt lat="42.42962769523348" lon="-8.06916408368395"><ele>383.0</ele><time>2026-04-03T11:49:59Z</time></trkpt><trkpt lat="42.42962761352048" lon="-8.06925971491745"><ele>383.0</ele><time>2026-04-03T11:50:00Z</time></trkpt><trkpt lat="42.42962551816789" lon="-8.06937774766644"><ele>383.0</ele><time>2026-04-03T11:50:01Z</time></trkpt><trkpt lat="42.42962573851611" lon="-8.069492628630414"><ele>383.0</ele><time>2026-04-03T11:50:02Z</time></trkpt><trkpt lat="42.42962764309761" lon="-8.069612737926708"><ele>383.0</ele><time>2026-04-03T11:50:03Z</time></trkpt><trkpt lat="42.42962259121708" lon="-8.069726421868102"><ele>383.0</ele><time>2026-04-03T11:50:04Z</time></trkpt><trkpt lat="42.42962397160611" lon="-8.069848683303958"><ele>383.1666666666667</ele><time>2026-04-03T11:50:05Z</time></trkpt><trkpt lat="42.4296277789284" lon="-8.069966436489581"><ele>383.33333333333337</ele><time>2026-04-03T11:50:06Z</time></trkpt><trkpt lat="42.429627056025254" lon="-8.070088752228985"><ele>383.5</ele><time>2026-04-03T11:50:07Z</time></trkpt><trkpt lat="42.429629290996495" lon="-8.070193105813424"><ele>383.6666666666667</ele><time>2026-04-03T11:50:08Z</time></trkpt><trkpt lat="42.42963375121855" lon="-8.070294961786285"><ele>383.8333333333333</ele><time>2026-04-03T11:50:09Z</time></trkpt><trkpt lat="42.42965230828745" lon="-8.070395890261072"><ele>384.0</ele><time>2026-04-03T11:50:10Z</time></trkpt><trkpt lat="42.42965605833468" lon="-8.070508098600069"><ele>384.8333333333333</ele><time>2026-04-03T11:50:11Z</time></trkpt><trkpt lat="42.429666471552416" lon="-8.070607566826741"><ele>385.66666666666663</ele><time>2026-04-03T11:50:12Z</time></trkpt><trkpt lat="42.42967550025656" lon="-8.070706081402568"><ele>386.5</ele><time>2026-04-03T11:50:13Z</time></trkpt><trkpt lat="42.42968291050523" lon="-8.070802475251494"><ele>387.3333333333333</ele><time>2026-04-03T11:50:14Z</time></trkpt><trkpt lat="42.42969393225055" lon="-8.070896845031662"><ele>388.16666666666663</ele><time>2026-04-03T11:50:15Z</time></trkpt><trkpt lat="42.42971311275085" lon="-8.07100335930902"><ele>389.0</ele><time>2026-04-03T11:50:16Z</time></trkpt><trkpt lat="42.42973677211148" lon="-8.071119801110852"><ele>389.0</ele><time>2026-04-03T11:50:17Z</time></trkpt><trkpt lat="42.42976527192652" lon="-8.07123613769673"><ele>389.0</ele><time>2026-04-03T11:50:18Z</time></trkpt><trkpt lat="42.429788250478424" lon="-8.071355427039633"><ele>389.0</ele><time>2026-04-03T11:50:19Z</time></trkpt><trkpt lat="42.42981545103345" lon="-8.071481380393898"><ele>389.0</ele><time>2026-04-03T11:50:20Z</time></trkpt><trkpt lat="42.429843717028234" lon="-8.071607303381677"><ele>389.0</ele><time>2026-04-03T11:50:21Z</time></trkpt><trkpt lat="42.42987024461548" lon="-8.071738213586142"><ele>389.16666666666663</ele><time>2026-04-03T11:50:22Z</time></trkpt><trkpt lat="42.42989490863021" lon="-8.071863792915728"><ele>389.3333333333333</ele><time>2026-04-03T11:50:23Z</time></trkpt><trkpt lat="42.42992308529146" lon="-8.071971650697098"><ele>389.5</ele><time>2026-04-03T11:50:24Z</time></trkpt><trkpt lat="42.42995073906888" lon="-8.072077226393661"><ele>389.66666666666663</ele><time>2026-04-03T11:50:25Z</time></trkpt><trkpt lat="42.42998115064697" lon="-8.072186512861887"><ele>389.8333333333333</ele><time>2026-04-03T11:50:26Z</time></trkpt><trkpt lat="42.430009756402384" lon="-8.072304010649528"><ele>390.0</ele><time>2026-04-03T11:50:27Z</time></trkpt><trkpt lat="42.43002788326494" lon="-8.072429511826506"><ele>390.8</ele><time>2026-04-03T11:50:28Z</time></trkpt><trkpt lat="42.43004924404424" lon="-8.072562176625029"><ele>391.6</ele><time>2026-04-03T11:50:29Z</time></trkpt><trkpt lat="42.430074465209756" lon="-8.07268749951665"><ele>392.4</ele><time>2026-04-03T11:50:30Z</time></trkpt><trkpt lat="42.430097144594356" lon="-8.072818942942822"><ele>393.2</ele><time>2026-04-03T11:50:31Z</time></trkpt><trkpt lat="42.43012567188449" lon="-8.072942246998144"><ele>394.0</ele><time>2026-04-03T11:50:32Z</time></trkpt><trkpt lat="42.43015576801624" lon="-8.073065018813343"><ele>394.00000000000006</ele><time>2026-04-03T11:50:33Z</time></trkpt><trkpt lat="42.43017476003458" lon="-8.073170660776759"><ele>394.0</ele><time>2026-04-03T11:50:34Z</time></trkpt><trkpt lat="42.43019772713253" lon="-8.073297837217618"><ele>394.0</ele><time>2026-04-03T11:50:35Z</time></trkpt><trkpt lat="42.430234562603566" lon="-8.07340930020323"><ele>394.0</ele><time>2026-04-03T11:50:36Z</time></trkpt><trkpt lat="42.43024618849093" lon="-8.073525610724596"><ele>394.00000000000006</ele><time>2026-04-03T11:50:37Z</time></trkpt><trkpt lat="42.430280066219204" lon="-8.073629120236962"><ele>394.0</ele><time>2026-04-03T11:50:38Z</time></trkpt><trkpt lat="42.43030546108502" lon="-8.073730725537066"><ele>394.6</ele><time>2026-04-03T11:50:39Z</time></trkpt><trkpt lat="42.4303337478799" lon="-8.073840562662712"><ele>395.2</ele><time>2026-04-03T11:50:40Z</time></trkpt><trkpt lat="42.430343079848676" lon="-8.073943518871834"><ele>395.8</ele><time>2026-04-03T11:50:41Z</time></trkpt><trkpt lat="42.43035489051675" lon="-8.074040525207968"><ele>396.40000000000003</ele><time>2026-04-03T11:50:42Z</time></trkpt><trkpt lat="42.43041276143169" lon="-8.074229254301839"><ele>397.0</ele><time>2026-04-03T11:50:44Z</time></trkpt><trkpt lat="42.43041825232015" lon="-8.074329940601823"><ele>397.0</ele><time>2026-04-03T11:50:45Z</time></trkpt><trkpt lat="42.4304447238789" lon="-8.074413557098348"><ele>397.0</ele><time>2026-04-03T11:50:46Z</time></trkpt><trkpt lat="42.430462020547516" lon="-8.074498261065015"><ele>397.0</ele><time>2026-04-03T11:50:47Z</time></trkpt><trkpt lat="42.43050280750669" lon="-8.074646043660561"><ele>397.0</ele><time>2026-04-03T11:50:49Z</time></trkpt><trkpt lat="42.43052331359915" lon="-8.074789611062236"><ele>397.0</ele><time>2026-04-03T11:50:51Z</time></trkpt><trkpt lat="42.43056676865194" lon="-8.074935025971287"><ele>398.40000000000003</ele><time>2026-04-03T11:50:53Z</time></trkpt><trkpt lat="42.43059621315244" lon="-8.07508180863833"><ele>399.8</ele><time>2026-04-03T11:50:55Z</time></trkpt><trkpt lat="42.43063049263424" lon="-8.075221056157648"><ele>401.2</ele><time>2026-04-03T11:50:56.999Z</time></trkpt><trkpt lat="42.43065205120615" lon="-8.0753597236016"><ele>402.6</ele><time>2026-04-03T11:50:58.999Z</time></trkpt><trkpt lat="42.43068112923973" lon="-8.075486839972932"><ele>404.0</ele><time>2026-04-03T11:51:00.999Z</time></trkpt><trkpt lat="42.430706678826446" lon="-8.075613947090734"><ele>403.99999999999994</ele><time>2026-04-03T11:51:02.999Z</time></trkpt><trkpt lat="42.430745328054066" lon="-8.075743767247276"><ele>404.0</ele><time>2026-04-03T11:51:05Z</time></trkpt><trkpt lat="42.430768773507516" lon="-8.075846209764158"><ele>404.0</ele><time>2026-04-03T11:51:07Z</time></trkpt><trkpt lat="42.430788407417324" lon="-8.07593199805213"><ele>404.0</ele><time>2026-04-03T11:51:09Z</time></trkpt><trkpt lat="42.430814268089826" lon="-8.076044993590557"><ele>403.99999999999994</ele><time>2026-04-03T11:51:12Z</time></trkpt><trkpt lat="42.430836551826694" lon="-8.07614236261984"><ele>404.0</ele><time>2026-04-03T11:51:14Z</time></trkpt><trkpt lat="42.43073558393005" lon="-8.076268552546589"><ele>403.99999999999994</ele><time>2026-04-03T11:51:17Z</time></trkpt><trkpt lat="42.43068887747928" lon="-8.076353293248244"><ele>404.0</ele><time>2026-04-03T11:51:19Z</time></trkpt><trkpt lat="42.430657047103374" lon="-8.076462699789422"><ele>404.0</ele><time>2026-04-03T11:51:21Z</time></trkpt><trkpt lat="42.43058782384621" lon="-8.076557480930333"><ele>404.0</ele><time>2026-04-03T11:51:24Z</time></trkpt><trkpt lat="42.43053641346486" lon="-8.07662812558488"><ele>403.99999999999994</ele><time>2026-04-03T11:51:28Z</time></trkpt><trkpt lat="42.43050378358002" lon="-8.076706283831918"><ele>404.0</ele><time>2026-04-03T11:51:30Z</time></trkpt><trkpt lat="42.43045308494307" lon="-8.076778861458385"><ele>403.2</ele><time>2026-04-03T11:51:32Z</time></trkpt><trkpt lat="42.4303925679973" lon="-8.076886555854635"><ele>402.4</ele><time>2026-04-03T11:51:35Z</time></trkpt><trkpt lat="42.430337884171976" lon="-8.076931485623781"><ele>401.6</ele><time>2026-04-03T11:51:37Z</time></trkpt><trkpt lat="42.43030730739506" lon="-8.077017169862566"><ele>400.8</ele><time>2026-04-03T11:51:40Z</time></trkpt><trkpt lat="42.43023141628528" lon="-8.077146074357788"><ele>400.0</ele><time>2026-04-03T11:51:53Z</time></trkpt><trkpt lat="42.43016116156186" lon="-8.077232774594073"><ele>400.00000000000006</ele><time>2026-04-03T11:51:55Z</time></trkpt><trkpt lat="42.43008769634764" lon="-8.077295433143137"><ele>400.0</ele><time>2026-04-03T11:51:57Z</time></trkpt><trkpt lat="42.430013047601136" lon="-8.077357586618026"><ele>400.0</ele><time>2026-04-03T11:51:59Z</time></trkpt><trkpt lat="42.42993556889898" lon="-8.077422388286084"><ele>400.0</ele><time>2026-04-03T11:52:01Z</time></trkpt><trkpt lat="42.42985566405089" lon="-8.077493357026528"><ele>400.00000000000006</ele><time>2026-04-03T11:52:03Z</time></trkpt><trkpt lat="42.42979834446883" lon="-8.077546300491953"><ele>400.0</ele><time>2026-04-03T11:52:05Z</time></trkpt><trkpt lat="42.429734239396986" lon="-8.0775794016951"><ele>399.6</ele><time>2026-04-03T11:52:07Z</time></trkpt><trkpt lat="42.42963148840354" lon="-8.077681252388777"><ele>399.2</ele><time>2026-04-03T11:55:22.001Z</time></trkpt><trkpt lat="42.429529913645176" lon="-8.077766246738936"><ele>398.79999999999995</ele><time>2026-04-03T11:55:24.001Z</time></trkpt><trkpt lat="42.42947184669066" lon="-8.077813194032542"><ele>398.4</ele><time>2026-04-03T11:55:25.001Z</time></trkpt><trkpt lat="42.42942520832269" lon="-8.077873221507687"><ele>398.0</ele><time>2026-04-03T11:55:26.001Z</time></trkpt><trkpt lat="42.4293377235423" lon="-8.077990543367031"><ele>398.0</ele><time>2026-04-03T11:55:28.001Z</time></trkpt><trkpt lat="42.42925036786775" lon="-8.078079502603337"><ele>398.0</ele><time>2026-04-03T11:55:30.001Z</time></trkpt><trkpt lat="42.42919254819857" lon="-8.078165675292478"><ele>398.0</ele><time>2026-04-03T11:55:32.001Z</time></trkpt><trkpt lat="42.42910745591408" lon="-8.078242574283088"><ele>398.0</ele><time>2026-04-03T11:55:34.001Z</time></trkpt><trkpt lat="42.42905405761271" lon="-8.078351952684393"><ele>398.0</ele><time>2026-04-03T11:55:36.001Z</time></trkpt><trkpt lat="42.42899395111549" lon="-8.078432863753305"><ele>398.66666666666663</ele><time>2026-04-03T11:55:38.001Z</time></trkpt><trkpt lat="42.42895092186617" lon="-8.078518475646044"><ele>399.3333333333333</ele><time>2026-04-03T11:55:40.001Z</time></trkpt><trkpt lat="42.42890204940369" lon="-8.078626215428493"><ele>400.0</ele><time>2026-04-03T11:55:42.001Z</time></trkpt><trkpt lat="42.4288473671155" lon="-8.078745627127764"><ele>400.66666666666663</ele><time>2026-04-03T11:55:44.001Z</time></trkpt><trkpt lat="42.428802181729026" lon="-8.07880971302336"><ele>401.3333333333333</ele><time>2026-04-03T11:55:45.001Z</time></trkpt><trkpt lat="42.428754453403904" lon="-8.078868467473995"><ele>402.0</ele><time>2026-04-03T11:55:46.001Z</time></trkpt><trkpt lat="42.42867837281394" lon="-8.079018250017175"><ele>401.5</ele><time>2026-04-03T11:55:48.001Z</time></trkpt><trkpt lat="42.42860428203733" lon="-8.079145790656218"><ele>401.0</ele><time>2026-04-03T11:55:50.001Z</time></trkpt><trkpt lat="42.42856196854849" lon="-8.079213001016031"><ele>400.5</ele><time>2026-04-03T11:55:51.001Z</time></trkpt><trkpt lat="42.428515196882266" lon="-8.079270443825049"><ele>400.0</ele><time>2026-04-03T11:55:52.001Z</time></trkpt><trkpt lat="42.428457319854694" lon="-8.079309779145152"><ele>399.5</ele><time>2026-04-03T11:55:53.001Z</time></trkpt><trkpt lat="42.42839251847239" lon="-8.079331715699372"><ele>399.0</ele><time>2026-04-03T11:55:54.001Z</time></trkpt><trkpt lat="42.428323958419014" lon="-8.079361174808682"><ele>399.0</ele><time>2026-04-03T11:55:55.001Z</time></trkpt><trkpt lat="42.42826402575033" lon="-8.079409630616682"><ele>399.0</ele><time>2026-04-03T11:55:56.001Z</time></trkpt><trkpt lat="42.42820519023816" lon="-8.079449747181048"><ele>399.0</ele><time>2026-04-03T11:55:57.001Z</time></trkpt><trkpt lat="42.42810728774029" lon="-8.079503633236522"><ele>399.0</ele><time>2026-04-03T11:55:59.001Z</time></trkpt><trkpt lat="42.4280391405774" lon="-8.079544212871172"><ele>399.0</ele><time>2026-04-03T11:56:01Z</time></trkpt><trkpt lat="42.42813038381409" lon="-8.079711010985253"><ele>399.0</ele><time>2026-04-03T11:56:05Z</time></trkpt><trkpt lat="42.428199504372635" lon="-8.079796618649304"><ele>399.0</ele><time>2026-04-03T11:56:07Z</time></trkpt><trkpt lat="42.428234932916325" lon="-8.079890383005244"><ele>399.0</ele><time>2026-04-03T11:56:09Z</time></trkpt><trkpt lat="42.42808448805337" lon="-8.080092636527487"><ele>399.0</ele><time>2026-04-03T11:56:12Z</time></trkpt><trkpt lat="42.42800362205349" lon="-8.080167179743608"><ele>398.4</ele><time>2026-04-03T11:56:13Z</time></trkpt><trkpt lat="42.42792505295635" lon="-8.080234985075412"><ele>397.79999999999995</ele><time>2026-04-03T11:56:15Z</time></trkpt><trkpt lat="42.42785373650977" lon="-8.080304341971816"><ele>397.20000000000005</ele><time>2026-04-03T11:56:16Z</time></trkpt><trkpt lat="42.4277812363825" lon="-8.080374885890599"><ele>396.6</ele><time>2026-04-03T11:56:17Z</time></trkpt><trkpt lat="42.42771083852583" lon="-8.080449648147908"><ele>396.0</ele><time>2026-04-03T11:56:18Z</time></trkpt><trkpt lat="42.42763942540765" lon="-8.080528124462603"><ele>396.0</ele><time>2026-04-03T11:56:19Z</time></trkpt><trkpt lat="42.427569081798914" lon="-8.080603289832833"><ele>396.0</ele><time>2026-04-03T11:56:20Z</time></trkpt><trkpt lat="42.427498421496175" lon="-8.080682179445486"><ele>396.0</ele><time>2026-04-03T11:56:21Z</time></trkpt><trkpt lat="42.42742573730056" lon="-8.080754632033875"><ele>396.0</ele><time>2026-04-03T11:56:22Z</time></trkpt><trkpt lat="42.427354072816634" lon="-8.080835899064413"><ele>396.0</ele><time>2026-04-03T11:56:23Z</time></trkpt><trkpt lat="42.42729535494094" lon="-8.080921753302121"><ele>395.5</ele><time>2026-04-03T11:56:24Z</time></trkpt><trkpt lat="42.4272367343089" lon="-8.081004309723287"><ele>395.0</ele><time>2026-04-03T11:56:25Z</time></trkpt><trkpt lat="42.427181187664466" lon="-8.081088531287998"><ele>394.5</ele><time>2026-04-03T11:56:26Z</time></trkpt><trkpt lat="42.42713072735292" lon="-8.081169922192775"><ele>394.0</ele><time>2026-04-03T11:56:27Z</time></trkpt><trkpt lat="42.42707798016528" lon="-8.081256563674906"><ele>393.5</ele><time>2026-04-03T11:56:28Z</time></trkpt><trkpt lat="42.42702888850609" lon="-8.081338947976944"><ele>393.0</ele><time>2026-04-03T11:56:29Z</time></trkpt><trkpt lat="42.426987980231175" lon="-8.081423357702501"><ele>393.0</ele><time>2026-04-03T11:56:30Z</time></trkpt><trkpt lat="42.426955774282085" lon="-8.08150785215351"><ele>393.0</ele><time>2026-04-03T11:56:31Z</time></trkpt><trkpt lat="42.4269171648921" lon="-8.081601072959046"><ele>393.0</ele><time>2026-04-03T11:56:32Z</time></trkpt><trkpt lat="42.42687144719807" lon="-8.081704291517969"><ele>393.0</ele><time>2026-04-03T11:56:33Z</time></trkpt><trkpt lat="42.426828064956595" lon="-8.081805186659745"><ele>393.0</ele><time>2026-04-03T11:56:34Z</time></trkpt><trkpt lat="42.42678756258475" lon="-8.081907049092933"><ele>393.0</ele><time>2026-04-03T11:56:35Z</time></trkpt><trkpt lat="42.42674633204638" lon="-8.08201491863743"><ele>393.4</ele><time>2026-04-03T11:56:36Z</time></trkpt><trkpt lat="42.42673599242069" lon="-8.082125974206477"><ele>393.79999999999995</ele><time>2026-04-03T11:56:37Z</time></trkpt><trkpt lat="42.4267453194376" lon="-8.082244987481708"><ele>394.2</ele><time>2026-04-03T11:56:38Z</time></trkpt><trkpt lat="42.426755748121764" lon="-8.082371670516405"><ele>394.6</ele><time>2026-04-03T11:56:39Z</time></trkpt><trkpt lat="42.426769240709916" lon="-8.082498042666932"><ele>395.0</ele><time>2026-04-03T11:56:40Z</time></trkpt><trkpt lat="42.426781172376316" lon="-8.08262812994677"><ele>395.0</ele><time>2026-04-03T11:56:41Z</time></trkpt><trkpt lat="42.4267858395923" lon="-8.082757708582974"><ele>395.0</ele><time>2026-04-03T11:56:42Z</time></trkpt><trkpt lat="42.42679973131619" lon="-8.08288622337308"><ele>395.0</ele><time>2026-04-03T11:56:43Z</time></trkpt><trkpt lat="42.4268112130907" lon="-8.083020610826699"><ele>395.0</ele><time>2026-04-03T11:56:44Z</time></trkpt><trkpt lat="42.426817256456474" lon="-8.08316080858643"><ele>395.0</ele><time>2026-04-03T11:56:45Z</time></trkpt><trkpt lat="42.426821044873826" lon="-8.08329589452628"><ele>395.8</ele><time>2026-04-03T11:56:46Z</time></trkpt><trkpt lat="42.426822044264426" lon="-8.083430143419353"><ele>396.6</ele><time>2026-04-03T11:56:47Z</time></trkpt><trkpt lat="42.42681462338123" lon="-8.08358275033243"><ele>397.4</ele><time>2026-04-03T11:56:48Z</time></trkpt><trkpt lat="42.42681013840944" lon="-8.083718478435607"><ele>398.2</ele><time>2026-04-03T11:56:49Z</time></trkpt><trkpt lat="42.42677354238252" lon="-8.083862044563356"><ele>399.0</ele><time>2026-04-03T11:56:50Z</time></trkpt><trkpt lat="42.426755006540176" lon="-8.08400208037815"><ele>399.4</ele><time>2026-04-03T11:56:51Z</time></trkpt><trkpt lat="42.426734959568286" lon="-8.084142919197708"><ele>399.79999999999995</ele><time>2026-04-03T11:56:52Z</time></trkpt><trkpt lat="42.4267149021171" lon="-8.084278064390727"><ele>400.20000000000005</ele><time>2026-04-03T11:56:53Z</time></trkpt><trkpt lat="42.426698083085284" lon="-8.084407725723914"><ele>400.6</ele><time>2026-04-03T11:56:54Z</time></trkpt><trkpt lat="42.42667918660979" lon="-8.084527032336982"><ele>401.0</ele><time>2026-04-03T11:56:55Z</time></trkpt><trkpt lat="42.42666500858176" lon="-8.084637448923367"><ele>401.0</ele><time>2026-04-03T11:56:56Z</time></trkpt><trkpt lat="42.42665536812529" lon="-8.084730705602228"><ele>401.0</ele><time>2026-04-03T11:56:57Z</time></trkpt><trkpt lat="42.42662667902372" lon="-8.08484318462837"><ele>401.0</ele><time>2026-04-03T11:56:59Z</time></trkpt><trkpt lat="42.42644418109559" lon="-8.08478925346023"><ele>401.0</ele><time>2026-04-03T11:57:01Z</time></trkpt><trkpt lat="42.42636609914008" lon="-8.084740537371523"><ele>401.0</ele><time>2026-04-03T11:57:02Z</time></trkpt><trkpt lat="42.42628285826682" lon="-8.084693385317895"><ele>401.0</ele><time>2026-04-03T11:57:03Z</time></trkpt><trkpt lat="42.42619820816102" lon="-8.084653581943394"><ele>401.0</ele><time>2026-04-03T11:57:04Z</time></trkpt><trkpt lat="42.42610107743754" lon="-8.08460893971329"><ele>401.0</ele><time>2026-04-03T11:57:05Z</time></trkpt><trkpt lat="42.42601871764752" lon="-8.084575544440373"><ele>401.0</ele><time>2026-04-03T11:57:06Z</time></trkpt><trkpt lat="42.42595199890011" lon="-8.084547340948607"><ele>401.0</ele><time>2026-04-03T11:57:07Z</time></trkpt><trkpt lat="42.425851834040685" lon="-8.084506519495053"><ele>401.0</ele><time>2026-04-03T11:57:09Z</time></trkpt><trkpt lat="42.42575855384746" lon="-8.084714063863858"><ele>401.0</ele><time>2026-04-03T11:57:11Z</time></trkpt><trkpt lat="42.425730839674934" lon="-8.084840835634925"><ele>401.0</ele><time>2026-04-03T11:57:12Z</time></trkpt><trkpt lat="42.4256936122957" lon="-8.084963863735958"><ele>401.0</ele><time>2026-04-03T11:57:13Z</time></trkpt><trkpt lat="42.425647699569254" lon="-8.085093719613239"><ele>401.0</ele><time>2026-04-03T11:57:14Z</time></trkpt><trkpt lat="42.42560056391259" lon="-8.085225689494111"><ele>401.0</ele><time>2026-04-03T11:57:15.001Z</time></trkpt><trkpt lat="42.425553545485684" lon="-8.08536630996813"><ele>401.0</ele><time>2026-04-03T11:57:16.001Z</time></trkpt><trkpt lat="42.42550208868208" lon="-8.085504104779332"><ele>401.0</ele><time>2026-04-03T11:57:17.001Z</time></trkpt><trkpt lat="42.42544367519346" lon="-8.085643763983734"><ele>401.5</ele><time>2026-04-03T11:57:18.001Z</time></trkpt><trkpt lat="42.42538906475767" lon="-8.085775524015366"><ele>402.0</ele><time>2026-04-03T11:57:19.001Z</time></trkpt><trkpt lat="42.42533387084823" lon="-8.085918641972011"><ele>402.5</ele><time>2026-04-03T11:57:20.001Z</time></trkpt><trkpt lat="42.4252615840628" lon="-8.086045752945555"><ele>403.0</ele><time>2026-04-03T11:57:21.001Z</time></trkpt><trkpt lat="42.425181298840045" lon="-8.086166173902413"><ele>403.0</ele><time>2026-04-03T11:57:22.001Z</time></trkpt><trkpt lat="42.4251002559623" lon="-8.0862772519644"><ele>403.0</ele><time>2026-04-03T11:57:23.001Z</time></trkpt><trkpt lat="42.425009447110575" lon="-8.086385954970256"><ele>403.0</ele><time>2026-04-03T11:57:24.001Z</time></trkpt><trkpt lat="42.42492187891856" lon="-8.086499899203266"><ele>403.0</ele><time>2026-04-03T11:57:25.001Z</time></trkpt><trkpt lat="42.42484150501579" lon="-8.086615510736426"><ele>403.2</ele><time>2026-04-03T11:57:26.001Z</time></trkpt><trkpt lat="42.42475713537287" lon="-8.086706601858648"><ele>403.4</ele><time>2026-04-03T11:57:27.001Z</time></trkpt><trkpt lat="42.424662868044074" lon="-8.086803925419055"><ele>403.59999999999997</ele><time>2026-04-03T11:57:28.001Z</time></trkpt><trkpt lat="42.42459349495141" lon="-8.086900747560055"><ele>403.79999999999995</ele><time>2026-04-03T11:57:29.001Z</time></trkpt><trkpt lat="42.42452640258828" lon="-8.086979406606785"><ele>404.0</ele><time>2026-04-03T11:57:30.001Z</time></trkpt><trkpt lat="42.4244656570823" lon="-8.087051943139686"><ele>404.79999999999995</ele><time>2026-04-03T11:57:31.001Z</time></trkpt><trkpt lat="42.424406325340485" lon="-8.087121468050297"><ele>405.59999999999997</ele><time>2026-04-03T11:57:32.001Z</time></trkpt><trkpt lat="42.42435520078195" lon="-8.087176584945531"><ele>406.4</ele><time>2026-04-03T11:57:33Z</time></trkpt><trkpt lat="42.4242663013246" lon="-8.08727340234868"><ele>407.2</ele><time>2026-04-03T11:57:35Z</time></trkpt><trkpt lat="42.42421131295539" lon="-8.087344036312247"><ele>408.0</ele><time>2026-04-03T11:57:37Z</time></trkpt><trkpt lat="42.42410884348519" lon="-8.08743394510052"><ele>408.4</ele><time>2026-04-03T12:04:14Z</time></trkpt><trkpt lat="42.42403641719825" lon="-8.087502291908471"><ele>408.79999999999995</ele><time>2026-04-03T12:04:15Z</time></trkpt><trkpt lat="42.42396307346012" lon="-8.087593313761145"><ele>409.2</ele><time>2026-04-03T12:04:16Z</time></trkpt><trkpt lat="42.423899066971835" lon="-8.08771030024067"><ele>409.6</ele><time>2026-04-03T12:04:17Z</time></trkpt><trkpt lat="42.423798430968716" lon="-8.087790461676464"><ele>410.0</ele><time>2026-04-03T12:04:18Z</time></trkpt><trkpt lat="42.423686014696415" lon="-8.087834424268035"><ele>410.6</ele><time>2026-04-03T12:04:19Z</time></trkpt><trkpt lat="42.42357589707851" lon="-8.08788831525507"><ele>411.2</ele><time>2026-04-03T12:04:20Z</time></trkpt><trkpt lat="42.42346937580305" lon="-8.087938166117874"><ele>411.79999999999995</ele><time>2026-04-03T12:04:21Z</time></trkpt><trkpt lat="42.42336422903823" lon="-8.087984360365168"><ele>412.4</ele><time>2026-04-03T12:04:22Z</time></trkpt><trkpt lat="42.423260334483444" lon="-8.088028723309728"><ele>413.0</ele><time>2026-04-03T12:04:23Z</time></trkpt><trkpt lat="42.423157586313394" lon="-8.088080289320583"><ele>413.0</ele><time>2026-04-03T12:04:24Z</time></trkpt><trkpt lat="42.423058086879045" lon="-8.088125555840953"><ele>413.0</ele><time>2026-04-03T12:04:25Z</time></trkpt><trkpt lat="42.42295618329177" lon="-8.088173491702221"><ele>413.0</ele><time>2026-04-03T12:04:26Z</time></trkpt><trkpt lat="42.42285163407916" lon="-8.088230247388989"><ele>413.0</ele><time>2026-04-03T12:04:27Z</time></trkpt><trkpt lat="42.42275366992738" lon="-8.088300952819951"><ele>413.0</ele><time>2026-04-03T12:04:28Z</time></trkpt><trkpt lat="42.42265152862946" lon="-8.088379864910857"><ele>414.5</ele><time>2026-04-03T12:04:29Z</time></trkpt><trkpt lat="42.4225393450546" lon="-8.088477028040835"><ele>416.0</ele><time>2026-04-03T12:04:30Z</time></trkpt><trkpt lat="42.42242360672674" lon="-8.088558125589802"><ele>417.5</ele><time>2026-04-03T12:04:31Z</time></trkpt><trkpt lat="42.422305071385395" lon="-8.088650708172292"><ele>419.0</ele><time>2026-04-03T12:04:32Z</time></trkpt><trkpt lat="42.422183474991975" lon="-8.088743570226265"><ele>418.25</ele><time>2026-04-03T12:04:33Z</time></trkpt><trkpt lat="42.422059129572176" lon="-8.088842287959707"><ele>417.5</ele><time>2026-04-03T12:04:34Z</time></trkpt><trkpt lat="42.421939392915306" lon="-8.088940687716152"><ele>416.75</ele><time>2026-04-03T12:04:35Z</time></trkpt><trkpt lat="42.421831553231215" lon="-8.089035643447021"><ele>416.0</ele><time>2026-04-03T12:04:36Z</time></trkpt><trkpt lat="42.4217132590385" lon="-8.089141874193682"><ele>414.75</ele><time>2026-04-03T12:04:37Z</time></trkpt><trkpt lat="42.42159600978157" lon="-8.089261441018607"><ele>413.5</ele><time>2026-04-03T12:04:38Z</time></trkpt><trkpt lat="42.421478477013245" lon="-8.08938396196648"><ele>412.25</ele><time>2026-04-03T12:04:39Z</time></trkpt><trkpt lat="42.4213645249854" lon="-8.089508400457197"><ele>411.0</ele><time>2026-04-03T12:04:40Z</time></trkpt><trkpt lat="42.42125183885187" lon="-8.089630540097856"><ele>410.5</ele><time>2026-04-03T12:04:41Z</time></trkpt><trkpt lat="42.4211382644688" lon="-8.089757425300354"><ele>410.0</ele><time>2026-04-03T12:04:42Z</time></trkpt><trkpt lat="42.42102512121085" lon="-8.089880142445057"><ele>409.5</ele><time>2026-04-03T12:04:43Z</time></trkpt><trkpt lat="42.42091528281586" lon="-8.090002133831927"><ele>409.0</ele><time>2026-04-03T12:04:44Z</time></trkpt><trkpt lat="42.42081052662" lon="-8.090133427196724"><ele>408.25</ele><time>2026-04-03T12:04:45Z</time></trkpt><trkpt lat="42.42070647050524" lon="-8.090270668974526"><ele>407.5</ele><time>2026-04-03T12:04:46Z</time></trkpt><trkpt lat="42.42061060530651" lon="-8.090402375092395"><ele>406.75</ele><time>2026-04-03T12:04:47Z</time></trkpt><trkpt lat="42.420510637469064" lon="-8.090542021037775"><ele>406.0</ele><time>2026-04-03T12:04:48Z</time></trkpt><trkpt lat="42.42041430519417" lon="-8.090677881285512"><ele>405.5</ele><time>2026-04-03T12:04:49Z</time></trkpt><trkpt lat="42.42032330256057" lon="-8.090826469507988"><ele>405.0</ele><time>2026-04-03T12:04:50Z</time></trkpt><trkpt lat="42.42022197874663" lon="-8.090955734989098"><ele>404.5</ele><time>2026-04-03T12:04:51Z</time></trkpt><trkpt lat="42.42012159012977" lon="-8.091081055010788"><ele>404.0</ele><time>2026-04-03T12:04:52Z</time></trkpt><trkpt lat="42.42001578536797" lon="-8.091209674557318"><ele>404.0</ele><time>2026-04-03T12:04:53Z</time></trkpt><trkpt lat="42.419910159762715" lon="-8.091338076311354"><ele>404.0</ele><time>2026-04-03T12:04:54Z</time></trkpt><trkpt lat="42.41980764003895" lon="-8.091462702453809"><ele>404.0</ele><time>2026-04-03T12:04:55Z</time></trkpt><trkpt lat="42.41970590159487" lon="-8.091586378883187"><ele>404.0</ele><time>2026-04-03T12:04:56Z</time></trkpt><trkpt lat="42.41961143545262" lon="-8.091711941907871"><ele>404.75</ele><time>2026-04-03T12:04:57Z</time></trkpt><trkpt lat="42.41950885208419" lon="-8.091832715340358"><ele>405.5</ele><time>2026-04-03T12:04:58Z</time></trkpt><trkpt lat="42.41943510441704" lon="-8.091981089604888"><ele>406.25</ele><time>2026-04-03T12:04:59Z</time></trkpt><trkpt lat="42.41934768064759" lon="-8.092119708139261"><ele>407.0</ele><time>2026-04-03T12:05:00Z</time></trkpt><trkpt lat="42.41926316894799" lon="-8.092246105501065"><ele>407.0</ele><time>2026-04-03T12:05:01Z</time></trkpt><trkpt lat="42.41919277754596" lon="-8.092399019386747"><ele>407.0</ele><time>2026-04-03T12:05:02Z</time></trkpt><trkpt lat="42.41912984453899" lon="-8.092551633768055"><ele>407.0</ele><time>2026-04-03T12:05:03Z</time></trkpt><trkpt lat="42.41909032166418" lon="-8.09270864031271"><ele>407.0</ele><time>2026-04-03T12:05:04Z</time></trkpt><trkpt lat="42.419036813880076" lon="-8.092856456548601"><ele>407.40000000000003</ele><time>2026-04-03T12:05:05Z</time></trkpt><trkpt lat="42.41898103739861" lon="-8.092989223697531"><ele>407.8</ele><time>2026-04-03T12:05:06Z</time></trkpt><trkpt lat="42.41892200689787" lon="-8.093105786427884"><ele>408.2</ele><time>2026-04-03T12:05:07Z</time></trkpt><trkpt lat="42.418849288892865" lon="-8.093206575359725"><ele>408.6</ele><time>2026-04-03T12:05:08Z</time></trkpt><trkpt lat="42.41876949222133" lon="-8.093295705892135"><ele>409.0</ele><time>2026-04-03T12:05:09Z</time></trkpt><trkpt lat="42.41868904959668" lon="-8.093401196469953"><ele>409.0</ele><time>2026-04-03T12:05:10Z</time></trkpt><trkpt lat="42.418603022092746" lon="-8.09350217694331"><ele>409.0</ele><time>2026-04-03T12:05:10.999Z</time></trkpt><trkpt lat="42.41851279358377" lon="-8.093610751939112"><ele>409.0</ele><time>2026-04-03T12:05:11.999Z</time></trkpt><trkpt lat="42.41841979462578" lon="-8.093714113630652"><ele>409.0</ele><time>2026-04-03T12:05:12.999Z</time></trkpt><trkpt lat="42.418327209853686" lon="-8.093832280880846"><ele>409.0</ele><time>2026-04-03T12:05:13.999Z</time></trkpt><trkpt lat="42.4182372046593" lon="-8.093949936107816"><ele>409.0</ele><time>2026-04-03T12:05:14.999Z</time></trkpt><trkpt lat="42.41814859455387" lon="-8.094079457251814"><ele>409.0</ele><time>2026-04-03T12:05:15.999Z</time></trkpt><trkpt lat="42.418068017388244" lon="-8.094223783681603"><ele>409.0</ele><time>2026-04-03T12:05:16.999Z</time></trkpt><trkpt lat="42.41798958052547" lon="-8.09438678390482"><ele>407.75</ele><time>2026-04-03T12:05:17.999Z</time></trkpt><trkpt lat="42.417923322622286" lon="-8.094570880629146"><ele>406.5</ele><time>2026-04-03T12:05:18.999Z</time></trkpt><trkpt lat="42.41785075681298" lon="-8.094746161460973"><ele>405.25</ele><time>2026-04-03T12:05:19.999Z</time></trkpt><trkpt lat="42.41776674343831" lon="-8.094898959714738"><ele>404.0</ele><time>2026-04-03T12:05:20.999Z</time></trkpt><trkpt lat="42.41767371318087" lon="-8.095049479882123"><ele>403.5</ele><time>2026-04-03T12:05:21.999Z</time></trkpt><trkpt lat="42.41759899018881" lon="-8.095206059588113"><ele>403.0</ele><time>2026-04-03T12:05:22.999Z</time></trkpt><trkpt lat="42.41755732116526" lon="-8.095385774009474"><ele>402.5</ele><time>2026-04-03T12:05:23.999Z</time></trkpt><trkpt lat="42.41749564851121" lon="-8.095551116998188"><ele>402.0</ele><time>2026-04-03T12:05:24.999Z</time></trkpt><trkpt lat="42.417441538860906" lon="-8.095699791262536"><ele>402.25</ele><time>2026-04-03T12:05:25.999Z</time></trkpt><trkpt lat="42.41736638696203" lon="-8.09584559211322"><ele>402.5</ele><time>2026-04-03T12:05:26.999Z</time></trkpt><trkpt lat="42.41727664082325" lon="-8.095978071011587"><ele>402.75</ele><time>2026-04-03T12:05:27.999Z</time></trkpt><trkpt lat="42.41718212004619" lon="-8.096097847451215"><ele>403.0</ele><time>2026-04-03T12:05:28.999Z</time></trkpt><trkpt lat="42.41709418223586" lon="-8.096235285218704"><ele>403.0</ele><time>2026-04-03T12:05:29.999Z</time></trkpt><trkpt lat="42.417021917153164" lon="-8.096393805323224"><ele>403.0</ele><time>2026-04-03T12:05:30.999Z</time></trkpt><trkpt lat="42.41696802721083" lon="-8.096574162190011"><ele>403.0</ele><time>2026-04-03T12:05:31.999Z</time></trkpt><trkpt lat="42.41691398923964" lon="-8.096757598808903"><ele>403.0</ele><time>2026-04-03T12:05:32.999Z</time></trkpt><trkpt lat="42.4168525935934" lon="-8.096948636994428"><ele>404.0</ele><time>2026-04-03T12:05:33.999Z</time></trkpt><trkpt lat="42.416790807626676" lon="-8.097137134546523"><ele>405.0</ele><time>2026-04-03T12:05:34.999Z</time></trkpt><trkpt lat="42.41672219266482" lon="-8.097337831777677"><ele>406.0</ele><time>2026-04-03T12:05:35.999Z</time></trkpt><trkpt lat="42.416639922789614" lon="-8.097531992374325"><ele>406.0</ele><time>2026-04-03T12:05:36.999Z</time></trkpt><trkpt lat="42.41655487945151" lon="-8.09772262898608"><ele>406.0</ele><time>2026-04-03T12:05:37.999Z</time></trkpt><trkpt lat="42.416469960047166" lon="-8.097921746002253"><ele>406.0</ele><time>2026-04-03T12:05:39Z</time></trkpt><trkpt lat="42.416382689552165" lon="-8.098112585837027"><ele>404.6666666666667</ele><time>2026-04-03T12:05:40Z</time></trkpt><trkpt lat="42.41629880596338" lon="-8.098299413744428"><ele>403.33333333333337</ele><time>2026-04-03T12:05:41Z</time></trkpt><trkpt lat="42.416219054713935" lon="-8.098490176120718"><ele>402.0</ele><time>2026-04-03T12:05:42Z</time></trkpt><trkpt lat="42.416146456203016" lon="-8.098685617641877"><ele>402.0</ele><time>2026-04-03T12:05:43Z</time></trkpt><trkpt lat="42.416092644207076" lon="-8.09885672615257"><ele>402.0</ele><time>2026-04-03T12:05:44Z</time></trkpt><trkpt lat="42.41605363658794" lon="-8.099041782935833"><ele>402.0</ele><time>2026-04-03T12:05:45Z</time></trkpt><trkpt lat="42.41603677817522" lon="-8.099219325448814"><ele>402.0</ele><time>2026-04-03T12:05:46Z</time></trkpt><trkpt lat="42.41600078062568" lon="-8.099404110841704"><ele>403.0</ele><time>2026-04-03T12:05:47Z</time></trkpt><trkpt lat="42.41595962155152" lon="-8.099571975608882"><ele>404.0</ele><time>2026-04-03T12:05:48Z</time></trkpt><trkpt lat="42.41593019941851" lon="-8.099757854421942"><ele>405.0</ele><time>2026-04-03T12:05:49Z</time></trkpt><trkpt lat="42.415898093927524" lon="-8.099939962008865"><ele>406.0</ele><time>2026-04-03T12:05:50Z</time></trkpt><trkpt lat="42.415864018945136" lon="-8.100113005585904"><ele>406.0</ele><time>2026-04-03T12:05:51Z</time></trkpt><trkpt lat="42.41583571746664" lon="-8.10027489951637"><ele>406.0</ele><time>2026-04-03T12:05:52Z</time></trkpt><trkpt lat="42.41580677856042" lon="-8.100407614126395"><ele>406.0</ele><time>2026-04-03T12:05:53Z</time></trkpt><trkpt lat="42.415763129218945" lon="-8.100535393943185"><ele>406.0</ele><time>2026-04-03T12:05:54Z</time></trkpt><trkpt lat="42.415713946623825" lon="-8.10065054709579"><ele>406.0</ele><time>2026-04-03T12:05:55Z</time></trkpt><trkpt lat="42.415681678273025" lon="-8.1007500331866"><ele>407.0</ele><time>2026-04-03T12:05:56Z</time></trkpt><trkpt lat="42.41570138936995" lon="-8.100869167279544"><ele>408.0</ele><time>2026-04-03T12:05:57Z</time></trkpt><trkpt lat="42.41571586135316" lon="-8.101009528086324"><ele>409.0</ele><time>2026-04-03T12:05:58Z</time></trkpt><trkpt lat="42.41575650536611" lon="-8.101142456349548"><ele>410.0</ele><time>2026-04-03T12:05:59Z</time></trkpt><trkpt lat="42.41579523894582" lon="-8.101286317465577"><ele>411.0</ele><time>2026-04-03T12:06:00Z</time></trkpt><trkpt lat="42.41583780982825" lon="-8.101429194551521"><ele>411.0</ele><time>2026-04-03T12:06:01Z</time></trkpt><trkpt lat="42.41588225599759" lon="-8.101557563339437"><ele>411.0</ele><time>2026-04-03T12:06:02Z</time></trkpt><trkpt lat="42.415920644754685" lon="-8.101652983749553"><ele>411.0</ele><time>2026-04-03T12:06:03Z</time></trkpt><trkpt lat="42.41598046620513" lon="-8.101765452508566"><ele>411.0</ele><time>2026-04-03T12:06:05Z</time></trkpt><trkpt lat="42.4159209256029" lon="-8.101960070755265"><ele>411.0</ele><time>2026-04-03T12:06:07Z</time></trkpt><trkpt lat="42.41586383586232" lon="-8.102038755680192"><ele>411.5</ele><time>2026-04-03T12:06:08Z</time></trkpt><trkpt lat="42.41582979390487" lon="-8.102139562696488"><ele>412.0</ele><time>2026-04-03T12:06:09Z</time></trkpt><trkpt lat="42.415780774598225" lon="-8.102220105477862"><ele>412.5</ele><time>2026-04-03T12:06:10Z</time></trkpt><trkpt lat="42.415728410958835" lon="-8.102302512141282"><ele>413.0</ele><time>2026-04-03T12:06:11Z</time></trkpt><trkpt lat="42.415676669309725" lon="-8.102390218779174"><ele>413.5</ele><time>2026-04-03T12:06:12Z</time></trkpt><trkpt lat="42.41561850994833" lon="-8.102500070685359"><ele>414.0</ele><time>2026-04-03T12:06:13Z</time></trkpt><trkpt lat="42.41558881091331" lon="-8.102577636749249"><ele>414.4</ele><time>2026-04-03T12:06:14Z</time></trkpt><trkpt lat="42.41556219186913" lon="-8.10273084545744"><ele>414.79999999999995</ele><time>2026-04-03T12:06:16Z</time></trkpt><trkpt lat="42.41556000298778" lon="-8.102830024536116"><ele>415.20000000000005</ele><time>2026-04-03T12:06:18Z</time></trkpt><trkpt lat="42.41569893434954" lon="-8.102829637478749"><ele>415.6</ele><time>2026-04-03T12:06:20Z</time></trkpt><trkpt lat="42.41577421947987" lon="-8.102807919495287"><ele>416.0</ele><time>2026-04-03T12:06:22Z</time></trkpt><trkpt lat="42.41584977153136" lon="-8.102794933621816"><ele>416.0</ele><time>2026-04-03T12:06:25Z</time></trkpt><trkpt lat="42.4158779711774" lon="-8.102881229218692"><ele>416.0</ele><time>2026-04-03T12:06:30Z</time></trkpt><trkpt lat="42.41581653359102" lon="-8.102856047632962"><ele>416.0</ele><time>2026-04-03T12:06:32Z</time></trkpt></trkseg><trkseg><trkpt lat="42.41569690885815" lon="-8.102811140402318"><ele>416.0</ele><time>2026-04-03T13:07:17.999Z</time></trkpt><trkpt lat="42.4156232690572" lon="-8.102752580758597"><ele>416.0</ele><time>2026-04-03T13:07:19.999Z</time></trkpt><trkpt lat="42.41557805633236" lon="-8.102648394346213"><ele>416.0</ele><time>2026-04-03T13:07:23.999Z</time></trkpt><trkpt lat="42.415560468908986" lon="-8.102501586421143"><ele>416.0</ele><time>2026-04-03T13:07:25.999Z</time></trkpt><trkpt lat="42.415623681837" lon="-8.102374320777404"><ele>416.0</ele><time>2026-04-03T13:07:28Z</time></trkpt><trkpt lat="42.41566900868704" lon="-8.102308796018821"><ele>415.66666666666663</ele><time>2026-04-03T13:07:29Z</time></trkpt><trkpt lat="42.4157210369636" lon="-8.102228569798095"><ele>415.3333333333333</ele><time>2026-04-03T13:07:30Z</time></trkpt><trkpt lat="42.41577445256511" lon="-8.10214378147327"><ele>415.0</ele><time>2026-04-03T13:07:31Z</time></trkpt><trkpt lat="42.41582383027969" lon="-8.10207255153729"><ele>414.66666666666663</ele><time>2026-04-03T13:07:32Z</time></trkpt><trkpt lat="42.41586508308659" lon="-8.102007017098645"><ele>414.3333333333333</ele><time>2026-04-03T13:07:33Z</time></trkpt><trkpt lat="42.41589859938126" lon="-8.101930025659234"><ele>414.0</ele><time>2026-04-03T13:07:34Z</time></trkpt><trkpt lat="42.4159211090177" lon="-8.101801776562885"><ele>414.0</ele><time>2026-04-03T13:07:36Z</time></trkpt><trkpt lat="42.415923561115434" lon="-8.101700249350033"><ele>414.0</ele><time>2026-04-03T13:07:38Z</time></trkpt><trkpt lat="42.416043113529255" lon="-8.101895578103878"><ele>414.0</ele><time>2026-04-03T13:07:43Z</time></trkpt><trkpt lat="42.41610776071155" lon="-8.101984979227163"><ele>414.0</ele><time>2026-04-03T13:07:44Z</time></trkpt><trkpt lat="42.41618781338488" lon="-8.102083987281379"><ele>414.0</ele><time>2026-04-03T13:07:45Z</time></trkpt><trkpt lat="42.41625349036114" lon="-8.102171505142278"><ele>414.0</ele><time>2026-04-03T13:07:46Z</time></trkpt><trkpt lat="42.41630009341435" lon="-8.102253174808885"><ele>414.0</ele><time>2026-04-03T13:07:47Z</time></trkpt><trkpt lat="42.416370692833254" lon="-8.102340806512709"><ele>414.0</ele><time>2026-04-03T13:07:49Z</time></trkpt><trkpt lat="42.41643190860614" lon="-8.102410082079235"><ele>414.0</ele><time>2026-04-03T13:07:52Z</time></trkpt><trkpt lat="42.41649833038683" lon="-8.102496713485811"><ele>414.0</ele><time>2026-04-03T13:07:55Z</time></trkpt><trkpt lat="42.416561880401424" lon="-8.102581838207154"><ele>414.0</ele><time>2026-04-03T13:07:58Z</time></trkpt><trkpt lat="42.41662451951735" lon="-8.102627755452087"><ele>414.0</ele><time>2026-04-03T13:08:02Z</time></trkpt><trkpt lat="42.41667528959954" lon="-8.102688676524169"><ele>414.0</ele><time>2026-04-03T13:08:12Z</time></trkpt><trkpt lat="42.416751039600584" lon="-8.102800651342527"><ele>414.0</ele><time>2026-04-03T13:08:14Z</time></trkpt><trkpt lat="42.41687836222369" lon="-8.102834627286029"><ele>414.0</ele><time>2026-04-03T13:08:16Z</time></trkpt><trkpt lat="42.416941492999634" lon="-8.102828109436647"><ele>414.0</ele><time>2026-04-03T13:08:17Z</time></trkpt><trkpt lat="42.417036011443955" lon="-8.102818700262931"><ele>414.0</ele><time>2026-04-03T13:08:19Z</time></trkpt><trkpt lat="42.41710334341207" lon="-8.10278745418074"><ele>414.0</ele><time>2026-04-03T13:08:21Z</time></trkpt><trkpt lat="42.41717934040643" lon="-8.102776177592006"><ele>414.0</ele><time>2026-04-03T13:08:24Z</time></trkpt><trkpt lat="42.417252242045045" lon="-8.102769029785268"><ele>414.0</ele><time>2026-04-03T13:08:28Z</time></trkpt><trkpt lat="42.41732216936034" lon="-8.102776655256832"><ele>414.0</ele><time>2026-04-03T13:08:44Z</time></trkpt><trkpt lat="42.41741681554372" lon="-8.102780884959671"><ele>414.0</ele><time>2026-04-03T13:08:48Z</time></trkpt><trkpt lat="42.41750140629796" lon="-8.102790379092694"><ele>413.00000000000006</ele><time>2026-04-03T13:08:51Z</time></trkpt><trkpt lat="42.41758801143536" lon="-8.102784491708345"><ele>412.0</ele><time>2026-04-03T13:08:54.999Z</time></trkpt><trkpt lat="42.41765539478539" lon="-8.102755445376552"><ele>411.0</ele><time>2026-04-03T13:08:58.999Z</time></trkpt><trkpt lat="42.41771800146016" lon="-8.10274588223982"><ele>410.0</ele><time>2026-04-03T13:10:55.001Z</time></trkpt><trkpt lat="42.41778842805488" lon="-8.102735124609044"><ele>409.0</ele><time>2026-04-03T13:10:59.999Z</time></trkpt><trkpt lat="42.41785494079647" lon="-8.102720375800894"><ele>408.00000000000006</ele><time>2026-04-03T13:11:04.999Z</time></trkpt><trkpt lat="42.41791918202307" lon="-8.102687369408628"><ele>407.0</ele><time>2026-04-03T13:11:10Z</time></trkpt><trkpt lat="42.41798083111642" lon="-8.102636573838975"><ele>404.6</ele><time>2026-04-03T13:11:21Z</time></trkpt><trkpt lat="42.418016185744044" lon="-8.102526937926099"><ele>402.20000000000005</ele><time>2026-04-03T13:11:23Z</time></trkpt><trkpt lat="42.418053852540915" lon="-8.10238707259542"><ele>399.8</ele><time>2026-04-03T13:11:25Z</time></trkpt><trkpt lat="42.41808496338213" lon="-8.102224129456483"><ele>397.4</ele><time>2026-04-03T13:11:27Z</time></trkpt><trkpt lat="42.418095092836296" lon="-8.102101371304329"><ele>395.0</ele><time>2026-04-03T13:11:28Z</time></trkpt><trkpt lat="42.41812944353381" lon="-8.101947440418373"><ele>394.6</ele><time>2026-04-03T13:11:30Z</time></trkpt><trkpt lat="42.4181506380279" lon="-8.101817296545024"><ele>394.2</ele><time>2026-04-03T13:11:32Z</time></trkpt><trkpt lat="42.41820775353943" lon="-8.101721178611028"><ele>393.79999999999995</ele><time>2026-04-03T13:11:34Z</time></trkpt><trkpt lat="42.41830530373123" lon="-8.101680208666279"><ele>393.4</ele><time>2026-04-03T13:11:36Z</time></trkpt><trkpt lat="42.41838374802881" lon="-8.101652286104793"><ele>393.0</ele><time>2026-04-03T13:11:38Z</time></trkpt><trkpt lat="42.41846263003282" lon="-8.101648504301753"><ele>393.0</ele><time>2026-04-03T13:11:40Z</time></trkpt><trkpt lat="42.41854401580223" lon="-8.101617622786696"><ele>393.0</ele><time>2026-04-03T13:11:42Z</time></trkpt><trkpt lat="42.418617715881624" lon="-8.101637316363815"><ele>393.0</ele><time>2026-04-03T13:11:44Z</time></trkpt><trkpt lat="42.41870888259289" lon="-8.10167458118788"><ele>393.0</ele><time>2026-04-03T13:11:46Z</time></trkpt><trkpt lat="42.41878190646523" lon="-8.101730030460073"><ele>393.0</ele><time>2026-04-03T13:11:48Z</time></trkpt><trkpt lat="42.418865825314754" lon="-8.101769428820878"><ele>393.0</ele><time>2026-04-03T13:11:50Z</time></trkpt><trkpt lat="42.418942370419174" lon="-8.101824559381555"><ele>392.0</ele><time>2026-04-03T13:11:52Z</time></trkpt><trkpt lat="42.41903878207074" lon="-8.10188427840683"><ele>391.0</ele><time>2026-04-03T13:11:54Z</time></trkpt><trkpt lat="42.419121114548574" lon="-8.101945495195723"><ele>390.0</ele><time>2026-04-03T13:11:56Z</time></trkpt><trkpt lat="42.41917369580295" lon="-8.10203460342346"><ele>389.0</ele><time>2026-04-03T13:11:58Z</time></trkpt><trkpt lat="42.41923376654004" lon="-8.102075812244616"><ele>388.0</ele><time>2026-04-03T13:12:00Z</time></trkpt><trkpt lat="42.419290990873066" lon="-8.101998814735834"><ele>387.0</ele><time>2026-04-03T13:12:04.001Z</time></trkpt><trkpt lat="42.41933620186937" lon="-8.1018854528681"><ele>387.0</ele><time>2026-04-03T13:12:07.001Z</time></trkpt><trkpt lat="42.41940314311033" lon="-8.101775529654466"><ele>387.0</ele><time>2026-04-03T13:12:09.001Z</time></trkpt><trkpt lat="42.419464025105064" lon="-8.101672197971974"><ele>387.0</ele><time>2026-04-03T13:12:11.001Z</time></trkpt><trkpt lat="42.419528545247516" lon="-8.101564695677661"><ele>387.0</ele><time>2026-04-03T13:12:13.001Z</time></trkpt><trkpt lat="42.41958292211885" lon="-8.101505887565855"><ele>387.0</ele><time>2026-04-03T13:12:14.001Z</time></trkpt><trkpt lat="42.4196496575464" lon="-8.101466078134019"><ele>387.0</ele><time>2026-04-03T13:12:15.001Z</time></trkpt><trkpt lat="42.41975814405549" lon="-8.101428219130742"><ele>385.8</ele><time>2026-04-03T13:12:17.001Z</time></trkpt><trkpt lat="42.41983623950148" lon="-8.101386199390173"><ele>384.6</ele><time>2026-04-03T13:12:19.001Z</time></trkpt><trkpt lat="42.419942307990055" lon="-8.101359981953113"><ele>383.40000000000003</ele><time>2026-04-03T13:12:21.001Z</time></trkpt><trkpt lat="42.41998047458622" lon="-8.101236961574392"><ele>382.20000000000005</ele><time>2026-04-03T13:12:24.001Z</time></trkpt><trkpt lat="42.4199992674978" lon="-8.101098968461944"><ele>381.0</ele><time>2026-04-03T13:12:26.001Z</time></trkpt><trkpt lat="42.42001398402767" lon="-8.101002497641984"><ele>381.0</ele><time>2026-04-03T13:12:27.001Z</time></trkpt><trkpt lat="42.420025444651216" lon="-8.100871612598825"><ele>381.0</ele><time>2026-04-03T13:12:29.001Z</time></trkpt><trkpt lat="42.420062788717374" lon="-8.100670604919967"><ele>381.0</ele><time>2026-04-03T13:12:31.001Z</time></trkpt><trkpt lat="42.42008689560032" lon="-8.100555072974458"><ele>381.0</ele><time>2026-04-03T13:12:32.001Z</time></trkpt><trkpt lat="42.42012133048365" lon="-8.100458488549002"><ele>381.0</ele><time>2026-04-03T13:12:33.001Z</time></trkpt><trkpt lat="42.42014931097391" lon="-8.100351074089355"><ele>381.3333333333333</ele><time>2026-04-03T13:12:34.001Z</time></trkpt><trkpt lat="42.420183033838214" lon="-8.100240061532263"><ele>381.6666666666667</ele><time>2026-04-03T13:12:35.001Z</time></trkpt><trkpt lat="42.42020974234938" lon="-8.100113652947961"><ele>382.0</ele><time>2026-04-03T13:12:36.001Z</time></trkpt><trkpt lat="42.42022346856678" lon="-8.100015317602871"><ele>382.33333333333337</ele><time>2026-04-03T13:12:37.001Z</time></trkpt><trkpt lat="42.42024667881869" lon="-8.099893954678342"><ele>382.6666666666667</ele><time>2026-04-03T13:12:38.001Z</time></trkpt><trkpt lat="42.420265271379506" lon="-8.099793761706811"><ele>383.0</ele><time>2026-04-03T13:12:39.001Z</time></trkpt><trkpt lat="42.420275353100344" lon="-8.09969278036433"><ele>384.33333333333337</ele><time>2026-04-03T13:12:40.001Z</time></trkpt><trkpt lat="42.42030177576151" lon="-8.099598267088167"><ele>385.6666666666667</ele><time>2026-04-03T13:12:41.001Z</time></trkpt><trkpt lat="42.4203342670378" lon="-8.099499182693556"><ele>387.0</ele><time>2026-04-03T13:12:42.001Z</time></trkpt><trkpt lat="42.420359455448356" lon="-8.099402410418435"><ele>388.33333333333337</ele><time>2026-04-03T13:12:43.001Z</time></trkpt><trkpt lat="42.420386984465615" lon="-8.099312058891845"><ele>389.6666666666667</ele><time>2026-04-03T13:12:44.001Z</time></trkpt><trkpt lat="42.42042801832195" lon="-8.09923083724961"><ele>391.0</ele><time>2026-04-03T13:12:45.001Z</time></trkpt><trkpt lat="42.42048142890436" lon="-8.099156687911329"><ele>389.6666666666667</ele><time>2026-04-03T13:12:46.001Z</time></trkpt><trkpt lat="42.42053905857203" lon="-8.099083198952437"><ele>388.33333333333337</ele><time>2026-04-03T13:12:47.001Z</time></trkpt><trkpt lat="42.42061234868464" lon="-8.099015346606825"><ele>387.0</ele><time>2026-04-03T13:12:48.001Z</time></trkpt><trkpt lat="42.42067408920435" lon="-8.098947223762089"><ele>385.6666666666667</ele><time>2026-04-03T13:12:49.001Z</time></trkpt><trkpt lat="42.420735459168355" lon="-8.09887280882411"><ele>384.33333333333337</ele><time>2026-04-03T13:12:50.001Z</time></trkpt><trkpt lat="42.4207835200717" lon="-8.098790207093483"><ele>383.0</ele><time>2026-04-03T13:12:51.001Z</time></trkpt><trkpt lat="42.420842863490506" lon="-8.09869374483795"><ele>383.0</ele><time>2026-04-03T13:12:52.001Z</time></trkpt><trkpt lat="42.42088707979647" lon="-8.0985896122261"><ele>383.0</ele><time>2026-04-03T13:12:53.001Z</time></trkpt><trkpt lat="42.42093185993747" lon="-8.098474928134525"><ele>383.0</ele><time>2026-04-03T13:12:54.001Z</time></trkpt><trkpt lat="42.42099316854107" lon="-8.098362994822557"><ele>383.0</ele><time>2026-04-03T13:12:55.001Z</time></trkpt><trkpt lat="42.42105205271168" lon="-8.098253298225485"><ele>383.0</ele><time>2026-04-03T13:12:56.001Z</time></trkpt><trkpt lat="42.421108268456635" lon="-8.098148439600449"><ele>384.4</ele><time>2026-04-03T13:12:57.001Z</time></trkpt><trkpt lat="42.42116545839369" lon="-8.098042124103467"><ele>385.79999999999995</ele><time>2026-04-03T13:12:58.001Z</time></trkpt><trkpt lat="42.42122333801819" lon="-8.097933449637218"><ele>387.2</ele><time>2026-04-03T13:12:59.001Z</time></trkpt><trkpt lat="42.42125829150963" lon="-8.097814325697424"><ele>388.6</ele><time>2026-04-03T13:13:00.001Z</time></trkpt><trkpt lat="42.42127768496054" lon="-8.097690161903293"><ele>390.0</ele><time>2026-04-03T13:13:01.001Z</time></trkpt><trkpt lat="42.42128597750133" lon="-8.097587484896104"><ele>389.2</ele><time>2026-04-03T13:13:02.001Z</time></trkpt><trkpt lat="42.421325313022834" lon="-8.097431547120145"><ele>388.4</ele><time>2026-04-03T13:13:04.001Z</time></trkpt><trkpt lat="42.42142593290156" lon="-8.097323502747074"><ele>387.6</ele><time>2026-04-03T13:13:05.999Z</time></trkpt><trkpt lat="42.42149107399617" lon="-8.097282516352513"><ele>386.8</ele><time>2026-04-03T13:13:06.999Z</time></trkpt><trkpt lat="42.42156315304644" lon="-8.097238909965773"><ele>386.0</ele><time>2026-04-03T13:13:07.999Z</time></trkpt><trkpt lat="42.42164184261418" lon="-8.09719913276833"><ele>385.99999999999994</ele><time>2026-04-03T13:13:08.999Z</time></trkpt><trkpt lat="42.4217153331537" lon="-8.097149970793199"><ele>386.0</ele><time>2026-04-03T13:13:09.999Z</time></trkpt><trkpt lat="42.42178294130426" lon="-8.097098932318165"><ele>386.0</ele><time>2026-04-03T13:13:11Z</time></trkpt><trkpt lat="42.42185555954759" lon="-8.09705160967431"><ele>386.0</ele><time>2026-04-03T13:13:12Z</time></trkpt><trkpt lat="42.421932997301994" lon="-8.097006669628893"><ele>385.99999999999994</ele><time>2026-04-03T13:13:12.999Z</time></trkpt><trkpt lat="42.42200795789877" lon="-8.096961472359952"><ele>386.0</ele><time>2026-04-03T13:13:14Z</time></trkpt><trkpt lat="42.42207287184739" lon="-8.096916628880079"><ele>383.4</ele><time>2026-04-03T13:13:15Z</time></trkpt><trkpt lat="42.422154884320506" lon="-8.096849860182015"><ele>380.8</ele><time>2026-04-03T13:13:17Z</time></trkpt><trkpt lat="42.42221205104895" lon="-8.09678529789571"><ele>378.2</ele><time>2026-04-03T13:13:19Z</time></trkpt><trkpt lat="42.422195835489376" lon="-8.096630148102724"><ele>375.59999999999997</ele><time>2026-04-03T13:13:20Z</time></trkpt><trkpt lat="42.42218074583044" lon="-8.096492097555794"><ele>373.0</ele><time>2026-04-03T13:13:21Z</time></trkpt><trkpt lat="42.42217698178269" lon="-8.096339498051725"><ele>372.5</ele><time>2026-04-03T13:13:22Z</time></trkpt><trkpt lat="42.4221727506714" lon="-8.096171285104907"><ele>372.0</ele><time>2026-04-03T13:13:23Z</time></trkpt><trkpt lat="42.422175112890656" lon="-8.09600425981976"><ele>371.5</ele><time>2026-04-03T13:13:24Z</time></trkpt><trkpt lat="42.42217395957881" lon="-8.09582602997709"><ele>371.0</ele><time>2026-04-03T13:13:25Z</time></trkpt><trkpt lat="42.42214918390965" lon="-8.095638988197729"><ele>372.75</ele><time>2026-04-03T13:13:26Z</time></trkpt><trkpt lat="42.42210199725998" lon="-8.095456468304619"><ele>374.5</ele><time>2026-04-03T13:13:27Z</time></trkpt><trkpt lat="42.42203269180052" lon="-8.095321166279087"><ele>376.25</ele><time>2026-04-03T13:13:28Z</time></trkpt><trkpt lat="42.42191013377924" lon="-8.095242861054663"><ele>378.0</ele><time>2026-04-03T13:13:29Z</time></trkpt><trkpt lat="42.42180722404893" lon="-8.095142975385182"><ele>378.0</ele><time>2026-04-03T13:13:30Z</time></trkpt><trkpt lat="42.42169047299531" lon="-8.095068240046919"><ele>378.0</ele><time>2026-04-03T13:13:31Z</time></trkpt><trkpt lat="42.42157707697145" lon="-8.094989905285255"><ele>378.0</ele><time>2026-04-03T13:13:32Z</time></trkpt><trkpt lat="42.421461356509305" lon="-8.09491056897742"><ele>378.0</ele><time>2026-04-03T13:13:33Z</time></trkpt><trkpt lat="42.421342370303535" lon="-8.09484949857592"><ele>378.79999999999995</ele><time>2026-04-03T13:13:34Z</time></trkpt><trkpt lat="42.42124194497044" lon="-8.09478266458083"><ele>379.6</ele><time>2026-04-03T13:13:35Z</time></trkpt><trkpt lat="42.421156173242764" lon="-8.09470606561201"><ele>380.4</ele><time>2026-04-03T13:13:36Z</time></trkpt><trkpt lat="42.421090793782724" lon="-8.094607347806663"><ele>381.20000000000005</ele><time>2026-04-03T13:13:37Z</time></trkpt><trkpt lat="42.42104057775292" lon="-8.094464746679499"><ele>382.0</ele><time>2026-04-03T13:13:38Z</time></trkpt><trkpt lat="42.42101889915641" lon="-8.094323471981632"><ele>382.0</ele><time>2026-04-03T13:13:39Z</time></trkpt><trkpt lat="42.4210170043102" lon="-8.094178585214562"><ele>382.0</ele><time>2026-04-03T13:13:40Z</time></trkpt><trkpt lat="42.42103507541778" lon="-8.094038694174722"><ele>382.0</ele><time>2026-04-03T13:13:41Z</time></trkpt><trkpt lat="42.42108293711894" lon="-8.093911395789297"><ele>382.0</ele><time>2026-04-03T13:13:42Z</time></trkpt><trkpt lat="42.42116482954032" lon="-8.093807131666196"><ele>382.0</ele><time>2026-04-03T13:13:43Z</time></trkpt><trkpt lat="42.42127246847988" lon="-8.093707976274464"><ele>381.25</ele><time>2026-04-03T13:13:44Z</time></trkpt><trkpt lat="42.4213760193096" lon="-8.093609933205832"><ele>380.5</ele><time>2026-04-03T13:13:45Z</time></trkpt><trkpt lat="42.42147383934556" lon="-8.093495198530427"><ele>379.75</ele><time>2026-04-03T13:13:46Z</time></trkpt><trkpt lat="42.42156904161338" lon="-8.09336475731859"><ele>379.0</ele><time>2026-04-03T13:13:47Z</time></trkpt><trkpt lat="42.42163593285488" lon="-8.093201288758104"><ele>381.66666666666663</ele><time>2026-04-03T13:13:48Z</time></trkpt><trkpt lat="42.42172381017569" lon="-8.09302493313227"><ele>384.3333333333333</ele><time>2026-04-03T13:13:49Z</time></trkpt><trkpt lat="42.421790790576566" lon="-8.092841012615713"><ele>387.0</ele><time>2026-04-03T13:13:50Z</time></trkpt><trkpt lat="42.42186275922517" lon="-8.092654031233806"><ele>387.0</ele><time>2026-04-03T13:13:51Z</time></trkpt><trkpt lat="42.42194796250216" lon="-8.092464257000954"><ele>387.0</ele><time>2026-04-03T13:13:52Z</time></trkpt><trkpt lat="42.422034271421005" lon="-8.0922742104678"><ele>387.0</ele><time>2026-04-03T13:13:53Z</time></trkpt><trkpt lat="42.422118806826646" lon="-8.092079032146412"><ele>386.33333333333337</ele><time>2026-04-03T13:13:54Z</time></trkpt><trkpt lat="42.422202655984705" lon="-8.09188191088"><ele>385.6666666666667</ele><time>2026-04-03T13:13:55Z</time></trkpt><trkpt lat="42.42228493332995" lon="-8.091699000512484"><ele>385.0</ele><time>2026-04-03T13:13:56Z</time></trkpt><trkpt lat="42.42237373663089" lon="-8.091521193571266"><ele>387.6666666666667</ele><time>2026-04-03T13:13:57Z</time></trkpt><trkpt lat="42.422470130084704" lon="-8.091363792888137"><ele>390.33333333333337</ele><time>2026-04-03T13:13:58Z</time></trkpt><trkpt lat="42.422567224705" lon="-8.091208992053609"><ele>393.0</ele><time>2026-04-03T13:13:59Z</time></trkpt><trkpt lat="42.42268464734371" lon="-8.091061913771078"><ele>393.0</ele><time>2026-04-03T13:14:00Z</time></trkpt><trkpt lat="42.42282506894357" lon="-8.090956614239174"><ele>393.0</ele><time>2026-04-03T13:14:01Z</time></trkpt><trkpt lat="42.42298251296227" lon="-8.090882649862598"><ele>393.0</ele><time>2026-04-03T13:14:02Z</time></trkpt><trkpt lat="42.4231435086053" lon="-8.090829489635727"><ele>393.0</ele><time>2026-04-03T13:14:03Z</time></trkpt><trkpt lat="42.423303500949544" lon="-8.090780367200178"><ele>393.0</ele><time>2026-04-03T13:14:04Z</time></trkpt><trkpt lat="42.42346610845281" lon="-8.090704693943618"><ele>393.0</ele><time>2026-04-03T13:14:05Z</time></trkpt><trkpt lat="42.4236275214455" lon="-8.090649169895263"><ele>395.5</ele><time>2026-04-03T13:14:06Z</time></trkpt><trkpt lat="42.42377852143151" lon="-8.090600538451271"><ele>398.0</ele><time>2026-04-03T13:14:07Z</time></trkpt><trkpt lat="42.42391647708646" lon="-8.09059221935656"><ele>400.5</ele><time>2026-04-03T13:14:08Z</time></trkpt><trkpt lat="42.42404103734883" lon="-8.090565333286241"><ele>403.0</ele><time>2026-04-03T13:14:09Z</time></trkpt><trkpt lat="42.42415015196405" lon="-8.090545540065419"><ele>403.25</ele><time>2026-04-03T13:14:10Z</time></trkpt><trkpt lat="42.42427030588673" lon="-8.090566926665117"><ele>403.5</ele><time>2026-04-03T13:14:11Z</time></trkpt><trkpt lat="42.424392523818135" lon="-8.090604710169375"><ele>403.75</ele><time>2026-04-03T13:14:12Z</time></trkpt><trkpt lat="42.424529822510294" lon="-8.090631543777004"><ele>404.0</ele><time>2026-04-03T13:14:13Z</time></trkpt><trkpt lat="42.424647120911374" lon="-8.090683675329355"><ele>403.75</ele><time>2026-04-03T13:14:14.001Z</time></trkpt><trkpt lat="42.42476539288648" lon="-8.090737500582994"><ele>403.5</ele><time>2026-04-03T13:14:15.001Z</time></trkpt><trkpt lat="42.42487891618897" lon="-8.090809759325612"><ele>403.25</ele><time>2026-04-03T13:14:16.001Z</time></trkpt><trkpt lat="42.42499284438756" lon="-8.090842376928729"><ele>403.0</ele><time>2026-04-03T13:14:17.001Z</time></trkpt><trkpt lat="42.425096096991794" lon="-8.090876884028763"><ele>403.0</ele><time>2026-04-03T13:14:18.001Z</time></trkpt><trkpt lat="42.42519979911854" lon="-8.090893544638428"><ele>403.0</ele><time>2026-04-03T13:14:19.001Z</time></trkpt><trkpt lat="42.42529200649402" lon="-8.09085022908306"><ele>403.0</ele><time>2026-04-03T13:14:20.001Z</time></trkpt><trkpt lat="42.42538940775547" lon="-8.0908099057506"><ele>403.0</ele><time>2026-04-03T13:14:21.001Z</time></trkpt><trkpt lat="42.425477580868744" lon="-8.090758529187893"><ele>403.0</ele><time>2026-04-03T13:14:22.001Z</time></trkpt><trkpt lat="42.425573517957076" lon="-8.090719633042436"><ele>403.8571428571429</ele><time>2026-04-03T13:14:23.001Z</time></trkpt><trkpt lat="42.425642850699944" lon="-8.090661883255349"><ele>404.71428571428567</ele><time>2026-04-03T13:14:24.001Z</time></trkpt><trkpt lat="42.42571151934194" lon="-8.09061849477615"><ele>405.57142857142856</ele><time>2026-04-03T13:14:25.001Z</time></trkpt><trkpt lat="42.42577472314212" lon="-8.090577915642072"><ele>406.42857142857144</ele><time>2026-04-03T13:14:26.001Z</time></trkpt><trkpt lat="42.425843968681555" lon="-8.090537344827188"><ele>407.28571428571433</ele><time>2026-04-03T13:14:27.001Z</time></trkpt><trkpt lat="42.42591009998991" lon="-8.090491706639538"><ele>408.1428571428571</ele><time>2026-04-03T13:14:28.001Z</time></trkpt><trkpt lat="42.42597419259406" lon="-8.090451329515728"><ele>409.0</ele><time>2026-04-03T13:14:29.001Z</time></trkpt><trkpt lat="42.42604582252182" lon="-8.090399450982867"><ele>409.0</ele><time>2026-04-03T13:14:30.001Z</time></trkpt><trkpt lat="42.42612042154037" lon="-8.090348203245233"><ele>409.0</ele><time>2026-04-03T13:14:31.001Z</time></trkpt><trkpt lat="42.42620450883745" lon="-8.090301321045207"><ele>409.0</ele><time>2026-04-03T13:14:32.001Z</time></trkpt><trkpt lat="42.426285353765245" lon="-8.090245334720331"><ele>409.0</ele><time>2026-04-03T13:14:33.001Z</time></trkpt><trkpt lat="42.42636753392157" lon="-8.090193289979974"><ele>409.0</ele><time>2026-04-03T13:14:34.001Z</time></trkpt><trkpt lat="42.42645095627878" lon="-8.090135402999186"><ele>408.6</ele><time>2026-04-03T13:14:35.001Z</time></trkpt><trkpt lat="42.426538012310914" lon="-8.090071480851805"><ele>408.2</ele><time>2026-04-03T13:14:36.001Z</time></trkpt><trkpt lat="42.42663060532928" lon="-8.090015442191909"><ele>407.8</ele><time>2026-04-03T13:14:37.001Z</time></trkpt><trkpt lat="42.42672642109995" lon="-8.089956422214707"><ele>407.40000000000003</ele><time>2026-04-03T13:14:38.001Z</time></trkpt><trkpt lat="42.42682048837657" lon="-8.089894069884929"><ele>407.0</ele><time>2026-04-03T13:14:39.001Z</time></trkpt><trkpt lat="42.42690912349026" lon="-8.089828353134868"><ele>407.0</ele><time>2026-04-03T13:14:40.001Z</time></trkpt><trkpt lat="42.42700315848584" lon="-8.089769812163974"><ele>407.0</ele><time>2026-04-03T13:14:41.001Z</time></trkpt><trkpt lat="42.42709700511733" lon="-8.08970949732722"><ele>407.0</ele><time>2026-04-03T13:14:42.001Z</time></trkpt><trkpt lat="42.427186912161616" lon="-8.08963369086945"><ele>407.0</ele><time>2026-04-03T13:14:43.001Z</time></trkpt><trkpt lat="42.42725823345296" lon="-8.089529939603109"><ele>407.0</ele><time>2026-04-03T13:14:44.001Z</time></trkpt><trkpt lat="42.42731329020204" lon="-8.089414146136242"><ele>406.20000000000005</ele><time>2026-04-03T13:14:45.001Z</time></trkpt><trkpt lat="42.427336468770584" lon="-8.089288161110268"><ele>405.4</ele><time>2026-04-03T13:14:46.001Z</time></trkpt><trkpt lat="42.4273054588794" lon="-8.089151335407935"><ele>404.6</ele><time>2026-04-03T13:14:47.001Z</time></trkpt><trkpt lat="42.427294934696384" lon="-8.089027628840764"><ele>403.79999999999995</ele><time>2026-04-03T13:14:48.001Z</time></trkpt><trkpt lat="42.42725183431231" lon="-8.088891664750918"><ele>403.0</ele><time>2026-04-03T13:14:49.001Z</time></trkpt><trkpt lat="42.42720688514352" lon="-8.088760943863887"><ele>402.79999999999995</ele><time>2026-04-03T13:14:50.001Z</time></trkpt><trkpt lat="42.42717431127044" lon="-8.088622499233283"><ele>402.6</ele><time>2026-04-03T13:14:51.001Z</time></trkpt><trkpt lat="42.427139414912695" lon="-8.088480187961915"><ele>402.4</ele><time>2026-04-03T13:14:52.001Z</time></trkpt><trkpt lat="42.4270987600811" lon="-8.088329489163623"><ele>402.20000000000005</ele><time>2026-04-03T13:14:53.001Z</time></trkpt><trkpt lat="42.42706050897626" lon="-8.08818830825747"><ele>402.0</ele><time>2026-04-03T13:14:54.001Z</time></trkpt><trkpt lat="42.42701859937846" lon="-8.088048139884997"><ele>401.75</ele><time>2026-04-03T13:14:55.001Z</time></trkpt><trkpt lat="42.42697681748651" lon="-8.087903815415379"><ele>401.5</ele><time>2026-04-03T13:14:56.001Z</time></trkpt><trkpt lat="42.426939410572054" lon="-8.087760128572171"><ele>401.25</ele><time>2026-04-03T13:14:57.001Z</time></trkpt><trkpt lat="42.42690331962845" lon="-8.087615548338006"><ele>401.0</ele><time>2026-04-03T13:14:58.001Z</time></trkpt><trkpt lat="42.42686218415711" lon="-8.08745857933036"><ele>400.5</ele><time>2026-04-03T13:14:59.001Z</time></trkpt><trkpt lat="42.426825105160994" lon="-8.087325923013605"><ele>400.0</ele><time>2026-04-03T13:15:00.001Z</time></trkpt><trkpt lat="42.42678676254096" lon="-8.087172240728464"><ele>399.5</ele><time>2026-04-03T13:15:01.001Z</time></trkpt><trkpt lat="42.42675140744435" lon="-8.087024981298146"><ele>399.0</ele><time>2026-04-03T13:15:02.001Z</time></trkpt><trkpt lat="42.42671280770686" lon="-8.0868809834431"><ele>399.0</ele><time>2026-04-03T13:15:03.001Z</time></trkpt><trkpt lat="42.42667004967116" lon="-8.086745238643983"><ele>399.0</ele><time>2026-04-03T13:15:04.001Z</time></trkpt><trkpt lat="42.426634699468174" lon="-8.086601943850402"><ele>399.0</ele><time>2026-04-03T13:15:05.001Z</time></trkpt><trkpt lat="42.42659449356017" lon="-8.08645621921323"><ele>399.0</ele><time>2026-04-03T13:15:06.001Z</time></trkpt><trkpt lat="42.426555126057636" lon="-8.086311307407447"><ele>399.0</ele><time>2026-04-03T13:15:07.001Z</time></trkpt><trkpt lat="42.42651969520611" lon="-8.086166408497673"><ele>399.2</ele><time>2026-04-03T13:15:08.001Z</time></trkpt><trkpt lat="42.42649620159495" lon="-8.08601750501474"><ele>399.4</ele><time>2026-04-03T13:15:09.001Z</time></trkpt><trkpt lat="42.42648550770942" lon="-8.08588005237504"><ele>399.6</ele><time>2026-04-03T13:15:10.001Z</time></trkpt><trkpt lat="42.426481917236046" lon="-8.085735233923529"><ele>399.8</ele><time>2026-04-03T13:15:11.001Z</time></trkpt><trkpt lat="42.42649379597035" lon="-8.085593899914306"><ele>400.0</ele><time>2026-04-03T13:15:12Z</time></trkpt><trkpt lat="42.42650801651285" lon="-8.085455539285736"><ele>400.2</ele><time>2026-04-03T13:15:13Z</time></trkpt><trkpt lat="42.42651743357017" lon="-8.085322499604564"><ele>400.4</ele><time>2026-04-03T13:15:14Z</time></trkpt><trkpt lat="42.42653750003879" lon="-8.085195680176511"><ele>400.6</ele><time>2026-04-03T13:15:15Z</time></trkpt><trkpt lat="42.426558985413656" lon="-8.085064244639044"><ele>400.8</ele><time>2026-04-03T13:15:16Z</time></trkpt><trkpt lat="42.42657935676255" lon="-8.084944362983807"><ele>401.0</ele><time>2026-04-03T13:15:17Z</time></trkpt><trkpt lat="42.42660231543848" lon="-8.084819052482674"><ele>401.0</ele><time>2026-04-03T13:15:18Z</time></trkpt><trkpt lat="42.42662595674214" lon="-8.084699293058748"><ele>401.0</ele><time>2026-04-03T13:15:19Z</time></trkpt><trkpt lat="42.42663520444125" lon="-8.084565950378995"><ele>401.0</ele><time>2026-04-03T13:15:20Z</time></trkpt><trkpt lat="42.42666919945226" lon="-8.084450758469458"><ele>401.0</ele><time>2026-04-03T13:15:21Z</time></trkpt><trkpt lat="42.42667867055312" lon="-8.084322555972918"><ele>401.0</ele><time>2026-04-03T13:15:22Z</time></trkpt><trkpt lat="42.426706215776484" lon="-8.084184963431502"><ele>400.6</ele><time>2026-04-03T13:15:23Z</time></trkpt><trkpt lat="42.42672500468274" lon="-8.084046376535248"><ele>400.20000000000005</ele><time>2026-04-03T13:15:24Z</time></trkpt><trkpt lat="42.426741118333" lon="-8.083897120876433"><ele>399.79999999999995</ele><time>2026-04-03T13:15:25Z</time></trkpt><trkpt lat="42.426755717345145" lon="-8.08375343709239"><ele>399.4</ele><time>2026-04-03T13:15:26Z</time></trkpt><trkpt lat="42.42677199173348" lon="-8.083598631688925"><ele>399.0</ele><time>2026-04-03T13:15:27Z</time></trkpt><trkpt lat="42.42678255518731" lon="-8.083442907482286"><ele>399.0</ele><time>2026-04-03T13:15:28Z</time></trkpt><trkpt lat="42.42678729325854" lon="-8.083290324781435"><ele>399.0</ele><time>2026-04-03T13:15:29Z</time></trkpt><trkpt lat="42.42677954399965" lon="-8.083113962289193"><ele>399.0</ele><time>2026-04-03T13:15:30Z</time></trkpt><trkpt lat="42.42676798031941" lon="-8.082961703351996"><ele>399.0</ele><time>2026-04-03T13:15:31Z</time></trkpt><trkpt lat="42.42675120517918" lon="-8.082809433034646"><ele>398.0</ele><time>2026-04-03T13:15:32Z</time></trkpt><trkpt lat="42.426737507610454" lon="-8.082679163118605"><ele>397.0</ele><time>2026-04-03T13:15:33Z</time></trkpt><trkpt lat="42.42672192790523" lon="-8.082519193356532"><ele>396.0</ele><time>2026-04-03T13:15:35Z</time></trkpt><trkpt lat="42.42689542284224" lon="-8.0824329961218"><ele>395.0</ele><time>2026-04-03T13:15:37Z</time></trkpt><trkpt lat="42.42697695351197" lon="-8.08238645353321"><ele>395.0</ele><time>2026-04-03T13:15:38Z</time></trkpt><trkpt lat="42.427058062860056" lon="-8.082309356879097"><ele>395.0</ele><time>2026-04-03T13:15:39Z</time></trkpt><trkpt lat="42.4271432440823" lon="-8.082229397890378"><ele>395.0</ele><time>2026-04-03T13:15:40Z</time></trkpt><trkpt lat="42.42725334894749" lon="-8.082145830949937"><ele>395.0</ele><time>2026-04-03T13:15:41Z</time></trkpt><trkpt lat="42.42736020784262" lon="-8.082059984077166"><ele>394.5</ele><time>2026-04-03T13:15:42Z</time></trkpt><trkpt lat="42.4274665762417" lon="-8.081966812688187"><ele>394.0</ele><time>2026-04-03T13:15:43Z</time></trkpt><trkpt lat="42.42757638075656" lon="-8.081875325797647"><ele>393.5</ele><time>2026-04-03T13:15:44.001Z</time></trkpt><trkpt lat="42.427681812744105" lon="-8.081777151355347"><ele>393.0</ele><time>2026-04-03T13:15:45.001Z</time></trkpt><trkpt lat="42.427786478014056" lon="-8.081694843971325"><ele>393.0</ele><time>2026-04-03T13:15:46.001Z</time></trkpt><trkpt lat="42.427878039334956" lon="-8.081623038713387"><ele>393.0</ele><time>2026-04-03T13:15:47.001Z</time></trkpt><trkpt lat="42.42795446898949" lon="-8.081557341096202"><ele>393.0</ele><time>2026-04-03T13:15:48.001Z</time></trkpt><trkpt lat="42.428044922702334" lon="-8.081473055752314"><ele>393.0</ele><time>2026-04-03T13:15:49.001Z</time></trkpt><trkpt lat="42.42813708673432" lon="-8.081396212598648"><ele>393.0</ele><time>2026-04-03T13:15:50.001Z</time></trkpt><trkpt lat="42.42823235837362" lon="-8.081318003086974"><ele>392.79999999999995</ele><time>2026-04-03T13:15:51.001Z</time></trkpt><trkpt lat="42.42832484913173" lon="-8.081237382556989"><ele>392.6</ele><time>2026-04-03T13:15:52.001Z</time></trkpt><trkpt lat="42.428408776484254" lon="-8.08116448354029"><ele>392.4</ele><time>2026-04-03T13:15:53.001Z</time></trkpt><trkpt lat="42.42849416010883" lon="-8.081087645250118"><ele>392.20000000000005</ele><time>2026-04-03T13:15:54.001Z</time></trkpt><trkpt lat="42.428580117484266" lon="-8.081005849050133"><ele>392.0</ele><time>2026-04-03T13:15:55.001Z</time></trkpt><trkpt lat="42.42866216213708" lon="-8.080929704300885"><ele>391.99999999999994</ele><time>2026-04-03T13:15:56.001Z</time></trkpt><trkpt lat="42.42874561694506" lon="-8.080848331713133"><ele>392.0</ele><time>2026-04-03T13:15:57.001Z</time></trkpt><trkpt lat="42.42882746774018" lon="-8.080778101694177"><ele>392.0</ele><time>2026-04-03T13:15:58.001Z</time></trkpt><trkpt lat="42.42890684612606" lon="-8.080709993070393"><ele>392.0</ele><time>2026-04-03T13:15:59.001Z</time></trkpt><trkpt lat="42.428975620004344" lon="-8.080650983324894"><ele>391.99999999999994</ele><time>2026-04-03T13:16:00.001Z</time></trkpt><trkpt lat="42.4290371912647" lon="-8.080598153691517"><ele>392.0</ele><time>2026-04-03T13:16:01.001Z</time></trkpt><trkpt lat="42.429092121146034" lon="-8.080551023336161"><ele>392.66666666666663</ele><time>2026-04-03T13:16:02.001Z</time></trkpt><trkpt lat="42.4291639517142" lon="-8.080490144721296"><ele>393.3333333333333</ele><time>2026-04-03T13:16:04.001Z</time></trkpt><trkpt lat="42.42921771817684" lon="-8.080444454218313"><ele>394.0</ele><time>2026-04-03T13:16:06.001Z</time></trkpt><trkpt lat="42.42928627499796" lon="-8.08038619496945"><ele>394.66666666666663</ele><time>2026-04-03T13:16:08.001Z</time></trkpt><trkpt lat="42.42937004000247" lon="-8.080316066482403"><ele>395.3333333333333</ele><time>2026-04-03T13:16:10.001Z</time></trkpt><trkpt lat="42.42945257433332" lon="-8.080249295637655"><ele>396.0</ele><time>2026-04-03T13:16:12.001Z</time></trkpt><trkpt lat="42.42953948857505" lon="-8.080179500880032"><ele>396.0</ele><time>2026-04-03T13:16:14.001Z</time></trkpt><trkpt lat="42.42962178634466" lon="-8.080113427816817"><ele>396.0</ele><time>2026-04-03T13:16:16.001Z</time></trkpt><trkpt lat="42.42970824661684" lon="-8.080041943002971"><ele>396.0</ele><time>2026-04-03T13:16:18.001Z</time></trkpt><trkpt lat="42.42977440807293" lon="-8.07998685432499"><ele>396.0</ele><time>2026-04-03T13:16:20.001Z</time></trkpt><trkpt lat="42.42983514412882" lon="-8.079928009684933"><ele>396.0</ele><time>2026-04-03T13:16:22.001Z</time></trkpt><trkpt lat="42.429912441312986" lon="-8.079857565691809"><ele>396.0</ele><time>2026-04-03T13:16:24.001Z</time></trkpt><trkpt lat="42.43001296761981" lon="-8.079766072319352"><ele>397.4</ele><time>2026-04-03T13:16:26.001Z</time></trkpt><trkpt lat="42.430085600910836" lon="-8.079703308961557"><ele>398.8</ele><time>2026-04-03T13:16:27.001Z</time></trkpt><trkpt lat="42.430173031021845" lon="-8.079631813510693"><ele>400.2</ele><time>2026-04-03T13:16:28.001Z</time></trkpt><trkpt lat="42.43027655496869" lon="-8.079573592918305"><ele>401.59999999999997</ele><time>2026-04-03T13:16:29.001Z</time></trkpt><trkpt lat="42.4303653010508" lon="-8.079494932219788"><ele>403.0</ele><time>2026-04-03T13:16:30.001Z</time></trkpt><trkpt lat="42.430424364038664" lon="-8.079432950816853"><ele>403.0</ele><time>2026-04-03T13:16:31.001Z</time></trkpt><trkpt lat="42.4304773930937" lon="-8.079357447581634"><ele>403.0</ele><time>2026-04-03T13:16:33.001Z</time></trkpt><trkpt lat="42.43039680341684" lon="-8.07937573623931"><ele>403.0</ele><time>2026-04-03T13:16:39.001Z</time></trkpt><trkpt lat="42.43048323647379" lon="-8.079389360377737"><ele>403.0</ele><time>2026-04-03T13:17:20.001Z</time></trkpt><trkpt lat="42.43061875270506" lon="-8.079285262415828"><ele>403.0</ele><time>2026-04-03T13:17:22.001Z</time></trkpt><trkpt lat="42.430697062507235" lon="-8.079208509428577"><ele>403.1666666666667</ele><time>2026-04-03T13:17:23.001Z</time></trkpt><trkpt lat="42.430773694284795" lon="-8.079127616366236"><ele>403.33333333333337</ele><time>2026-04-03T13:17:24.001Z</time></trkpt><trkpt lat="42.43085266672927" lon="-8.079048648621686"><ele>403.5</ele><time>2026-04-03T13:17:25.001Z</time></trkpt><trkpt lat="42.430932444666595" lon="-8.07898950810289"><ele>403.66666666666663</ele><time>2026-04-03T13:17:26.001Z</time></trkpt><trkpt lat="42.43099214846382" lon="-8.078927722979648"><ele>403.8333333333333</ele><time>2026-04-03T13:17:27.001Z</time></trkpt><trkpt lat="42.431059783160435" lon="-8.078876673015493"><ele>404.0</ele><time>2026-04-03T13:17:28.001Z</time></trkpt><trkpt lat="42.43111985895276" lon="-8.07882523265816"><ele>404.79999999999995</ele><time>2026-04-03T13:17:29.001Z</time></trkpt><trkpt lat="42.431174028221456" lon="-8.078778849785557"><ele>405.59999999999997</ele><time>2026-04-03T13:17:30.001Z</time></trkpt><trkpt lat="42.43123079477774" lon="-8.078729719742594"><ele>406.4</ele><time>2026-04-03T13:17:31.001Z</time></trkpt><trkpt lat="42.43132813067907" lon="-8.078633431274131"><ele>407.2</ele><time>2026-04-03T13:17:33.001Z</time></trkpt><trkpt lat="42.43139564041999" lon="-8.07851123153744"><ele>408.0</ele><time>2026-04-03T13:17:35.001Z</time></trkpt><trkpt lat="42.431405836907324" lon="-8.07838761577637"><ele>408.0</ele><time>2026-04-03T13:17:37.001Z</time></trkpt><trkpt lat="42.43141716084301" lon="-8.07824066690686"><ele>408.0</ele><time>2026-04-03T13:17:39.001Z</time></trkpt><trkpt lat="42.43140632849975" lon="-8.078097362241522"><ele>408.0</ele><time>2026-04-03T13:17:41.001Z</time></trkpt><trkpt lat="42.43137855013072" lon="-8.077983250474412"><ele>408.0</ele><time>2026-04-03T13:17:43.001Z</time></trkpt><trkpt lat="42.43134478445515" lon="-8.077871064471342"><ele>408.0</ele><time>2026-04-03T13:17:45.001Z</time></trkpt><trkpt lat="42.43126346083513" lon="-8.077774643493814"><ele>408.0</ele><time>2026-04-03T13:17:47.001Z</time></trkpt><trkpt lat="42.43122926286153" lon="-8.077655572376162"><ele>408.0</ele><time>2026-04-03T13:17:49.001Z</time></trkpt><trkpt lat="42.431297896851994" lon="-8.077582446501792"><ele>408.0</ele><time>2026-04-03T13:17:51.001Z</time></trkpt><trkpt lat="42.43142697227889" lon="-8.07764132788237"><ele>408.0</ele><time>2026-04-03T13:17:53.001Z</time></trkpt><trkpt lat="42.4315002399071" lon="-8.077559289317078"><ele>408.0</ele><time>2026-04-03T13:17:54.001Z</time></trkpt><trkpt lat="42.43156957080624" lon="-8.077674205982559"><ele>408.79999999999995</ele><time>2026-04-03T13:17:55.001Z</time></trkpt><trkpt lat="42.43168658611272" lon="-8.077707799161132"><ele>409.6</ele><time>2026-04-03T13:17:57.001Z</time></trkpt><trkpt lat="42.431749892495276" lon="-8.077712611891746"><ele>410.4</ele><time>2026-04-03T13:17:58.001Z</time></trkpt><trkpt lat="42.431880780466244" lon="-8.07771368545931"><ele>411.20000000000005</ele><time>2026-04-03T13:18:00.001Z</time></trkpt><trkpt lat="42.4319627622671" lon="-8.07771740770958"><ele>412.0</ele><time>2026-04-03T13:18:01.001Z</time></trkpt><trkpt lat="42.43204210617681" lon="-8.077721046574052"><ele>412.00000000000006</ele><time>2026-04-03T13:18:02.001Z</time></trkpt><trkpt lat="42.432125757447295" lon="-8.07772453502438"><ele>412.0</ele><time>2026-04-03T13:18:03.001Z</time></trkpt><trkpt lat="42.43220430049626" lon="-8.077716576847992"><ele>412.0</ele><time>2026-04-03T13:18:04.001Z</time></trkpt><trkpt lat="42.432302092457576" lon="-8.077721573110043"><ele>412.0</ele><time>2026-04-03T13:18:05.001Z</time></trkpt><trkpt lat="42.43239468258333" lon="-8.077729388832346"><ele>412.00000000000006</ele><time>2026-04-03T13:18:06.001Z</time></trkpt><trkpt lat="42.432478735856556" lon="-8.077731886180494"><ele>412.0</ele><time>2026-04-03T13:18:07.001Z</time></trkpt><trkpt lat="42.43257293320352" lon="-8.077735130943791"><ele>411.20000000000005</ele><time>2026-04-03T13:18:08.001Z</time></trkpt><trkpt lat="42.43266727198574" lon="-8.077740559556714"><ele>410.4</ele><time>2026-04-03T13:18:09.001Z</time></trkpt><trkpt lat="42.432763159581235" lon="-8.07773309428705"><ele>409.6</ele><time>2026-04-03T13:18:10.001Z</time></trkpt><trkpt lat="42.43286191737586" lon="-8.077743568934864"><ele>408.79999999999995</ele><time>2026-04-03T13:18:11.001Z</time></trkpt><trkpt lat="42.43296239882716" lon="-8.077725499923444"><ele>408.0</ele><time>2026-04-03T13:18:12.001Z</time></trkpt><trkpt lat="42.433070877954485" lon="-8.07773651213788"><ele>407.2</ele><time>2026-04-03T13:18:13.001Z</time></trkpt><trkpt lat="42.43317073669549" lon="-8.077734707245218"><ele>406.4</ele><time>2026-04-03T13:18:14.001Z</time></trkpt><trkpt lat="42.43326804854413" lon="-8.077752818893655"><ele>405.59999999999997</ele><time>2026-04-03T13:18:15.001Z</time></trkpt><trkpt lat="42.43337057054878" lon="-8.077740245461982"><ele>404.79999999999995</ele><time>2026-04-03T13:18:16.001Z</time></trkpt><trkpt lat="42.433462933258866" lon="-8.077755074007174"><ele>404.0</ele><time>2026-04-03T13:18:17.001Z</time></trkpt><trkpt lat="42.43355785754121" lon="-8.07775993428563"><ele>403.99999999999994</ele><time>2026-04-03T13:18:18.001Z</time></trkpt><trkpt lat="42.433653367744064" lon="-8.07775906266891"><ele>404.0</ele><time>2026-04-03T13:18:19.001Z</time></trkpt><trkpt lat="42.433739183643986" lon="-8.077747571480867"><ele>404.0</ele><time>2026-04-03T13:18:20.001Z</time></trkpt><trkpt lat="42.433829297368646" lon="-8.077750913363644"><ele>404.0</ele><time>2026-04-03T13:18:21.001Z</time></trkpt><trkpt lat="42.43391628450833" lon="-8.0777620834491"><ele>403.99999999999994</ele><time>2026-04-03T13:18:22.001Z</time></trkpt><trkpt lat="42.43400476633326" lon="-8.077742718591002"><ele>404.0</ele><time>2026-04-03T13:18:23.001Z</time></trkpt><trkpt lat="42.434082079448" lon="-8.077761600186191"><ele>404.3333333333333</ele><time>2026-04-03T13:18:24.001Z</time></trkpt><trkpt lat="42.434162723689035" lon="-8.077748847465546"><ele>404.66666666666663</ele><time>2026-04-03T13:18:25.001Z</time></trkpt><trkpt lat="42.434237726499816" lon="-8.077752536152415"><ele>405.0</ele><time>2026-04-03T13:18:26.001Z</time></trkpt><trkpt lat="42.43431570803455" lon="-8.077751284222499"><ele>405.33333333333337</ele><time>2026-04-03T13:18:27.001Z</time></trkpt><trkpt lat="42.434396674745" lon="-8.07775051331597"><ele>405.6666666666667</ele><time>2026-04-03T13:18:28.001Z</time></trkpt><trkpt lat="42.43447350782153" lon="-8.077749259089973"><ele>406.0</ele><time>2026-04-03T13:18:29.001Z</time></trkpt><trkpt lat="42.434549982572925" lon="-8.077751518096703"><ele>405.6</ele><time>2026-04-03T13:18:30.001Z</time></trkpt><trkpt lat="42.43465697610683" lon="-8.077694050441135"><ele>405.20000000000005</ele><time>2026-04-03T13:18:32.001Z</time></trkpt><trkpt lat="42.43474362125739" lon="-8.077571661133797"><ele>404.79999999999995</ele><time>2026-04-03T13:18:34.001Z</time></trkpt><trkpt lat="42.43479774318691" lon="-8.077518201158316"><ele>404.4</ele><time>2026-04-03T13:18:35.001Z</time></trkpt><trkpt lat="42.43489603429473" lon="-8.077519066813188"><ele>404.0</ele><time>2026-04-03T13:18:37.001Z</time></trkpt><trkpt lat="42.43496744276037" lon="-8.077586785647686"><ele>404.0</ele><time>2026-04-03T13:18:39.001Z</time></trkpt><trkpt lat="42.43500403791568" lon="-8.077691452800451"><ele>404.0</ele><time>2026-04-03T13:18:41.001Z</time></trkpt><trkpt lat="42.434994349742354" lon="-8.077852162440848"><ele>404.0</ele><time>2026-04-03T13:18:43.001Z</time></trkpt><trkpt lat="42.434949529804854" lon="-8.077917343385566"><ele>404.0</ele><time>2026-04-03T13:18:44.001Z</time></trkpt><trkpt lat="42.434871770506646" lon="-8.078026711678477"><ele>404.0</ele><time>2026-04-03T13:18:46.001Z</time></trkpt><trkpt lat="42.43480750534199" lon="-8.077950614219613"><ele>404.0</ele><time>2026-04-03T13:18:48.001Z</time></trkpt><trkpt lat="42.434837550653256" lon="-8.078096038380309"><ele>404.0</ele><time>2026-04-03T13:18:49.001Z</time></trkpt></trkseg><trkseg><trkpt lat="42.43477636694413" lon="-8.077616597983813"><ele>404.0</ele><time>2026-04-03T13:50:33Z</time></trkpt><trkpt lat="42.43478403191367" lon="-8.077517325321736"><ele>404.0</ele><time>2026-04-03T13:50:34Z</time></trkpt><trkpt lat="42.434775030151215" lon="-8.077362715066291"><ele>404.0</ele><time>2026-04-03T13:50:35Z</time></trkpt><trkpt lat="42.43470330631694" lon="-8.077331286439131"><ele>404.0</ele><time>2026-04-03T13:50:36Z</time></trkpt><trkpt lat="42.434650363496736" lon="-8.077215553696423"><ele>404.0</ele><time>2026-04-03T13:50:37Z</time></trkpt><trkpt lat="42.43459760384128" lon="-8.077100221066468"><ele>404.75</ele><time>2026-04-03T13:50:38Z</time></trkpt><trkpt lat="42.434549550135095" lon="-8.07699593533022"><ele>405.5</ele><time>2026-04-03T13:50:39Z</time></trkpt><trkpt lat="42.43447153879614" lon="-8.076826658091822"><ele>406.25</ele><time>2026-04-03T13:50:40Z</time></trkpt><trkpt lat="42.43443293001072" lon="-8.076742880713743"><ele>407.0</ele><time>2026-04-03T13:50:41Z</time></trkpt><trkpt lat="42.434338506401126" lon="-8.076537990412778"><ele>407.25</ele><time>2026-04-03T13:50:42Z</time></trkpt><trkpt lat="42.43426841189789" lon="-8.076385412234735"><ele>407.5</ele><time>2026-04-03T13:50:43Z</time></trkpt><trkpt lat="42.43419608771732" lon="-8.07622770839011"><ele>407.75</ele><time>2026-04-03T13:50:44Z</time></trkpt><trkpt lat="42.43413803501817" lon="-8.076076208670452"><ele>408.0</ele><time>2026-04-03T13:50:45Z</time></trkpt><trkpt lat="42.434072195292245" lon="-8.075941742613129"><ele>408.0</ele><time>2026-04-03T13:50:46Z</time></trkpt><trkpt lat="42.43401808543069" lon="-8.075836612419332"><ele>408.0</ele><time>2026-04-03T13:50:47Z</time></trkpt><trkpt lat="42.433964444332055" lon="-8.075728782391183"><ele>408.0</ele><time>2026-04-03T13:50:48Z</time></trkpt><trkpt lat="42.433914368312955" lon="-8.075623094437956"><ele>408.0</ele><time>2026-04-03T13:50:49Z</time></trkpt><trkpt lat="42.43386518560534" lon="-8.075511421309237"><ele>408.0</ele><time>2026-04-03T13:50:50Z</time></trkpt><trkpt lat="42.43381122786868" lon="-8.075408976580714"><ele>408.0</ele><time>2026-04-03T13:50:51Z</time></trkpt><trkpt lat="42.43376880596541" lon="-8.07528640754982"><ele>408.0</ele><time>2026-04-03T13:50:52Z</time></trkpt><trkpt lat="42.43371630015652" lon="-8.075166111850772"><ele>408.0</ele><time>2026-04-03T13:50:53Z</time></trkpt><trkpt lat="42.433662995036876" lon="-8.075082711752833"><ele>408.0</ele><time>2026-04-03T13:50:54Z</time></trkpt><trkpt lat="42.43362707340981" lon="-8.074990071102945"><ele>408.0</ele><time>2026-04-03T13:50:55Z</time></trkpt><trkpt lat="42.433573344918074" lon="-8.074837173804676"><ele>408.0</ele><time>2026-04-03T13:50:56Z</time></trkpt><trkpt lat="42.433521241459154" lon="-8.074717245129053"><ele>408.0</ele><time>2026-04-03T13:50:57Z</time></trkpt><trkpt lat="42.43345779946475" lon="-8.074606382355055"><ele>408.0</ele><time>2026-04-03T13:50:58Z</time></trkpt><trkpt lat="42.43341051610291" lon="-8.074481756220901"><ele>408.0</ele><time>2026-04-03T13:50:59Z</time></trkpt><trkpt lat="42.43336215129793" lon="-8.074363441852563"><ele>408.0</ele><time>2026-04-03T13:51:00Z</time></trkpt><trkpt lat="42.43330091294873" lon="-8.07424736207631"><ele>408.0</ele><time>2026-04-03T13:51:00.999Z</time></trkpt><trkpt lat="42.4332565020013" lon="-8.0741351564139"><ele>408.0</ele><time>2026-04-03T13:51:01.999Z</time></trkpt><trkpt lat="42.433203172598574" lon="-8.074015041274253"><ele>408.0</ele><time>2026-04-03T13:51:02.999Z</time></trkpt><trkpt lat="42.43314930324193" lon="-8.073903091610708"><ele>408.0</ele><time>2026-04-03T13:51:03.999Z</time></trkpt><trkpt lat="42.433100648290534" lon="-8.073786381741655"><ele>408.0</ele><time>2026-04-03T13:51:04.999Z</time></trkpt><trkpt lat="42.43304578880218" lon="-8.07367241545986"><ele>407.0</ele><time>2026-04-03T13:51:05.999Z</time></trkpt><trkpt lat="42.43298943600938" lon="-8.073560009732208"><ele>406.0</ele><time>2026-04-03T13:51:06.999Z</time></trkpt><trkpt lat="42.432937429148936" lon="-8.0734496672044"><ele>405.0</ele><time>2026-04-03T13:51:07.999Z</time></trkpt><trkpt lat="42.43289501154736" lon="-8.07334172955985"><ele>404.0</ele><time>2026-04-03T13:51:08.999Z</time></trkpt><trkpt lat="42.43286434084737" lon="-8.073235409052447"><ele>403.0</ele><time>2026-04-03T13:51:09.999Z</time></trkpt><trkpt lat="42.43279749451773" lon="-8.07313250996837"><ele>402.4</ele><time>2026-04-03T13:51:10.999Z</time></trkpt><trkpt lat="42.43274706869972" lon="-8.073020638388103"><ele>401.79999999999995</ele><time>2026-04-03T13:51:11.999Z</time></trkpt><trkpt lat="42.43270345448647" lon="-8.072884899893097"><ele>401.2</ele><time>2026-04-03T13:51:12.999Z</time></trkpt><trkpt lat="42.43264392221594" lon="-8.072760608527215"><ele>400.6</ele><time>2026-04-03T13:51:13.999Z</time></trkpt><trkpt lat="42.432587021835246" lon="-8.072633005893756"><ele>400.0</ele><time>2026-04-03T13:51:14.999Z</time></trkpt><trkpt lat="42.432537075644525" lon="-8.072515863935108"><ele>399.6</ele><time>2026-04-03T13:51:15.999Z</time></trkpt><trkpt lat="42.43248525419894" lon="-8.07239591669286"><ele>399.2</ele><time>2026-04-03T13:51:16.999Z</time></trkpt><trkpt lat="42.43243224450657" lon="-8.072283552804574"><ele>398.79999999999995</ele><time>2026-04-03T13:51:17.999Z</time></trkpt><trkpt lat="42.432379232823635" lon="-8.07217064008376"><ele>398.4</ele><time>2026-04-03T13:51:18.999Z</time></trkpt><trkpt lat="42.43232315838182" lon="-8.072056619282138"><ele>398.0</ele><time>2026-04-03T13:51:19.999Z</time></trkpt><trkpt lat="42.432280426771406" lon="-8.071951064548967"><ele>397.99999999999994</ele><time>2026-04-03T13:51:20.999Z</time></trkpt><trkpt lat="42.43223724281703" lon="-8.071856743359593"><ele>398.0</ele><time>2026-04-03T13:51:21.999Z</time></trkpt><trkpt lat="42.43218476059958" lon="-8.071769215352333"><ele>398.0</ele><time>2026-04-03T13:51:22.999Z</time></trkpt><trkpt lat="42.43214396754685" lon="-8.071680026802282"><ele>398.0</ele><time>2026-04-03T13:51:23.999Z</time></trkpt><trkpt lat="42.43210552199332" lon="-8.071586476775622"><ele>397.99999999999994</ele><time>2026-04-03T13:51:24.999Z</time></trkpt><trkpt lat="42.43207535748632" lon="-8.071507340253532"><ele>398.0</ele><time>2026-04-03T13:51:25.999Z</time></trkpt><trkpt lat="42.43203979199888" lon="-8.071423715405494"><ele>397.66666666666663</ele><time>2026-04-03T13:51:26.999Z</time></trkpt><trkpt lat="42.43199211261093" lon="-8.071348942321471"><ele>397.3333333333333</ele><time>2026-04-03T13:51:27.999Z</time></trkpt><trkpt lat="42.43194907821506" lon="-8.071258348650286"><ele>397.0</ele><time>2026-04-03T13:51:28.999Z</time></trkpt><trkpt lat="42.43191538879437" lon="-8.071169893984369"><ele>396.66666666666663</ele><time>2026-04-03T13:51:29.999Z</time></trkpt><trkpt lat="42.43187775979122" lon="-8.071090196680366"><ele>396.3333333333333</ele><time>2026-04-03T13:51:30.999Z</time></trkpt><trkpt lat="42.43183456174971" lon="-8.071004449533897"><ele>396.0</ele><time>2026-04-03T13:51:31.999Z</time></trkpt><trkpt lat="42.43178528005821" lon="-8.070920821490102"><ele>396.0</ele><time>2026-04-03T13:51:32.999Z</time></trkpt><trkpt lat="42.43174585799177" lon="-8.070842391525163"><ele>396.0</ele><time>2026-04-03T13:51:33.999Z</time></trkpt><trkpt lat="42.43170434643395" lon="-8.070755632661353"><ele>396.0</ele><time>2026-04-03T13:51:34.999Z</time></trkpt><trkpt lat="42.43162868772005" lon="-8.070650989481113"><ele>396.0</ele><time>2026-04-03T13:51:36.999Z</time></trkpt><trkpt lat="42.431574806227104" lon="-8.070703134115938"><ele>396.0</ele><time>2026-04-03T13:51:38.999Z</time></trkpt><trkpt lat="42.4314984782987" lon="-8.070755341974152"><ele>396.0</ele><time>2026-04-03T13:51:40.999Z</time></trkpt><trkpt lat="42.43139838571158" lon="-8.070828780520005"><ele>395.20000000000005</ele><time>2026-04-03T13:51:42.999Z</time></trkpt><trkpt lat="42.431299040650096" lon="-8.070928376134463"><ele>394.40000000000003</ele><time>2026-04-03T13:51:44.999Z</time></trkpt><trkpt lat="42.431211941057796" lon="-8.07101268181198"><ele>393.6</ele><time>2026-04-03T13:51:46.999Z</time></trkpt><trkpt lat="42.431138401146164" lon="-8.07107676484709"><ele>392.8</ele><time>2026-04-03T13:51:48.999Z</time></trkpt><trkpt lat="42.4310699014574" lon="-8.071138114047438"><ele>392.0</ele><time>2026-04-03T13:51:50.999Z</time></trkpt><trkpt lat="42.43102545018773" lon="-8.071198621902909"><ele>391.99999999999994</ele><time>2026-04-03T13:51:51.999Z</time></trkpt><trkpt lat="42.430965043038725" lon="-8.071263272001914"><ele>392.0</ele><time>2026-04-03T13:51:52.999Z</time></trkpt><trkpt lat="42.43086126660429" lon="-8.071352011361306"><ele>392.0</ele><time>2026-04-03T13:51:54.999Z</time></trkpt><trkpt lat="42.43080209919604" lon="-8.071407147662622"><ele>392.0</ele><time>2026-04-03T13:51:55.999Z</time></trkpt><trkpt lat="42.43073923698555" lon="-8.07146781587716"><ele>391.99999999999994</ele><time>2026-04-03T13:51:56.999Z</time></trkpt><trkpt lat="42.43067636472341" lon="-8.071522587019842"><ele>392.0</ele><time>2026-04-03T13:51:57.999Z</time></trkpt><trkpt lat="42.43061323699788" lon="-8.071581296653363"><ele>391.66666666666663</ele><time>2026-04-03T13:51:58.999Z</time></trkpt><trkpt lat="42.430548332098624" lon="-8.07164213158517"><ele>391.3333333333333</ele><time>2026-04-03T13:51:59.999Z</time></trkpt><trkpt lat="42.430478228791486" lon="-8.071702373451357"><ele>391.0</ele><time>2026-04-03T13:52:00.999Z</time></trkpt><trkpt lat="42.43041173830469" lon="-8.071760525070312"><ele>390.66666666666663</ele><time>2026-04-03T13:52:01.999Z</time></trkpt><trkpt lat="42.430340771571224" lon="-8.071821820768566"><ele>390.3333333333333</ele><time>2026-04-03T13:52:02.999Z</time></trkpt><trkpt lat="42.43027577458914" lon="-8.071886446717327"><ele>390.0</ele><time>2026-04-03T13:52:03.999Z</time></trkpt><trkpt lat="42.4302142578664" lon="-8.071942980063682"><ele>390.0</ele><time>2026-04-03T13:52:04.999Z</time></trkpt><trkpt lat="42.430157151523574" lon="-8.071991351742474"><ele>390.0</ele><time>2026-04-03T13:52:05.999Z</time></trkpt><trkpt lat="42.43006539373407" lon="-8.072087928820197"><ele>390.0</ele><time>2026-04-03T13:52:07.999Z</time></trkpt><trkpt lat="42.43002639537637" lon="-8.072162761476598"><ele>390.0</ele><time>2026-04-03T13:52:08.999Z</time></trkpt><trkpt lat="42.43002502583344" lon="-8.072262009758145"><ele>390.0</ele><time>2026-04-03T13:52:09.999Z</time></trkpt><trkpt lat="42.43002843788896" lon="-8.072357348148062"><ele>390.0</ele><time>2026-04-03T13:52:10.998Z</time></trkpt><trkpt lat="42.43003870147178" lon="-8.072476815168937"><ele>391.0</ele><time>2026-04-03T13:52:11.998Z</time></trkpt><trkpt lat="42.43006206894642" lon="-8.07260509890213"><ele>392.0</ele><time>2026-04-03T13:52:12.998Z</time></trkpt><trkpt lat="42.43009454612411" lon="-8.072746494812877"><ele>393.0</ele><time>2026-04-03T13:52:13.998Z</time></trkpt><trkpt lat="42.43011707219386" lon="-8.072901753165993"><ele>394.0</ele><time>2026-04-03T13:52:14.998Z</time></trkpt><trkpt lat="42.43016459081004" lon="-8.073064118531152"><ele>394.0</ele><time>2026-04-03T13:52:15.999Z</time></trkpt><trkpt lat="42.43018809460227" lon="-8.073222847986951"><ele>394.0</ele><time>2026-04-03T13:52:16.999Z</time></trkpt><trkpt lat="42.430223820507265" lon="-8.073391988559939"><ele>394.0</ele><time>2026-04-03T13:52:17.999Z</time></trkpt><trkpt lat="42.430261373684836" lon="-8.07355824698274"><ele>394.0</ele><time>2026-04-03T13:52:18.999Z</time></trkpt><trkpt lat="42.430295552099935" lon="-8.07371157901209"><ele>394.6</ele><time>2026-04-03T13:52:19.999Z</time></trkpt><trkpt lat="42.43032124238958" lon="-8.073854045203733"><ele>395.2</ele><time>2026-04-03T13:52:20.999Z</time></trkpt><trkpt lat="42.43034632807431" lon="-8.073998025533006"><ele>395.8</ele><time>2026-04-03T13:52:21.999Z</time></trkpt><trkpt lat="42.43037505686916" lon="-8.074130339140003"><ele>396.40000000000003</ele><time>2026-04-03T13:52:22.999Z</time></trkpt><trkpt lat="42.43041799066363" lon="-8.074253458118049"><ele>397.0</ele><time>2026-04-03T13:52:23.999Z</time></trkpt><trkpt lat="42.43044373017314" lon="-8.074372596817387"><ele>397.00000000000006</ele><time>2026-04-03T13:52:24.999Z</time></trkpt><trkpt lat="42.430468277207346" lon="-8.07448621560714"><ele>397.0</ele><time>2026-04-03T13:52:25.999Z</time></trkpt><trkpt lat="42.43049109736586" lon="-8.074591841588676"><ele>397.0</ele><time>2026-04-03T13:52:26.999Z</time></trkpt><trkpt lat="42.43050604942678" lon="-8.074688906363857"><ele>397.0</ele><time>2026-04-03T13:52:27.999Z</time></trkpt><trkpt lat="42.430546819648136" lon="-8.074850237898655"><ele>397.00000000000006</ele><time>2026-04-03T13:52:29.999Z</time></trkpt><trkpt lat="42.43055509195692" lon="-8.074949760942834"><ele>397.0</ele><time>2026-04-03T13:52:30.999Z</time></trkpt><trkpt lat="42.43057899223526" lon="-8.075041445089358"><ele>397.75</ele><time>2026-04-03T13:52:31.999Z</time></trkpt><trkpt lat="42.4305930280058" lon="-8.075131584646163"><ele>398.5</ele><time>2026-04-03T13:52:32.999Z</time></trkpt><trkpt lat="42.430617863658206" lon="-8.0752516858393"><ele>399.25</ele><time>2026-04-03T13:52:34.999Z</time></trkpt><trkpt lat="42.430484237026576" lon="-8.075362883898203"><ele>400.0</ele><time>2026-04-03T13:52:38.999Z</time></trkpt><trkpt lat="42.43035399099129" lon="-8.075408863646704"><ele>400.0</ele><time>2026-04-03T13:52:40.999Z</time></trkpt><trkpt lat="42.43027812131504" lon="-8.075430827535078"><ele>400.0</ele><time>2026-04-03T13:52:41.999Z</time></trkpt><trkpt lat="42.43019953876594" lon="-8.075397566488753"><ele>400.0</ele><time>2026-04-03T13:52:43.999Z</time></trkpt><trkpt lat="42.43013146445781" lon="-8.075225539170436"><ele>400.0</ele><time>2026-04-03T13:52:47.999Z</time></trkpt><trkpt lat="42.43012966158574" lon="-8.075125880475259"><ele>400.0</ele><time>2026-04-03T13:52:48.999Z</time></trkpt><trkpt lat="42.43010769248849" lon="-8.074983184582361"><ele>400.0</ele><time>2026-04-03T13:52:50.999Z</time></trkpt><trkpt lat="42.43016299160329" lon="-8.07492636031923"><ele>397.0</ele><time>2026-04-03T13:52:53.999Z</time></trkpt><trkpt lat="42.430238200904014" lon="-8.074920645707566"><ele>397.0</ele><time>2026-04-03T13:52:56.999Z</time></trkpt></trkseg><trkseg><trkpt lat="42.42904363562991" lon="-8.070880117314323"><ele>384.0</ele><time>2026-04-03T15:07:12Z</time></trkpt><trkpt lat="42.42901795967372" lon="-8.070751435863915"><ele>384.0</ele><time>2026-04-03T15:07:14Z</time></trkpt><trkpt lat="42.42903437332534" lon="-8.070668932496583"><ele>384.0</ele><time>2026-04-03T15:07:15Z</time></trkpt><trkpt lat="42.42905634775064" lon="-8.070535501775671"><ele>384.0</ele><time>2026-04-03T15:07:17Z</time></trkpt><trkpt lat="42.42905779463739" lon="-8.070436060101578"><ele>384.0</ele><time>2026-04-03T15:07:19Z</time></trkpt><trkpt lat="42.42907113454242" lon="-8.070322000646765"><ele>384.0</ele><time>2026-04-03T15:07:21Z</time></trkpt><trkpt lat="42.42908347972926" lon="-8.070216446294085"><ele>384.0</ele><time>2026-04-03T15:07:23Z</time></trkpt><trkpt lat="42.429242987821766" lon="-8.070173359130358"><ele>384.0</ele><time>2026-04-03T15:07:26Z</time></trkpt><trkpt lat="42.42936154240309" lon="-8.070148409879394"><ele>384.0</ele><time>2026-04-03T15:07:28Z</time></trkpt><trkpt lat="42.42945408808729" lon="-8.07012429878326"><ele>384.0</ele><time>2026-04-03T15:07:30Z</time></trkpt><trkpt lat="42.42952527241358" lon="-8.070105993690257"><ele>384.0</ele><time>2026-04-03T15:07:33Z</time></trkpt><trkpt lat="42.42960384721075" lon="-8.0700516977201"><ele>384.0</ele><time>2026-04-03T15:07:48Z</time></trkpt><trkpt lat="42.42961888338922" lon="-8.069951896017782"><ele>384.0</ele><time>2026-04-03T15:07:49Z</time></trkpt><trkpt lat="42.429602030770994" lon="-8.069828000363044"><ele>384.0</ele><time>2026-04-03T15:07:50Z</time></trkpt><trkpt lat="42.42960613905506" lon="-8.069714518838673"><ele>384.0</ele><time>2026-04-03T15:07:51Z</time></trkpt><trkpt lat="42.42960883095302" lon="-8.069596654127858"><ele>384.0</ele><time>2026-04-03T15:07:52Z</time></trkpt><trkpt lat="42.42960987967518" lon="-8.069475957892042"><ele>384.0</ele><time>2026-04-03T15:07:53Z</time></trkpt><trkpt lat="42.42960846634612" lon="-8.069357715017139"><ele>383.85714285714283</ele><time>2026-04-03T15:07:54Z</time></trkpt><trkpt lat="42.429609367293644" lon="-8.069247821840575"><ele>383.7142857142857</ele><time>2026-04-03T15:07:55Z</time></trkpt><trkpt lat="42.42960800822033" lon="-8.06914924576902"><ele>383.57142857142856</ele><time>2026-04-03T15:07:56Z</time></trkpt><trkpt lat="42.42960309920276" lon="-8.069051987311733"><ele>383.42857142857144</ele><time>2026-04-03T15:07:57Z</time></trkpt><trkpt lat="42.429602862375006" lon="-8.068966015282534"><ele>383.2857142857143</ele><time>2026-04-03T15:07:58Z</time></trkpt><trkpt lat="42.42960032306211" lon="-8.068876073612397"><ele>383.1428571428571</ele><time>2026-04-03T15:07:59Z</time></trkpt><trkpt lat="42.42960253865729" lon="-8.06878701776639"><ele>383.0</ele><time>2026-04-03T15:08:00Z</time></trkpt><trkpt lat="42.4296017284356" lon="-8.068689874058705"><ele>383.0</ele><time>2026-04-03T15:08:01Z</time></trkpt><trkpt lat="42.429586922849566" lon="-8.06859027109683"><ele>383.0</ele><time>2026-04-03T15:08:02Z</time></trkpt><trkpt lat="42.429583516228725" lon="-8.06848584397314"><ele>383.0</ele><time>2026-04-03T15:08:03Z</time></trkpt><trkpt lat="42.42958050933747" lon="-8.068386859409749"><ele>383.0</ele><time>2026-04-03T15:08:04Z</time></trkpt><trkpt lat="42.4295930623671" lon="-8.068280792015461"><ele>383.0</ele><time>2026-04-03T15:08:05Z</time></trkpt><trkpt lat="42.42958466282766" lon="-8.068174302735251"><ele>383.0</ele><time>2026-04-03T15:08:06Z</time></trkpt><trkpt lat="42.429566089004396" lon="-8.068070553346578"><ele>383.1666666666667</ele><time>2026-04-03T15:08:07Z</time></trkpt><trkpt lat="42.42955163386718" lon="-8.067949244546764"><ele>383.33333333333337</ele><time>2026-04-03T15:08:08Z</time></trkpt><trkpt lat="42.429529402723034" lon="-8.067839151017312"><ele>383.5</ele><time>2026-04-03T15:08:09Z</time></trkpt><trkpt lat="42.42951137477933" lon="-8.067717546972096"><ele>383.6666666666667</ele><time>2026-04-03T15:08:10Z</time></trkpt><trkpt lat="42.42947640346831" lon="-8.06760818913615"><ele>383.8333333333333</ele><time>2026-04-03T15:08:11Z</time></trkpt><trkpt lat="42.42943999128958" lon="-8.067503575664526"><ele>384.0</ele><time>2026-04-03T15:08:11.999Z</time></trkpt><trkpt lat="42.42940783113947" lon="-8.067408790973897"><ele>384.6666666666667</ele><time>2026-04-03T15:08:12.999Z</time></trkpt><trkpt lat="42.429376986334" lon="-8.067325550917483"><ele>385.33333333333337</ele><time>2026-04-03T15:08:13.999Z</time></trkpt><trkpt lat="42.429338446288305" lon="-8.0672121438618"><ele>386.0</ele><time>2026-04-03T15:08:14.999Z</time></trkpt><trkpt lat="42.42930191131027" lon="-8.067116775955803"><ele>386.6666666666667</ele><time>2026-04-03T15:08:15.999Z</time></trkpt><trkpt lat="42.429259798636714" lon="-8.067031244639848"><ele>387.33333333333337</ele><time>2026-04-03T15:08:16.999Z</time></trkpt><trkpt lat="42.429218565718095" lon="-8.066950173298675"><ele>388.0</ele><time>2026-04-03T15:08:17.999Z</time></trkpt><trkpt lat="42.4291823968201" lon="-8.066870180421962"><ele>388.0</ele><time>2026-04-03T15:08:18.999Z</time></trkpt><trkpt lat="42.42913621689579" lon="-8.066710660311136"><ele>388.0</ele><time>2026-04-03T15:08:19.999Z</time></trkpt><trkpt lat="42.42909094777787" lon="-8.066599017962295"><ele>388.0</ele><time>2026-04-03T15:08:20.999Z</time></trkpt><trkpt lat="42.42904616433716" lon="-8.066480539777594"><ele>388.0</ele><time>2026-04-03T15:08:21.999Z</time></trkpt><trkpt lat="42.42899783870924" lon="-8.066358424285944"><ele>388.0</ele><time>2026-04-03T15:08:22.999Z</time></trkpt><trkpt lat="42.4289502066514" lon="-8.066229063116854"><ele>387.79999999999995</ele><time>2026-04-03T15:08:23.999Z</time></trkpt><trkpt lat="42.42889783498646" lon="-8.066105386670685"><ele>387.6</ele><time>2026-04-03T15:08:24.999Z</time></trkpt><trkpt lat="42.428843693596455" lon="-8.065989189537433"><ele>387.4</ele><time>2026-04-03T15:08:25.999Z</time></trkpt><trkpt lat="42.42879764138275" lon="-8.065848237141008"><ele>387.20000000000005</ele><time>2026-04-03T15:08:26.999Z</time></trkpt><trkpt lat="42.42874765310641" lon="-8.065717350344658"><ele>387.0</ele><time>2026-04-03T15:08:27.999Z</time></trkpt><trkpt lat="42.42870645083519" lon="-8.06558101964937"><ele>387.0</ele><time>2026-04-03T15:08:28.999Z</time></trkpt><trkpt lat="42.42865951689555" lon="-8.065447831453165"><ele>387.0</ele><time>2026-04-03T15:08:29.999Z</time></trkpt><trkpt lat="42.42859935529087" lon="-8.065331030326114"><ele>387.0</ele><time>2026-04-03T15:08:30.999Z</time></trkpt><trkpt lat="42.428554966898396" lon="-8.065211315427113"><ele>387.0</ele><time>2026-04-03T15:08:31.999Z</time></trkpt><trkpt lat="42.428509211330685" lon="-8.065087913658676"><ele>387.0</ele><time>2026-04-03T15:08:32.999Z</time></trkpt><trkpt lat="42.42846500067062" lon="-8.064967933572017"><ele>387.20000000000005</ele><time>2026-04-03T15:08:33.999Z</time></trkpt><trkpt lat="42.42842252229008" lon="-8.064851925027941"><ele>387.4</ele><time>2026-04-03T15:08:34.999Z</time></trkpt><trkpt lat="42.42838039285434" lon="-8.064736869335968"><ele>387.6</ele><time>2026-04-03T15:08:35.999Z</time></trkpt><trkpt lat="42.428340994702495" lon="-8.06462927518721"><ele>387.79999999999995</ele><time>2026-04-03T15:08:36.999Z</time></trkpt><trkpt lat="42.428317876249125" lon="-8.064511746774112"><ele>388.0</ele><time>2026-04-03T15:08:37.999Z</time></trkpt><trkpt lat="42.42828279263161" lon="-8.064407109928949"><ele>388.00000000000006</ele><time>2026-04-03T15:08:38.999Z</time></trkpt><trkpt lat="42.42824926342688" lon="-8.064306921996671"><ele>388.0</ele><time>2026-04-03T15:08:39.999Z</time></trkpt><trkpt lat="42.42821419276547" lon="-8.06421318375387"><ele>388.0</ele><time>2026-04-03T15:08:40.999Z</time></trkpt><trkpt lat="42.42818765699551" lon="-8.064123352851034"><ele>388.0</ele><time>2026-04-03T15:08:41.999Z</time></trkpt><trkpt lat="42.428150801992274" lon="-8.063983032924341"><ele>388.00000000000006</ele><time>2026-04-03T15:08:43.999Z</time></trkpt><trkpt lat="42.428112154548764" lon="-8.06385460043058"><ele>388.0</ele><time>2026-04-03T15:08:45.999Z</time></trkpt><trkpt lat="42.428069081065814" lon="-8.063733598696222"><ele>388.2</ele><time>2026-04-03T15:08:47.999Z</time></trkpt><trkpt lat="42.42799628747647" lon="-8.063602098377986"><ele>388.4</ele><time>2026-04-03T15:08:49.999Z</time></trkpt><trkpt lat="42.42794396160042" lon="-8.063529034772655"><ele>388.59999999999997</ele><time>2026-04-03T15:08:51Z</time></trkpt><trkpt lat="42.42790028496921" lon="-8.063444005681486"><ele>388.79999999999995</ele><time>2026-04-03T15:08:52Z</time></trkpt><trkpt lat="42.42786895537237" lon="-8.063326554321302"><ele>389.0</ele><time>2026-04-03T15:08:53Z</time></trkpt><trkpt lat="42.427859529331464" lon="-8.063197943903313"><ele>389.2</ele><time>2026-04-03T15:08:54Z</time></trkpt><trkpt lat="42.427851807764256" lon="-8.063064993764565"><ele>389.4</ele><time>2026-04-03T15:08:55Z</time></trkpt><trkpt lat="42.42782638664664" lon="-8.062934724345114"><ele>389.6</ele><time>2026-04-03T15:08:56Z</time></trkpt><trkpt lat="42.42777505518087" lon="-8.062817979370768"><ele>389.8</ele><time>2026-04-03T15:08:57Z</time></trkpt><trkpt lat="42.427708321096844" lon="-8.06271285826005"><ele>390.0</ele><time>2026-04-03T15:08:58Z</time></trkpt><trkpt lat="42.42763403764208" lon="-8.06261643253148"><ele>390.0</ele><time>2026-04-03T15:08:59Z</time></trkpt><trkpt lat="42.42755799994596" lon="-8.062521302704928"><ele>390.0</ele><time>2026-04-03T15:09:00Z</time></trkpt><trkpt lat="42.427489353052636" lon="-8.06242417345772"><ele>390.0</ele><time>2026-04-03T15:09:01Z</time></trkpt><trkpt lat="42.42742558082143" lon="-8.062316075337"><ele>390.0</ele><time>2026-04-03T15:09:02Z</time></trkpt><trkpt lat="42.427348724605984" lon="-8.062221443573042"><ele>390.0</ele><time>2026-04-03T15:09:03Z</time></trkpt><trkpt lat="42.42728706821305" lon="-8.062116637210027"><ele>390.0</ele><time>2026-04-03T15:09:04Z</time></trkpt><trkpt lat="42.42724292870515" lon="-8.061992475894213"><ele>390.0</ele><time>2026-04-03T15:09:05Z</time></trkpt><trkpt lat="42.42718405802091" lon="-8.061878879914214"><ele>390.0</ele><time>2026-04-03T15:09:06Z</time></trkpt><trkpt lat="42.427127491896705" lon="-8.06175964577671"><ele>390.0</ele><time>2026-04-03T15:09:07Z</time></trkpt><trkpt lat="42.42705724898412" lon="-8.061655161287662"><ele>390.0</ele><time>2026-04-03T15:09:08Z</time></trkpt><trkpt lat="42.426995528605744" lon="-8.061541778522919"><ele>391.6</ele><time>2026-04-03T15:09:09Z</time></trkpt><trkpt lat="42.42693578023924" lon="-8.061420037455918"><ele>393.2</ele><time>2026-04-03T15:09:10Z</time></trkpt><trkpt lat="42.4268791020022" lon="-8.061298468290802"><ele>394.79999999999995</ele><time>2026-04-03T15:09:11Z</time></trkpt><trkpt lat="42.426821429141114" lon="-8.061175985609838"><ele>396.4</ele><time>2026-04-03T15:09:12Z</time></trkpt><trkpt lat="42.426764961442274" lon="-8.061057432800958"><ele>398.0</ele><time>2026-04-03T15:09:13Z</time></trkpt><trkpt lat="42.426706934102114" lon="-8.060933715141315"><ele>398.0</ele><time>2026-04-03T15:09:14Z</time></trkpt><trkpt lat="42.4266456274988" lon="-8.060803009640036"><ele>398.0</ele><time>2026-04-03T15:09:15Z</time></trkpt><trkpt lat="42.426588386644525" lon="-8.060681194391114"><ele>398.0</ele><time>2026-04-03T15:09:16Z</time></trkpt><trkpt lat="42.42653078410743" lon="-8.060557329918192"><ele>398.0</ele><time>2026-04-03T15:09:17Z</time></trkpt><trkpt lat="42.426471220078575" lon="-8.060429050316168"><ele>398.0</ele><time>2026-04-03T15:09:18Z</time></trkpt><trkpt lat="42.426413035393466" lon="-8.060303741385402"><ele>399.0</ele><time>2026-04-03T15:09:19Z</time></trkpt><trkpt lat="42.42635265233867" lon="-8.06017249572068"><ele>400.0</ele><time>2026-04-03T15:09:20Z</time></trkpt><trkpt lat="42.42630153715975" lon="-8.060056971765201"><ele>401.0</ele><time>2026-04-03T15:09:21Z</time></trkpt><trkpt lat="42.426240396381885" lon="-8.05991253732054"><ele>402.0</ele><time>2026-04-03T15:09:22Z</time></trkpt><trkpt lat="42.4261920358333" lon="-8.05979047706419"><ele>403.0</ele><time>2026-04-03T15:09:23Z</time></trkpt><trkpt lat="42.42614218283162" lon="-8.059641838172924"><ele>404.0</ele><time>2026-04-03T15:09:24Z</time></trkpt><trkpt lat="42.42608189710584" lon="-8.059513311923485"><ele>405.0</ele><time>2026-04-03T15:09:25Z</time></trkpt><trkpt lat="42.4260217387655" lon="-8.05938086477833"><ele>406.0</ele><time>2026-04-03T15:09:26Z</time></trkpt><trkpt lat="42.425966902059365" lon="-8.059250073724202"><ele>407.0</ele><time>2026-04-03T15:09:27Z</time></trkpt><trkpt lat="42.42590539595935" lon="-8.05911541757104"><ele>407.0</ele><time>2026-04-03T15:09:28Z</time></trkpt><trkpt lat="42.42584438775565" lon="-8.058982785838207"><ele>407.0</ele><time>2026-04-03T15:09:29Z</time></trkpt><trkpt lat="42.42577972804432" lon="-8.05885357189813"><ele>407.0</ele><time>2026-04-03T15:09:30Z</time></trkpt><trkpt lat="42.425713099229924" lon="-8.058724343650269"><ele>407.0</ele><time>2026-04-03T15:09:31Z</time></trkpt><trkpt lat="42.425646038847056" lon="-8.058591578861316"><ele>407.0</ele><time>2026-04-03T15:09:32Z</time></trkpt><trkpt lat="42.42558471131014" lon="-8.05845546980046"><ele>407.0</ele><time>2026-04-03T15:09:33Z</time></trkpt><trkpt lat="42.42552683521389" lon="-8.058320553853125"><ele>407.0</ele><time>2026-04-03T15:09:34Z</time></trkpt><trkpt lat="42.42546425880267" lon="-8.058186675214394"><ele>407.0</ele><time>2026-04-03T15:09:35Z</time></trkpt><trkpt lat="42.425402384604844" lon="-8.058052687277492"><ele>408.25</ele><time>2026-04-03T15:09:36Z</time></trkpt><trkpt lat="42.42533988227185" lon="-8.057913973131456"><ele>409.5</ele><time>2026-04-03T15:09:37Z</time></trkpt><trkpt lat="42.42527629267101" lon="-8.057771401570426"><ele>410.75</ele><time>2026-04-03T15:09:38Z</time></trkpt><trkpt lat="42.42521928309346" lon="-8.05763623201905"><ele>412.0</ele><time>2026-04-03T15:09:39Z</time></trkpt><trkpt lat="42.42515611699512" lon="-8.057495664397623"><ele>413.0</ele><time>2026-04-03T15:09:40Z</time></trkpt><trkpt lat="42.42509615891618" lon="-8.05736165245775"><ele>414.0</ele><time>2026-04-03T15:09:41Z</time></trkpt><trkpt lat="42.425034758387845" lon="-8.057219715088934"><ele>415.0</ele><time>2026-04-03T15:09:42Z</time></trkpt><trkpt lat="42.42498086046911" lon="-8.057081082406782"><ele>416.0</ele><time>2026-04-03T15:09:43Z</time></trkpt><trkpt lat="42.42492668752706" lon="-8.05693522017331"><ele>416.0</ele><time>2026-04-03T15:09:44Z</time></trkpt><trkpt lat="42.42487155179876" lon="-8.056789650960983"><ele>416.0</ele><time>2026-04-03T15:09:45Z</time></trkpt><trkpt lat="42.42481733159482" lon="-8.056641758859751"><ele>416.0</ele><time>2026-04-03T15:09:46Z</time></trkpt><trkpt lat="42.42476275294793" lon="-8.056488479511104"><ele>416.0</ele><time>2026-04-03T15:09:47Z</time></trkpt><trkpt lat="42.424704254331196" lon="-8.056339095076632"><ele>415.5</ele><time>2026-04-03T15:09:48Z</time></trkpt><trkpt lat="42.42465255258714" lon="-8.056188198793992"><ele>415.0</ele><time>2026-04-03T15:09:49Z</time></trkpt><trkpt lat="42.424605400944536" lon="-8.056033839055125"><ele>414.5</ele><time>2026-04-03T15:09:50Z</time></trkpt><trkpt lat="42.42455007604637" lon="-8.055877549806974"><ele>414.0</ele><time>2026-04-03T15:09:51Z</time></trkpt><trkpt lat="42.424495859045365" lon="-8.055729664098191"><ele>415.0</ele><time>2026-04-03T15:09:52Z</time></trkpt><trkpt lat="42.424447460073424" lon="-8.055587388917482"><ele>416.0</ele><time>2026-04-03T15:09:53Z</time></trkpt><trkpt lat="42.42438237103911" lon="-8.055447269166955"><ele>417.0</ele><time>2026-04-03T15:09:54Z</time></trkpt><trkpt lat="42.42433381531049" lon="-8.055309758905937"><ele>418.0</ele><time>2026-04-03T15:09:55Z</time></trkpt><trkpt lat="42.424298788301165" lon="-8.055162813760838"><ele>418.0</ele><time>2026-04-03T15:09:56Z</time></trkpt><trkpt lat="42.4242466260176" lon="-8.055018317593872"><ele>418.0</ele><time>2026-04-03T15:09:57Z</time></trkpt><trkpt lat="42.424192539791584" lon="-8.054878529237321"><ele>418.0</ele><time>2026-04-03T15:09:58Z</time></trkpt><trkpt lat="42.424134777696466" lon="-8.054744777080945"><ele>418.0</ele><time>2026-04-03T15:09:59Z</time></trkpt><trkpt lat="42.42405498141245" lon="-8.054615540439816"><ele>418.75</ele><time>2026-04-03T15:10:00Z</time></trkpt><trkpt lat="42.42399617890795" lon="-8.05447765507942"><ele>419.5</ele><time>2026-04-03T15:10:01Z</time></trkpt><trkpt lat="42.42393558160403" lon="-8.05433556113383"><ele>420.25</ele><time>2026-04-03T15:10:02Z</time></trkpt><trkpt lat="42.42388953835831" lon="-8.054186074274376"><ele>421.0</ele><time>2026-04-03T15:10:03Z</time></trkpt><trkpt lat="42.42382471957156" lon="-8.054046177046663"><ele>420.25</ele><time>2026-04-03T15:10:04Z</time></trkpt><trkpt lat="42.42375267749099" lon="-8.053907394805071"><ele>419.5</ele><time>2026-04-03T15:10:05Z</time></trkpt><trkpt lat="42.42369501622664" lon="-8.053768211106622"><ele>418.75</ele><time>2026-04-03T15:10:06Z</time></trkpt><trkpt lat="42.42364399444997" lon="-8.053614246081326"><ele>418.0</ele><time>2026-04-03T15:10:07Z</time></trkpt><trkpt lat="42.42360617327648" lon="-8.053451639451936"><ele>417.75</ele><time>2026-04-03T15:10:08Z</time></trkpt><trkpt lat="42.42357810463765" lon="-8.053285107248922"><ele>417.5</ele><time>2026-04-03T15:10:09Z</time></trkpt><trkpt lat="42.4235620155433" lon="-8.053116549973197"><ele>417.25</ele><time>2026-04-03T15:10:10Z</time></trkpt><trkpt lat="42.42354954438405" lon="-8.052944056368746"><ele>417.0</ele><time>2026-04-03T15:10:11Z</time></trkpt><trkpt lat="42.423549657987515" lon="-8.052774818120302"><ele>417.0</ele><time>2026-04-03T15:10:12Z</time></trkpt><trkpt lat="42.42352844067831" lon="-8.052602669586719"><ele>417.0</ele><time>2026-04-03T15:10:13Z</time></trkpt><trkpt lat="42.42350011998162" lon="-8.052432435480574"><ele>417.0</ele><time>2026-04-03T15:10:14Z</time></trkpt><trkpt lat="42.42344210197344" lon="-8.052271455289583"><ele>417.0</ele><time>2026-04-03T15:10:15Z</time></trkpt><trkpt lat="42.423387706603485" lon="-8.052124476274317"><ele>418.0</ele><time>2026-04-03T15:10:16Z</time></trkpt><trkpt lat="42.423317204732875" lon="-8.05199216811307"><ele>419.0</ele><time>2026-04-03T15:10:17Z</time></trkpt><trkpt lat="42.423237534806866" lon="-8.051868030676866"><ele>420.0</ele><time>2026-04-03T15:10:17.998Z</time></trkpt><trkpt lat="42.42316082613021" lon="-8.051739650995554"><ele>421.0</ele><time>2026-04-03T15:10:18.998Z</time></trkpt><trkpt lat="42.42306695897094" lon="-8.0516319710771"><ele>422.5</ele><time>2026-04-03T15:10:19.998Z</time></trkpt><trkpt lat="42.4229767875727" lon="-8.05153506922233"><ele>424.0</ele><time>2026-04-03T15:10:20.998Z</time></trkpt><trkpt lat="42.42288528055096" lon="-8.051437788703563"><ele>425.5</ele><time>2026-04-03T15:10:21.998Z</time></trkpt><trkpt lat="42.42279619972963" lon="-8.051356064981906"><ele>427.0</ele><time>2026-04-03T15:10:22.998Z</time></trkpt><trkpt lat="42.42270367536794" lon="-8.051266490563593"><ele>427.0</ele><time>2026-04-03T15:10:23.998Z</time></trkpt><trkpt lat="42.42261152212314" lon="-8.051174310837927"><ele>427.00000000000006</ele><time>2026-04-03T15:10:24.998Z</time></trkpt><trkpt lat="42.42252104743501" lon="-8.051093926521627"><ele>427.00000000000006</ele><time>2026-04-03T15:10:25.998Z</time></trkpt><trkpt lat="42.42243160724433" lon="-8.051005497812888"><ele>427.0</ele><time>2026-04-03T15:10:26.998Z</time></trkpt><trkpt lat="42.422348834635436" lon="-8.050921591940213"><ele>427.0</ele><time>2026-04-03T15:10:27.998Z</time></trkpt><trkpt lat="42.42230451716991" lon="-8.050783375032559"><ele>427.8</ele><time>2026-04-03T15:10:28.999Z</time></trkpt><trkpt lat="42.42226489387987" lon="-8.05064532210511"><ele>428.6</ele><time>2026-04-03T15:10:29.999Z</time></trkpt><trkpt lat="42.422239541132335" lon="-8.050508596753978"><ele>429.40000000000003</ele><time>2026-04-03T15:10:30.999Z</time></trkpt><trkpt lat="42.42223175606327" lon="-8.05035647701662"><ele>430.20000000000005</ele><time>2026-04-03T15:10:31.999Z</time></trkpt><trkpt lat="42.42223504912511" lon="-8.050203078585982"><ele>431.0</ele><time>2026-04-03T15:10:32.999Z</time></trkpt><trkpt lat="42.42223024347769" lon="-8.050055286199674"><ele>430.20000000000005</ele><time>2026-04-03T15:10:33.999Z</time></trkpt><trkpt lat="42.42221998243816" lon="-8.049904963103947"><ele>429.40000000000003</ele><time>2026-04-03T15:10:34.999Z</time></trkpt><trkpt lat="42.42219569934153" lon="-8.049759243321722"><ele>428.6</ele><time>2026-04-03T15:10:35.999Z</time></trkpt><trkpt lat="42.4222007651465" lon="-8.049630283197693"><ele>427.8</ele><time>2026-04-03T15:10:36.999Z</time></trkpt><trkpt lat="42.42218791115652" lon="-8.049487135814834"><ele>427.0</ele><time>2026-04-03T15:10:37.999Z</time></trkpt><trkpt lat="42.42217851538705" lon="-8.0493395573692"><ele>427.0</ele><time>2026-04-03T15:10:38.999Z</time></trkpt><trkpt lat="42.42216364861061" lon="-8.04920045340169"><ele>427.00000000000006</ele><time>2026-04-03T15:10:39.999Z</time></trkpt><trkpt lat="42.422154427293286" lon="-8.049061039167938"><ele>427.00000000000006</ele><time>2026-04-03T15:10:40.999Z</time></trkpt><trkpt lat="42.42214564136939" lon="-8.04893422701244"><ele>427.0</ele><time>2026-04-03T15:10:41.999Z</time></trkpt><trkpt lat="42.422136755409305" lon="-8.048815749073382"><ele>427.0</ele><time>2026-04-03T15:10:42.999Z</time></trkpt><trkpt lat="42.42212696979076" lon="-8.048709750063068"><ele>425.40000000000003</ele><time>2026-04-03T15:10:43.999Z</time></trkpt><trkpt lat="42.42212456274244" lon="-8.048580521938826"><ele>423.80000000000007</ele><time>2026-04-03T15:10:44.999Z</time></trkpt><trkpt lat="42.42211108001576" lon="-8.048469244193825"><ele>422.2</ele><time>2026-04-03T15:10:45.999Z</time></trkpt><trkpt lat="42.422093773581416" lon="-8.048334501794399"><ele>420.6</ele><time>2026-04-03T15:10:46.999Z</time></trkpt><trkpt lat="42.422087862611164" lon="-8.048183496404874"><ele>419.0</ele><time>2026-04-03T15:10:47.999Z</time></trkpt><trkpt lat="42.4220749524715" lon="-8.048028496608872"><ele>418.25</ele><time>2026-04-03T15:10:48.999Z</time></trkpt><trkpt lat="42.42206251298904" lon="-8.047864406326324"><ele>417.5</ele><time>2026-04-03T15:10:49.999Z</time></trkpt><trkpt lat="42.42203281560474" lon="-8.04769407073531"><ele>416.75</ele><time>2026-04-03T15:10:50.999Z</time></trkpt><trkpt lat="42.42201866475773" lon="-8.047515900575439"><ele>416.0</ele><time>2026-04-03T15:10:51.999Z</time></trkpt><trkpt lat="42.42201972561395" lon="-8.047349745697751"><ele>416.0</ele><time>2026-04-03T15:10:52.999Z</time></trkpt><trkpt lat="42.42199776796135" lon="-8.047198437253996"><ele>416.0</ele><time>2026-04-03T15:10:53.999Z</time></trkpt><trkpt lat="42.42199034841114" lon="-8.047044850908494"><ele>416.0</ele><time>2026-04-03T15:10:54.999Z</time></trkpt><trkpt lat="42.421980277940506" lon="-8.046892567695723"><ele>416.0</ele><time>2026-04-03T15:10:55.999Z</time></trkpt><trkpt lat="42.4219676608" lon="-8.046729577006676"><ele>415.5</ele><time>2026-04-03T15:10:56.999Z</time></trkpt><trkpt lat="42.42195719612567" lon="-8.046559328954064"><ele>415.0</ele><time>2026-04-03T15:10:57.999Z</time></trkpt><trkpt lat="42.42194950074539" lon="-8.046386792758078"><ele>414.5</ele><time>2026-04-03T15:10:58.999Z</time></trkpt><trkpt lat="42.421949756437726" lon="-8.046205073758557"><ele>414.0</ele><time>2026-04-03T15:10:59.999Z</time></trkpt><trkpt lat="42.421960520210334" lon="-8.046026318530007"><ele>414.0</ele><time>2026-04-03T15:11:00.999Z</time></trkpt><trkpt lat="42.42198228772611" lon="-8.045850219397797"><ele>414.0</ele><time>2026-04-03T15:11:01.999Z</time></trkpt><trkpt lat="42.422001352836304" lon="-8.04568053177855"><ele>414.0</ele><time>2026-04-03T15:11:02.999Z</time></trkpt><trkpt lat="42.422040312235495" lon="-8.045505431515952"><ele>414.0</ele><time>2026-04-03T15:11:03.999Z</time></trkpt><trkpt lat="42.42207551688462" lon="-8.045326439919535"><ele>413.25</ele><time>2026-04-03T15:11:04.999Z</time></trkpt><trkpt lat="42.42210871661536" lon="-8.045151984723457"><ele>412.5</ele><time>2026-04-03T15:11:05.999Z</time></trkpt><trkpt lat="42.422134865551136" lon="-8.044972632866276"><ele>411.75</ele><time>2026-04-03T15:11:06.999Z</time></trkpt><trkpt lat="42.42213835739049" lon="-8.044784724659648"><ele>411.0</ele><time>2026-04-03T15:11:07.999Z</time></trkpt><trkpt lat="42.422120394191566" lon="-8.044592174334516"><ele>410.5</ele><time>2026-04-03T15:11:08.999Z</time></trkpt><trkpt lat="42.42206586166684" lon="-8.044411269518507"><ele>410.0</ele><time>2026-04-03T15:11:09.999Z</time></trkpt><trkpt lat="42.42201018051072" lon="-8.044229652143153"><ele>409.5</ele><time>2026-04-03T15:11:10.999Z</time></trkpt><trkpt lat="42.421937030690586" lon="-8.044061401398764"><ele>409.0</ele><time>2026-04-03T15:11:11.999Z</time></trkpt><trkpt lat="42.4218577194326" lon="-8.043902741772426"><ele>409.0</ele><time>2026-04-03T15:11:12.999Z</time></trkpt><trkpt lat="42.42177044083955" lon="-8.043735388448559"><ele>409.0</ele><time>2026-04-03T15:11:13.999Z</time></trkpt><trkpt lat="42.421682091888364" lon="-8.043571352936853"><ele>409.0</ele><time>2026-04-03T15:11:14.999Z</time></trkpt><trkpt lat="42.42160081989303" lon="-8.043392891143862"><ele>408.0</ele><time>2026-04-03T15:11:16Z</time></trkpt><trkpt lat="42.4215035520898" lon="-8.043227105822176"><ele>407.0</ele><time>2026-04-03T15:11:17Z</time></trkpt><trkpt lat="42.42141008994777" lon="-8.043068587459432"><ele>406.0</ele><time>2026-04-03T15:11:18Z</time></trkpt><trkpt lat="42.42131171956178" lon="-8.042906602137707"><ele>406.0</ele><time>2026-04-03T15:11:19Z</time></trkpt><trkpt lat="42.4211954782742" lon="-8.04277345006513"><ele>406.0</ele><time>2026-04-03T15:11:20Z</time></trkpt><trkpt lat="42.421086625370535" lon="-8.042635293468049"><ele>406.0</ele><time>2026-04-03T15:11:21Z</time></trkpt><trkpt lat="42.42097875360194" lon="-8.042490596854808"><ele>407.75</ele><time>2026-04-03T15:11:22Z</time></trkpt><trkpt lat="42.42085861246727" lon="-8.042373858402069"><ele>409.5</ele><time>2026-04-03T15:11:23Z</time></trkpt><trkpt lat="42.42073602278365" lon="-8.042266367558636"><ele>411.25</ele><time>2026-04-03T15:11:24Z</time></trkpt><trkpt lat="42.420610584933904" lon="-8.04217231458377"><ele>413.0</ele><time>2026-04-03T15:11:25Z</time></trkpt><trkpt lat="42.42047689411513" lon="-8.04208351012919"><ele>413.0</ele><time>2026-04-03T15:11:26Z</time></trkpt><trkpt lat="42.4203448545107" lon="-8.04199875435501"><ele>413.0</ele><time>2026-04-03T15:11:27Z</time></trkpt><trkpt lat="42.42021384479736" lon="-8.04193121406135"><ele>413.0</ele><time>2026-04-03T15:11:28Z</time></trkpt><trkpt lat="42.42007902407947" lon="-8.041871299252147"><ele>413.0</ele><time>2026-04-03T15:11:29Z</time></trkpt><trkpt lat="42.41994434363499" lon="-8.041814293495042"><ele>413.0</ele><time>2026-04-03T15:11:30Z</time></trkpt><trkpt lat="42.41980457338789" lon="-8.04176052054865"><ele>413.0</ele><time>2026-04-03T15:11:31Z</time></trkpt><trkpt lat="42.41967163578602" lon="-8.041720262853943"><ele>413.0</ele><time>2026-04-03T15:11:32Z</time></trkpt><trkpt lat="42.41952968575308" lon="-8.041676393190157"><ele>413.0</ele><time>2026-04-03T15:11:33Z</time></trkpt><trkpt lat="42.41939083528411" lon="-8.041623493663717"><ele>414.75</ele><time>2026-04-03T15:11:34Z</time></trkpt><trkpt lat="42.419250054612746" lon="-8.041576086777912"><ele>416.5</ele><time>2026-04-03T15:11:35Z</time></trkpt><trkpt lat="42.419114000958494" lon="-8.041527281518402"><ele>418.25</ele><time>2026-04-03T15:11:36Z</time></trkpt><trkpt lat="42.41898020470649" lon="-8.041476208470392"><ele>420.0</ele><time>2026-04-03T15:11:37Z</time></trkpt><trkpt lat="42.41884467937045" lon="-8.041422018141882"><ele>419.75</ele><time>2026-04-03T15:11:38Z</time></trkpt><trkpt lat="42.418716134893195" lon="-8.041338923288594"><ele>419.5</ele><time>2026-04-03T15:11:39Z</time></trkpt><trkpt lat="42.418591474820516" lon="-8.041240372453906"><ele>419.25</ele><time>2026-04-03T15:11:40Z</time></trkpt><trkpt lat="42.41847065275255" lon="-8.04113144290916"><ele>419.0</ele><time>2026-04-03T15:11:41Z</time></trkpt><trkpt lat="42.418365571628" lon="-8.041011839911585"><ele>419.0</ele><time>2026-04-03T15:11:42Z</time></trkpt><trkpt lat="42.41825627307625" lon="-8.040884298676009"><ele>419.0</ele><time>2026-04-03T15:11:43Z</time></trkpt><trkpt lat="42.4181450696815" lon="-8.040784731032021"><ele>419.0</ele><time>2026-04-03T15:11:44Z</time></trkpt><trkpt lat="42.41803681187033" lon="-8.040667016251556"><ele>419.0</ele><time>2026-04-03T15:11:45Z</time></trkpt><trkpt lat="42.41792758880235" lon="-8.040540151664619"><ele>418.5</ele><time>2026-04-03T15:11:46Z</time></trkpt><trkpt lat="42.417833626930474" lon="-8.040401927378506"><ele>418.0</ele><time>2026-04-03T15:11:47Z</time></trkpt><trkpt lat="42.4177471531465" lon="-8.040234675775313"><ele>417.5</ele><time>2026-04-03T15:11:48Z</time></trkpt><trkpt lat="42.417677537237886" lon="-8.040062674396712"><ele>417.0</ele><time>2026-04-03T15:11:49Z</time></trkpt><trkpt lat="42.41762123972074" lon="-8.039875932049098"><ele>418.33333333333337</ele><time>2026-04-03T15:11:50Z</time></trkpt><trkpt lat="42.41756500665934" lon="-8.039684213819369"><ele>419.6666666666667</ele><time>2026-04-03T15:11:51Z</time></trkpt><trkpt lat="42.41750527232153" lon="-8.03950016208148"><ele>421.0</ele><time>2026-04-03T15:11:52Z</time></trkpt><trkpt lat="42.417448420582126" lon="-8.039313104427764"><ele>422.6666666666667</ele><time>2026-04-03T15:11:53Z</time></trkpt><trkpt lat="42.41738811231242" lon="-8.039126669122872"><ele>424.33333333333337</ele><time>2026-04-03T15:11:54Z</time></trkpt><trkpt lat="42.41732692316086" lon="-8.038943158552607"><ele>426.0</ele><time>2026-04-03T15:11:55Z</time></trkpt><trkpt lat="42.41726586360249" lon="-8.038755121614672"><ele>426.0</ele><time>2026-04-03T15:11:56Z</time></trkpt><trkpt lat="42.417202985065934" lon="-8.038575341050974"><ele>426.0</ele><time>2026-04-03T15:11:57Z</time></trkpt><trkpt lat="42.41713371898176" lon="-8.038395076562859"><ele>426.0</ele><time>2026-04-03T15:11:58Z</time></trkpt><trkpt lat="42.41706104911515" lon="-8.038213378581089"><ele>426.0</ele><time>2026-04-03T15:11:59Z</time></trkpt><trkpt lat="42.416960332856455" lon="-8.038060214746196"><ele>427.0</ele><time>2026-04-03T15:12:00Z</time></trkpt><trkpt lat="42.416869765987386" lon="-8.037901805158466"><ele>428.0</ele><time>2026-04-03T15:12:01Z</time></trkpt><trkpt lat="42.41677698192351" lon="-8.037754807291352"><ele>429.0</ele><time>2026-04-03T15:12:02Z</time></trkpt><trkpt lat="42.41668200052284" lon="-8.037614612322335"><ele>430.0</ele><time>2026-04-03T15:12:03Z</time></trkpt><trkpt lat="42.416578017985195" lon="-8.037469702761596"><ele>431.0</ele><time>2026-04-03T15:12:04Z</time></trkpt><trkpt lat="42.416477252589246" lon="-8.037329951697018"><ele>432.0</ele><time>2026-04-03T15:12:05Z</time></trkpt><trkpt lat="42.41637834875921" lon="-8.037188890802144"><ele>433.0</ele><time>2026-04-03T15:12:06Z</time></trkpt><trkpt lat="42.416277431309545" lon="-8.037056306531063"><ele>434.0</ele><time>2026-04-03T15:12:07Z</time></trkpt><trkpt lat="42.416176608047735" lon="-8.036914402998868"><ele>434.0</ele><time>2026-04-03T15:12:08Z</time></trkpt><trkpt lat="42.416076643463924" lon="-8.036777998775838"><ele>434.0</ele><time>2026-04-03T15:12:09Z</time></trkpt><trkpt lat="42.415977656433" lon="-8.03664000232492"><ele>434.0</ele><time>2026-04-03T15:12:10Z</time></trkpt><trkpt lat="42.41588427711503" lon="-8.036499610790354"><ele>434.0</ele><time>2026-04-03T15:12:11Z</time></trkpt><trkpt lat="42.41579107323705" lon="-8.036362317536486"><ele>434.25</ele><time>2026-04-03T15:12:12Z</time></trkpt><trkpt lat="42.415699179772396" lon="-8.036220460081585"><ele>434.5</ele><time>2026-04-03T15:12:13Z</time></trkpt><trkpt lat="42.415618557776604" lon="-8.036072883488817"><ele>434.75</ele><time>2026-04-03T15:12:14Z</time></trkpt><trkpt lat="42.415541304787844" lon="-8.0359111818678"><ele>435.0</ele><time>2026-04-03T15:12:15Z</time></trkpt><trkpt lat="42.415466634141886" lon="-8.03574795083204"><ele>433.75</ele><time>2026-04-03T15:12:16Z</time></trkpt><trkpt lat="42.415382729014084" lon="-8.0355908360198"><ele>432.5</ele><time>2026-04-03T15:12:17Z</time></trkpt><trkpt lat="42.4153204691791" lon="-8.035405860786195"><ele>431.25</ele><time>2026-04-03T15:12:18Z</time></trkpt><trkpt lat="42.41523311847157" lon="-8.035232942460624"><ele>430.0</ele><time>2026-04-03T15:12:19Z</time></trkpt><trkpt lat="42.41515927242619" lon="-8.0350615800346"><ele>429.25</ele><time>2026-04-03T15:12:20Z</time></trkpt><trkpt lat="42.41508289040873" lon="-8.03489890141073"><ele>428.5</ele><time>2026-04-03T15:12:21Z</time></trkpt><trkpt lat="42.41500550767676" lon="-8.034741166589345"><ele>427.75</ele><time>2026-04-03T15:12:22Z</time></trkpt><trkpt lat="42.41492841988539" lon="-8.034584211265642"><ele>427.0</ele><time>2026-04-03T15:12:23Z</time></trkpt><trkpt lat="42.41484193943703" lon="-8.034424531808574"><ele>427.0</ele><time>2026-04-03T15:12:23.998Z</time></trkpt><trkpt lat="42.41475865432793" lon="-8.034267501513826"><ele>427.0</ele><time>2026-04-03T15:12:24.998Z</time></trkpt><trkpt lat="42.41466308152454" lon="-8.034110298789722"><ele>427.0</ele><time>2026-04-03T15:12:25.998Z</time></trkpt><trkpt lat="42.414572056864124" lon="-8.03394831049836"><ele>427.0</ele><time>2026-04-03T15:12:26.998Z</time></trkpt><trkpt lat="42.414479850081804" lon="-8.033787335166815"><ele>425.0</ele><time>2026-04-03T15:12:27.998Z</time></trkpt><trkpt lat="42.41438911936951" lon="-8.033633790209278"><ele>423.0</ele><time>2026-04-03T15:12:28.998Z</time></trkpt><trkpt lat="42.41430637179106" lon="-8.033481241788742"><ele>421.0</ele><time>2026-04-03T15:12:29.998Z</time></trkpt><trkpt lat="42.414231623259646" lon="-8.033326427611073"><ele>419.0</ele><time>2026-04-03T15:12:30.999Z</time></trkpt><trkpt lat="42.41415586640201" lon="-8.033176118852957"><ele>418.5</ele><time>2026-04-03T15:12:31.999Z</time></trkpt><trkpt lat="42.414074349506265" lon="-8.033037983766958"><ele>418.0</ele><time>2026-04-03T15:12:32.999Z</time></trkpt><trkpt lat="42.413989707307564" lon="-8.032915031462403"><ele>417.5</ele><time>2026-04-03T15:12:33.999Z</time></trkpt><trkpt lat="42.413898740926" lon="-8.032797224792942"><ele>417.0</ele><time>2026-04-03T15:12:34.999Z</time></trkpt><trkpt lat="42.4138047156028" lon="-8.032688281358284"><ele>415.5</ele><time>2026-04-03T15:12:35.999Z</time></trkpt><trkpt lat="42.41371510563525" lon="-8.032565254430478"><ele>414.0</ele><time>2026-04-03T15:12:36.999Z</time></trkpt><trkpt lat="42.41363135623502" lon="-8.032434093510501"><ele>412.5</ele><time>2026-04-03T15:12:37.999Z</time></trkpt><trkpt lat="42.413561674916885" lon="-8.032321721093988"><ele>411.0</ele><time>2026-04-03T15:12:38.999Z</time></trkpt><trkpt lat="42.41348598031963" lon="-8.032194509296017"><ele>410.25</ele><time>2026-04-03T15:12:39.999Z</time></trkpt><trkpt lat="42.413393739319744" lon="-8.032091293488692"><ele>409.5</ele><time>2026-04-03T15:12:40.999Z</time></trkpt><trkpt lat="42.41331177250358" lon="-8.031976894661154"><ele>408.75</ele><time>2026-04-03T15:12:41.999Z</time></trkpt><trkpt lat="42.41323852804037" lon="-8.031868490767915"><ele>408.0</ele><time>2026-04-03T15:12:42.999Z</time></trkpt><trkpt lat="42.41315626706105" lon="-8.031766370269322"><ele>408.0</ele><time>2026-04-03T15:12:43.999Z</time></trkpt><trkpt lat="42.41308191359761" lon="-8.031658861750488"><ele>408.0</ele><time>2026-04-03T15:12:44.999Z</time></trkpt><trkpt lat="42.413015250314146" lon="-8.031530267359598"><ele>408.0</ele><time>2026-04-03T15:12:45.999Z</time></trkpt><trkpt lat="42.41296534901305" lon="-8.031396543143403"><ele>408.0</ele><time>2026-04-03T15:12:46.999Z</time></trkpt><trkpt lat="42.4129222755184" lon="-8.031253458696707"><ele>408.0</ele><time>2026-04-03T15:12:47.999Z</time></trkpt><trkpt lat="42.41289489438414" lon="-8.031103935439083"><ele>406.75</ele><time>2026-04-03T15:12:48.999Z</time></trkpt><trkpt lat="42.41287766781719" lon="-8.030932683546437"><ele>405.5</ele><time>2026-04-03T15:12:49.999Z</time></trkpt><trkpt lat="42.412865318206954" lon="-8.030764394919208"><ele>404.25</ele><time>2026-04-03T15:12:50.999Z</time></trkpt><trkpt lat="42.41285436894473" lon="-8.030611067390266"><ele>403.0</ele><time>2026-04-03T15:12:51.999Z</time></trkpt><trkpt lat="42.41283856275431" lon="-8.030447660185027"><ele>402.4</ele><time>2026-04-03T15:12:52.999Z</time></trkpt><trkpt lat="42.412821240015255" lon="-8.03029939555024"><ele>401.79999999999995</ele><time>2026-04-03T15:12:53.999Z</time></trkpt><trkpt lat="42.41280169918056" lon="-8.030143498290503"><ele>401.2</ele><time>2026-04-03T15:12:54.999Z</time></trkpt><trkpt lat="42.41278248796771" lon="-8.030002627338353"><ele>400.6</ele><time>2026-04-03T15:12:55.999Z</time></trkpt><trkpt lat="42.41275338317302" lon="-8.029866356428816"><ele>400.0</ele><time>2026-04-03T15:12:56.999Z</time></trkpt><trkpt lat="42.41271497152256" lon="-8.029734903679216"><ele>399.4</ele><time>2026-04-03T15:12:57.999Z</time></trkpt><trkpt lat="42.4126763566603" lon="-8.029612869945792"><ele>398.8</ele><time>2026-04-03T15:12:58.999Z</time></trkpt><trkpt lat="42.412629197069464" lon="-8.029487162674103"><ele>398.20000000000005</ele><time>2026-04-03T15:12:59.999Z</time></trkpt><trkpt lat="42.412590667458026" lon="-8.029351070758816"><ele>397.6</ele><time>2026-04-03T15:13:00.999Z</time></trkpt><trkpt lat="42.412554816718774" lon="-8.029223959970317"><ele>397.0</ele><time>2026-04-03T15:13:01.999Z</time></trkpt><trkpt lat="42.41253062347025" lon="-8.029080820447778"><ele>396.6</ele><time>2026-04-03T15:13:02.999Z</time></trkpt><trkpt lat="42.41250832049588" lon="-8.028945619635975"><ele>396.20000000000005</ele><time>2026-04-03T15:13:04Z</time></trkpt><trkpt lat="42.412503138538156" lon="-8.02879673150793"><ele>395.8</ele><time>2026-04-03T15:13:05Z</time></trkpt><trkpt lat="42.412498057023114" lon="-8.028645129475414"><ele>395.4</ele><time>2026-04-03T15:13:06Z</time></trkpt><trkpt lat="42.41249788411527" lon="-8.028486764028711"><ele>395.0</ele><time>2026-04-03T15:13:07Z</time></trkpt><trkpt lat="42.41250247431888" lon="-8.028328998454652"><ele>394.4</ele><time>2026-04-03T15:13:08Z</time></trkpt><trkpt lat="42.41250307662535" lon="-8.028179297681294"><ele>393.8</ele><time>2026-04-03T15:13:09Z</time></trkpt><trkpt lat="42.41249040626734" lon="-8.028031409632623"><ele>393.20000000000005</ele><time>2026-04-03T15:13:10Z</time></trkpt><trkpt lat="42.41248134703434" lon="-8.02790108453004"><ele>392.6</ele><time>2026-04-03T15:13:11Z</time></trkpt><trkpt lat="42.412482120509026" lon="-8.027773292666234"><ele>392.0</ele><time>2026-04-03T15:13:12Z</time></trkpt><trkpt lat="42.41246544057302" lon="-8.027662228964006"><ele>392.0</ele><time>2026-04-03T15:13:13Z</time></trkpt><trkpt lat="42.41244778194841" lon="-8.027561753263429"><ele>392.0</ele><time>2026-04-03T15:13:14Z</time></trkpt><trkpt lat="42.41243265633313" lon="-8.02746957021054"><ele>392.0</ele><time>2026-04-03T15:13:15Z</time></trkpt><trkpt lat="42.41242103394105" lon="-8.027383739047293"><ele>392.0</ele><time>2026-04-03T15:13:16Z</time></trkpt><trkpt lat="42.41240572465117" lon="-8.02729587010335"><ele>392.0</ele><time>2026-04-03T15:13:17Z</time></trkpt><trkpt lat="42.412388818427125" lon="-8.027207423701311"><ele>392.0</ele><time>2026-04-03T15:13:18Z</time></trkpt><trkpt lat="42.41235803460001" lon="-8.027098548777985"><ele>392.0</ele><time>2026-04-03T15:13:19Z</time></trkpt><trkpt lat="42.41232556036557" lon="-8.026969753183533"><ele>391.20000000000005</ele><time>2026-04-03T15:13:20Z</time></trkpt><trkpt lat="42.412297273996565" lon="-8.026826374085829"><ele>390.4</ele><time>2026-04-03T15:13:21Z</time></trkpt><trkpt lat="42.412260741212286" lon="-8.026683683971786"><ele>389.6</ele><time>2026-04-03T15:13:22Z</time></trkpt><trkpt lat="42.41220533591467" lon="-8.026558154194838"><ele>388.79999999999995</ele><time>2026-04-03T15:13:23Z</time></trkpt><trkpt lat="42.412167032327325" lon="-8.026433613871887"><ele>388.0</ele><time>2026-04-03T15:13:24Z</time></trkpt><trkpt lat="42.412126323804316" lon="-8.026301251454552"><ele>386.79999999999995</ele><time>2026-04-03T15:13:25Z</time></trkpt><trkpt lat="42.412084428768246" lon="-8.026174611375046"><ele>385.6</ele><time>2026-04-03T15:13:26Z</time></trkpt><trkpt lat="42.412045546457875" lon="-8.026054214616709"><ele>384.4</ele><time>2026-04-03T15:13:27Z</time></trkpt><trkpt lat="42.41201729577248" lon="-8.025927004977559"><ele>383.20000000000005</ele><time>2026-04-03T15:13:28Z</time></trkpt><trkpt lat="42.41197479166675" lon="-8.025808507527833"><ele>382.0</ele><time>2026-04-03T15:13:29Z</time></trkpt><trkpt lat="42.41191403841178" lon="-8.02570190204672"><ele>381.0</ele><time>2026-04-03T15:13:30Z</time></trkpt><trkpt lat="42.411870267273876" lon="-8.025591585667122"><ele>380.0</ele><time>2026-04-03T15:13:31Z</time></trkpt><trkpt lat="42.41182717613123" lon="-8.025477981085288"><ele>379.0</ele><time>2026-04-03T15:13:32Z</time></trkpt><trkpt lat="42.411803039939755" lon="-8.025358825397484"><ele>378.0</ele><time>2026-04-03T15:13:33Z</time></trkpt><trkpt lat="42.41176050038269" lon="-8.025254228775458"><ele>377.0</ele><time>2026-04-03T15:13:34Z</time></trkpt><trkpt lat="42.41171545507785" lon="-8.025157387059727"><ele>377.0</ele><time>2026-04-03T15:13:35Z</time></trkpt><trkpt lat="42.41169075110026" lon="-8.025040476953661"><ele>377.0</ele><time>2026-04-03T15:13:36Z</time></trkpt><trkpt lat="42.41166620073869" lon="-8.024936387189417"><ele>377.0</ele><time>2026-04-03T15:13:37Z</time></trkpt><trkpt lat="42.41165080401602" lon="-8.024827796543857"><ele>377.0</ele><time>2026-04-03T15:13:38Z</time></trkpt><trkpt lat="42.41164127260889" lon="-8.024714836809581"><ele>377.0</ele><time>2026-04-03T15:13:39Z</time></trkpt><trkpt lat="42.411628551380176" lon="-8.024598078176812"><ele>377.0</ele><time>2026-04-03T15:13:40Z</time></trkpt><trkpt lat="42.41162205857707" lon="-8.024479285363068"><ele>376.5</ele><time>2026-04-03T15:13:41Z</time></trkpt><trkpt lat="42.41162169639593" lon="-8.024350727021227"><ele>376.0</ele><time>2026-04-03T15:13:42Z</time></trkpt><trkpt lat="42.41160469684816" lon="-8.02423439029166"><ele>375.5</ele><time>2026-04-03T15:13:43Z</time></trkpt><trkpt lat="42.411586149905595" lon="-8.024129366800418"><ele>375.0</ele><time>2026-04-03T15:13:44Z</time></trkpt><trkpt lat="42.4115042252875" lon="-8.024090944244543"><ele>374.5</ele><time>2026-04-03T15:13:49Z</time></trkpt><trkpt lat="42.4114266651875" lon="-8.024128265362679"><ele>374.0</ele><time>2026-04-03T15:13:51Z</time></trkpt><trkpt lat="42.411384370271" lon="-8.024039930449577"><ele>373.0</ele><time>2026-04-03T15:13:54Z</time></trkpt><trkpt lat="42.411342861777435" lon="-8.023913270595129"><ele>372.0</ele><time>2026-04-03T15:13:56Z</time></trkpt><trkpt lat="42.41131688297308" lon="-8.023782724207301"><ele>371.0</ele><time>2026-04-03T15:13:58Z</time></trkpt><trkpt lat="42.41129757435982" lon="-8.02368102833248"><ele>370.0</ele><time>2026-04-03T15:14:00Z</time></trkpt><trkpt lat="42.41127477727547" lon="-8.023594305262481"><ele>369.0</ele><time>2026-04-03T15:14:02Z</time></trkpt><trkpt lat="42.41118810879656" lon="-8.023644268411214"><ele>368.0</ele><time>2026-04-03T15:14:04Z</time></trkpt><trkpt lat="42.41108461073732" lon="-8.02364867445805"><ele>368.0</ele><time>2026-04-03T15:14:06Z</time></trkpt><trkpt lat="42.411015801660945" lon="-8.023628534395215"><ele>368.0</ele><time>2026-04-03T15:14:07Z</time></trkpt><trkpt lat="42.4109253358734" lon="-8.02355692923775"><ele>368.0</ele><time>2026-04-03T15:14:09Z</time></trkpt><trkpt lat="42.41083031286773" lon="-8.023468435974207"><ele>368.0</ele><time>2026-04-03T15:14:11Z</time></trkpt><trkpt lat="42.41073814731759" lon="-8.023421732075136"><ele>368.0</ele><time>2026-04-03T15:14:13Z</time></trkpt><trkpt lat="42.410664087612325" lon="-8.02337560710145"><ele>368.0</ele><time>2026-04-03T15:14:15Z</time></trkpt><trkpt lat="42.41059864633799" lon="-8.023335818910954"><ele>368.0</ele><time>2026-04-03T15:14:17Z</time></trkpt><trkpt lat="42.41052776680955" lon="-8.023293318556524"><ele>368.0</ele><time>2026-04-03T15:14:19Z</time></trkpt><trkpt lat="42.4104518324091" lon="-8.023250539877226"><ele>368.0</ele><time>2026-04-03T15:14:21Z</time></trkpt><trkpt lat="42.410355282636075" lon="-8.02318832843921"><ele>368.0</ele><time>2026-04-03T15:14:23Z</time></trkpt><trkpt lat="42.4102522514961" lon="-8.023135467625636"><ele>368.0</ele><time>2026-04-03T15:14:25Z</time></trkpt><trkpt lat="42.41013803523707" lon="-8.023106791796154"><ele>366.33333333333337</ele><time>2026-04-03T15:14:27Z</time></trkpt><trkpt lat="42.41002662411244" lon="-8.023070072845686"><ele>364.6666666666667</ele><time>2026-04-03T15:14:29Z</time></trkpt><trkpt lat="42.40991252640518" lon="-8.023046919067449"><ele>363.0</ele><time>2026-04-03T15:14:30.999Z</time></trkpt><trkpt lat="42.40984726719843" lon="-8.023046472759672"><ele>361.3333333333333</ele><time>2026-04-03T15:14:31.999Z</time></trkpt><trkpt lat="42.40977495807465" lon="-8.023062825729413"><ele>359.66666666666663</ele><time>2026-04-03T15:14:32.999Z</time></trkpt><trkpt lat="42.40970901163455" lon="-8.023087067373295"><ele>358.0</ele><time>2026-04-03T15:14:33.999Z</time></trkpt><trkpt lat="42.409638455442916" lon="-8.023124801587818"><ele>356.5</ele><time>2026-04-03T15:14:34.999Z</time></trkpt><trkpt lat="42.40956792097259" lon="-8.023159234212756"><ele>355.0</ele><time>2026-04-03T15:14:35.999Z</time></trkpt><trkpt lat="42.409500352810035" lon="-8.023187500696693"><ele>353.5</ele><time>2026-04-03T15:14:36.999Z</time></trkpt><trkpt lat="42.40942371479506" lon="-8.023182491727797"><ele>352.0</ele><time>2026-04-03T15:14:37.999Z</time></trkpt><trkpt lat="42.40933999537027" lon="-8.023201513715323"><ele>350.5</ele><time>2026-04-03T15:14:38.999Z</time></trkpt><trkpt lat="42.409272108454836" lon="-8.023205207481586"><ele>349.0</ele><time>2026-04-03T15:14:39.999Z</time></trkpt><trkpt lat="42.40919178751408" lon="-8.02320987079121"><ele>349.0</ele><time>2026-04-03T15:14:40.999Z</time></trkpt><trkpt lat="42.40911285746082" lon="-8.023228206144973"><ele>349.0</ele><time>2026-04-03T15:14:41.999Z</time></trkpt><trkpt lat="42.40903143197809" lon="-8.02322544946897"><ele>349.0</ele><time>2026-04-03T15:14:42.999Z</time></trkpt><trkpt lat="42.408938353849166" lon="-8.023228908959798"><ele>349.0</ele><time>2026-04-03T15:14:43.999Z</time></trkpt><trkpt lat="42.40886327183885" lon="-8.02323579840629"><ele>349.0</ele><time>2026-04-03T15:14:44.999Z</time></trkpt><trkpt lat="42.40879952938069" lon="-8.02323386710005"><ele>349.0</ele><time>2026-04-03T15:14:45.999Z</time></trkpt><trkpt lat="42.408718569675976" lon="-8.023193697082347"><ele>347.8333333333333</ele><time>2026-04-03T15:14:49Z</time></trkpt><trkpt lat="42.408659777295696" lon="-8.023140065479225"><ele>346.66666666666663</ele><time>2026-04-03T15:14:51Z</time></trkpt><trkpt lat="42.40858760361344" lon="-8.023099154460626"><ele>345.5</ele><time>2026-04-03T15:14:53Z</time></trkpt><trkpt lat="42.40852635231719" lon="-8.023036617057382"><ele>344.3333333333333</ele><time>2026-04-03T15:14:55Z</time></trkpt><trkpt lat="42.408474008264264" lon="-8.02295299217382"><ele>343.1666666666667</ele><time>2026-04-03T15:14:57Z</time></trkpt><trkpt lat="42.408394815197894" lon="-8.022880601841111"><ele>342.0</ele><time>2026-04-03T15:14:59Z</time></trkpt><trkpt lat="42.40832830578823" lon="-8.022828529324096"><ele>342.0</ele><time>2026-04-03T15:15:01Z</time></trkpt><trkpt lat="42.40826484165274" lon="-8.022780373519966"><ele>342.0</ele><time>2026-04-03T15:15:04Z</time></trkpt><trkpt lat="42.40819193023851" lon="-8.022757286180692"><ele>342.0</ele><time>2026-04-03T15:15:07Z</time></trkpt><trkpt lat="42.40812313513461" lon="-8.022735827999266"><ele>342.0</ele><time>2026-04-03T15:15:10Z</time></trkpt><trkpt lat="42.40806970128297" lon="-8.022549823642278"><ele>342.0</ele><time>2026-04-03T15:15:12Z</time></trkpt><trkpt lat="42.408050078618146" lon="-8.022460640976401"><ele>342.0</ele><time>2026-04-03T15:15:13Z</time></trkpt><trkpt lat="42.40802992350116" lon="-8.022364334670254"><ele>341.5</ele><time>2026-04-03T15:15:14Z</time></trkpt><trkpt lat="42.40800711505165" lon="-8.022255196745988"><ele>341.0</ele><time>2026-04-03T15:15:15Z</time></trkpt><trkpt lat="42.40798820004297" lon="-8.022149006812421"><ele>340.5</ele><time>2026-04-03T15:15:16Z</time></trkpt><trkpt lat="42.407971675029586" lon="-8.02204295271915"><ele>340.0</ele><time>2026-04-03T15:15:17Z</time></trkpt><trkpt lat="42.407948465839" lon="-8.021939249039422"><ele>339.5</ele><time>2026-04-03T15:15:18Z</time></trkpt><trkpt lat="42.407906461068826" lon="-8.021800079719704"><ele>339.0</ele><time>2026-04-03T15:15:20Z</time></trkpt><trkpt lat="42.40784875504064" lon="-8.021720026481242"><ele>338.2</ele><time>2026-04-03T15:15:22Z</time></trkpt><trkpt lat="42.407778192142295" lon="-8.021796648615284"><ele>337.4</ele><time>2026-04-03T15:15:23Z</time></trkpt><trkpt lat="42.40768250543383" lon="-8.02180383616126"><ele>336.6</ele><time>2026-04-03T15:15:25Z</time></trkpt><trkpt lat="42.407623352756374" lon="-8.021861099740903"><ele>335.8</ele><time>2026-04-03T15:15:27.012Z</time></trkpt><trkpt lat="42.40744586720427" lon="-8.021868283891191"><ele>335.0</ele><time>2026-04-03T15:15:30Z</time></trkpt><trkpt lat="42.40737018662156" lon="-8.02183237482726"><ele>335.0</ele><time>2026-04-03T15:15:31Z</time></trkpt><trkpt lat="42.407323784963346" lon="-8.021725179776952"><ele>335.0</ele><time>2026-04-03T15:15:32Z</time></trkpt><trkpt lat="42.4073069973629" lon="-8.021620166517422"><ele>335.0</ele><time>2026-04-03T15:15:33Z</time></trkpt><trkpt lat="42.407288001325746" lon="-8.021517881958065"><ele>335.0</ele><time>2026-04-03T15:15:34Z</time></trkpt><trkpt lat="42.4072894249522" lon="-8.021411147421643"><ele>335.0</ele><time>2026-04-03T15:15:35Z</time></trkpt><trkpt lat="42.40725743032127" lon="-8.021313473269155"><ele>335.0</ele><time>2026-04-03T15:15:36Z</time></trkpt><trkpt lat="42.40724388923886" lon="-8.021220583799954"><ele>334.6666666666667</ele><time>2026-04-03T15:15:37Z</time></trkpt><trkpt lat="42.407228478238295" lon="-8.021115158614975"><ele>334.33333333333337</ele><time>2026-04-03T15:15:38Z</time></trkpt><trkpt lat="42.40721477660277" lon="-8.021020792213564"><ele>334.0</ele><time>2026-04-03T15:15:39Z</time></trkpt><trkpt lat="42.40719903369723" lon="-8.02092079878763"><ele>333.6666666666667</ele><time>2026-04-03T15:15:40Z</time></trkpt><trkpt lat="42.407178300581144" lon="-8.020834880050153"><ele>333.3333333333333</ele><time>2026-04-03T15:15:41Z</time></trkpt><trkpt lat="42.40710509787708" lon="-8.020731874672226"><ele>333.0</ele><time>2026-04-03T15:15:43Z</time></trkpt><trkpt lat="42.40702234547945" lon="-8.02061158403479"><ele>334.1666666666667</ele><time>2026-04-03T15:15:45.001Z</time></trkpt><trkpt lat="42.40697455623723" lon="-8.020540334344794"><ele>335.3333333333333</ele><time>2026-04-03T15:15:46.001Z</time></trkpt><trkpt lat="42.40691916797167" lon="-8.020471904068813"><ele>336.5</ele><time>2026-04-03T15:15:47.001Z</time></trkpt><trkpt lat="42.40686458678165" lon="-8.020394141134144"><ele>337.66666666666663</ele><time>2026-04-03T15:15:48.001Z</time></trkpt><trkpt lat="42.40680652743642" lon="-8.020332605241514"><ele>338.8333333333333</ele><time>2026-04-03T15:15:49.001Z</time></trkpt><trkpt lat="42.40676197046435" lon="-8.020250047821555"><ele>340.0</ele><time>2026-04-03T15:15:50.001Z</time></trkpt><trkpt lat="42.40672194207879" lon="-8.020159988200545"><ele>340.0</ele><time>2026-04-03T15:15:51.001Z</time></trkpt><trkpt lat="42.40670286479742" lon="-8.020067954948134"><ele>340.0</ele><time>2026-04-03T15:15:52.001Z</time></trkpt><trkpt lat="42.406705119419" lon="-8.01998196508828"><ele>340.0</ele><time>2026-04-03T15:15:53.001Z</time></trkpt><trkpt lat="42.406725255269" lon="-8.019896425670387"><ele>340.0</ele><time>2026-04-03T15:15:54.001Z</time></trkpt><trkpt lat="42.40674938030564" lon="-8.019809853394836"><ele>340.0</ele><time>2026-04-03T15:15:55.001Z</time></trkpt><trkpt lat="42.40677658807898" lon="-8.019726474129047"><ele>340.0</ele><time>2026-04-03T15:15:56.001Z</time></trkpt><trkpt lat="42.40682938229926" lon="-8.01960358034984"><ele>340.0</ele><time>2026-04-03T15:15:58.001Z</time></trkpt><trkpt lat="42.40686408317116" lon="-8.019514314694815"><ele>340.2</ele><time>2026-04-03T15:16:00.001Z</time></trkpt><trkpt lat="42.40690474063236" lon="-8.019398711007348"><ele>340.4</ele><time>2026-04-03T15:16:02.001Z</time></trkpt><trkpt lat="42.40693561397785" lon="-8.019268674586518"><ele>340.6</ele><time>2026-04-03T15:16:04.001Z</time></trkpt><trkpt lat="42.40695005988083" lon="-8.019148588175248"><ele>340.8</ele><time>2026-04-03T15:16:06.001Z</time></trkpt><trkpt lat="42.406950724709816" lon="-8.019005015151228"><ele>341.0</ele><time>2026-04-03T15:16:08.001Z</time></trkpt><trkpt lat="42.40694719551719" lon="-8.018912442475306"><ele>340.83333333333337</ele><time>2026-04-03T15:16:09.001Z</time></trkpt><trkpt lat="42.40694277457911" lon="-8.01880398721988"><ele>340.6666666666667</ele><time>2026-04-03T15:16:10.001Z</time></trkpt><trkpt lat="42.406938604250854" lon="-8.018705461654939"><ele>340.5</ele><time>2026-04-03T15:16:11.001Z</time></trkpt><trkpt lat="42.40694772164959" lon="-8.018597839179417"><ele>340.3333333333333</ele><time>2026-04-03T15:16:12.001Z</time></trkpt><trkpt lat="42.40693541861051" lon="-8.018505121364607"><ele>340.16666666666663</ele><time>2026-04-03T15:16:13.001Z</time></trkpt><trkpt lat="42.40693112749055" lon="-8.018406521730862"><ele>340.0</ele><time>2026-04-03T15:16:14.001Z</time></trkpt><trkpt lat="42.406927366928635" lon="-8.018230947852981"><ele>340.0</ele><time>2026-04-03T15:16:16.001Z</time></trkpt><trkpt lat="42.40691729161809" lon="-8.01814169348795"><ele>340.0</ele><time>2026-04-03T15:16:17.001Z</time></trkpt><trkpt lat="42.40691296746619" lon="-8.018050225166192"><ele>340.0</ele><time>2026-04-03T15:16:18.001Z</time></trkpt><trkpt lat="42.40690782232293" lon="-8.017964129965481"><ele>340.0</ele><time>2026-04-03T15:16:19.001Z</time></trkpt><trkpt lat="42.40690333045957" lon="-8.01779073131878"><ele>340.0</ele><time>2026-04-03T15:16:21.001Z</time></trkpt><trkpt lat="42.406882536330976" lon="-8.017685983443997"><ele>340.0</ele><time>2026-04-03T15:16:23.001Z</time></trkpt><trkpt lat="42.406884068543796" lon="-8.017570308030248"><ele>338.2</ele><time>2026-04-03T15:16:26.001Z</time></trkpt><trkpt lat="42.40687340432681" lon="-8.01744538138121"><ele>336.4</ele><time>2026-04-03T15:16:28.001Z</time></trkpt><trkpt lat="42.406871761624586" lon="-8.01731352321021"><ele>334.6</ele><time>2026-04-03T15:16:30.001Z</time></trkpt><trkpt lat="42.406860986252596" lon="-8.01716954419454"><ele>332.8</ele><time>2026-04-03T15:16:32.001Z</time></trkpt><trkpt lat="42.40684896042494" lon="-8.017021024160982"><ele>331.0</ele><time>2026-04-03T15:16:34.001Z</time></trkpt><trkpt lat="42.406839591947815" lon="-8.016868199868252"><ele>331.0</ele><time>2026-04-03T15:16:36Z</time></trkpt><trkpt lat="42.4068288772566" lon="-8.016720743232353"><ele>331.0</ele><time>2026-04-03T15:16:38Z</time></trkpt><trkpt lat="42.40681232072018" lon="-8.016585446453943"><ele>331.0</ele><time>2026-04-03T15:16:40Z</time></trkpt><trkpt lat="42.4067949790555" lon="-8.01645574881336"><ele>331.0</ele><time>2026-04-03T15:16:42Z</time></trkpt><trkpt lat="42.40675611907183" lon="-8.016324981419526"><ele>331.0</ele><time>2026-04-03T15:16:44Z</time></trkpt><trkpt lat="42.40669871561182" lon="-8.016213776263788"><ele>329.8333333333333</ele><time>2026-04-03T15:16:46Z</time></trkpt><trkpt lat="42.40663917008738" lon="-8.016119586878192"><ele>328.66666666666663</ele><time>2026-04-03T15:16:49Z</time></trkpt><trkpt lat="42.40659678204147" lon="-8.016035923898936"><ele>327.5</ele><time>2026-04-03T15:16:52Z</time></trkpt><trkpt lat="42.406552299615676" lon="-8.015956582435765"><ele>326.3333333333333</ele><time>2026-04-03T15:18:20.001Z</time></trkpt><trkpt lat="42.40650880413857" lon="-8.015870066863132"><ele>325.1666666666667</ele><time>2026-04-03T15:18:24.001Z</time></trkpt><trkpt lat="42.4064820512276" lon="-8.01577244542863"><ele>324.0</ele><time>2026-04-03T15:18:28.001Z</time></trkpt><trkpt lat="42.40643177337397" lon="-8.015705856376746"><ele>323.6</ele><time>2026-04-03T15:18:32.001Z</time></trkpt><trkpt lat="42.40643876919785" lon="-8.015615624303509"><ele>323.2</ele><time>2026-04-03T15:18:37.001Z</time></trkpt><trkpt lat="42.406340591556216" lon="-8.015571738382372"><ele>322.8</ele><time>2026-04-03T15:18:39.001Z</time></trkpt><trkpt lat="42.40627243342618" lon="-8.015529367107936"><ele>322.40000000000003</ele><time>2026-04-03T15:18:42Z</time></trkpt><trkpt lat="42.40639159349688" lon="-8.015672440494777"><ele>322.0</ele><time>2026-04-03T15:27:25.001Z</time></trkpt><trkpt lat="42.406424857008936" lon="-8.015759414062458"><ele>320.0</ele><time>2026-04-03T15:27:31.001Z</time></trkpt><trkpt lat="42.406472732389716" lon="-8.015818977779356"><ele>320.0</ele><time>2026-04-03T15:27:38.001Z</time></trkpt><trkpt lat="42.40649048775793" lon="-8.015931709543189"><ele>324.0</ele><time>2026-04-03T15:27:48Z</time></trkpt><trkpt lat="42.40644551810622" lon="-8.016003115254206"><ele>324.0</ele><time>2026-04-03T15:27:54Z</time></trkpt></trkseg><trkseg><trkpt lat="42.40643174857125" lon="-8.015584582470371"><ele>320.5</ele><time>2026-04-03T15:44:58.999Z</time></trkpt><trkpt lat="42.406316874588285" lon="-8.015494812287404"><ele>321.0</ele><time>2026-04-03T15:45:01Z</time></trkpt><trkpt lat="42.406229870433364" lon="-8.015446867801263"><ele>321.5</ele><time>2026-04-03T15:45:02Z</time></trkpt><trkpt lat="42.40612077996359" lon="-8.015390792869045"><ele>322.0</ele><time>2026-04-03T15:45:03Z</time></trkpt><trkpt lat="42.406010935122524" lon="-8.015343938030316"><ele>322.0</ele><time>2026-04-03T15:45:04Z</time></trkpt><trkpt lat="42.40589492958263" lon="-8.015304375447347"><ele>322.0</ele><time>2026-04-03T15:45:05Z</time></trkpt><trkpt lat="42.405777415300165" lon="-8.015261460103108"><ele>322.0</ele><time>2026-04-03T15:45:06Z</time></trkpt><trkpt lat="42.40566040299867" lon="-8.015222938822966"><ele>322.0</ele><time>2026-04-03T15:45:07Z</time></trkpt><trkpt lat="42.4055435524189" lon="-8.015179827652931"><ele>322.20000000000005</ele><time>2026-04-03T15:45:08Z</time></trkpt><trkpt lat="42.40543114327176" lon="-8.015147607481468"><ele>322.4</ele><time>2026-04-03T15:45:09Z</time></trkpt><trkpt lat="42.40532060796716" lon="-8.015105184466977"><ele>322.6</ele><time>2026-04-03T15:45:10Z</time></trkpt><trkpt lat="42.40520995965401" lon="-8.015082442235178"><ele>322.79999999999995</ele><time>2026-04-03T15:45:11Z</time></trkpt><trkpt lat="42.405110135621385" lon="-8.015036399646219"><ele>323.0</ele><time>2026-04-03T15:45:12Z</time></trkpt><trkpt lat="42.405021958873434" lon="-8.01497786731836"><ele>322.1666666666667</ele><time>2026-04-03T15:45:13Z</time></trkpt><trkpt lat="42.40495189989566" lon="-8.014925928880185"><ele>321.33333333333337</ele><time>2026-04-03T15:45:14Z</time></trkpt><trkpt lat="42.404872223317895" lon="-8.014856774924782"><ele>320.5</ele><time>2026-04-03T15:45:15Z</time></trkpt><trkpt lat="42.40480398105234" lon="-8.014790839398971"><ele>319.6666666666667</ele><time>2026-04-03T15:45:16Z</time></trkpt><trkpt lat="42.404748995528244" lon="-8.01472756805284"><ele>318.8333333333333</ele><time>2026-04-03T15:45:17Z</time></trkpt><trkpt lat="42.404694822086846" lon="-8.014654766915395"><ele>318.0</ele><time>2026-04-03T15:45:18Z</time></trkpt><trkpt lat="42.40462905262145" lon="-8.014552386039435"><ele>320.25</ele><time>2026-04-03T15:45:19Z</time></trkpt><trkpt lat="42.404564338282164" lon="-8.014435647508508"><ele>322.5</ele><time>2026-04-03T15:45:20Z</time></trkpt><trkpt lat="42.40451187630915" lon="-8.014316391158825"><ele>324.75</ele><time>2026-04-03T15:45:21Z</time></trkpt><trkpt lat="42.404459086315065" lon="-8.014168349704539"><ele>327.0</ele><time>2026-04-03T15:45:22Z</time></trkpt><trkpt lat="42.404409699452785" lon="-8.014012796037518"><ele>327.0</ele><time>2026-04-03T15:45:23Z</time></trkpt><trkpt lat="42.40438372283115" lon="-8.013826388578364"><ele>327.0</ele><time>2026-04-03T15:45:24Z</time></trkpt><trkpt lat="42.40436008512078" lon="-8.013651825395373"><ele>327.0</ele><time>2026-04-03T15:45:25Z</time></trkpt><trkpt lat="42.404339824571416" lon="-8.01347333313744"><ele>327.0</ele><time>2026-04-03T15:45:26Z</time></trkpt><trkpt lat="42.40432138767317" lon="-8.013311424788474"><ele>326.0</ele><time>2026-04-03T15:45:27Z</time></trkpt><trkpt lat="42.4043052311869" lon="-8.013120924888106"><ele>325.0</ele><time>2026-04-03T15:45:28Z</time></trkpt><trkpt lat="42.404284001253444" lon="-8.012927649608358"><ele>324.0</ele><time>2026-04-03T15:45:29Z</time></trkpt><trkpt lat="42.4042591465671" lon="-8.01273317238044"><ele>323.0</ele><time>2026-04-03T15:45:30Z</time></trkpt><trkpt lat="42.40421627512702" lon="-8.012561960292857"><ele>322.0</ele><time>2026-04-03T15:45:31Z</time></trkpt><trkpt lat="42.40416629994117" lon="-8.012405203087809"><ele>321.0</ele><time>2026-04-03T15:45:32Z</time></trkpt><trkpt lat="42.404109271808636" lon="-8.012266577528433"><ele>320.0</ele><time>2026-04-03T15:45:33Z</time></trkpt><trkpt lat="42.4040473968817" lon="-8.012144176748297"><ele>319.0</ele><time>2026-04-03T15:45:34Z</time></trkpt><trkpt lat="42.40396225640165" lon="-8.012062232725862"><ele>319.0</ele><time>2026-04-03T15:45:35Z</time></trkpt><trkpt lat="42.40389198599523" lon="-8.011943740040854"><ele>319.0</ele><time>2026-04-03T15:45:36Z</time></trkpt><trkpt lat="42.40380798806025" lon="-8.011828243589374"><ele>319.0</ele><time>2026-04-03T15:45:37Z</time></trkpt><trkpt lat="42.40371284163775" lon="-8.011738867556847"><ele>319.0</ele><time>2026-04-03T15:45:38Z</time></trkpt><trkpt lat="42.40361384698142" lon="-8.011651442377657"><ele>319.0</ele><time>2026-04-03T15:45:39Z</time></trkpt><trkpt lat="42.4035050009178" lon="-8.011571705206121"><ele>319.0</ele><time>2026-04-03T15:45:40Z</time></trkpt><trkpt lat="42.40338574181768" lon="-8.011506169306132"><ele>319.0</ele><time>2026-04-03T15:45:41Z</time></trkpt><trkpt lat="42.4032693226354" lon="-8.011453327154825"><ele>319.0</ele><time>2026-04-03T15:45:42Z</time></trkpt><trkpt lat="42.40314666156334" lon="-8.011415204341137"><ele>319.0</ele><time>2026-04-03T15:45:43Z</time></trkpt><trkpt lat="42.403025094014644" lon="-8.011345801580298"><ele>319.0</ele><time>2026-04-03T15:45:44Z</time></trkpt><trkpt lat="42.40289581551895" lon="-8.01129494590323"><ele>319.0</ele><time>2026-04-03T15:45:45Z</time></trkpt><trkpt lat="42.402777183370524" lon="-8.011234882205173"><ele>319.0</ele><time>2026-04-03T15:45:46Z</time></trkpt><trkpt lat="42.402655682811606" lon="-8.011191760442404"><ele>318.75</ele><time>2026-04-03T15:45:47Z</time></trkpt><trkpt lat="42.40253060587752" lon="-8.01112853151481"><ele>318.5</ele><time>2026-04-03T15:45:48Z</time></trkpt><trkpt lat="42.40241269396999" lon="-8.011081912051969"><ele>318.25</ele><time>2026-04-03T15:45:49Z</time></trkpt><trkpt lat="42.402289075588335" lon="-8.011035400207051"><ele>318.0</ele><time>2026-04-03T15:45:50Z</time></trkpt><trkpt lat="42.40221836299431" lon="-8.010997175800634"><ele>317.8</ele><time>2026-04-03T15:45:51Z</time></trkpt><trkpt lat="42.40215069515889" lon="-8.011003043150504"><ele>317.6</ele><time>2026-04-03T15:45:53Z</time></trkpt><trkpt lat="42.402081778553324" lon="-8.011006861875947"><ele>317.4</ele><time>2026-04-03T15:45:55Z</time></trkpt><trkpt lat="42.40198118183793" lon="-8.01084201947896"><ele>317.2</ele><time>2026-04-03T15:48:39.999Z</time></trkpt><trkpt lat="42.40188457786528" lon="-8.010834033891609"><ele>317.0</ele><time>2026-04-03T15:48:40.999Z</time></trkpt><trkpt lat="42.401801161957664" lon="-8.010792425560595"><ele>316.25</ele><time>2026-04-03T15:48:41.999Z</time></trkpt><trkpt lat="42.40166623466957" lon="-8.01072512304989"><ele>315.5</ele><time>2026-04-03T15:48:42.999Z</time></trkpt><trkpt lat="42.40154313719458" lon="-8.010661564718927"><ele>314.75</ele><time>2026-04-03T15:48:43.999Z</time></trkpt><trkpt lat="42.40143305992974" lon="-8.010552934121842"><ele>314.0</ele><time>2026-04-03T15:48:44.999Z</time></trkpt><trkpt lat="42.4013028352609" lon="-8.010482296130714"><ele>313.75</ele><time>2026-04-03T15:48:45.999Z</time></trkpt><trkpt lat="42.40117195304365" lon="-8.01040765442109"><ele>313.5</ele><time>2026-04-03T15:48:46.999Z</time></trkpt><trkpt lat="42.40105018492164" lon="-8.010334941507805"><ele>313.25</ele><time>2026-04-03T15:48:47.999Z</time></trkpt><trkpt lat="42.40092679995888" lon="-8.01030363063751"><ele>313.0</ele><time>2026-04-03T15:48:48.999Z</time></trkpt><trkpt lat="42.40080982162627" lon="-8.01023162524985"><ele>313.0</ele><time>2026-04-03T15:48:49.999Z</time></trkpt><trkpt lat="42.400695429829334" lon="-8.010159256976255"><ele>313.0</ele><time>2026-04-03T15:48:50.999Z</time></trkpt><trkpt lat="42.400580673584926" lon="-8.010085100989269"><ele>313.0</ele><time>2026-04-03T15:48:51.999Z</time></trkpt><trkpt lat="42.400464909079126" lon="-8.010008204437208"><ele>313.0</ele><time>2026-04-03T15:48:52.999Z</time></trkpt><trkpt lat="42.4003493162061" lon="-8.009930639514053"><ele>313.25</ele><time>2026-04-03T15:48:53.999Z</time></trkpt><trkpt lat="42.400228698702385" lon="-8.00984602421621"><ele>313.5</ele><time>2026-04-03T15:48:54.999Z</time></trkpt><trkpt lat="42.400112582111646" lon="-8.009763379725353"><ele>313.75</ele><time>2026-04-03T15:48:55.999Z</time></trkpt><trkpt lat="42.39999549820656" lon="-8.00967503748736"><ele>314.0</ele><time>2026-04-03T15:48:56.999Z</time></trkpt><trkpt lat="42.39988073873504" lon="-8.00958213294713"><ele>314.0</ele><time>2026-04-03T15:48:57.999Z</time></trkpt><trkpt lat="42.399767702321796" lon="-8.009482730715897"><ele>314.0</ele><time>2026-04-03T15:48:58.999Z</time></trkpt><trkpt lat="42.399658380938874" lon="-8.009373571571277"><ele>314.0</ele><time>2026-04-03T15:48:59.999Z</time></trkpt><trkpt lat="42.39955466005049" lon="-8.009246668997525"><ele>314.0</ele><time>2026-04-03T15:49:00.999Z</time></trkpt><trkpt lat="42.39944789536354" lon="-8.009100007885449"><ele>314.0</ele><time>2026-04-03T15:49:01.999Z</time></trkpt><trkpt lat="42.39936438752492" lon="-8.00895592023511"><ele>314.0</ele><time>2026-04-03T15:49:02.999Z</time></trkpt><trkpt lat="42.39929289866816" lon="-8.008809248058983"><ele>314.0</ele><time>2026-04-03T15:49:03.999Z</time></trkpt><trkpt lat="42.39923985631111" lon="-8.008662718363297"><ele>314.0</ele><time>2026-04-03T15:49:04.999Z</time></trkpt><trkpt lat="42.39920937732463" lon="-8.008526869115634"><ele>314.0</ele><time>2026-04-03T15:49:05.999Z</time></trkpt><trkpt lat="42.39917240534384" lon="-8.008428822648568"><ele>314.0</ele><time>2026-04-03T15:49:07Z</time></trkpt><trkpt lat="42.39909371004748" lon="-8.008343429112578"><ele>314.0</ele><time>2026-04-03T15:49:09Z</time></trkpt><trkpt lat="42.3989939972451" lon="-8.008323491922594"><ele>314.0</ele><time>2026-04-03T15:49:11Z</time></trkpt><trkpt lat="42.39894439201205" lon="-8.008413496639298"><ele>314.0</ele><time>2026-04-03T15:49:12Z</time></trkpt><trkpt lat="42.39884706613646" lon="-8.008430338562006"><ele>315.0</ele><time>2026-04-03T15:49:13Z</time></trkpt><trkpt lat="42.39874491344313" lon="-8.00844294667572"><ele>316.0</ele><time>2026-04-03T15:49:14Z</time></trkpt><trkpt lat="42.39863939708715" lon="-8.008429747302138"><ele>317.0</ele><time>2026-04-03T15:49:15Z</time></trkpt><trkpt lat="42.39851551855465" lon="-8.00840433312801"><ele>318.0</ele><time>2026-04-03T15:49:16Z</time></trkpt><trkpt lat="42.39842763958142" lon="-8.008379695109117"><ele>319.0</ele><time>2026-04-03T15:49:17Z</time></trkpt><trkpt lat="42.398331508945496" lon="-8.008340057156389"><ele>318.4</ele><time>2026-04-03T15:49:18Z</time></trkpt><trkpt lat="42.398237460276505" lon="-8.008301777236381"><ele>317.79999999999995</ele><time>2026-04-03T15:49:19Z</time></trkpt><trkpt lat="42.39813769326017" lon="-8.008261803340844"><ele>317.20000000000005</ele><time>2026-04-03T15:49:20Z</time></trkpt><trkpt lat="42.398035372297734" lon="-8.008222188108082"><ele>316.6</ele><time>2026-04-03T15:49:21Z</time></trkpt><trkpt lat="42.397932052930905" lon="-8.008187507308373"><ele>316.0</ele><time>2026-04-03T15:49:22Z</time></trkpt><trkpt lat="42.39782356000645" lon="-8.008158772441954"><ele>318.0</ele><time>2026-04-03T15:49:23Z</time></trkpt><trkpt lat="42.397721621454956" lon="-8.008144063549008"><ele>320.0</ele><time>2026-04-03T15:49:24Z</time></trkpt><trkpt lat="42.39761614380179" lon="-8.00812273081731"><ele>322.0</ele><time>2026-04-03T15:49:25Z</time></trkpt><trkpt lat="42.39750367623438" lon="-8.008134989099581"><ele>324.0</ele><time>2026-04-03T15:49:26Z</time></trkpt><trkpt lat="42.397393212269925" lon="-8.008149559427212"><ele>326.0</ele><time>2026-04-03T15:49:27Z</time></trkpt><trkpt lat="42.397306411926216" lon="-8.008204285308489"><ele>326.0</ele><time>2026-04-03T15:49:28Z</time></trkpt><trkpt lat="42.39722161307964" lon="-8.008240649968457"><ele>326.0</ele><time>2026-04-03T15:49:29Z</time></trkpt><trkpt lat="42.3971310759476" lon="-8.00826075739216"><ele>326.0</ele><time>2026-04-03T15:49:30Z</time></trkpt><trkpt lat="42.397026909936024" lon="-8.00831272482827"><ele>326.0</ele><time>2026-04-03T15:49:31Z</time></trkpt><trkpt lat="42.3969292951167" lon="-8.008349593984466"><ele>326.0</ele><time>2026-04-03T15:49:32Z</time></trkpt><trkpt lat="42.39682572281777" lon="-8.008362145289775"><ele>329.0</ele><time>2026-04-03T15:49:33Z</time></trkpt><trkpt lat="42.39672893188742" lon="-8.008369840839729"><ele>332.0</ele><time>2026-04-03T15:49:34Z</time></trkpt><trkpt lat="42.39661736319" lon="-8.008366255141961"><ele>335.0</ele><time>2026-04-03T15:49:35Z</time></trkpt><trkpt lat="42.396498285191804" lon="-8.008356954751125"><ele>338.0</ele><time>2026-04-03T15:49:36Z</time></trkpt><trkpt lat="42.39639384370817" lon="-8.00834925590904"><ele>341.0</ele><time>2026-04-03T15:49:37Z</time></trkpt><trkpt lat="42.39628309049524" lon="-8.008349026627501"><ele>341.4</ele><time>2026-04-03T15:49:38Z</time></trkpt><trkpt lat="42.3961729746965" lon="-8.008357123314443"><ele>341.8</ele><time>2026-04-03T15:49:39Z</time></trkpt><trkpt lat="42.39605842382619" lon="-8.008354189063354"><ele>342.2</ele><time>2026-04-03T15:49:40Z</time></trkpt><trkpt lat="42.395953124624974" lon="-8.008356149414622"><ele>342.59999999999997</ele><time>2026-04-03T15:49:41Z</time></trkpt><trkpt lat="42.39584801418909" lon="-8.008368330750613"><ele>343.0</ele><time>2026-04-03T15:49:42Z</time></trkpt><trkpt lat="42.39574367375276" lon="-8.008395154494766"><ele>343.0</ele><time>2026-04-03T15:49:43Z</time></trkpt><trkpt lat="42.395647915559536" lon="-8.00842660593977"><ele>343.0</ele><time>2026-04-03T15:49:44Z</time></trkpt><trkpt lat="42.395566372974585" lon="-8.00846179903367"><ele>343.0</ele><time>2026-04-03T15:49:45Z</time></trkpt><trkpt lat="42.3954745403625" lon="-8.008513300816247"><ele>343.0</ele><time>2026-04-03T15:49:46Z</time></trkpt><trkpt lat="42.39538559231052" lon="-8.00857606081258"><ele>343.0</ele><time>2026-04-03T15:49:47Z</time></trkpt><trkpt lat="42.39528809808999" lon="-8.008634506954401"><ele>343.59999999999997</ele><time>2026-04-03T15:49:48Z</time></trkpt><trkpt lat="42.39519166268922" lon="-8.008698517503042"><ele>344.2</ele><time>2026-04-03T15:49:49Z</time></trkpt><trkpt lat="42.395089297914225" lon="-8.008750071280623"><ele>344.8</ele><time>2026-04-03T15:49:50Z</time></trkpt><trkpt lat="42.39498253519901" lon="-8.008800383218617"><ele>345.4</ele><time>2026-04-03T15:49:51Z</time></trkpt><trkpt lat="42.394892488965404" lon="-8.008860556022414"><ele>346.0</ele><time>2026-04-03T15:49:52Z</time></trkpt><trkpt lat="42.39479935905743" lon="-8.008917701710299"><ele>346.0</ele><time>2026-04-03T15:49:53Z</time></trkpt><trkpt lat="42.39472241196536" lon="-8.00897141933917"><ele>346.0</ele><time>2026-04-03T15:49:54Z</time></trkpt><trkpt lat="42.3946349986698" lon="-8.009005745878866"><ele>346.0</ele><time>2026-04-03T15:49:55Z</time></trkpt><trkpt lat="42.39455439403715" lon="-8.009040811572229"><ele>346.0</ele><time>2026-04-03T15:49:56Z</time></trkpt><trkpt lat="42.39446619487134" lon="-8.00909384866227"><ele>346.0</ele><time>2026-04-03T15:49:57Z</time></trkpt><trkpt lat="42.39438626453035" lon="-8.00914973886276"><ele>346.0</ele><time>2026-04-03T15:49:58Z</time></trkpt><trkpt lat="42.394295106333956" lon="-8.009204121511132"><ele>346.6</ele><time>2026-04-03T15:49:59Z</time></trkpt><trkpt lat="42.394200520666054" lon="-8.009260280882073"><ele>347.20000000000005</ele><time>2026-04-03T15:50:00Z</time></trkpt><trkpt lat="42.394113897898535" lon="-8.009336691947919"><ele>347.79999999999995</ele><time>2026-04-03T15:50:01Z</time></trkpt><trkpt lat="42.39402016350839" lon="-8.009406154500434"><ele>348.4</ele><time>2026-04-03T15:50:02Z</time></trkpt><trkpt lat="42.39393433282489" lon="-8.009470103438673"><ele>349.0</ele><time>2026-04-03T15:50:03Z</time></trkpt><trkpt lat="42.39385725112305" lon="-8.009527647742543"><ele>348.4</ele><time>2026-04-03T15:50:04Z</time></trkpt><trkpt lat="42.39379013680615" lon="-8.009582152275042"><ele>347.79999999999995</ele><time>2026-04-03T15:50:05Z</time></trkpt><trkpt lat="42.39372588714617" lon="-8.009633412060868"><ele>347.20000000000005</ele><time>2026-04-03T15:50:06Z</time></trkpt><trkpt lat="42.39366835997674" lon="-8.00967838413427"><ele>346.6</ele><time>2026-04-03T15:50:07Z</time></trkpt><trkpt lat="42.39356947235231" lon="-8.009759887693718"><ele>346.0</ele><time>2026-04-03T15:50:09Z</time></trkpt><trkpt lat="42.393471414436995" lon="-8.009840278911152"><ele>346.0</ele><time>2026-04-03T15:50:11Z</time></trkpt><trkpt lat="42.39340204723088" lon="-8.009859614113946"><ele>346.0</ele><time>2026-04-03T15:50:13Z</time></trkpt><trkpt lat="42.39330457278843" lon="-8.009859499655752"><ele>346.0</ele><time>2026-04-03T15:50:16Z</time></trkpt><trkpt lat="42.39323754279248" lon="-8.009880077149415"><ele>346.0</ele><time>2026-04-03T15:50:18Z</time></trkpt><trkpt lat="42.393175421427316" lon="-8.009909694800381"><ele>346.0</ele><time>2026-04-03T15:50:20Z</time></trkpt><trkpt lat="42.393119765399135" lon="-8.009969116717974"><ele>346.0</ele><time>2026-04-03T15:50:23Z</time></trkpt><trkpt lat="42.393090645051466" lon="-8.010051199031414"><ele>346.0</ele><time>2026-04-03T15:51:11Z</time></trkpt><trkpt lat="42.393067397870745" lon="-8.01014463578634"><ele>346.0</ele><time>2026-04-03T15:51:13Z</time></trkpt><trkpt lat="42.393049248231435" lon="-8.010260315427198"><ele>346.0</ele><time>2026-04-03T15:51:15Z</time></trkpt><trkpt lat="42.39304605359654" lon="-8.01037731461434"><ele>346.0</ele><time>2026-04-03T15:51:18Z</time></trkpt><trkpt lat="42.39304605359633" lon="-8.010479836705235"><ele>346.0</ele><time>2026-04-03T15:51:20Z</time></trkpt><trkpt lat="42.39304269567245" lon="-8.010576080289496"><ele>346.0</ele><time>2026-04-03T15:51:23Z</time></trkpt><trkpt lat="42.39303154144264" lon="-8.010673801902252"><ele>346.0</ele><time>2026-04-03T15:51:28Z</time></trkpt><trkpt lat="42.39282451442209" lon="-8.010745694713856"><ele>346.0</ele><time>2026-04-03T15:51:32Z</time></trkpt><trkpt lat="42.39271064446261" lon="-8.010733971122228"><ele>346.0</ele><time>2026-04-03T15:51:34Z</time></trkpt><trkpt lat="42.3925973664672" lon="-8.010733630087309"><ele>346.0</ele><time>2026-04-03T15:51:36Z</time></trkpt><trkpt lat="42.3925171449729" lon="-8.010820177135995"><ele>346.0</ele><time>2026-04-03T15:51:38Z</time></trkpt><trkpt lat="42.39243041657785" lon="-8.010876788446147"><ele>346.0</ele><time>2026-04-03T15:51:40Z</time></trkpt><trkpt lat="42.392332767536324" lon="-8.010947633996587"><ele>345.8</ele><time>2026-04-03T15:51:42Z</time></trkpt><trkpt lat="42.39225090236795" lon="-8.011009157752952"><ele>345.6</ele><time>2026-04-03T15:51:44Z</time></trkpt><trkpt lat="42.392173278377726" lon="-8.0110682962239"><ele>345.4</ele><time>2026-04-03T15:51:46Z</time></trkpt><trkpt lat="42.392080020578796" lon="-8.011143523567497"><ele>345.2</ele><time>2026-04-03T15:51:48Z</time></trkpt><trkpt lat="42.39198770194662" lon="-8.011203128127265"><ele>345.0</ele><time>2026-04-03T15:51:50Z</time></trkpt><trkpt lat="42.39190017087217" lon="-8.011288703559593"><ele>344.2</ele><time>2026-04-03T15:51:52Z</time></trkpt><trkpt lat="42.39184397258045" lon="-8.01139460149153"><ele>343.4</ele><time>2026-04-03T15:51:54Z</time></trkpt><trkpt lat="42.39177691130466" lon="-8.011499640302544"><ele>342.6</ele><time>2026-04-03T15:51:56Z</time></trkpt><trkpt lat="42.39174061519197" lon="-8.011636889685509"><ele>341.8</ele><time>2026-04-03T15:51:58Z</time></trkpt><trkpt lat="42.3917109189715" lon="-8.011772247276786"><ele>341.0</ele><time>2026-04-03T15:52:00Z</time></trkpt><trkpt lat="42.39168178408433" lon="-8.011884556770609"><ele>340.5</ele><time>2026-04-03T15:52:02Z</time></trkpt><trkpt lat="42.391678409197304" lon="-8.012015591112135"><ele>340.0</ele><time>2026-04-03T15:52:04Z</time></trkpt><trkpt lat="42.39166093915947" lon="-8.012122950511177"><ele>339.5</ele><time>2026-04-03T15:52:06Z</time></trkpt><trkpt lat="42.39162813468261" lon="-8.01221824009771"><ele>339.0</ele><time>2026-04-03T15:52:08Z</time></trkpt><trkpt lat="42.39162070492481" lon="-8.012323253484892"><ele>338.5</ele><time>2026-04-03T15:52:10Z</time></trkpt><trkpt lat="42.391582618952" lon="-8.012468217049138"><ele>338.0</ele><time>2026-04-03T15:52:12Z</time></trkpt><trkpt lat="42.39154478162223" lon="-8.012617370314933"><ele>337.0</ele><time>2026-04-03T15:52:14Z</time></trkpt><trkpt lat="42.39153139336262" lon="-8.012703832835529"><ele>336.0</ele><time>2026-04-03T15:52:15Z</time></trkpt><trkpt lat="42.39150540744952" lon="-8.012782113517849"><ele>335.0</ele><time>2026-04-03T15:52:16Z</time></trkpt><trkpt lat="42.39147641811148" lon="-8.012869442282483"><ele>334.0</ele><time>2026-04-03T15:52:17Z</time></trkpt><trkpt lat="42.39141600932008" lon="-8.013051419932609"><ele>333.0</ele><time>2026-04-03T15:52:19Z</time></trkpt><trkpt lat="42.39138273471843" lon="-8.013149005937585"><ele>332.0</ele><time>2026-04-03T15:52:20Z</time></trkpt><trkpt lat="42.39134696749207" lon="-8.013250204213115"><ele>330.6666666666667</ele><time>2026-04-03T15:52:21Z</time></trkpt><trkpt lat="42.39131446567244" lon="-8.01333764842053"><ele>329.33333333333337</ele><time>2026-04-03T15:52:22Z</time></trkpt><trkpt lat="42.39127537984886" lon="-8.013439066450685"><ele>328.0</ele><time>2026-04-03T15:52:23Z</time></trkpt><trkpt lat="42.39122917666799" lon="-8.01352568496036"><ele>326.6666666666667</ele><time>2026-04-03T15:52:24Z</time></trkpt><trkpt lat="42.391183314800145" lon="-8.013623377332742"><ele>325.3333333333333</ele><time>2026-04-03T15:52:25Z</time></trkpt><trkpt lat="42.39113188675052" lon="-8.01372208589125"><ele>324.0</ele><time>2026-04-03T15:52:26Z</time></trkpt><trkpt lat="42.39107936677886" lon="-8.013794059625074"><ele>324.0</ele><time>2026-04-03T15:52:27Z</time></trkpt><trkpt lat="42.391022980641345" lon="-8.013886791932663"><ele>324.0</ele><time>2026-04-03T15:52:28Z</time></trkpt><trkpt lat="42.39097362267195" lon="-8.013970341895085"><ele>324.0</ele><time>2026-04-03T15:52:29Z</time></trkpt><trkpt lat="42.39092097991309" lon="-8.014060999904732"><ele>324.0</ele><time>2026-04-03T15:52:30Z</time></trkpt><trkpt lat="42.39085936975898" lon="-8.01413123351034"><ele>324.0</ele><time>2026-04-03T15:52:31Z</time></trkpt><trkpt lat="42.39080593200046" lon="-8.014217692896315"><ele>324.0</ele><time>2026-04-03T15:52:32Z</time></trkpt><trkpt lat="42.39075219618642" lon="-8.014287772602023"><ele>323.8333333333333</ele><time>2026-04-03T15:52:33Z</time></trkpt><trkpt lat="42.39069271103167" lon="-8.014353358548371"><ele>323.6666666666667</ele><time>2026-04-03T15:52:34Z</time></trkpt><trkpt lat="42.390642620509915" lon="-8.014412162081598"><ele>323.5</ele><time>2026-04-03T15:52:35Z</time></trkpt><trkpt lat="42.390589160610496" lon="-8.014480110515901"><ele>323.33333333333337</ele><time>2026-04-03T15:52:36Z</time></trkpt><trkpt lat="42.39053648661332" lon="-8.014554516395552"><ele>323.1666666666667</ele><time>2026-04-03T15:52:37Z</time></trkpt><trkpt lat="42.39047330094656" lon="-8.014627257186602"><ele>323.0</ele><time>2026-04-03T15:52:38Z</time></trkpt><trkpt lat="42.39041000301012" lon="-8.014699376171269"><ele>323.0</ele><time>2026-04-03T15:52:39Z</time></trkpt><trkpt lat="42.390352254806785" lon="-8.014767298493329"><ele>323.0</ele><time>2026-04-03T15:52:40Z</time></trkpt><trkpt lat="42.39028663982331" lon="-8.01483847997259"><ele>323.0</ele><time>2026-04-03T15:52:41Z</time></trkpt><trkpt lat="42.39022757481246" lon="-8.014905058753207"><ele>323.0</ele><time>2026-04-03T15:52:42Z</time></trkpt><trkpt lat="42.39015565355406" lon="-8.014958691926912"><ele>323.0</ele><time>2026-04-03T15:52:43Z</time></trkpt><trkpt lat="42.3900724720411" lon="-8.014993454668222"><ele>323.0</ele><time>2026-04-03T15:52:44Z</time></trkpt><trkpt lat="42.389992779203524" lon="-8.015003223650298"><ele>323.0</ele><time>2026-04-03T15:52:45Z</time></trkpt><trkpt lat="42.38990013464932" lon="-8.015000835079562"><ele>323.0</ele><time>2026-04-03T15:52:46Z</time></trkpt><trkpt lat="42.38981046867398" lon="-8.015007992986272"><ele>323.0</ele><time>2026-04-03T15:52:46.999Z</time></trkpt><trkpt lat="42.38973937892719" lon="-8.014951346923574"><ele>323.0</ele><time>2026-04-03T15:52:47.999Z</time></trkpt><trkpt lat="42.38967370198742" lon="-8.014924984851076"><ele>323.0</ele><time>2026-04-03T15:52:48.999Z</time></trkpt><trkpt lat="42.389571513731696" lon="-8.014840007888631"><ele>324.33333333333337</ele><time>2026-04-03T15:52:50.999Z</time></trkpt><trkpt lat="42.38950125402695" lon="-8.014776712798133"><ele>325.6666666666667</ele><time>2026-04-03T15:52:52.999Z</time></trkpt><trkpt lat="42.389444998872804" lon="-8.01472333307893"><ele>327.0</ele><time>2026-04-03T15:52:54.999Z</time></trkpt><trkpt lat="42.38936878834185" lon="-8.014649648543529"><ele>328.3333333333333</ele><time>2026-04-03T15:52:57Z</time></trkpt><trkpt lat="42.389317059400334" lon="-8.01459911410287"><ele>329.66666666666663</ele><time>2026-04-03T15:52:58Z</time></trkpt><trkpt lat="42.38923602437372" lon="-8.014518473138088"><ele>331.0</ele><time>2026-04-03T15:53:00Z</time></trkpt><trkpt lat="42.38917696484896" lon="-8.014468516529776"><ele>331.0</ele><time>2026-04-03T15:53:02Z</time></trkpt><trkpt lat="42.389079198732915" lon="-8.014445114662472"><ele>331.0</ele><time>2026-04-03T15:53:04Z</time></trkpt><trkpt lat="42.38901637172684" lon="-8.014457008134316"><ele>331.0</ele><time>2026-04-03T15:53:05Z</time></trkpt><trkpt lat="42.388945934212046" lon="-8.01445272507783"><ele>331.0</ele><time>2026-04-03T15:53:06Z</time></trkpt><trkpt lat="42.38887792900771" lon="-8.014465487784909"><ele>331.0</ele><time>2026-04-03T15:53:07Z</time></trkpt><trkpt lat="42.388771913304474" lon="-8.014488928980471"><ele>331.0</ele><time>2026-04-03T15:53:09Z</time></trkpt><trkpt lat="42.38871214881983" lon="-8.01452160170601"><ele>331.8333333333333</ele><time>2026-04-03T15:53:10Z</time></trkpt><trkpt lat="42.38865938990809" lon="-8.014587177561706"><ele>332.66666666666663</ele><time>2026-04-03T15:53:11Z</time></trkpt><trkpt lat="42.388602121449914" lon="-8.01463103087853"><ele>333.5</ele><time>2026-04-03T15:53:12Z</time></trkpt><trkpt lat="42.38856715353659" lon="-8.014716635846408"><ele>334.3333333333333</ele><time>2026-04-03T15:53:13Z</time></trkpt><trkpt lat="42.38845526895685" lon="-8.014773662857742"><ele>335.1666666666667</ele><time>2026-04-03T15:53:15Z</time></trkpt><trkpt lat="42.38833922848137" lon="-8.014779420951143"><ele>336.0</ele><time>2026-04-03T15:53:17Z</time></trkpt><trkpt lat="42.388261814917755" lon="-8.014815829585894"><ele>336.0</ele><time>2026-04-03T15:53:19Z</time></trkpt><trkpt lat="42.38821154169592" lon="-8.014870522372158"><ele>336.0</ele><time>2026-04-03T15:53:24Z</time></trkpt><trkpt lat="42.38813813104838" lon="-8.01493792598607"><ele>336.0</ele><time>2026-04-03T15:53:26Z</time></trkpt><trkpt lat="42.388067459781844" lon="-8.015007303192261"><ele>336.0</ele><time>2026-04-03T15:53:28Z</time></trkpt><trkpt lat="42.38800309765758" lon="-8.015091926696487"><ele>336.0</ele><time>2026-04-03T15:53:30Z</time></trkpt><trkpt lat="42.38794732308626" lon="-8.015218327192878"><ele>336.0</ele><time>2026-04-03T15:53:32Z</time></trkpt><trkpt lat="42.387906444645154" lon="-8.015359448693319"><ele>336.6</ele><time>2026-04-03T15:53:34Z</time></trkpt><trkpt lat="42.38787199337205" lon="-8.015451854327496"><ele>337.20000000000005</ele><time>2026-04-03T15:53:35Z</time></trkpt><trkpt lat="42.38783962054304" lon="-8.015533579781517"><ele>337.79999999999995</ele><time>2026-04-03T15:53:36Z</time></trkpt><trkpt lat="42.38779689037328" lon="-8.015636653189768"><ele>338.4</ele><time>2026-04-03T15:53:38Z</time></trkpt><trkpt lat="42.38779859338919" lon="-8.0157600858951"><ele>339.0</ele><time>2026-04-03T15:53:41Z</time></trkpt><trkpt lat="42.387887541097804" lon="-8.015898719768579"><ele>339.6666666666667</ele><time>2026-04-03T15:53:43Z</time></trkpt><trkpt lat="42.38794482584164" lon="-8.01599040058837"><ele>340.3333333333333</ele><time>2026-04-03T15:53:44Z</time></trkpt><trkpt lat="42.38798705553647" lon="-8.016086279578996"><ele>341.0</ele><time>2026-04-03T15:53:45Z</time></trkpt><trkpt lat="42.38801908651709" lon="-8.016194843263076"><ele>341.66666666666663</ele><time>2026-04-03T15:53:46Z</time></trkpt><trkpt lat="42.38803569236062" lon="-8.016304176290465"><ele>342.3333333333333</ele><time>2026-04-03T15:53:47Z</time></trkpt><trkpt lat="42.388068557524164" lon="-8.016416104255855"><ele>343.0</ele><time>2026-04-03T15:53:48Z</time></trkpt><trkpt lat="42.38811910527815" lon="-8.016517391881079"><ele>343.16666666666663</ele><time>2026-04-03T15:53:49Z</time></trkpt><trkpt lat="42.388185816497106" lon="-8.016602135894763"><ele>343.3333333333333</ele><time>2026-04-03T15:53:50Z</time></trkpt><trkpt lat="42.388252962745604" lon="-8.0166744040762"><ele>343.5</ele><time>2026-04-03T15:53:51Z</time></trkpt><trkpt lat="42.388295566493404" lon="-8.016746660232892"><ele>343.6666666666667</ele><time>2026-04-03T15:53:52Z</time></trkpt><trkpt lat="42.38832574355772" lon="-8.016823074268261"><ele>343.83333333333337</ele><time>2026-04-03T15:53:53Z</time></trkpt><trkpt lat="42.3883448559417" lon="-8.016907476484558"><ele>344.0</ele><time>2026-04-03T15:53:54Z</time></trkpt><trkpt lat="42.38831181182176" lon="-8.017013953431064"><ele>344.2</ele><time>2026-04-03T15:53:55Z</time></trkpt><trkpt lat="42.38828513393054" lon="-8.017124259497242"><ele>344.4</ele><time>2026-04-03T15:53:56Z</time></trkpt><trkpt lat="42.38828149085041" lon="-8.017237267364063"><ele>344.6</ele><time>2026-04-03T15:53:57Z</time></trkpt><trkpt lat="42.38827825361705" lon="-8.01736558753685"><ele>344.8</ele><time>2026-04-03T15:53:58Z</time></trkpt><trkpt lat="42.38827955253514" lon="-8.01750006053611"><ele>345.0</ele><time>2026-04-03T15:53:59Z</time></trkpt><trkpt lat="42.38828533258287" lon="-8.01761972904723"><ele>345.2</ele><time>2026-04-03T15:54:00Z</time></trkpt><trkpt lat="42.38828506827936" lon="-8.01776006071773"><ele>345.4</ele><time>2026-04-03T15:54:01Z</time></trkpt><trkpt lat="42.38830853770395" lon="-8.017885330008355"><ele>345.6</ele><time>2026-04-03T15:54:02Z</time></trkpt><trkpt lat="42.38833714399928" lon="-8.018000958226603"><ele>345.8</ele><time>2026-04-03T15:54:03Z</time></trkpt><trkpt lat="42.38836732803581" lon="-8.018120842442103"><ele>346.0</ele><time>2026-04-03T15:54:04Z</time></trkpt><trkpt lat="42.388398617013756" lon="-8.018224262391143"><ele>346.0</ele><time>2026-04-03T15:54:05Z</time></trkpt><trkpt lat="42.38843956476813" lon="-8.018303607537865"><ele>346.0</ele><time>2026-04-03T15:54:06Z</time></trkpt><trkpt lat="42.388504735853004" lon="-8.018334870304026"><ele>346.0</ele><time>2026-04-03T15:54:07Z</time></trkpt><trkpt lat="42.388565071162496" lon="-8.018390123744375"><ele>346.0</ele><time>2026-04-03T15:54:08Z</time></trkpt><trkpt lat="42.388630432376814" lon="-8.018419182775126"><ele>346.0</ele><time>2026-04-03T15:54:09Z</time></trkpt><trkpt lat="42.38870624756079" lon="-8.01845108696041"><ele>346.0</ele><time>2026-04-03T15:54:10Z</time></trkpt><trkpt lat="42.388796324010215" lon="-8.018507373799165"><ele>347.0</ele><time>2026-04-03T15:54:11Z</time></trkpt><trkpt lat="42.3888767881517" lon="-8.01855707194375"><ele>348.0</ele><time>2026-04-03T15:54:12Z</time></trkpt><trkpt lat="42.38895134704933" lon="-8.018633107031555"><ele>349.0</ele><time>2026-04-03T15:54:13Z</time></trkpt><trkpt lat="42.389008895789196" lon="-8.018725834840964"><ele>350.0</ele><time>2026-04-03T15:54:14Z</time></trkpt><trkpt lat="42.389054474418955" lon="-8.018824996267146"><ele>351.0</ele><time>2026-04-03T15:54:15Z</time></trkpt><trkpt lat="42.38908529364929" lon="-8.018940472050717"><ele>352.0</ele><time>2026-04-03T15:54:16Z</time></trkpt><trkpt lat="42.38912533009533" lon="-8.01904581793686"><ele>352.8333333333333</ele><time>2026-04-03T15:54:17Z</time></trkpt><trkpt lat="42.38914891299423" lon="-8.019167492835997"><ele>353.66666666666663</ele><time>2026-04-03T15:54:18Z</time></trkpt><trkpt lat="42.38916762503668" lon="-8.01927916371923"><ele>354.5</ele><time>2026-04-03T15:54:19Z</time></trkpt><trkpt lat="42.38918035800671" lon="-8.019383297797393"><ele>355.3333333333333</ele><time>2026-04-03T15:54:20Z</time></trkpt><trkpt lat="42.38919321834752" lon="-8.01951115956591"><ele>356.1666666666667</ele><time>2026-04-03T15:54:23Z</time></trkpt><trkpt lat="42.389217889019655" lon="-8.019631907166962"><ele>357.0</ele><time>2026-04-03T15:54:25Z</time></trkpt><trkpt lat="42.38923081312456" lon="-8.019720737155051"><ele>357.0</ele><time>2026-04-03T15:54:26Z</time></trkpt><trkpt lat="42.389272448814566" lon="-8.019799571731765"><ele>357.0</ele><time>2026-04-03T15:54:27Z</time></trkpt><trkpt lat="42.38931956278843" lon="-8.01986854981079"><ele>357.0</ele><time>2026-04-03T15:54:28Z</time></trkpt><trkpt lat="42.38936415661242" lon="-8.01995093280968"><ele>357.0</ele><time>2026-04-03T15:54:29Z</time></trkpt><trkpt lat="42.38941973829258" lon="-8.02005430386632"><ele>357.0</ele><time>2026-04-03T15:54:30Z</time></trkpt><trkpt lat="42.38946798421068" lon="-8.020164119819496"><ele>357.0</ele><time>2026-04-03T15:54:31Z</time></trkpt><trkpt lat="42.38950040296121" lon="-8.020298824901124"><ele>357.20000000000005</ele><time>2026-04-03T15:54:32Z</time></trkpt><trkpt lat="42.38954253719515" lon="-8.020440302781234"><ele>357.4</ele><time>2026-04-03T15:54:33Z</time></trkpt><trkpt lat="42.389574101515024" lon="-8.020574040543734"><ele>357.6</ele><time>2026-04-03T15:54:34Z</time></trkpt><trkpt lat="42.38960995441016" lon="-8.020701528709388"><ele>357.79999999999995</ele><time>2026-04-03T15:54:35Z</time></trkpt><trkpt lat="42.389660504808745" lon="-8.020803184433932"><ele>358.0</ele><time>2026-04-03T15:54:36Z</time></trkpt><trkpt lat="42.38972405572372" lon="-8.020882203984977"><ele>358.2</ele><time>2026-04-03T15:54:37Z</time></trkpt><trkpt lat="42.38980398314609" lon="-8.020962733272894"><ele>358.4</ele><time>2026-04-03T15:54:38Z</time></trkpt><trkpt lat="42.38987609666995" lon="-8.021053850478458"><ele>358.59999999999997</ele><time>2026-04-03T15:54:39Z</time></trkpt><trkpt lat="42.38995841709911" lon="-8.021125878466515"><ele>358.79999999999995</ele><time>2026-04-03T15:54:40Z</time></trkpt><trkpt lat="42.39003844606474" lon="-8.021197088489197"><ele>359.0</ele><time>2026-04-03T15:54:41Z</time></trkpt><trkpt lat="42.390125693989724" lon="-8.021289229102928"><ele>359.0</ele><time>2026-04-03T15:54:42Z</time></trkpt><trkpt lat="42.39018820389238" lon="-8.021359011954889"><ele>359.0</ele><time>2026-04-03T15:54:43Z</time></trkpt><trkpt lat="42.39025132984949" lon="-8.021428107105503"><ele>359.0</ele><time>2026-04-03T15:54:44Z</time></trkpt><trkpt lat="42.39028963859583" lon="-8.021501663921006"><ele>359.0</ele><time>2026-04-03T15:54:45Z</time></trkpt><trkpt lat="42.39030158417607" lon="-8.02159452672426"><ele>359.0</ele><time>2026-04-03T15:54:46Z</time></trkpt><trkpt lat="42.390298566923875" lon="-8.021702567369305"><ele>359.0</ele><time>2026-04-03T15:54:47Z</time></trkpt><trkpt lat="42.390279777142766" lon="-8.021823876883609"><ele>359.83333333333337</ele><time>2026-04-03T15:54:48Z</time></trkpt><trkpt lat="42.39025538785002" lon="-8.021940191564292"><ele>360.6666666666667</ele><time>2026-04-03T15:54:49Z</time></trkpt><trkpt lat="42.39025593186938" lon="-8.022069519435632"><ele>361.5</ele><time>2026-04-03T15:54:50Z</time></trkpt><trkpt lat="42.390253186430904" lon="-8.022184151232212"><ele>362.3333333333333</ele><time>2026-04-03T15:54:51Z</time></trkpt><trkpt lat="42.39026319652337" lon="-8.02229630444268"><ele>363.16666666666663</ele><time>2026-04-03T15:54:52Z</time></trkpt><trkpt lat="42.390279517479" lon="-8.022409138978285"><ele>364.0</ele><time>2026-04-03T15:54:52.999Z</time></trkpt><trkpt lat="42.39029618005714" lon="-8.022518689279098"><ele>365.0</ele><time>2026-04-03T15:54:53.999Z</time></trkpt><trkpt lat="42.39031719161957" lon="-8.022654342990554"><ele>366.0</ele><time>2026-04-03T15:54:54.999Z</time></trkpt><trkpt lat="42.39033290534684" lon="-8.022755792828324"><ele>367.0</ele><time>2026-04-03T15:54:55.999Z</time></trkpt><trkpt lat="42.3903382147494" lon="-8.022880057657165"><ele>368.0</ele><time>2026-04-03T15:54:56.999Z</time></trkpt><trkpt lat="42.3903646976989" lon="-8.023013075256788"><ele>369.0</ele><time>2026-04-03T15:54:57.999Z</time></trkpt><trkpt lat="42.39037666616181" lon="-8.023148739823384"><ele>369.0</ele><time>2026-04-03T15:54:58.999Z</time></trkpt><trkpt lat="42.39041171010831" lon="-8.023276175154008"><ele>369.0</ele><time>2026-04-03T15:54:59.999Z</time></trkpt><trkpt lat="42.39043816537754" lon="-8.023393393619212"><ele>369.0</ele><time>2026-04-03T15:55:00.999Z</time></trkpt><trkpt lat="42.39043585672771" lon="-8.023487752487416"><ele>369.0</ele><time>2026-04-03T15:55:01.999Z</time></trkpt><trkpt lat="42.390466477709666" lon="-8.023616100732758"><ele>369.0</ele><time>2026-04-03T15:55:04Z</time></trkpt><trkpt lat="42.390494631598095" lon="-8.023814926538272"><ele>369.6666666666667</ele><time>2026-04-03T15:55:06Z</time></trkpt><trkpt lat="42.39051422576469" lon="-8.02392978746601"><ele>370.3333333333333</ele><time>2026-04-03T15:55:07Z</time></trkpt><trkpt lat="42.39053970205513" lon="-8.024056645192331"><ele>371.0</ele><time>2026-04-03T15:55:08Z</time></trkpt><trkpt lat="42.39055413938256" lon="-8.024172832728794"><ele>371.66666666666663</ele><time>2026-04-03T15:55:09Z</time></trkpt><trkpt lat="42.39055699701973" lon="-8.02428198776539"><ele>372.3333333333333</ele><time>2026-04-03T15:55:10Z</time></trkpt><trkpt lat="42.390565267683776" lon="-8.024376959485886"><ele>373.0</ele><time>2026-04-03T15:55:11Z</time></trkpt><trkpt lat="42.39057513107177" lon="-8.024535302429674"><ele>373.16666666666663</ele><time>2026-04-03T15:55:13Z</time></trkpt><trkpt lat="42.39058813188115" lon="-8.024660729636594"><ele>373.3333333333333</ele><time>2026-04-03T15:55:15Z</time></trkpt><trkpt lat="42.39058196503366" lon="-8.024756803642163"><ele>373.5</ele><time>2026-04-03T15:55:18Z</time></trkpt><trkpt lat="42.3904502817959" lon="-8.02475770446344"><ele>373.6666666666667</ele><time>2026-04-03T15:55:20Z</time></trkpt><trkpt lat="42.39037415167754" lon="-8.024757778825144"><ele>373.83333333333337</ele><time>2026-04-03T15:55:21Z</time></trkpt><trkpt lat="42.39030038665873" lon="-8.024764290358492"><ele>374.0</ele><time>2026-04-03T15:55:22Z</time></trkpt><trkpt lat="42.390207851625604" lon="-8.024780650095897"><ele>374.2</ele><time>2026-04-03T15:55:23Z</time></trkpt><trkpt lat="42.39010500609393" lon="-8.024802856565262"><ele>374.4</ele><time>2026-04-03T15:55:24Z</time></trkpt><trkpt lat="42.390003764624204" lon="-8.024800102484422"><ele>374.6</ele><time>2026-04-03T15:55:25Z</time></trkpt><trkpt lat="42.38989627186308" lon="-8.024836189714456"><ele>374.8</ele><time>2026-04-03T15:55:26Z</time></trkpt><trkpt lat="42.3898000151115" lon="-8.024843262484625"><ele>375.0</ele><time>2026-04-03T15:55:27Z</time></trkpt><trkpt lat="42.389697226794155" lon="-8.024850613204421"><ele>374.2</ele><time>2026-04-03T15:55:28Z</time></trkpt><trkpt lat="42.38959567843588" lon="-8.024851745838484"><ele>373.4</ele><time>2026-04-03T15:55:29Z</time></trkpt><trkpt lat="42.38948812709593" lon="-8.024860160561696"><ele>372.6</ele><time>2026-04-03T15:55:30Z</time></trkpt><trkpt lat="42.38938746976599" lon="-8.024863062095122"><ele>371.8</ele><time>2026-04-03T15:55:31Z</time></trkpt><trkpt lat="42.38928380898298" lon="-8.024872050947947"><ele>371.0</ele><time>2026-04-03T15:55:32Z</time></trkpt><trkpt lat="42.389188846987835" lon="-8.024911197031368"><ele>371.0</ele><time>2026-04-03T15:55:33Z</time></trkpt><trkpt lat="42.38908708770251" lon="-8.024938717891093"><ele>371.0</ele><time>2026-04-03T15:55:34Z</time></trkpt><trkpt lat="42.38898571225168" lon="-8.024962423699316"><ele>371.0</ele><time>2026-04-03T15:55:35Z</time></trkpt><trkpt lat="42.388881838230255" lon="-8.024964701872122"><ele>371.0</ele><time>2026-04-03T15:55:36Z</time></trkpt><trkpt lat="42.38878093779025" lon="-8.024998942579643"><ele>371.0</ele><time>2026-04-03T15:55:37Z</time></trkpt><trkpt lat="42.38867392027912" lon="-8.025014055890264"><ele>370.4</ele><time>2026-04-03T15:55:38Z</time></trkpt><trkpt lat="42.3885683546048" lon="-8.025028813839524"><ele>369.8</ele><time>2026-04-03T15:55:39Z</time></trkpt><trkpt lat="42.38846694408666" lon="-8.025049373264675"><ele>369.2</ele><time>2026-04-03T15:55:40Z</time></trkpt><trkpt lat="42.388372530036605" lon="-8.025067138573949"><ele>368.59999999999997</ele><time>2026-04-03T15:55:41Z</time></trkpt><trkpt lat="42.38826599495636" lon="-8.025061694574704"><ele>368.0</ele><time>2026-04-03T15:55:42Z</time></trkpt><trkpt lat="42.38816818866182" lon="-8.025039529813528"><ele>368.0</ele><time>2026-04-03T15:55:43Z</time></trkpt><trkpt lat="42.38805665551931" lon="-8.025006213514299"><ele>368.0</ele><time>2026-04-03T15:55:44Z</time></trkpt><trkpt lat="42.38794731923927" lon="-8.024963069245045"><ele>368.0</ele><time>2026-04-03T15:55:45Z</time></trkpt><trkpt lat="42.38783377526404" lon="-8.02493162376658"><ele>368.0</ele><time>2026-04-03T15:55:46Z</time></trkpt><trkpt lat="42.38773439125146" lon="-8.024916810044436"><ele>368.0</ele><time>2026-04-03T15:55:47Z</time></trkpt><trkpt lat="42.38763187072783" lon="-8.02487967780488"><ele>367.4</ele><time>2026-04-03T15:55:48Z</time></trkpt><trkpt lat="42.38753543228159" lon="-8.024849351967843"><ele>366.79999999999995</ele><time>2026-04-03T15:55:49Z</time></trkpt><trkpt lat="42.38745442763092" lon="-8.024806570373153"><ele>366.2</ele><time>2026-04-03T15:55:50Z</time></trkpt><trkpt lat="42.38737525327438" lon="-8.02478182414843"><ele>365.6</ele><time>2026-04-03T15:55:51Z</time></trkpt><trkpt lat="42.38726789097391" lon="-8.0247479042707"><ele>365.0</ele><time>2026-04-03T15:55:52Z</time></trkpt><trkpt lat="42.387176563186095" lon="-8.024746363968323"><ele>364.6666666666667</ele><time>2026-04-03T15:55:53Z</time></trkpt><trkpt lat="42.387089214556866" lon="-8.024760075721275"><ele>364.33333333333337</ele><time>2026-04-03T15:55:54Z</time></trkpt><trkpt lat="42.38698877490371" lon="-8.024792292722154"><ele>364.0</ele><time>2026-04-03T15:55:55Z</time></trkpt><trkpt lat="42.38691330090214" lon="-8.024825277064677"><ele>363.6666666666667</ele><time>2026-04-03T15:55:56Z</time></trkpt><trkpt lat="42.38683697399415" lon="-8.024841884550538"><ele>363.3333333333333</ele><time>2026-04-03T15:55:57Z</time></trkpt><trkpt lat="42.3867558387472" lon="-8.02483789858462"><ele>363.0</ele><time>2026-04-03T15:55:58Z</time></trkpt><trkpt lat="42.38666194876834" lon="-8.024832431960373"><ele>363.0</ele><time>2026-04-03T15:55:59Z</time></trkpt><trkpt lat="42.38656256976186" lon="-8.02479913031778"><ele>363.0</ele><time>2026-04-03T15:56:00Z</time></trkpt><trkpt lat="42.386459537027974" lon="-8.024766659279065"><ele>363.0</ele><time>2026-04-03T15:56:01Z</time></trkpt><trkpt lat="42.38635300379977" lon="-8.024758046752309"><ele>363.0</ele><time>2026-04-03T15:56:02Z</time></trkpt><trkpt lat="42.38625372110176" lon="-8.024744251224833"><ele>363.0</ele><time>2026-04-03T15:56:03Z</time></trkpt><trkpt lat="42.386156514690114" lon="-8.024794288483688"><ele>362.59999999999997</ele><time>2026-04-03T15:56:04Z</time></trkpt><trkpt lat="42.386076461655755" lon="-8.024852331325407"><ele>362.2</ele><time>2026-04-03T15:56:05Z</time></trkpt><trkpt lat="42.38599601627452" lon="-8.02492242686193"><ele>361.8</ele><time>2026-04-03T15:56:06Z</time></trkpt><trkpt lat="42.38590474073449" lon="-8.024998881299386"><ele>361.4</ele><time>2026-04-03T15:56:07Z</time></trkpt><trkpt lat="42.385808634224176" lon="-8.025110936070904"><ele>361.0</ele><time>2026-04-03T15:56:08Z</time></trkpt><trkpt lat="42.38570918837936" lon="-8.025235729621077"><ele>361.0</ele><time>2026-04-03T15:56:09Z</time></trkpt><trkpt lat="42.38560427933201" lon="-8.025357850849442"><ele>361.0</ele><time>2026-04-03T15:56:10Z</time></trkpt><trkpt lat="42.38550825095844" lon="-8.025469618184209"><ele>361.0</ele><time>2026-04-03T15:56:11Z</time></trkpt><trkpt lat="42.38541932782104" lon="-8.025574011735548"><ele>361.0</ele><time>2026-04-03T15:56:12Z</time></trkpt><trkpt lat="42.38534193987868" lon="-8.025685993186304"><ele>361.0</ele><time>2026-04-03T15:56:13Z</time></trkpt><trkpt lat="42.385261225038136" lon="-8.025780755089864"><ele>361.0</ele><time>2026-04-03T15:56:14Z</time></trkpt><trkpt lat="42.38520237422551" lon="-8.025867061935893"><ele>361.0</ele><time>2026-04-03T15:56:15Z</time></trkpt><trkpt lat="42.38513894623961" lon="-8.025945046697261"><ele>361.0</ele><time>2026-04-03T15:56:16Z</time></trkpt><trkpt lat="42.38507774918604" lon="-8.026006745557277"><ele>361.0</ele><time>2026-04-03T15:56:17Z</time></trkpt><trkpt lat="42.38501512210499" lon="-8.026058108093505"><ele>361.0</ele><time>2026-04-03T15:56:18Z</time></trkpt><trkpt lat="42.38495775579793" lon="-8.026102281013609"><ele>361.0</ele><time>2026-04-03T15:56:19Z</time></trkpt><trkpt lat="42.38489908341958" lon="-8.026144680176982"><ele>361.0</ele><time>2026-04-03T15:56:20Z</time></trkpt><trkpt lat="42.38484479261609" lon="-8.026205444105452"><ele>361.0</ele><time>2026-04-03T15:56:21Z</time></trkpt><trkpt lat="42.38477711697957" lon="-8.026252047112438"><ele>361.0</ele><time>2026-04-03T15:56:22Z</time></trkpt><trkpt lat="42.38470771083899" lon="-8.026292849739864"><ele>361.0</ele><time>2026-04-03T15:56:23Z</time></trkpt><trkpt lat="42.38463310771158" lon="-8.026340087052716"><ele>361.0</ele><time>2026-04-03T15:56:25Z</time></trkpt><trkpt lat="42.38458380089582" lon="-8.026395214535988"><ele>361.0</ele><time>2026-04-03T15:56:27Z</time></trkpt><trkpt lat="42.38451410944689" lon="-8.026489767047863"><ele>360.0</ele><time>2026-04-03T15:56:29Z</time></trkpt><trkpt lat="42.38446822330049" lon="-8.026630626883245"><ele>359.0</ele><time>2026-04-03T15:56:31Z</time></trkpt><trkpt lat="42.38444281701909" lon="-8.02677788884495"><ele>358.0</ele><time>2026-04-03T15:56:33Z</time></trkpt><trkpt lat="42.38440656154781" lon="-8.026910921791844"><ele>357.0</ele><time>2026-04-03T15:56:35Z</time></trkpt><trkpt lat="42.38436965225441" lon="-8.027042429665263"><ele>356.0</ele><time>2026-04-03T15:56:37Z</time></trkpt><trkpt lat="42.384372078251104" lon="-8.027183500698301"><ele>355.8</ele><time>2026-04-03T15:56:39Z</time></trkpt><trkpt lat="42.38436641382679" lon="-8.027327130727826"><ele>355.6</ele><time>2026-04-03T15:56:41Z</time></trkpt><trkpt lat="42.38434779994133" lon="-8.027443053255885"><ele>355.4</ele><time>2026-04-03T15:56:43Z</time></trkpt><trkpt lat="42.3843861921781" lon="-8.027563976115774"><ele>355.2</ele><time>2026-04-03T15:56:47Z</time></trkpt><trkpt lat="42.38441567489465" lon="-8.027660085817258"><ele>355.0</ele><time>2026-04-03T15:56:49Z</time></trkpt><trkpt lat="42.38442092716604" lon="-8.027783599962769"><ele>354.4</ele><time>2026-04-03T15:56:51Z</time></trkpt><trkpt lat="42.38439436530653" lon="-8.027919252222294"><ele>353.8</ele><time>2026-04-03T15:56:53Z</time></trkpt><trkpt lat="42.38440014017113" lon="-8.02800622709757"><ele>353.20000000000005</ele><time>2026-04-03T15:56:55Z</time></trkpt><trkpt lat="42.38447248413197" lon="-8.028107903607042"><ele>352.6</ele><time>2026-04-03T15:56:57Z</time></trkpt><trkpt lat="42.38453583575845" lon="-8.028208174362483"><ele>352.0</ele><time>2026-04-03T15:56:58.999Z</time></trkpt><trkpt lat="42.38479489547899" lon="-8.028451675830228"><ele>351.8</ele><time>2026-04-03T15:59:47.001Z</time></trkpt><trkpt lat="42.38489017143905" lon="-8.028481872873604"><ele>351.6</ele><time>2026-04-03T15:59:49.001Z</time></trkpt><trkpt lat="42.384982925785714" lon="-8.028502366549699"><ele>351.40000000000003</ele><time>2026-04-03T15:59:51.001Z</time></trkpt><trkpt lat="42.38506035016331" lon="-8.028544779459793"><ele>351.20000000000005</ele><time>2026-04-03T15:59:53.001Z</time></trkpt><trkpt lat="42.38512165592775" lon="-8.02863439495926"><ele>351.0</ele><time>2026-04-03T15:59:55.001Z</time></trkpt><trkpt lat="42.385104841987705" lon="-8.028785501095603"><ele>351.0</ele><time>2026-04-03T15:59:57.001Z</time></trkpt><trkpt lat="42.385103616958055" lon="-8.028910625522116"><ele>351.0</ele><time>2026-04-03T15:59:59.001Z</time></trkpt><trkpt lat="42.38511235057411" lon="-8.02903815495347"><ele>351.0</ele><time>2026-04-03T16:00:01.001Z</time></trkpt><trkpt lat="42.38510873162633" lon="-8.029159963619755"><ele>351.0</ele><time>2026-04-03T16:00:03.001Z</time></trkpt><trkpt lat="42.38512375100194" lon="-8.02929592247679"><ele>351.0</ele><time>2026-04-03T16:00:05.001Z</time></trkpt><trkpt lat="42.38513877244498" lon="-8.029434484210055"><ele>350.5</ele><time>2026-04-03T16:00:07.001Z</time></trkpt><trkpt lat="42.38514360105374" lon="-8.029556034455078"><ele>350.0</ele><time>2026-04-03T16:00:09.001Z</time></trkpt><trkpt lat="42.385146238470924" lon="-8.029696122112133"><ele>349.5</ele><time>2026-04-03T16:00:11.001Z</time></trkpt><trkpt lat="42.38516152942947" lon="-8.029807888762909"><ele>349.0</ele><time>2026-04-03T16:00:13.001Z</time></trkpt><trkpt lat="42.385146059429175" lon="-8.029939415674766"><ele>348.5</ele><time>2026-04-03T16:00:16.001Z</time></trkpt><trkpt lat="42.38512748401794" lon="-8.030030714501219"><ele>348.0</ele><time>2026-04-03T16:00:18.001Z</time></trkpt><trkpt lat="42.38509236642967" lon="-8.030155058364988"><ele>347.5</ele><time>2026-04-03T16:00:20.001Z</time></trkpt><trkpt lat="42.38504840641039" lon="-8.030291325431737"><ele>347.0</ele><time>2026-04-03T16:00:22.001Z</time></trkpt><trkpt lat="42.385015201921824" lon="-8.030367643905617"><ele>346.5</ele><time>2026-04-03T16:00:23.001Z</time></trkpt><trkpt lat="42.38497337381292" lon="-8.030465788647684"><ele>346.0</ele><time>2026-04-03T16:00:24.001Z</time></trkpt><trkpt lat="42.384926897925865" lon="-8.030570873423024"><ele>345.5</ele><time>2026-04-03T16:00:25.001Z</time></trkpt><trkpt lat="42.38489002603232" lon="-8.030661093748511"><ele>345.0</ele><time>2026-04-03T16:00:26.001Z</time></trkpt><trkpt lat="42.38485688501217" lon="-8.030752029160208"><ele>343.5</ele><time>2026-04-03T16:00:27.001Z</time></trkpt><trkpt lat="42.384824763096" lon="-8.030828047396318"><ele>342.0</ele><time>2026-04-03T16:00:28.001Z</time></trkpt><trkpt lat="42.384791568703996" lon="-8.030904900774663"><ele>340.5</ele><time>2026-04-03T16:00:29.001Z</time></trkpt><trkpt lat="42.38475236669931" lon="-8.030975957984001"><ele>339.0</ele><time>2026-04-03T16:00:30.001Z</time></trkpt><trkpt lat="42.384691374053915" lon="-8.031108258022174"><ele>337.5</ele><time>2026-04-03T16:00:32.001Z</time></trkpt><trkpt lat="42.384623207271915" lon="-8.031218327003463"><ele>336.0</ele><time>2026-04-03T16:00:34.001Z</time></trkpt><trkpt lat="42.38457443239825" lon="-8.031358584701119"><ele>334.8</ele><time>2026-04-03T16:00:36.001Z</time></trkpt><trkpt lat="42.38451560358609" lon="-8.031486895798835"><ele>333.6</ele><time>2026-04-03T16:00:38.001Z</time></trkpt><trkpt lat="42.38446528373348" lon="-8.03161223289562"><ele>332.4</ele><time>2026-04-03T16:00:40.001Z</time></trkpt><trkpt lat="42.38442746393021" lon="-8.03170297087784"><ele>331.2</ele><time>2026-04-03T16:00:42.001Z</time></trkpt><trkpt lat="42.384450122276824" lon="-8.031797310399503"><ele>330.0</ele><time>2026-04-03T16:00:44.001Z</time></trkpt><trkpt lat="42.38442396223421" lon="-8.03191651095999"><ele>329.5</ele><time>2026-04-03T16:00:46.001Z</time></trkpt><trkpt lat="42.38443619861871" lon="-8.03201291997472"><ele>329.0</ele><time>2026-04-03T16:00:48.001Z</time></trkpt><trkpt lat="42.38438188707773" lon="-8.032104706421395"><ele>328.5</ele><time>2026-04-03T16:00:51.001Z</time></trkpt><trkpt lat="42.3843115628356" lon="-8.032161131361454"><ele>328.0</ele><time>2026-04-03T16:00:53.001Z</time></trkpt><trkpt lat="42.38424789445457" lon="-8.032183342686471"><ele>327.5</ele><time>2026-04-03T16:00:54.001Z</time></trkpt><trkpt lat="42.38416702060565" lon="-8.03222703205016"><ele>327.0</ele><time>2026-04-03T16:00:55.001Z</time></trkpt><trkpt lat="42.38410711530797" lon="-8.032307366447863"><ele>327.0</ele><time>2026-04-03T16:00:56.001Z</time></trkpt><trkpt lat="42.38407043904251" lon="-8.032385547953208"><ele>327.0</ele><time>2026-04-03T16:00:57.001Z</time></trkpt><trkpt lat="42.384023536312874" lon="-8.032464806026285"><ele>327.0</ele><time>2026-04-03T16:00:58.001Z</time></trkpt><trkpt lat="42.38396723330153" lon="-8.032550920851536"><ele>327.0</ele><time>2026-04-03T16:00:59.001Z</time></trkpt><trkpt lat="42.38389325233128" lon="-8.032649172331896"><ele>327.0</ele><time>2026-04-03T16:01:00.001Z</time></trkpt><trkpt lat="42.38384550189239" lon="-8.032773985409865"><ele>327.0</ele><time>2026-04-03T16:01:01.001Z</time></trkpt><trkpt lat="42.38381631002508" lon="-8.032891510584628"><ele>328.0</ele><time>2026-04-03T16:01:02.001Z</time></trkpt><trkpt lat="42.3838058862244" lon="-8.03299183534549"><ele>329.0</ele><time>2026-04-03T16:01:03.001Z</time></trkpt><trkpt lat="42.383805887728215" lon="-8.033140668381305"><ele>330.0</ele><time>2026-04-03T16:01:05.001Z</time></trkpt><trkpt lat="42.383822153197194" lon="-8.033232255644977"><ele>331.0</ele><time>2026-04-03T16:01:06.001Z</time></trkpt><trkpt lat="42.383841503880944" lon="-8.033333773334592"><ele>332.0</ele><time>2026-04-03T16:01:07.001Z</time></trkpt><trkpt lat="42.38385170928756" lon="-8.033423953218398"><ele>333.0</ele><time>2026-04-03T16:01:08.001Z</time></trkpt><trkpt lat="42.383858747014145" lon="-8.033560281182467"><ele>335.0</ele><time>2026-04-03T16:01:09.001Z</time></trkpt><trkpt lat="42.38383512247262" lon="-8.03367565562404"><ele>337.0</ele><time>2026-04-03T16:01:10.001Z</time></trkpt><trkpt lat="42.38378503619631" lon="-8.033796656107576"><ele>339.0</ele><time>2026-04-03T16:01:11.001Z</time></trkpt><trkpt lat="42.383761863314014" lon="-8.033917308564762"><ele>341.0</ele><time>2026-04-03T16:01:12.001Z</time></trkpt><trkpt lat="42.38371011300949" lon="-8.034018137987667"><ele>343.0</ele><time>2026-04-03T16:01:13.001Z</time></trkpt><trkpt lat="42.38365019619835" lon="-8.034112578985178"><ele>343.66666666666663</ele><time>2026-04-03T16:01:14.001Z</time></trkpt><trkpt lat="42.38359118928081" lon="-8.034186596192196"><ele>344.3333333333333</ele><time>2026-04-03T16:01:15.001Z</time></trkpt><trkpt lat="42.383522275091835" lon="-8.034265074108829"><ele>345.0</ele><time>2026-04-03T16:01:16.001Z</time></trkpt><trkpt lat="42.38345513716984" lon="-8.034334794769174"><ele>345.6666666666667</ele><time>2026-04-03T16:01:17.001Z</time></trkpt><trkpt lat="42.38339245005059" lon="-8.034382512627726"><ele>346.33333333333337</ele><time>2026-04-03T16:01:18.001Z</time></trkpt><trkpt lat="42.38333197510472" lon="-8.034421690808173"><ele>347.0</ele><time>2026-04-03T16:01:19.001Z</time></trkpt><trkpt lat="42.38327201036311" lon="-8.034481540325945"><ele>347.0</ele><time>2026-04-03T16:01:20.001Z</time></trkpt><trkpt lat="42.383212147441895" lon="-8.034531406263264"><ele>347.0</ele><time>2026-04-03T16:01:21.001Z</time></trkpt><trkpt lat="42.38315328573517" lon="-8.034580610041566"><ele>347.0</ele><time>2026-04-03T16:01:22.001Z</time></trkpt><trkpt lat="42.38309670214586" lon="-8.034628008357698"><ele>347.0</ele><time>2026-04-03T16:01:23.001Z</time></trkpt><trkpt lat="42.38300585262309" lon="-8.034714252293485"><ele>347.0</ele><time>2026-04-03T16:01:25.001Z</time></trkpt><trkpt lat="42.38296326459628" lon="-8.0347907702121"><ele>347.0</ele><time>2026-04-03T16:01:27.001Z</time></trkpt><trkpt lat="42.382963153309625" lon="-8.034908649535833"><ele>348.1666666666667</ele><time>2026-04-03T16:01:29.001Z</time></trkpt><trkpt lat="42.38298287531952" lon="-8.035039748675018"><ele>349.33333333333337</ele><time>2026-04-03T16:01:30.001Z</time></trkpt><trkpt lat="42.38301390804805" lon="-8.035164153246422"><ele>350.5</ele><time>2026-04-03T16:01:31.001Z</time></trkpt><trkpt lat="42.38304017186971" lon="-8.035275403774156"><ele>351.6666666666667</ele><time>2026-04-03T16:01:32.001Z</time></trkpt><trkpt lat="42.38303989355142" lon="-8.035369830258352"><ele>352.8333333333333</ele><time>2026-04-03T16:01:33.001Z</time></trkpt><trkpt lat="42.38302671372358" lon="-8.035497514756766"><ele>354.0</ele><time>2026-04-03T16:01:34.001Z</time></trkpt><trkpt lat="42.383019434501165" lon="-8.03561415283471"><ele>354.1666666666667</ele><time>2026-04-03T16:01:35.001Z</time></trkpt><trkpt lat="42.38300795766606" lon="-8.035723633618302"><ele>354.3333333333333</ele><time>2026-04-03T16:01:36.001Z</time></trkpt><trkpt lat="42.38300372374895" lon="-8.035816217266666"><ele>354.5</ele><time>2026-04-03T16:01:37.001Z</time></trkpt><trkpt lat="42.38300791383032" lon="-8.035910443632162"><ele>354.66666666666663</ele><time>2026-04-03T16:01:38.001Z</time></trkpt><trkpt lat="42.38303174333605" lon="-8.036004339449013"><ele>354.8333333333333</ele><time>2026-04-03T16:01:39.001Z</time></trkpt><trkpt lat="42.383054901348295" lon="-8.036112129365865"><ele>355.0</ele><time>2026-04-03T16:01:40.001Z</time></trkpt><trkpt lat="42.38310190538356" lon="-8.0362216985615"><ele>356.0</ele><time>2026-04-03T16:01:41.001Z</time></trkpt><trkpt lat="42.383141298156175" lon="-8.036312669290766"><ele>357.0</ele><time>2026-04-03T16:01:42.001Z</time></trkpt><trkpt lat="42.38318289601914" lon="-8.036409343843513"><ele>358.0</ele><time>2026-04-03T16:01:43Z</time></trkpt><trkpt lat="42.38322603779836" lon="-8.036515295995638"><ele>359.0</ele><time>2026-04-03T16:01:44Z</time></trkpt><trkpt lat="42.3832735881238" lon="-8.036618885454583"><ele>360.0</ele><time>2026-04-03T16:01:45Z</time></trkpt><trkpt lat="42.38334638436088" lon="-8.036696729006485"><ele>361.0</ele><time>2026-04-03T16:01:46Z</time></trkpt><trkpt lat="42.383410079065165" lon="-8.036757560202785"><ele>361.8333333333333</ele><time>2026-04-03T16:01:47Z</time></trkpt><trkpt lat="42.383487777045175" lon="-8.036797220931145"><ele>362.66666666666663</ele><time>2026-04-03T16:01:48Z</time></trkpt><trkpt lat="42.38354354894673" lon="-8.036861266749534"><ele>363.5</ele><time>2026-04-03T16:01:49Z</time></trkpt><trkpt lat="42.38361169636611" lon="-8.036926719022281"><ele>364.3333333333333</ele><time>2026-04-03T16:01:50Z</time></trkpt><trkpt lat="42.38365694561168" lon="-8.037008151637064"><ele>365.1666666666667</ele><time>2026-04-03T16:01:51Z</time></trkpt><trkpt lat="42.383687568978964" lon="-8.03708461711576"><ele>366.0</ele><time>2026-04-03T16:01:52Z</time></trkpt><trkpt lat="42.38373396446856" lon="-8.03720264711016"><ele>366.0</ele><time>2026-04-03T16:01:54Z</time></trkpt><trkpt lat="42.38378954618012" lon="-8.037311641680693"><ele>366.0</ele><time>2026-04-03T16:01:56Z</time></trkpt><trkpt lat="42.38383706372204" lon="-8.037413671412615"><ele>366.0</ele><time>2026-04-03T16:01:58Z</time></trkpt><trkpt lat="42.383882394596505" lon="-8.037497939315664"><ele>366.0</ele><time>2026-04-03T16:02:00Z</time></trkpt><trkpt lat="42.38393928284781" lon="-8.037578510404868"><ele>366.0</ele><time>2026-04-03T16:02:03Z</time></trkpt><trkpt lat="42.38397448887424" lon="-8.037652124804055"><ele>366.0</ele><time>2026-04-03T16:02:06Z</time></trkpt><trkpt lat="42.38403119957008" lon="-8.037748841551306"><ele>366.4</ele><time>2026-04-03T16:02:08Z</time></trkpt><trkpt lat="42.384118501947945" lon="-8.037833224286512"><ele>366.8</ele><time>2026-04-03T16:02:10Z</time></trkpt><trkpt lat="42.384176962382135" lon="-8.037949133173699"><ele>367.2</ele><time>2026-04-03T16:02:12Z</time></trkpt><trkpt lat="42.384214253910194" lon="-8.03807642635026"><ele>367.59999999999997</ele><time>2026-04-03T16:02:14Z</time></trkpt><trkpt lat="42.384255496474644" lon="-8.038154412477462"><ele>368.0</ele><time>2026-04-03T16:02:17Z</time></trkpt><trkpt lat="42.384372055692026" lon="-8.03820570715127"><ele>368.0</ele><time>2026-04-03T16:02:21Z</time></trkpt><trkpt lat="42.38443343455043" lon="-8.038225996676271"><ele>368.0</ele><time>2026-04-03T16:02:22Z</time></trkpt><trkpt lat="42.38447415258295" lon="-8.038291300001992"><ele>368.0</ele><time>2026-04-03T16:02:23Z</time></trkpt><trkpt lat="42.384516071133" lon="-8.038372672917664"><ele>368.0</ele><time>2026-04-03T16:02:24Z</time></trkpt><trkpt lat="42.38456252156807" lon="-8.038449749158307"><ele>368.0</ele><time>2026-04-03T16:02:25Z</time></trkpt><trkpt lat="42.38461102747094" lon="-8.038525874684527"><ele>368.0</ele><time>2026-04-03T16:02:26Z</time></trkpt><trkpt lat="42.384664608140504" lon="-8.038599673168436"><ele>368.0</ele><time>2026-04-03T16:02:27Z</time></trkpt><trkpt lat="42.38472645359853" lon="-8.038651270886955"><ele>368.59999999999997</ele><time>2026-04-03T16:02:28Z</time></trkpt><trkpt lat="42.3847764439308" lon="-8.038712694130185"><ele>369.2</ele><time>2026-04-03T16:02:29Z</time></trkpt><trkpt lat="42.3848621310812" lon="-8.038812800559427"><ele>369.8</ele><time>2026-04-03T16:02:31Z</time></trkpt><trkpt lat="42.38496239781203" lon="-8.038881397264484"><ele>370.4</ele><time>2026-04-03T16:02:33Z</time></trkpt><trkpt lat="42.38509128081737" lon="-8.038861957743405"><ele>371.0</ele><time>2026-04-03T16:02:35Z</time></trkpt><trkpt lat="42.385157879814244" lon="-8.038823568179746"><ele>371.0</ele><time>2026-04-03T16:02:36Z</time></trkpt><trkpt lat="42.385219470721346" lon="-8.038787028191114"><ele>371.0</ele><time>2026-04-03T16:02:37Z</time></trkpt><trkpt lat="42.38528648357483" lon="-8.038744245742874"><ele>371.0</ele><time>2026-04-03T16:02:38Z</time></trkpt><trkpt lat="42.38535276747313" lon="-8.038708489169558"><ele>371.0</ele><time>2026-04-03T16:02:39Z</time></trkpt><trkpt lat="42.38541860796914" lon="-8.038673156361872"><ele>371.0</ele><time>2026-04-03T16:02:40Z</time></trkpt><trkpt lat="42.38548101515598" lon="-8.038653898988146"><ele>371.0</ele><time>2026-04-03T16:02:41Z</time></trkpt><trkpt lat="42.38554970830052" lon="-8.038636207557815"><ele>371.0</ele><time>2026-04-03T16:02:42Z</time></trkpt><trkpt lat="42.38562183940013" lon="-8.03862300721805"><ele>370.6666666666667</ele><time>2026-04-03T16:02:43Z</time></trkpt><trkpt lat="42.3856952092241" lon="-8.038611573377525"><ele>370.33333333333337</ele><time>2026-04-03T16:02:44Z</time></trkpt><trkpt lat="42.38577898741047" lon="-8.038601502974833"><ele>370.0</ele><time>2026-04-03T16:02:45Z</time></trkpt><trkpt lat="42.3858663598893" lon="-8.038625205225202"><ele>369.6666666666667</ele><time>2026-04-03T16:02:46Z</time></trkpt><trkpt lat="42.38594151441977" lon="-8.038666906901588"><ele>369.3333333333333</ele><time>2026-04-03T16:02:47Z</time></trkpt><trkpt lat="42.386020065630916" lon="-8.038716972630743"><ele>369.0</ele><time>2026-04-03T16:02:48Z</time></trkpt><trkpt lat="42.3860911924002" lon="-8.038766131254578"><ele>369.0</ele><time>2026-04-03T16:02:49Z</time></trkpt><trkpt lat="42.38616988901946" lon="-8.038835653194138"><ele>369.0</ele><time>2026-04-03T16:02:50Z</time></trkpt><trkpt lat="42.38623630894993" lon="-8.038921095951768"><ele>369.0</ele><time>2026-04-03T16:02:51Z</time></trkpt><trkpt lat="42.38628974446959" lon="-8.039007465073286"><ele>369.0</ele><time>2026-04-03T16:02:52Z</time></trkpt><trkpt lat="42.38634354745879" lon="-8.03909661975756"><ele>369.0</ele><time>2026-04-03T16:02:53Z</time></trkpt><trkpt lat="42.386400161237674" lon="-8.039179045921383"><ele>369.0</ele><time>2026-04-03T16:02:54Z</time></trkpt><trkpt lat="42.386459690698416" lon="-8.039253302065273"><ele>369.3333333333333</ele><time>2026-04-03T16:02:55Z</time></trkpt><trkpt lat="42.38653339086471" lon="-8.039307108500612"><ele>369.6666666666667</ele><time>2026-04-03T16:02:56Z</time></trkpt><trkpt lat="42.386606039775074" lon="-8.039342782486857"><ele>370.0</ele><time>2026-04-03T16:02:57Z</time></trkpt><trkpt lat="42.38668608467315" lon="-8.03937617135037"><ele>370.33333333333337</ele><time>2026-04-03T16:02:58Z</time></trkpt><trkpt lat="42.38675119386542" lon="-8.039400776321163"><ele>370.6666666666667</ele><time>2026-04-03T16:02:59Z</time></trkpt><trkpt lat="42.386830828382024" lon="-8.039427983426561"><ele>371.0</ele><time>2026-04-03T16:03:00Z</time></trkpt><trkpt lat="42.386912000549835" lon="-8.039465162336015"><ele>371.0</ele><time>2026-04-03T16:03:01Z</time></trkpt><trkpt lat="42.386994843666855" lon="-8.039501398847767"><ele>371.0</ele><time>2026-04-03T16:03:02Z</time></trkpt><trkpt lat="42.38707123513154" lon="-8.039532933215101"><ele>371.0</ele><time>2026-04-03T16:03:03Z</time></trkpt><trkpt lat="42.38713875483381" lon="-8.03956088297559"><ele>371.0</ele><time>2026-04-03T16:03:04Z</time></trkpt><trkpt lat="42.3872201039312" lon="-8.039595431784422"><ele>371.0</ele><time>2026-04-03T16:03:05Z</time></trkpt><trkpt lat="42.387301468907964" lon="-8.039629694577364"><ele>371.0</ele><time>2026-04-03T16:03:06Z</time></trkpt><trkpt lat="42.38737429545662" lon="-8.039663018852734"><ele>371.5</ele><time>2026-04-03T16:03:07Z</time></trkpt><trkpt lat="42.38745226789265" lon="-8.039696401571899"><ele>372.0</ele><time>2026-04-03T16:03:08Z</time></trkpt><trkpt lat="42.387531836171476" lon="-8.039735399696305"><ele>372.5</ele><time>2026-04-03T16:03:09Z</time></trkpt><trkpt lat="42.387602460992944" lon="-8.039771102094551"><ele>373.0</ele><time>2026-04-03T16:03:10Z</time></trkpt><trkpt lat="42.38767587960495" lon="-8.039800040550812"><ele>373.5</ele><time>2026-04-03T16:03:11Z</time></trkpt><trkpt lat="42.38774750069222" lon="-8.039787816955338"><ele>374.0</ele><time>2026-04-03T16:03:12Z</time></trkpt><trkpt lat="42.38781637027159" lon="-8.039808478570134"><ele>374.0</ele><time>2026-04-03T16:03:13Z</time></trkpt><trkpt lat="42.3878876816946" lon="-8.0397816545698"><ele>374.0</ele><time>2026-04-03T16:03:14Z</time></trkpt><trkpt lat="42.38795227810021" lon="-8.039789211341033"><ele>374.0</ele><time>2026-04-03T16:03:15Z</time></trkpt><trkpt lat="42.38805827291425" lon="-8.03968840291691"><ele>374.0</ele><time>2026-04-03T16:03:17.001Z</time></trkpt><trkpt lat="42.38808288812491" lon="-8.039581114717192"><ele>374.0</ele><time>2026-04-03T16:03:18.001Z</time></trkpt><trkpt lat="42.3881332186151" lon="-8.03949807465997"><ele>374.0</ele><time>2026-04-03T16:03:19.001Z</time></trkpt><trkpt lat="42.38819501165586" lon="-8.03942465994799"><ele>374.33333333333337</ele><time>2026-04-03T16:03:20Z</time></trkpt><trkpt lat="42.388233866328655" lon="-8.039329652715974"><ele>374.6666666666667</ele><time>2026-04-03T16:03:21Z</time></trkpt><trkpt lat="42.388284514195156" lon="-8.039243797180568"><ele>375.0</ele><time>2026-04-03T16:03:22Z</time></trkpt><trkpt lat="42.388323944650615" lon="-8.039154000607512"><ele>375.3333333333333</ele><time>2026-04-03T16:03:23Z</time></trkpt><trkpt lat="42.38835733484501" lon="-8.03907811136122"><ele>375.66666666666663</ele><time>2026-04-03T16:03:24Z</time></trkpt><trkpt lat="42.388465841873995" lon="-8.039001597109005"><ele>376.0</ele><time>2026-04-03T16:03:26Z</time></trkpt><trkpt lat="42.38853784180478" lon="-8.039007902064654"><ele>374.66666666666663</ele><time>2026-04-03T16:03:27Z</time></trkpt><trkpt lat="42.388615665031764" lon="-8.039040704991987"><ele>373.3333333333333</ele><time>2026-04-03T16:03:28Z</time></trkpt><trkpt lat="42.38869278655044" lon="-8.039052682089055"><ele>372.0</ele><time>2026-04-03T16:03:29Z</time></trkpt><trkpt lat="42.38877915143385" lon="-8.039060333507656"><ele>370.6666666666667</ele><time>2026-04-03T16:03:30Z</time></trkpt><trkpt lat="42.38886712087358" lon="-8.039057379513523"><ele>369.33333333333337</ele><time>2026-04-03T16:03:31Z</time></trkpt><trkpt lat="42.388942438605376" lon="-8.039051981219261"><ele>368.0</ele><time>2026-04-03T16:03:32Z</time></trkpt><trkpt lat="42.38901377372666" lon="-8.039044283704584"><ele>368.0</ele><time>2026-04-03T16:03:33Z</time></trkpt><trkpt lat="42.389091457440884" lon="-8.039032922237492"><ele>368.0</ele><time>2026-04-03T16:03:34Z</time></trkpt><trkpt lat="42.389193500347126" lon="-8.038944492154096"><ele>368.0</ele><time>2026-04-03T16:03:36Z</time></trkpt><trkpt lat="42.38931215393339" lon="-8.038909365275071"><ele>368.0</ele><time>2026-04-03T16:03:38Z</time></trkpt><trkpt lat="42.38943627009454" lon="-8.038863101927376"><ele>368.0</ele><time>2026-04-03T16:03:40Z</time></trkpt><trkpt lat="42.38949251547325" lon="-8.038819756808778"><ele>368.0</ele><time>2026-04-03T16:03:41Z</time></trkpt><trkpt lat="42.38954942661334" lon="-8.038759387210808"><ele>368.0</ele><time>2026-04-03T16:03:42Z</time></trkpt><trkpt lat="42.38966996598191" lon="-8.038698913955514"><ele>368.0</ele><time>2026-04-03T16:03:44Z</time></trkpt><trkpt lat="42.38974057719397" lon="-8.0386891935193"><ele>368.0</ele><time>2026-04-03T16:03:45Z</time></trkpt><trkpt lat="42.38980456572604" lon="-8.038675245595364"><ele>368.0</ele><time>2026-04-03T16:03:46Z</time></trkpt><trkpt lat="42.389903665103716" lon="-8.038686893626183"><ele>368.0</ele><time>2026-04-03T16:03:48Z</time></trkpt><trkpt lat="42.38999547335164" lon="-8.038693358615504"><ele>367.6666666666667</ele><time>2026-04-03T16:03:52Z</time></trkpt><trkpt lat="42.39006892049464" lon="-8.038701199385581"><ele>367.33333333333337</ele><time>2026-04-03T16:03:54Z</time></trkpt><trkpt lat="42.390156695400805" lon="-8.038735775690498"><ele>367.0</ele><time>2026-04-03T16:03:56Z</time></trkpt><trkpt lat="42.39023445168263" lon="-8.03875578018608"><ele>366.6666666666667</ele><time>2026-04-03T16:03:58Z</time></trkpt><trkpt lat="42.390317545418355" lon="-8.038827828286342"><ele>366.3333333333333</ele><time>2026-04-03T16:04:01Z</time></trkpt><trkpt lat="42.39040948493254" lon="-8.038853196271774"><ele>366.0</ele><time>2026-04-03T16:04:03Z</time></trkpt><trkpt lat="42.39050737784397" lon="-8.038879088783814"><ele>365.0</ele><time>2026-04-03T16:04:05Z</time></trkpt><trkpt lat="42.390630040525785" lon="-8.038872095420373"><ele>364.0</ele><time>2026-04-03T16:04:07Z</time></trkpt><trkpt lat="42.390697796546256" lon="-8.038852233835492"><ele>363.0</ele><time>2026-04-03T16:04:08Z</time></trkpt><trkpt lat="42.39076866054489" lon="-8.038822524770007"><ele>362.0</ele><time>2026-04-03T16:04:09Z</time></trkpt><trkpt lat="42.39083672442598" lon="-8.038795623294078"><ele>361.0</ele><time>2026-04-03T16:04:10Z</time></trkpt><trkpt lat="42.39091479279176" lon="-8.03877382624351"><ele>360.0</ele><time>2026-04-03T16:04:11Z</time></trkpt><trkpt lat="42.39099351955325" lon="-8.038760786992945"><ele>360.0</ele><time>2026-04-03T16:04:12Z</time></trkpt><trkpt lat="42.39107157645752" lon="-8.03874609101971"><ele>360.0</ele><time>2026-04-03T16:04:13Z</time></trkpt><trkpt lat="42.39120236736193" lon="-8.038728250748068"><ele>360.0</ele><time>2026-04-03T16:04:15Z</time></trkpt><trkpt lat="42.391316858423366" lon="-8.038768901073428"><ele>360.0</ele><time>2026-04-03T16:04:17Z</time></trkpt><trkpt lat="42.39141687800818" lon="-8.038848769257504"><ele>360.0</ele><time>2026-04-03T16:04:19Z</time></trkpt><trkpt lat="42.39147723339145" lon="-8.038922035075881"><ele>360.3333333333333</ele><time>2026-04-03T16:04:20Z</time></trkpt><trkpt lat="42.39154954665688" lon="-8.038994486429425"><ele>360.6666666666667</ele><time>2026-04-03T16:04:21Z</time></trkpt><trkpt lat="42.39162380615413" lon="-8.039051047972984"><ele>361.0</ele><time>2026-04-03T16:04:22Z</time></trkpt><trkpt lat="42.391681518200755" lon="-8.039123926700368"><ele>361.33333333333337</ele><time>2026-04-03T16:04:23Z</time></trkpt><trkpt lat="42.39173723875614" lon="-8.039167739108946"><ele>361.6666666666667</ele><time>2026-04-03T16:04:24Z</time></trkpt><trkpt lat="42.39180991748594" lon="-8.039299578869324"><ele>362.0</ele><time>2026-04-03T16:04:26Z</time></trkpt><trkpt lat="42.391827983575034" lon="-8.039387948121101"><ele>362.0</ele><time>2026-04-03T16:04:27Z</time></trkpt><trkpt lat="42.391813211035625" lon="-8.039490746144606"><ele>362.0</ele><time>2026-04-03T16:04:28Z</time></trkpt><trkpt lat="42.39180802327998" lon="-8.039577226248703"><ele>362.0</ele><time>2026-04-03T16:04:29Z</time></trkpt><trkpt lat="42.39181125698751" lon="-8.039741913239892"><ele>362.0</ele><time>2026-04-03T16:04:31Z</time></trkpt><trkpt lat="42.391861116239944" lon="-8.039799658066366"><ele>362.0</ele><time>2026-04-03T16:04:32Z</time></trkpt><trkpt lat="42.39189383074861" lon="-8.039876242291639"><ele>362.0</ele><time>2026-04-03T16:04:33Z</time></trkpt><trkpt lat="42.39196824890924" lon="-8.039980366216795"><ele>362.6666666666667</ele><time>2026-04-03T16:04:35Z</time></trkpt><trkpt lat="42.392050095160954" lon="-8.040059635278286"><ele>363.33333333333337</ele><time>2026-04-03T16:04:37Z</time></trkpt><trkpt lat="42.392143758416694" lon="-8.040065081877605"><ele>364.0</ele><time>2026-04-03T16:04:39Z</time></trkpt><trkpt lat="42.392236949118534" lon="-8.040016700347843"><ele>364.6666666666667</ele><time>2026-04-03T16:04:41Z</time></trkpt><trkpt lat="42.39230990616498" lon="-8.040024332334152"><ele>365.3333333333333</ele><time>2026-04-03T16:04:42Z</time></trkpt><trkpt lat="42.39238951795116" lon="-8.040011227889647"><ele>366.0</ele><time>2026-04-03T16:04:44Z</time></trkpt><trkpt lat="42.392476008306026" lon="-8.040087445261241"><ele>367.20000000000005</ele><time>2026-04-03T16:04:46Z</time></trkpt><trkpt lat="42.392526877909845" lon="-8.040158030485307"><ele>368.40000000000003</ele><time>2026-04-03T16:04:47Z</time></trkpt><trkpt lat="42.392579419109175" lon="-8.040269943356233"><ele>369.6</ele><time>2026-04-03T16:04:48Z</time></trkpt><trkpt lat="42.392611474723196" lon="-8.040354240098068"><ele>370.8</ele><time>2026-04-03T16:04:49Z</time></trkpt><trkpt lat="42.39268206536685" lon="-8.040460054200597"><ele>372.0</ele><time>2026-04-03T16:04:51Z</time></trkpt><trkpt lat="42.39278375743611" lon="-8.040581518425665"><ele>372.0</ele><time>2026-04-03T16:04:53Z</time></trkpt><trkpt lat="42.39282977106411" lon="-8.040676818579369"><ele>372.0</ele><time>2026-04-03T16:04:54Z</time></trkpt><trkpt lat="42.39286308096886" lon="-8.040770555780524"><ele>372.0</ele><time>2026-04-03T16:04:55Z</time></trkpt><trkpt lat="42.392909646357765" lon="-8.040847100951927"><ele>372.0</ele><time>2026-04-03T16:04:56Z</time></trkpt><trkpt lat="42.392983493954" lon="-8.04091324082115"><ele>372.0</ele><time>2026-04-03T16:04:57Z</time></trkpt><trkpt lat="42.39305659396111" lon="-8.041008136062509"><ele>372.0</ele><time>2026-04-03T16:04:58Z</time></trkpt><trkpt lat="42.39311263436383" lon="-8.041114696558516"><ele>373.6666666666667</ele><time>2026-04-03T16:04:59Z</time></trkpt><trkpt lat="42.39320121593962" lon="-8.041202454164015"><ele>375.3333333333333</ele><time>2026-04-03T16:05:00Z</time></trkpt><trkpt lat="42.39327884362267" lon="-8.041308974268834"><ele>377.0</ele><time>2026-04-03T16:05:01Z</time></trkpt><trkpt lat="42.3933181393558" lon="-8.041405391282431"><ele>378.66666666666663</ele><time>2026-04-03T16:05:02Z</time></trkpt><trkpt lat="42.39336054565665" lon="-8.041484017468056"><ele>380.3333333333333</ele><time>2026-04-03T16:05:03Z</time></trkpt><trkpt lat="42.3933998701796" lon="-8.041556427622924"><ele>382.0</ele><time>2026-04-03T16:05:04Z</time></trkpt><trkpt lat="42.3934029399076" lon="-8.041664290980176"><ele>382.8333333333333</ele><time>2026-04-03T16:05:05Z</time></trkpt><trkpt lat="42.39344195991234" lon="-8.041766875508062"><ele>383.66666666666663</ele><time>2026-04-03T16:05:06Z</time></trkpt><trkpt lat="42.39346228765322" lon="-8.041875111872944"><ele>384.5</ele><time>2026-04-03T16:05:07Z</time></trkpt><trkpt lat="42.39346654399211" lon="-8.041986539145421"><ele>385.3333333333333</ele><time>2026-04-03T16:05:08Z</time></trkpt><trkpt lat="42.393473997472796" lon="-8.04208909074704"><ele>386.1666666666667</ele><time>2026-04-03T16:05:09Z</time></trkpt><trkpt lat="42.39346676154711" lon="-8.042186818516225"><ele>387.0</ele><time>2026-04-03T16:05:10Z</time></trkpt><trkpt lat="42.393492340053996" lon="-8.042285475241949"><ele>387.0</ele><time>2026-04-03T16:05:11Z</time></trkpt><trkpt lat="42.393507790402786" lon="-8.042378021918532"><ele>387.0</ele><time>2026-04-03T16:05:12Z</time></trkpt><trkpt lat="42.3935250162895" lon="-8.04246806827451"><ele>387.0</ele><time>2026-04-03T16:05:13Z</time></trkpt><trkpt lat="42.3935360021078" lon="-8.04256352655902"><ele>387.0</ele><time>2026-04-03T16:05:14Z</time></trkpt><trkpt lat="42.39356150377437" lon="-8.042649265566109"><ele>387.0</ele><time>2026-04-03T16:05:15Z</time></trkpt><trkpt lat="42.393589682330216" lon="-8.04273884544714"><ele>387.0</ele><time>2026-04-03T16:05:16Z</time></trkpt><trkpt lat="42.39362306537513" lon="-8.042837652377049"><ele>387.0</ele><time>2026-04-03T16:05:18Z</time></trkpt><trkpt lat="42.39364347363347" lon="-8.042955361502742"><ele>388.20000000000005</ele><time>2026-04-03T16:05:20Z</time></trkpt><trkpt lat="42.39367199514936" lon="-8.043090260455369"><ele>389.4</ele><time>2026-04-03T16:05:22Z</time></trkpt><trkpt lat="42.393698515320835" lon="-8.04324960550967"><ele>390.6</ele><time>2026-04-03T16:05:23.999Z</time></trkpt><trkpt lat="42.39373043929554" lon="-8.04337204268466"><ele>391.79999999999995</ele><time>2026-04-03T16:05:25.999Z</time></trkpt><trkpt lat="42.39376090006086" lon="-8.043480917894726"><ele>393.0</ele><time>2026-04-03T16:05:27.999Z</time></trkpt><trkpt lat="42.39382145500293" lon="-8.043561207854566"><ele>395.2</ele><time>2026-04-03T16:05:29.999Z</time></trkpt><trkpt lat="42.393912210592504" lon="-8.043609249827501"><ele>397.4</ele><time>2026-04-03T16:05:31.999Z</time></trkpt><trkpt lat="42.393999152888405" lon="-8.043639842623753"><ele>399.59999999999997</ele><time>2026-04-03T16:05:33.999Z</time></trkpt><trkpt lat="42.39407982273386" lon="-8.043688284384853"><ele>401.79999999999995</ele><time>2026-04-03T16:05:35.999Z</time></trkpt><trkpt lat="42.39417290831531" lon="-8.043731733104389"><ele>404.0</ele><time>2026-04-03T16:05:37.999Z</time></trkpt><trkpt lat="42.39425343490949" lon="-8.043803600453602"><ele>403.99999999999994</ele><time>2026-04-03T16:05:39.999Z</time></trkpt><trkpt lat="42.39432645208006" lon="-8.04389552468276"><ele>404.0</ele><time>2026-04-03T16:05:42Z</time></trkpt><trkpt lat="42.394364348160266" lon="-8.04398616227283"><ele>404.0</ele><time>2026-04-03T16:05:44Z</time></trkpt><trkpt lat="42.394343816240344" lon="-8.044091731060472"><ele>404.0</ele><time>2026-04-03T16:05:46Z</time></trkpt><trkpt lat="42.39435680173153" lon="-8.04420367612953"><ele>403.99999999999994</ele><time>2026-04-03T16:05:48Z</time></trkpt><trkpt lat="42.39437384935879" lon="-8.04429378573783"><ele>404.0</ele><time>2026-04-03T16:05:50Z</time></trkpt><trkpt lat="42.39442017263107" lon="-8.044392012556512"><ele>404.49999999999994</ele><time>2026-04-03T16:05:54Z</time></trkpt><trkpt lat="42.3943438879265" lon="-8.044479215217276"><ele>405.0</ele><time>2026-04-03T16:05:55Z</time></trkpt><trkpt lat="42.39428701683668" lon="-8.044553306478798"><ele>405.5</ele><time>2026-04-03T16:05:56Z</time></trkpt><trkpt lat="42.39424382870372" lon="-8.044648575754541"><ele>406.0</ele><time>2026-04-03T16:05:57Z</time></trkpt><trkpt lat="42.39421192120998" lon="-8.044765263027424"><ele>406.49999999999994</ele><time>2026-04-03T16:05:58Z</time></trkpt><trkpt lat="42.394167382620076" lon="-8.044872643007432"><ele>407.0</ele><time>2026-04-03T16:05:59Z</time></trkpt><trkpt lat="42.39411365223103" lon="-8.044960258946334"><ele>407.16666666666663</ele><time>2026-04-03T16:06:00Z</time></trkpt><trkpt lat="42.39403823759135" lon="-8.04503963675919"><ele>407.3333333333333</ele><time>2026-04-03T16:06:01Z</time></trkpt><trkpt lat="42.39396686981021" lon="-8.045101360907386"><ele>407.5</ele><time>2026-04-03T16:06:02Z</time></trkpt><trkpt lat="42.393893968619864" lon="-8.045172754023827"><ele>407.66666666666663</ele><time>2026-04-03T16:06:03Z</time></trkpt><trkpt lat="42.39382685783632" lon="-8.045235102703119"><ele>407.8333333333333</ele><time>2026-04-03T16:06:04Z</time></trkpt><trkpt lat="42.39376676131777" lon="-8.045303058320764"><ele>408.0</ele><time>2026-04-03T16:06:05Z</time></trkpt><trkpt lat="42.393701714198095" lon="-8.045376839956228"><ele>408.0</ele><time>2026-04-03T16:06:06Z</time></trkpt><trkpt lat="42.39364235017272" lon="-8.0454589987317"><ele>408.0</ele><time>2026-04-03T16:06:07Z</time></trkpt><trkpt lat="42.393600029517934" lon="-8.045546314463033"><ele>408.0</ele><time>2026-04-03T16:06:08Z</time></trkpt><trkpt lat="42.39356404723434" lon="-8.045654275315417"><ele>408.0</ele><time>2026-04-03T16:06:09Z</time></trkpt><trkpt lat="42.393532215511314" lon="-8.045767953766012"><ele>408.0</ele><time>2026-04-03T16:06:10Z</time></trkpt><trkpt lat="42.39350343000756" lon="-8.045877056521649"><ele>408.0</ele><time>2026-04-03T16:06:11Z</time></trkpt><trkpt lat="42.39347724499435" lon="-8.0459919672102"><ele>409.0</ele><time>2026-04-03T16:06:12Z</time></trkpt><trkpt lat="42.393457786214945" lon="-8.046112476964725"><ele>410.0</ele><time>2026-04-03T16:06:13Z</time></trkpt><trkpt lat="42.39343770001409" lon="-8.046228391198092"><ele>411.0</ele><time>2026-04-03T16:06:14Z</time></trkpt><trkpt lat="42.39341923046667" lon="-8.046349297069904"><ele>412.0</ele><time>2026-04-03T16:06:15Z</time></trkpt><trkpt lat="42.39340267808446" lon="-8.04645675405309"><ele>413.0</ele><time>2026-04-03T16:06:16Z</time></trkpt><trkpt lat="42.39338642779849" lon="-8.046559134807662"><ele>414.0</ele><time>2026-04-03T16:06:17Z</time></trkpt><trkpt lat="42.39336359218169" lon="-8.04665659704135"><ele>414.3333333333333</ele><time>2026-04-03T16:06:18Z</time></trkpt><trkpt lat="42.39332349703414" lon="-8.046749743898872"><ele>414.66666666666663</ele><time>2026-04-03T16:06:19Z</time></trkpt><trkpt lat="42.393284905898575" lon="-8.046854794069066"><ele>415.0</ele><time>2026-04-03T16:06:20Z</time></trkpt><trkpt lat="42.393262623157135" lon="-8.046966037579644"><ele>415.3333333333333</ele><time>2026-04-03T16:06:21Z</time></trkpt><trkpt lat="42.393219557102704" lon="-8.047078789227154"><ele>415.66666666666663</ele><time>2026-04-03T16:06:22Z</time></trkpt><trkpt lat="42.39317270522051" lon="-8.047190733072904"><ele>416.0</ele><time>2026-04-03T16:06:23Z</time></trkpt><trkpt lat="42.39311580016425" lon="-8.047285983635009"><ele>416.0</ele><time>2026-04-03T16:06:24Z</time></trkpt><trkpt lat="42.39311471716841" lon="-8.047386125260857"><ele>416.0</ele><time>2026-04-03T16:06:25Z</time></trkpt><trkpt lat="42.3930749169629" lon="-8.047489968106834"><ele>416.0</ele><time>2026-04-03T16:06:26Z</time></trkpt><trkpt lat="42.39300359248841" lon="-8.047601989334389"><ele>416.0</ele><time>2026-04-03T16:06:27Z</time></trkpt><trkpt lat="42.39294941279964" lon="-8.047704815868187"><ele>416.0</ele><time>2026-04-03T16:06:28Z</time></trkpt><trkpt lat="42.39288862569006" lon="-8.047798232968187"><ele>417.4</ele><time>2026-04-03T16:06:29Z</time></trkpt><trkpt lat="42.39281439886134" lon="-8.047879304469935"><ele>418.8</ele><time>2026-04-03T16:06:30Z</time></trkpt><trkpt lat="42.39273376715572" lon="-8.047966927974105"><ele>420.2</ele><time>2026-04-03T16:06:31Z</time></trkpt><trkpt lat="42.39265763846931" lon="-8.048058301222953"><ele>421.59999999999997</ele><time>2026-04-03T16:06:32Z</time></trkpt><trkpt lat="42.39258432490662" lon="-8.04813713900981"><ele>423.0</ele><time>2026-04-03T16:06:33Z</time></trkpt><trkpt lat="42.39251072219891" lon="-8.048233920944357"><ele>423.5</ele><time>2026-04-03T16:06:34Z</time></trkpt><trkpt lat="42.39242237519419" lon="-8.04830820027301"><ele>424.0</ele><time>2026-04-03T16:06:35Z</time></trkpt><trkpt lat="42.392345715024234" lon="-8.04838766767333"><ele>424.5</ele><time>2026-04-03T16:06:36Z</time></trkpt><trkpt lat="42.392280096859245" lon="-8.048463219263839"><ele>425.0</ele><time>2026-04-03T16:06:37Z</time></trkpt><trkpt lat="42.392217274212925" lon="-8.048512603897615"><ele>425.5</ele><time>2026-04-03T16:06:38Z</time></trkpt><trkpt lat="42.39215442540189" lon="-8.048576513685383"><ele>426.0</ele><time>2026-04-03T16:06:39Z</time></trkpt><trkpt lat="42.392099272826655" lon="-8.048628961884871"><ele>426.1666666666667</ele><time>2026-04-03T16:06:40Z</time></trkpt><trkpt lat="42.39204004254378" lon="-8.048685142684723"><ele>426.33333333333337</ele><time>2026-04-03T16:06:41Z</time></trkpt><trkpt lat="42.39198402776822" lon="-8.048752559036174"><ele>426.5</ele><time>2026-04-03T16:06:42Z</time></trkpt><trkpt lat="42.39191990969512" lon="-8.048818901674078"><ele>426.6666666666667</ele><time>2026-04-03T16:06:43Z</time></trkpt><trkpt lat="42.391862726885066" lon="-8.04890368690566"><ele>426.83333333333337</ele><time>2026-04-03T16:06:44Z</time></trkpt><trkpt lat="42.39180834487311" lon="-8.049016972412826"><ele>427.0</ele><time>2026-04-03T16:06:45Z</time></trkpt><trkpt lat="42.39175038621036" lon="-8.049139552403352"><ele>427.0</ele><time>2026-04-03T16:06:46Z</time></trkpt><trkpt lat="42.39169460319892" lon="-8.0492605140234"><ele>427.00000000000006</ele><time>2026-04-03T16:06:47Z</time></trkpt><trkpt lat="42.39163179565783" lon="-8.04937044150251"><ele>427.00000000000006</ele><time>2026-04-03T16:06:48Z</time></trkpt><trkpt lat="42.391578099903676" lon="-8.049452045116038"><ele>427.0</ele><time>2026-04-03T16:06:49Z</time></trkpt><trkpt lat="42.39149884946449" lon="-8.04953829516641"><ele>427.0</ele><time>2026-04-03T16:06:50Z</time></trkpt><trkpt lat="42.391390377933284" lon="-8.04963529814989"><ele>428.25</ele><time>2026-04-03T16:06:51Z</time></trkpt><trkpt lat="42.39129911590905" lon="-8.049698080501962"><ele>429.5</ele><time>2026-04-03T16:06:52Z</time></trkpt><trkpt lat="42.39119547983833" lon="-8.049766895659063"><ele>430.75</ele><time>2026-04-03T16:06:53Z</time></trkpt><trkpt lat="42.391087646014455" lon="-8.049842197901103"><ele>432.0</ele><time>2026-04-03T16:06:54Z</time></trkpt><trkpt lat="42.390973612398525" lon="-8.049922528644906"><ele>432.75</ele><time>2026-04-03T16:06:55Z</time></trkpt><trkpt lat="42.39086143900667" lon="-8.05000269702088"><ele>433.5</ele><time>2026-04-03T16:06:56Z</time></trkpt><trkpt lat="42.39075383048426" lon="-8.050080784843233"><ele>434.25</ele><time>2026-04-03T16:06:57Z</time></trkpt><trkpt lat="42.390657766472856" lon="-8.05015186718698"><ele>435.0</ele><time>2026-04-03T16:06:58Z</time></trkpt><trkpt lat="42.39057601541556" lon="-8.050212358761556"><ele>435.8333333333333</ele><time>2026-04-03T16:06:59Z</time></trkpt><trkpt lat="42.390489830593204" lon="-8.050252913984854"><ele>436.66666666666663</ele><time>2026-04-03T16:07:00Z</time></trkpt><trkpt lat="42.39041885222316" lon="-8.050320326661527"><ele>437.5</ele><time>2026-04-03T16:07:01Z</time></trkpt><trkpt lat="42.39034598454793" lon="-8.050368374772546"><ele>438.3333333333333</ele><time>2026-04-03T16:07:02Z</time></trkpt><trkpt lat="42.3902897119629" lon="-8.050457101967657"><ele>439.16666666666663</ele><time>2026-04-03T16:07:03Z</time></trkpt><trkpt lat="42.39024539291311" lon="-8.050559546208506"><ele>440.0</ele><time>2026-04-03T16:07:04Z</time></trkpt><trkpt lat="42.39020838724138" lon="-8.050667957068402"><ele>439.99999999999994</ele><time>2026-04-03T16:07:05Z</time></trkpt><trkpt lat="42.390170684048556" lon="-8.050771409815257"><ele>440.0</ele><time>2026-04-03T16:07:06Z</time></trkpt><trkpt lat="42.39013799753799" lon="-8.05087912066295"><ele>440.0</ele><time>2026-04-03T16:07:07Z</time></trkpt><trkpt lat="42.39011400832688" lon="-8.050996534792457"><ele>440.0</ele><time>2026-04-03T16:07:08Z</time></trkpt><trkpt lat="42.390095841107495" lon="-8.051113038466198"><ele>439.99999999999994</ele><time>2026-04-03T16:07:09Z</time></trkpt><trkpt lat="42.39007460716628" lon="-8.051227037448301"><ele>440.0</ele><time>2026-04-03T16:07:10Z</time></trkpt><trkpt lat="42.390046251242914" lon="-8.051346645126062"><ele>440.66666666666663</ele><time>2026-04-03T16:07:11Z</time></trkpt><trkpt lat="42.390010394556015" lon="-8.051473827766591"><ele>441.3333333333333</ele><time>2026-04-03T16:07:12Z</time></trkpt><trkpt lat="42.389973142520674" lon="-8.051599359065628"><ele>442.0</ele><time>2026-04-03T16:07:13Z</time></trkpt><trkpt lat="42.38994335298684" lon="-8.051695071512574"><ele>442.66666666666663</ele><time>2026-04-03T16:07:14Z</time></trkpt><trkpt lat="42.38989604314549" lon="-8.051827821204027"><ele>443.3333333333333</ele><time>2026-04-03T16:07:16Z</time></trkpt><trkpt lat="42.38987227442486" lon="-8.051907506851267"><ele>444.0</ele><time>2026-04-03T16:07:17Z</time></trkpt><trkpt lat="42.38984982789451" lon="-8.051999319274477"><ele>444.0</ele><time>2026-04-03T16:07:18Z</time></trkpt><trkpt lat="42.38981260575097" lon="-8.052089076267745"><ele>444.0</ele><time>2026-04-03T16:07:19Z</time></trkpt><trkpt lat="42.389773205249675" lon="-8.052177260172686"><ele>444.0</ele><time>2026-04-03T16:07:20Z</time></trkpt><trkpt lat="42.38972726501501" lon="-8.052269582547284"><ele>444.0</ele><time>2026-04-03T16:07:21Z</time></trkpt><trkpt lat="42.3896554739146" lon="-8.052346776016805"><ele>444.0</ele><time>2026-04-03T16:07:22Z</time></trkpt><trkpt lat="42.389570556393394" lon="-8.05241137121139"><ele>444.0</ele><time>2026-04-03T16:07:23Z</time></trkpt><trkpt lat="42.3894788108371" lon="-8.052456348555827"><ele>445.1666666666667</ele><time>2026-04-03T16:07:24Z</time></trkpt><trkpt lat="42.38938800314637" lon="-8.052507241174945"><ele>446.33333333333337</ele><time>2026-04-03T16:07:25Z</time></trkpt><trkpt lat="42.38932119740505" lon="-8.052550283800386"><ele>447.5</ele><time>2026-04-03T16:07:26Z</time></trkpt><trkpt lat="42.38927283977569" lon="-8.052618467562283"><ele>448.6666666666667</ele><time>2026-04-03T16:07:27Z</time></trkpt><trkpt lat="42.389235113416554" lon="-8.052696470464376"><ele>449.83333333333337</ele><time>2026-04-03T16:07:28Z</time></trkpt><trkpt lat="42.38922517801828" lon="-8.052787307663824"><ele>451.0</ele><time>2026-04-03T16:07:28.999Z</time></trkpt><trkpt lat="42.38923027565545" lon="-8.05289748627239"><ele>451.0</ele><time>2026-04-03T16:07:29.999Z</time></trkpt><trkpt lat="42.38923849307971" lon="-8.053015811241409"><ele>451.0</ele><time>2026-04-03T16:07:30.999Z</time></trkpt><trkpt lat="42.38925283331682" lon="-8.053137030129403"><ele>451.0</ele><time>2026-04-03T16:07:31.999Z</time></trkpt><trkpt lat="42.38927152291524" lon="-8.053294496510722"><ele>451.0</ele><time>2026-04-03T16:07:32.999Z</time></trkpt><trkpt lat="42.3892789624523" lon="-8.05343199593665"><ele>451.0</ele><time>2026-04-03T16:07:33.999Z</time></trkpt><trkpt lat="42.38927712009162" lon="-8.053585282259188"><ele>451.75</ele><time>2026-04-03T16:07:34.999Z</time></trkpt><trkpt lat="42.38928911694002" lon="-8.053730616825074"><ele>452.5</ele><time>2026-04-03T16:07:35.999Z</time></trkpt><trkpt lat="42.38927126228847" lon="-8.053887338249535"><ele>453.25</ele><time>2026-04-03T16:07:36.999Z</time></trkpt><trkpt lat="42.389229655556925" lon="-8.054034374695876"><ele>454.0</ele><time>2026-04-03T16:07:37.999Z</time></trkpt><trkpt lat="42.389178917614544" lon="-8.0541864503825"><ele>454.0</ele><time>2026-04-03T16:07:38.999Z</time></trkpt><trkpt lat="42.38914100970435" lon="-8.054349613971006"><ele>454.0</ele><time>2026-04-03T16:07:39.999Z</time></trkpt><trkpt lat="42.389082639866324" lon="-8.054504627788084"><ele>454.0</ele><time>2026-04-03T16:07:40.999Z</time></trkpt><trkpt lat="42.38903473626295" lon="-8.054667015670738"><ele>454.0</ele><time>2026-04-03T16:07:41.999Z</time></trkpt><trkpt lat="42.38899482176967" lon="-8.054819072563621"><ele>453.5</ele><time>2026-04-03T16:07:42.999Z</time></trkpt><trkpt lat="42.38894631546684" lon="-8.054958643147494"><ele>453.0</ele><time>2026-04-03T16:07:43.999Z</time></trkpt><trkpt lat="42.38888076920509" lon="-8.05509195545266"><ele>452.5</ele><time>2026-04-03T16:07:44.999Z</time></trkpt><trkpt lat="42.38881398909432" lon="-8.055213680656236"><ele>452.0</ele><time>2026-04-03T16:07:45.999Z</time></trkpt><trkpt lat="42.38873413058726" lon="-8.055328735452912"><ele>453.75</ele><time>2026-04-03T16:07:46.999Z</time></trkpt><trkpt lat="42.38865058517339" lon="-8.055442566309168"><ele>455.5</ele><time>2026-04-03T16:07:47.999Z</time></trkpt><trkpt lat="42.3885657897022" lon="-8.055557885107712"><ele>457.25</ele><time>2026-04-03T16:07:48.999Z</time></trkpt><trkpt lat="42.3884790848244" lon="-8.05565983981061"><ele>459.0</ele><time>2026-04-03T16:07:49.999Z</time></trkpt><trkpt lat="42.38837701247408" lon="-8.055738087940188"><ele>458.75</ele><time>2026-04-03T16:07:50.999Z</time></trkpt><trkpt lat="42.388263918728626" lon="-8.055801794868167"><ele>458.5</ele><time>2026-04-03T16:07:51.999Z</time></trkpt><trkpt lat="42.38815378798443" lon="-8.055862605799522"><ele>458.25</ele><time>2026-04-03T16:07:52.999Z</time></trkpt><trkpt lat="42.388043987857614" lon="-8.05591248612335"><ele>458.0</ele><time>2026-04-03T16:07:53.999Z</time></trkpt><trkpt lat="42.3879398694935" lon="-8.055969412943735"><ele>459.5</ele><time>2026-04-03T16:07:54.999Z</time></trkpt><trkpt lat="42.38783675188263" lon="-8.056033054954264"><ele>461.0</ele><time>2026-04-03T16:07:55.999Z</time></trkpt><trkpt lat="42.38772915043076" lon="-8.056066635681418"><ele>462.5</ele><time>2026-04-03T16:07:56.999Z</time></trkpt><trkpt lat="42.38761237502453" lon="-8.056084714980232"><ele>464.0</ele><time>2026-04-03T16:07:58Z</time></trkpt><trkpt lat="42.38748871322058" lon="-8.05610917182546"><ele>464.0</ele><time>2026-04-03T16:07:59Z</time></trkpt><trkpt lat="42.38735775301058" lon="-8.056152477797077"><ele>464.0</ele><time>2026-04-03T16:08:00Z</time></trkpt><trkpt lat="42.387222675603404" lon="-8.05621933654433"><ele>464.0</ele><time>2026-04-03T16:08:01Z</time></trkpt><trkpt lat="42.38711164751024" lon="-8.056351584086036"><ele>464.0</ele><time>2026-04-03T16:08:02Z</time></trkpt><trkpt lat="42.386997300019985" lon="-8.056476031591473"><ele>464.3333333333333</ele><time>2026-04-03T16:08:03Z</time></trkpt><trkpt lat="42.38686689347551" lon="-8.056594361442283"><ele>464.66666666666663</ele><time>2026-04-03T16:08:04Z</time></trkpt><trkpt lat="42.38674851292684" lon="-8.056731663045465"><ele>465.0</ele><time>2026-04-03T16:08:05Z</time></trkpt><trkpt lat="42.38662840612905" lon="-8.056870726694708"><ele>465.0</ele><time>2026-04-03T16:08:06Z</time></trkpt><trkpt lat="42.38649843830622" lon="-8.057007238035975"><ele>465.0</ele><time>2026-04-03T16:08:07Z</time></trkpt><trkpt lat="42.38638097656672" lon="-8.057147245243028"><ele>465.0</ele><time>2026-04-03T16:08:08Z</time></trkpt><trkpt lat="42.386239344356774" lon="-8.0572961228998"><ele>464.66666666666663</ele><time>2026-04-03T16:08:09Z</time></trkpt><trkpt lat="42.38610899527171" lon="-8.057452751819282"><ele>464.3333333333333</ele><time>2026-04-03T16:08:10Z</time></trkpt><trkpt lat="42.385992091773694" lon="-8.05761759350733"><ele>464.0</ele><time>2026-04-03T16:08:11Z</time></trkpt><trkpt lat="42.38586854712403" lon="-8.057774136066373"><ele>464.0</ele><time>2026-04-03T16:08:12Z</time></trkpt><trkpt lat="42.38576019752516" lon="-8.057921413507792"><ele>464.0</ele><time>2026-04-03T16:08:13Z</time></trkpt><trkpt lat="42.385658681411634" lon="-8.058070358945347"><ele>464.0</ele><time>2026-04-03T16:08:14Z</time></trkpt><trkpt lat="42.385559727948255" lon="-8.058227257562189"><ele>463.66666666666663</ele><time>2026-04-03T16:08:15Z</time></trkpt><trkpt lat="42.385464548377364" lon="-8.05839085541143"><ele>463.33333333333337</ele><time>2026-04-03T16:08:16Z</time></trkpt><trkpt lat="42.385361233350494" lon="-8.05854753057953"><ele>463.0</ele><time>2026-04-03T16:08:17Z</time></trkpt><trkpt lat="42.38525812199217" lon="-8.058701824896145"><ele>463.0</ele><time>2026-04-03T16:08:18Z</time></trkpt><trkpt lat="42.38515466990987" lon="-8.058850693658952"><ele>463.0</ele><time>2026-04-03T16:08:19Z</time></trkpt><trkpt lat="42.385048363494086" lon="-8.058995610025775"><ele>463.0</ele><time>2026-04-03T16:08:20Z</time></trkpt><trkpt lat="42.384939415763235" lon="-8.05911512300717"><ele>463.0</ele><time>2026-04-03T16:08:21Z</time></trkpt><trkpt lat="42.384838426970504" lon="-8.05923076677226"><ele>463.0</ele><time>2026-04-03T16:08:22Z</time></trkpt><trkpt lat="42.384746349975856" lon="-8.059342759528354"><ele>463.0</ele><time>2026-04-03T16:08:23Z</time></trkpt><trkpt lat="42.384662031776095" lon="-8.059445792325736"><ele>463.0</ele><time>2026-04-03T16:08:24Z</time></trkpt><trkpt lat="42.38459648015065" lon="-8.059574735174904"><ele>463.0</ele><time>2026-04-03T16:08:25Z</time></trkpt><trkpt lat="42.384553290777184" lon="-8.059706462116115"><ele>463.0</ele><time>2026-04-03T16:08:26Z</time></trkpt><trkpt lat="42.38451659610047" lon="-8.059834876954328"><ele>462.99999999999994</ele><time>2026-04-03T16:08:27Z</time></trkpt><trkpt lat="42.38447815187235" lon="-8.059955121336834"><ele>462.99999999999994</ele><time>2026-04-03T16:08:28Z</time></trkpt><trkpt lat="42.384441145709076" lon="-8.060070941901856"><ele>463.0</ele><time>2026-04-03T16:08:29Z</time></trkpt><trkpt lat="42.38441147741007" lon="-8.060182242878344"><ele>463.0</ele><time>2026-04-03T16:08:30Z</time></trkpt><trkpt lat="42.38439608145166" lon="-8.060279100138521"><ele>463.0</ele><time>2026-04-03T16:08:31Z</time></trkpt><trkpt lat="42.38438825681534" lon="-8.060369267292725"><ele>462.99999999999994</ele><time>2026-04-03T16:08:32Z</time></trkpt><trkpt lat="42.384367221904974" lon="-8.060519057945356"><ele>462.99999999999994</ele><time>2026-04-03T16:08:34Z</time></trkpt><trkpt lat="42.38434956947592" lon="-8.060621943650233"><ele>463.0</ele><time>2026-04-03T16:08:36Z</time></trkpt><trkpt lat="42.38433727572223" lon="-8.060783352882941"><ele>463.0</ele><time>2026-04-03T16:08:38Z</time></trkpt><trkpt lat="42.38432301458507" lon="-8.060883500621586"><ele>463.00000000000006</ele><time>2026-04-03T16:08:39Z</time></trkpt><trkpt lat="42.38431162598263" lon="-8.060991668960895"><ele>463.0</ele><time>2026-04-03T16:08:40Z</time></trkpt><trkpt lat="42.384302169066416" lon="-8.061111627072087"><ele>463.0</ele><time>2026-04-03T16:08:41Z</time></trkpt><trkpt lat="42.38428862100516" lon="-8.061237434890558"><ele>463.0</ele><time>2026-04-03T16:08:42Z</time></trkpt><trkpt lat="42.38428103256139" lon="-8.06136028018509"><ele>463.00000000000006</ele><time>2026-04-03T16:08:43Z</time></trkpt><trkpt lat="42.38426583576214" lon="-8.06148601566127"><ele>463.0</ele><time>2026-04-03T16:08:44Z</time></trkpt><trkpt lat="42.384252531207856" lon="-8.061614170026447"><ele>462.59999999999997</ele><time>2026-04-03T16:08:45Z</time></trkpt><trkpt lat="42.3842392746491" lon="-8.06174023191002"><ele>462.19999999999993</ele><time>2026-04-03T16:08:46Z</time></trkpt><trkpt lat="42.38422733032124" lon="-8.061869242314472"><ele>461.8</ele><time>2026-04-03T16:08:47Z</time></trkpt><trkpt lat="42.38422190497691" lon="-8.061999309216366"><ele>461.4</ele><time>2026-04-03T16:08:48Z</time></trkpt><trkpt lat="42.38421254690687" lon="-8.062121796219238"><ele>461.0</ele><time>2026-04-03T16:08:49Z</time></trkpt><trkpt lat="42.38420491878551" lon="-8.062251698418281"><ele>460.99999999999994</ele><time>2026-04-03T16:08:50Z</time></trkpt><trkpt lat="42.384194485481686" lon="-8.062373332440197"><ele>461.0</ele><time>2026-04-03T16:08:51Z</time></trkpt><trkpt lat="42.38418397583755" lon="-8.062496371856211"><ele>461.0</ele><time>2026-04-03T16:08:52Z</time></trkpt><trkpt lat="42.38417134462788" lon="-8.062616606954789"><ele>461.0</ele><time>2026-04-03T16:08:53Z</time></trkpt><trkpt lat="42.38416449547896" lon="-8.062732383247408"><ele>460.99999999999994</ele><time>2026-04-03T16:08:54Z</time></trkpt><trkpt lat="42.38413416618941" lon="-8.062845153009823"><ele>461.0</ele><time>2026-04-03T16:08:55Z</time></trkpt><trkpt lat="42.38409572352641" lon="-8.06294432741463"><ele>460.99999999999994</ele><time>2026-04-03T16:08:56Z</time></trkpt><trkpt lat="42.38405991301489" lon="-8.063041907771611"><ele>461.0</ele><time>2026-04-03T16:08:57Z</time></trkpt><trkpt lat="42.38401998924702" lon="-8.063138829247348"><ele>461.0</ele><time>2026-04-03T16:08:58Z</time></trkpt><trkpt lat="42.38398366726187" lon="-8.0632358999218"><ele>461.0</ele><time>2026-04-03T16:08:59Z</time></trkpt><trkpt lat="42.38395780207663" lon="-8.063333783510751"><ele>460.99999999999994</ele><time>2026-04-03T16:09:00Z</time></trkpt><trkpt lat="42.3839387648804" lon="-8.063439653340785"><ele>461.0</ele><time>2026-04-03T16:09:01Z</time></trkpt><trkpt lat="42.3839190036955" lon="-8.063550822364046"><ele>460.66666666666663</ele><time>2026-04-03T16:09:02Z</time></trkpt><trkpt lat="42.38389509757317" lon="-8.063652645373365"><ele>460.3333333333333</ele><time>2026-04-03T16:09:03Z</time></trkpt><trkpt lat="42.38387207110193" lon="-8.063759124041773"><ele>460.0</ele><time>2026-04-03T16:09:04Z</time></trkpt><trkpt lat="42.38384631710578" lon="-8.063865750260884"><ele>459.66666666666663</ele><time>2026-04-03T16:09:05Z</time></trkpt><trkpt lat="42.3838225696103" lon="-8.063970851384102"><ele>459.3333333333333</ele><time>2026-04-03T16:09:06Z</time></trkpt><trkpt lat="42.38379954320043" lon="-8.064073457703882"><ele>459.0</ele><time>2026-04-03T16:09:07Z</time></trkpt><trkpt lat="42.38377859404115" lon="-8.06417256962119"><ele>459.0</ele><time>2026-04-03T16:09:08Z</time></trkpt><trkpt lat="42.38375642759253" lon="-8.06426436124354"><ele>459.0</ele><time>2026-04-03T16:09:09Z</time></trkpt><trkpt lat="42.383736741722984" lon="-8.0643536750222"><ele>459.0</ele><time>2026-04-03T16:09:10Z</time></trkpt><trkpt lat="42.38370945912462" lon="-8.064461012323202"><ele>459.0</ele><time>2026-04-03T16:09:11Z</time></trkpt><trkpt lat="42.3836826170066" lon="-8.064567796744086"><ele>459.0</ele><time>2026-04-03T16:09:12Z</time></trkpt><trkpt lat="42.38365080303507" lon="-8.064670018252867"><ele>459.0</ele><time>2026-04-03T16:09:13Z</time></trkpt><trkpt lat="42.38360630874585" lon="-8.064770198327555"><ele>459.0</ele><time>2026-04-03T16:09:14Z</time></trkpt><trkpt lat="42.38355471196611" lon="-8.064868224413582"><ele>459.0</ele><time>2026-04-03T16:09:15Z</time></trkpt><trkpt lat="42.38350223963311" lon="-8.064964214165034"><ele>459.0</ele><time>2026-04-03T16:09:16Z</time></trkpt><trkpt lat="42.38344531104298" lon="-8.065059619268215"><ele>459.0</ele><time>2026-04-03T16:09:17Z</time></trkpt><trkpt lat="42.38338751825897" lon="-8.065162466797247"><ele>459.0</ele><time>2026-04-03T16:09:18Z</time></trkpt><trkpt lat="42.38332890653741" lon="-8.065259797604234"><ele>459.0</ele><time>2026-04-03T16:09:19Z</time></trkpt><trkpt lat="42.38327272913029" lon="-8.065358940503845"><ele>459.0</ele><time>2026-04-03T16:09:20Z</time></trkpt><trkpt lat="42.3832268621078" lon="-8.065469141999142"><ele>459.0</ele><time>2026-04-03T16:09:21Z</time></trkpt><trkpt lat="42.383192717651816" lon="-8.06558144817323"><ele>459.0</ele><time>2026-04-03T16:09:22Z</time></trkpt><trkpt lat="42.38315973354443" lon="-8.065706392018253"><ele>459.0</ele><time>2026-04-03T16:09:23Z</time></trkpt><trkpt lat="42.383124102423224" lon="-8.065823227213833"><ele>459.0</ele><time>2026-04-03T16:09:24Z</time></trkpt><trkpt lat="42.38308760472767" lon="-8.065932480667191"><ele>459.0</ele><time>2026-04-03T16:09:25Z</time></trkpt><trkpt lat="42.383045908037225" lon="-8.066040015376887"><ele>459.0</ele><time>2026-04-03T16:09:26Z</time></trkpt><trkpt lat="42.38300524604749" lon="-8.066147469055846"><ele>459.0</ele><time>2026-04-03T16:09:27Z</time></trkpt><trkpt lat="42.38297012033058" lon="-8.066249190436379"><ele>459.0</ele><time>2026-04-03T16:09:28Z</time></trkpt><trkpt lat="42.382928859496644" lon="-8.066365096181263"><ele>459.0</ele><time>2026-04-03T16:09:29Z</time></trkpt><trkpt lat="42.382898419592905" lon="-8.066482398704828"><ele>458.4</ele><time>2026-04-03T16:09:30Z</time></trkpt><trkpt lat="42.382859323595255" lon="-8.066592877358218"><ele>457.79999999999995</ele><time>2026-04-03T16:09:31Z</time></trkpt><trkpt lat="42.38282005471167" lon="-8.066711253730249"><ele>457.20000000000005</ele><time>2026-04-03T16:09:32Z</time></trkpt><trkpt lat="42.382783533420124" lon="-8.066828202943949"><ele>456.6</ele><time>2026-04-03T16:09:33Z</time></trkpt><trkpt lat="42.382739040745015" lon="-8.066948138765763"><ele>456.0</ele><time>2026-04-03T16:09:34Z</time></trkpt><trkpt lat="42.382701789008934" lon="-8.06705730589087"><ele>456.8333333333333</ele><time>2026-04-03T16:09:35Z</time></trkpt><trkpt lat="42.38266532089556" lon="-8.067162383888663"><ele>457.66666666666663</ele><time>2026-04-03T16:09:36Z</time></trkpt><trkpt lat="42.38262158654302" lon="-8.067277661457865"><ele>458.5</ele><time>2026-04-03T16:09:37Z</time></trkpt><trkpt lat="42.382582616312824" lon="-8.067381486265246"><ele>459.3333333333333</ele><time>2026-04-03T16:09:38Z</time></trkpt><trkpt lat="42.3825425085204" lon="-8.067487124946707"><ele>460.16666666666663</ele><time>2026-04-03T16:09:39Z</time></trkpt><trkpt lat="42.38249596208892" lon="-8.067597543490626"><ele>461.0</ele><time>2026-04-03T16:09:40Z</time></trkpt><trkpt lat="42.38245637718796" lon="-8.067704278216498"><ele>461.0</ele><time>2026-04-03T16:09:41Z</time></trkpt><trkpt lat="42.382410929604305" lon="-8.067807452552522"><ele>461.0</ele><time>2026-04-03T16:09:42Z</time></trkpt><trkpt lat="42.382360412170755" lon="-8.067915625905993"><ele>461.0</ele><time>2026-04-03T16:09:43Z</time></trkpt><trkpt lat="42.382309796127196" lon="-8.06802240341521"><ele>461.0</ele><time>2026-04-03T16:09:44Z</time></trkpt><trkpt lat="42.38225563917339" lon="-8.068129918883129"><ele>461.0</ele><time>2026-04-03T16:09:45Z</time></trkpt><trkpt lat="42.38220123295402" lon="-8.068243864146295"><ele>461.0</ele><time>2026-04-03T16:09:46Z</time></trkpt><trkpt lat="42.3821505614691" lon="-8.068355078551779"><ele>461.0</ele><time>2026-04-03T16:09:47Z</time></trkpt><trkpt lat="42.38209828260847" lon="-8.06847543106937"><ele>461.0</ele><time>2026-04-03T16:09:48Z</time></trkpt><trkpt lat="42.38203877119215" lon="-8.068584709089595"><ele>461.0</ele><time>2026-04-03T16:09:49Z</time></trkpt><trkpt lat="42.381990452772506" lon="-8.068704634314937"><ele>461.0</ele><time>2026-04-03T16:09:50Z</time></trkpt><trkpt lat="42.381926695159414" lon="-8.068822127613425"><ele>461.0</ele><time>2026-04-03T16:09:51Z</time></trkpt><trkpt lat="42.38186630939857" lon="-8.068942602245949"><ele>461.0</ele><time>2026-04-03T16:09:52Z</time></trkpt><trkpt lat="42.38180565297724" lon="-8.069057081207092"><ele>461.0</ele><time>2026-04-03T16:09:53Z</time></trkpt><trkpt lat="42.381748349413435" lon="-8.06917416320875"><ele>461.0</ele><time>2026-04-03T16:09:54Z</time></trkpt><trkpt lat="42.381683831162846" lon="-8.069290539213974"><ele>461.0</ele><time>2026-04-03T16:09:55Z</time></trkpt><trkpt lat="42.38162102687678" lon="-8.069410437245237"><ele>461.4</ele><time>2026-04-03T16:09:56Z</time></trkpt><trkpt lat="42.38156669096595" lon="-8.069534319510788"><ele>461.8</ele><time>2026-04-03T16:09:57Z</time></trkpt><trkpt lat="42.381519602898614" lon="-8.069650194558392"><ele>462.19999999999993</ele><time>2026-04-03T16:09:58Z</time></trkpt><trkpt lat="42.38146324287372" lon="-8.069771571217508"><ele>462.59999999999997</ele><time>2026-04-03T16:09:59Z</time></trkpt><trkpt lat="42.38140852541103" lon="-8.069880338825806"><ele>463.0</ele><time>2026-04-03T16:10:00Z</time></trkpt><trkpt lat="42.38135969383524" lon="-8.069974717039543"><ele>464.59999999999997</ele><time>2026-04-03T16:10:01Z</time></trkpt><trkpt lat="42.38129368713349" lon="-8.070081128221716"><ele>466.19999999999993</ele><time>2026-04-03T16:10:03Z</time></trkpt><trkpt lat="42.381230286306604" lon="-8.070165942277209"><ele>467.8</ele><time>2026-04-03T16:10:05Z</time></trkpt><trkpt lat="42.38108498542092" lon="-8.070256760752864"><ele>469.4</ele><time>2026-04-03T16:10:07Z</time></trkpt><trkpt lat="42.38099335831761" lon="-8.070278288829806"><ele>471.0</ele><time>2026-04-03T16:10:08Z</time></trkpt><trkpt lat="42.380889456591284" lon="-8.070298570679736"><ele>471.0</ele><time>2026-04-03T16:10:09Z</time></trkpt><trkpt lat="42.380781373980945" lon="-8.070325226515855"><ele>471.0</ele><time>2026-04-03T16:10:10Z</time></trkpt><trkpt lat="42.38066809697393" lon="-8.070361585418574"><ele>471.0</ele><time>2026-04-03T16:10:11Z</time></trkpt><trkpt lat="42.38055204260643" lon="-8.070405858065723"><ele>471.0</ele><time>2026-04-03T16:10:12Z</time></trkpt><trkpt lat="42.38043507052072" lon="-8.070463817945491"><ele>472.0</ele><time>2026-04-03T16:10:13Z</time></trkpt><trkpt lat="42.38031547903252" lon="-8.070527319831568"><ele>473.0</ele><time>2026-04-03T16:10:14Z</time></trkpt><trkpt lat="42.38019562321126" lon="-8.070596515561316"><ele>474.0</ele><time>2026-04-03T16:10:15Z</time></trkpt><trkpt lat="42.38007716796976" lon="-8.070667804288759"><ele>475.0</ele><time>2026-04-03T16:10:16Z</time></trkpt><trkpt lat="42.379950019474144" lon="-8.070744065598456"><ele>475.6666666666667</ele><time>2026-04-03T16:10:17Z</time></trkpt><trkpt lat="42.379815487832815" lon="-8.070833810586844"><ele>476.33333333333337</ele><time>2026-04-03T16:10:18Z</time></trkpt><trkpt lat="42.37968386067441" lon="-8.070915599144028"><ele>477.0</ele><time>2026-04-03T16:10:19Z</time></trkpt><trkpt lat="42.379526584194316" lon="-8.070992105092916"><ele>477.0</ele><time>2026-04-03T16:10:20Z</time></trkpt><trkpt lat="42.379382084169734" lon="-8.071078218729776"><ele>477.0</ele><time>2026-04-03T16:10:21Z</time></trkpt><trkpt lat="42.37922961023308" lon="-8.071179799437472"><ele>477.0</ele><time>2026-04-03T16:10:22Z</time></trkpt><trkpt lat="42.37907824141461" lon="-8.071265194450987"><ele>477.0</ele><time>2026-04-03T16:10:23Z</time></trkpt><trkpt lat="42.3789396756385" lon="-8.071353823269332"><ele>477.0</ele><time>2026-04-03T16:10:24Z</time></trkpt><trkpt lat="42.37881255483215" lon="-8.071433855510714"><ele>477.0</ele><time>2026-04-03T16:10:25Z</time></trkpt><trkpt lat="42.37869385613307" lon="-8.071508053102097"><ele>477.0</ele><time>2026-04-03T16:10:26Z</time></trkpt><trkpt lat="42.378584674934764" lon="-8.071578359071536"><ele>477.8</ele><time>2026-04-03T16:10:27Z</time></trkpt><trkpt lat="42.37848007713524" lon="-8.071638365354575"><ele>478.6</ele><time>2026-04-03T16:10:28Z</time></trkpt><trkpt lat="42.37838397831491" lon="-8.07169770531362"><ele>479.40000000000003</ele><time>2026-04-03T16:10:29Z</time></trkpt><trkpt lat="42.37827821040506" lon="-8.071761855246223"><ele>480.20000000000005</ele><time>2026-04-03T16:10:30Z</time></trkpt><trkpt lat="42.378176875359564" lon="-8.07181867556468"><ele>481.0</ele><time>2026-04-03T16:10:31Z</time></trkpt><trkpt lat="42.37806546023896" lon="-8.071882802321577"><ele>480.5</ele><time>2026-04-03T16:10:32Z</time></trkpt><trkpt lat="42.377951736259654" lon="-8.071944333215598"><ele>480.0</ele><time>2026-04-03T16:10:33Z</time></trkpt><trkpt lat="42.37784178999402" lon="-8.071990036708618"><ele>479.5</ele><time>2026-04-03T16:10:34Z</time></trkpt><trkpt lat="42.37772613815346" lon="-8.07200617653275"><ele>479.0</ele><time>2026-04-03T16:10:35Z</time></trkpt><trkpt lat="42.377616468834525" lon="-8.072014689515413"><ele>479.0</ele><time>2026-04-03T16:10:36Z</time></trkpt><trkpt lat="42.37752576940091" lon="-8.072016539746661"><ele>479.0</ele><time>2026-04-03T16:10:37Z</time></trkpt><trkpt lat="42.37743991883965" lon="-8.072009004650948"><ele>479.0</ele><time>2026-04-03T16:10:38Z</time></trkpt><trkpt lat="42.37735637716645" lon="-8.071997960981346"><ele>479.0</ele><time>2026-04-03T16:10:39Z</time></trkpt><trkpt lat="42.37726031428392" lon="-8.071992281381062"><ele>479.0</ele><time>2026-04-03T16:10:40Z</time></trkpt><trkpt lat="42.37716491826588" lon="-8.071993648460449"><ele>479.79999999999995</ele><time>2026-04-03T16:10:41Z</time></trkpt><trkpt lat="42.377065047709785" lon="-8.071987999969911"><ele>480.59999999999997</ele><time>2026-04-03T16:10:42Z</time></trkpt><trkpt lat="42.37696376734003" lon="-8.071994730943048"><ele>481.4</ele><time>2026-04-03T16:10:43Z</time></trkpt><trkpt lat="42.3768583652327" lon="-8.071989260744465"><ele>482.2</ele><time>2026-04-03T16:10:44Z</time></trkpt><trkpt lat="42.376752909048214" lon="-8.071997816246713"><ele>483.0</ele><time>2026-04-03T16:10:45Z</time></trkpt><trkpt lat="42.37664917984898" lon="-8.072008974112535"><ele>483.0</ele><time>2026-04-03T16:10:46Z</time></trkpt><trkpt lat="42.37653908726546" lon="-8.072028555156466"><ele>482.99999999999994</ele><time>2026-04-03T16:10:47Z</time></trkpt><trkpt lat="42.376443885533114" lon="-8.072073358050984"><ele>482.99999999999994</ele><time>2026-04-03T16:10:48Z</time></trkpt><trkpt lat="42.376353479301805" lon="-8.072151825604339"><ele>483.0</ele><time>2026-04-03T16:10:49Z</time></trkpt><trkpt lat="42.37628223962533" lon="-8.072246547905804"><ele>483.0</ele><time>2026-04-03T16:10:50Z</time></trkpt><trkpt lat="42.37622789422213" lon="-8.07233499277047"><ele>482.6666666666667</ele><time>2026-04-03T16:10:51Z</time></trkpt><trkpt lat="42.376173717834504" lon="-8.072408588331596"><ele>482.33333333333337</ele><time>2026-04-03T16:10:52Z</time></trkpt><trkpt lat="42.376112437417135" lon="-8.07245881025556"><ele>482.0</ele><time>2026-04-03T16:10:53Z</time></trkpt><trkpt lat="42.37603156132785" lon="-8.072478441458093"><ele>481.6666666666667</ele><time>2026-04-03T16:10:54Z</time></trkpt><trkpt lat="42.3759399179449" lon="-8.072465605304796"><ele>481.33333333333337</ele><time>2026-04-03T16:10:55Z</time></trkpt><trkpt lat="42.37585156202125" lon="-8.07241537557383"><ele>481.0</ele><time>2026-04-03T16:10:56Z</time></trkpt><trkpt lat="42.37575886417698" lon="-8.072376875133612"><ele>481.00000000000006</ele><time>2026-04-03T16:10:57Z</time></trkpt><trkpt lat="42.375664366238794" lon="-8.072356668556782"><ele>481.0</ele><time>2026-04-03T16:10:58Z</time></trkpt><trkpt lat="42.37557419974258" lon="-8.072361672638973"><ele>481.0</ele><time>2026-04-03T16:10:59Z</time></trkpt><trkpt lat="42.37549492203193" lon="-8.072397117074107"><ele>481.0</ele><time>2026-04-03T16:11:00Z</time></trkpt><trkpt lat="42.37542092239436" lon="-8.072422471648572"><ele>481.00000000000006</ele><time>2026-04-03T16:11:01Z</time></trkpt><trkpt lat="42.37534307293047" lon="-8.072427464240423"><ele>481.0</ele><time>2026-04-03T16:11:02Z</time></trkpt><trkpt lat="42.375267928327354" lon="-8.072428465119097"><ele>481.1428571428571</ele><time>2026-04-03T16:11:03Z</time></trkpt><trkpt lat="42.37519992186415" lon="-8.072435812277622"><ele>481.2857142857143</ele><time>2026-04-03T16:11:04Z</time></trkpt><trkpt lat="42.375130968306834" lon="-8.072446775906972"><ele>481.42857142857144</ele><time>2026-04-03T16:11:05Z</time></trkpt><trkpt lat="42.37505896229868" lon="-8.072446634202546"><ele>481.57142857142856</ele><time>2026-04-03T16:11:06Z</time></trkpt><trkpt lat="42.374985832931856" lon="-8.072465256158308"><ele>481.7142857142858</ele><time>2026-04-03T16:11:07Z</time></trkpt><trkpt lat="42.374916284173686" lon="-8.072456742169287"><ele>481.8571428571429</ele><time>2026-04-03T16:11:08Z</time></trkpt><trkpt lat="42.37484611910886" lon="-8.07244330989844"><ele>482.0</ele><time>2026-04-03T16:11:09Z</time></trkpt><trkpt lat="42.37477549849321" lon="-8.07242491821141"><ele>481.8</ele><time>2026-04-03T16:11:10Z</time></trkpt><trkpt lat="42.37466844419166" lon="-8.072362710583194"><ele>481.6</ele><time>2026-04-03T16:11:12Z</time></trkpt><trkpt lat="42.37459164261264" lon="-8.072282087815442"><ele>481.40000000000003</ele><time>2026-04-03T16:11:14Z</time></trkpt><trkpt lat="42.37451766832285" lon="-8.072190291007988"><ele>481.20000000000005</ele><time>2026-04-03T16:11:16Z</time></trkpt><trkpt lat="42.374441942237375" lon="-8.072138564479152"><ele>481.0</ele><time>2026-04-03T16:11:18Z</time></trkpt><trkpt lat="42.374331174405256" lon="-8.072138190872877"><ele>481.00000000000006</ele><time>2026-04-03T16:11:20Z</time></trkpt><trkpt lat="42.37420801153459" lon="-8.072183135725503"><ele>481.0</ele><time>2026-04-03T16:11:22Z</time></trkpt><trkpt lat="42.37414288282982" lon="-8.072207289404055"><ele>481.0</ele><time>2026-04-03T16:11:23Z</time></trkpt><trkpt lat="42.37407206489421" lon="-8.07223136188524"><ele>481.0</ele><time>2026-04-03T16:11:24Z</time></trkpt><trkpt lat="42.373999917870144" lon="-8.072235541979817"><ele>481.00000000000006</ele><time>2026-04-03T16:11:25Z</time></trkpt><trkpt lat="42.373940433017395" lon="-8.072268090161534"><ele>481.0</ele><time>2026-04-03T16:11:26Z</time></trkpt><trkpt lat="42.37383769200103" lon="-8.072294957575124"><ele>481.1666666666667</ele><time>2026-04-03T16:11:28Z</time></trkpt><trkpt lat="42.373749222704845" lon="-8.072285585659664"><ele>481.33333333333337</ele><time>2026-04-03T16:11:30Z</time></trkpt><trkpt lat="42.37363858996057" lon="-8.072252546517218"><ele>481.5</ele><time>2026-04-03T16:11:32Z</time></trkpt><trkpt lat="42.3735689299991" lon="-8.072249799914728"><ele>481.66666666666663</ele><time>2026-04-03T16:11:33Z</time></trkpt><trkpt lat="42.373493902421934" lon="-8.072224029594556"><ele>481.8333333333333</ele><time>2026-04-03T16:11:34Z</time></trkpt><trkpt lat="42.37342235201918" lon="-8.072199541517898"><ele>482.0</ele><time>2026-04-03T16:11:35Z</time></trkpt><trkpt lat="42.37334604059839" lon="-8.072171104213322"><ele>481.99999999999994</ele><time>2026-04-03T16:11:36Z</time></trkpt><trkpt lat="42.37327643874649" lon="-8.072123458156536"><ele>482.0</ele><time>2026-04-03T16:11:37Z</time></trkpt><trkpt lat="42.37320452305761" lon="-8.072104856452585"><ele>482.0</ele><time>2026-04-03T16:11:38Z</time></trkpt><trkpt lat="42.37313253382288" lon="-8.072076284258017"><ele>482.0</ele><time>2026-04-03T16:11:39Z</time></trkpt><trkpt lat="42.37306953353519" lon="-8.07204367066786"><ele>481.99999999999994</ele><time>2026-04-03T16:11:40Z</time></trkpt><trkpt lat="42.37301195224025" lon="-8.072000731852375"><ele>482.0</ele><time>2026-04-03T16:11:41Z</time></trkpt><trkpt lat="42.37292563654607" lon="-8.071925968527921"><ele>482.49999999999994</ele><time>2026-04-03T16:11:43Z</time></trkpt><trkpt lat="42.37283885064802" lon="-8.071909717669346"><ele>483.0</ele><time>2026-04-03T16:11:45Z</time></trkpt><trkpt lat="42.37274986690151" lon="-8.071904211189496"><ele>483.5</ele><time>2026-04-03T16:11:47Z</time></trkpt><trkpt lat="42.37268521927243" lon="-8.071903035617016"><ele>484.0</ele><time>2026-04-03T16:11:49Z</time></trkpt><trkpt lat="42.37262347056921" lon="-8.071929494944227"><ele>484.49999999999994</ele><time>2026-04-03T16:11:53Z</time></trkpt><trkpt lat="42.372567162732494" lon="-8.071771420209767"><ele>485.0</ele><time>2026-04-03T16:11:54Z</time></trkpt><trkpt lat="42.372543150316" lon="-8.07168375984491"><ele>484.2</ele><time>2026-04-03T16:11:56Z</time></trkpt><trkpt lat="42.37251241785283" lon="-8.07158769544995"><ele>483.4</ele><time>2026-04-03T16:11:58Z</time></trkpt><trkpt lat="42.372474521939424" lon="-8.071472955330332"><ele>482.6</ele><time>2026-04-03T16:12:00Z</time></trkpt><trkpt lat="42.37244171704553" lon="-8.071354175044016"><ele>481.8</ele><time>2026-04-03T16:12:02Z</time></trkpt><trkpt lat="42.37240294602175" lon="-8.071226086082023"><ele>481.0</ele><time>2026-04-03T16:12:04Z</time></trkpt><trkpt lat="42.372357021424214" lon="-8.071080915918532"><ele>481.0</ele><time>2026-04-03T16:12:06Z</time></trkpt><trkpt lat="42.37231869346553" lon="-8.070941123359958"><ele>481.0</ele><time>2026-04-03T16:12:08Z</time></trkpt><trkpt lat="42.3722731844294" lon="-8.070784638284557"><ele>481.0</ele><time>2026-04-03T16:12:10Z</time></trkpt><trkpt lat="42.372246674850246" lon="-8.070696569622143"><ele>481.0</ele><time>2026-04-03T16:12:11Z</time></trkpt><trkpt lat="42.37221521990045" lon="-8.070607262067702"><ele>481.0</ele><time>2026-04-03T16:12:12Z</time></trkpt><trkpt lat="42.372180823349815" lon="-8.070518242696444"><ele>479.50000000000006</ele><time>2026-04-03T16:12:13Z</time></trkpt><trkpt lat="42.3721425616879" lon="-8.070428805019219"><ele>478.0</ele><time>2026-04-03T16:12:14Z</time></trkpt><trkpt lat="42.37209854718225" lon="-8.070327933769125"><ele>476.5</ele><time>2026-04-03T16:12:15Z</time></trkpt><trkpt lat="42.372056098535744" lon="-8.070233577223327"><ele>475.0</ele><time>2026-04-03T16:12:16Z</time></trkpt><trkpt lat="42.3720063496571" lon="-8.070133557663794"><ele>473.50000000000006</ele><time>2026-04-03T16:12:17Z</time></trkpt><trkpt lat="42.37195881185204" lon="-8.070023322280555"><ele>472.0</ele><time>2026-04-03T16:12:18Z</time></trkpt><trkpt lat="42.37189515668027" lon="-8.069920044286018"><ele>470.83333333333337</ele><time>2026-04-03T16:12:19Z</time></trkpt><trkpt lat="42.37182145471843" lon="-8.06983119473987"><ele>469.6666666666667</ele><time>2026-04-03T16:12:20Z</time></trkpt><trkpt lat="42.37176129021961" lon="-8.069714435790893"><ele>468.5</ele><time>2026-04-03T16:12:21Z</time></trkpt><trkpt lat="42.371697219357124" lon="-8.069632283018485"><ele>467.33333333333337</ele><time>2026-04-03T16:12:22Z</time></trkpt><trkpt lat="42.37162769290379" lon="-8.069557625700291"><ele>466.1666666666667</ele><time>2026-04-03T16:12:23Z</time></trkpt><trkpt lat="42.371567201219534" lon="-8.069518573767155"><ele>465.0</ele><time>2026-04-03T16:12:24Z</time></trkpt><trkpt lat="42.371511916094335" lon="-8.069436992562649"><ele>465.0</ele><time>2026-04-03T16:12:25Z</time></trkpt><trkpt lat="42.371460838985065" lon="-8.069383134741072"><ele>465.0</ele><time>2026-04-03T16:12:26Z</time></trkpt><trkpt lat="42.37140491241044" lon="-8.069314284216583"><ele>465.0</ele><time>2026-04-03T16:12:27Z</time></trkpt><trkpt lat="42.371373945710275" lon="-8.069204317555945"><ele>465.0</ele><time>2026-04-03T16:12:28Z</time></trkpt><trkpt lat="42.37135540558389" lon="-8.0690924058351"><ele>465.0</ele><time>2026-04-03T16:12:29Z</time></trkpt><trkpt lat="42.371339603036425" lon="-8.068972885170519"><ele>465.0</ele><time>2026-04-03T16:12:30Z</time></trkpt><trkpt lat="42.371325330744426" lon="-8.06885715103298"><ele>464.2</ele><time>2026-04-03T16:12:31Z</time></trkpt><trkpt lat="42.37131858086218" lon="-8.068728449733118"><ele>463.4</ele><time>2026-04-03T16:12:32Z</time></trkpt><trkpt lat="42.37131456635588" lon="-8.068594981929115"><ele>462.6</ele><time>2026-04-03T16:12:33Z</time></trkpt><trkpt lat="42.37130985380653" lon="-8.068468301697497"><ele>461.8</ele><time>2026-04-03T16:12:34Z</time></trkpt><trkpt lat="42.37129995074796" lon="-8.068346502264223"><ele>461.0</ele><time>2026-04-03T16:12:35Z</time></trkpt><trkpt lat="42.3712752156994" lon="-8.068233942160997"><ele>459.8</ele><time>2026-04-03T16:12:36Z</time></trkpt><trkpt lat="42.37122335981263" lon="-8.06814713064665"><ele>458.6</ele><time>2026-04-03T16:12:37Z</time></trkpt><trkpt lat="42.37115800301669" lon="-8.068059806908213"><ele>457.4</ele><time>2026-04-03T16:12:38Z</time></trkpt><trkpt lat="42.371086768541545" lon="-8.067969601733415"><ele>456.2</ele><time>2026-04-03T16:12:39Z</time></trkpt><trkpt lat="42.37101847626959" lon="-8.067889516488949"><ele>455.0</ele><time>2026-04-03T16:12:40Z</time></trkpt><trkpt lat="42.370940655599036" lon="-8.067798257487759"><ele>455.0</ele><time>2026-04-03T16:12:41Z</time></trkpt><trkpt lat="42.37088339502899" lon="-8.067701802967775"><ele>455.0</ele><time>2026-04-03T16:12:42Z</time></trkpt><trkpt lat="42.370810635316516" lon="-8.067613459317412"><ele>455.0</ele><time>2026-04-03T16:12:43Z</time></trkpt><trkpt lat="42.370726372090274" lon="-8.06753381113194"><ele>455.0</ele><time>2026-04-03T16:12:44Z</time></trkpt><trkpt lat="42.3706645983038" lon="-8.067450954882153"><ele>455.0</ele><time>2026-04-03T16:12:45Z</time></trkpt><trkpt lat="42.37062124752274" lon="-8.067351410927664"><ele>454.66666666666663</ele><time>2026-04-03T16:12:46Z</time></trkpt><trkpt lat="42.37056288531701" lon="-8.067263604728266"><ele>454.3333333333333</ele><time>2026-04-03T16:12:47Z</time></trkpt><trkpt lat="42.37051205886611" lon="-8.067181188252079"><ele>454.0</ele><time>2026-04-03T16:12:48Z</time></trkpt><trkpt lat="42.37048074695352" lon="-8.067084242585759"><ele>453.66666666666663</ele><time>2026-04-03T16:12:49Z</time></trkpt><trkpt lat="42.37045059222681" lon="-8.066975902058365"><ele>453.3333333333333</ele><time>2026-04-03T16:12:50Z</time></trkpt><trkpt lat="42.370436169103584" lon="-8.066844493249016"><ele>453.0</ele><time>2026-04-03T16:12:51Z</time></trkpt><trkpt lat="42.37043637016718" lon="-8.066718036690698"><ele>450.79999999999995</ele><time>2026-04-03T16:12:52Z</time></trkpt><trkpt lat="42.3704106729304" lon="-8.066580437707913"><ele>448.59999999999997</ele><time>2026-04-03T16:12:53Z</time></trkpt><trkpt lat="42.370395460969974" lon="-8.06642426813868"><ele>446.40000000000003</ele><time>2026-04-03T16:12:54Z</time></trkpt><trkpt lat="42.37038429168167" lon="-8.06628646251082"><ele>444.20000000000005</ele><time>2026-04-03T16:12:55Z</time></trkpt><trkpt lat="42.37037458991518" lon="-8.066129458649142"><ele>442.0</ele><time>2026-04-03T16:12:56Z</time></trkpt><trkpt lat="42.37036905623135" lon="-8.065984682441767"><ele>442.00000000000006</ele><time>2026-04-03T16:12:57Z</time></trkpt><trkpt lat="42.37038206575395" lon="-8.06585870129761"><ele>442.0</ele><time>2026-04-03T16:12:58Z</time></trkpt><trkpt lat="42.37036957925301" lon="-8.0657634181133"><ele>442.0</ele><time>2026-04-03T16:12:59Z</time></trkpt><trkpt lat="42.37036809883465" lon="-8.065671640704386"><ele>442.0</ele><time>2026-04-03T16:13:00Z</time></trkpt><trkpt lat="42.370448844786445" lon="-8.065525671447817"><ele>442.00000000000006</ele><time>2026-04-03T16:13:02Z</time></trkpt><trkpt lat="42.37051894430543" lon="-8.065479340298104"><ele>442.0</ele><time>2026-04-03T16:13:03Z</time></trkpt><trkpt lat="42.370608488264004" lon="-8.06546323581598"><ele>441.20000000000005</ele><time>2026-04-03T16:13:04Z</time></trkpt><trkpt lat="42.37069389028906" lon="-8.06545091495855"><ele>440.40000000000003</ele><time>2026-04-03T16:13:05Z</time></trkpt><trkpt lat="42.37076836115442" lon="-8.065445863606817"><ele>439.59999999999997</ele><time>2026-04-03T16:13:06Z</time></trkpt><trkpt lat="42.37083863109663" lon="-8.065417490005824"><ele>438.79999999999995</ele><time>2026-04-03T16:13:07Z</time></trkpt><trkpt lat="42.370911862434106" lon="-8.065320722171215"><ele>438.0</ele><time>2026-04-03T16:13:09Z</time></trkpt><trkpt lat="42.37088368186238" lon="-8.065151044109948"><ele>438.0</ele><time>2026-04-03T16:13:11Z</time></trkpt><trkpt lat="42.37082660082618" lon="-8.065083178411351"><ele>438.0</ele><time>2026-04-03T16:13:12Z</time></trkpt><trkpt lat="42.37076188806919" lon="-8.06503260258788"><ele>438.0</ele><time>2026-04-03T16:13:13Z</time></trkpt><trkpt lat="42.37069509146018" lon="-8.064988868269259"><ele>438.0</ele><time>2026-04-03T16:13:14Z</time></trkpt><trkpt lat="42.37063594492784" lon="-8.064944568462078"><ele>438.0</ele><time>2026-04-03T16:13:15Z</time></trkpt><trkpt lat="42.370579562053386" lon="-8.064900975867506"><ele>438.0</ele><time>2026-04-03T16:13:16Z</time></trkpt><trkpt lat="42.37047675330186" lon="-8.064799055806706"><ele>436.3333333333333</ele><time>2026-04-03T16:13:18Z</time></trkpt><trkpt lat="42.37042838565948" lon="-8.064741678492053"><ele>434.66666666666663</ele><time>2026-04-03T16:13:19Z</time></trkpt><trkpt lat="42.370354407866074" lon="-8.064660072669664"><ele>433.0</ele><time>2026-04-03T16:13:21Z</time></trkpt><trkpt lat="42.37030876091283" lon="-8.064581050385527"><ele>431.3333333333333</ele><time>2026-04-03T16:13:26Z</time></trkpt><trkpt lat="42.3702683703949" lon="-8.064471930706185"><ele>429.66666666666663</ele><time>2026-04-03T16:13:29Z</time></trkpt><trkpt lat="42.370224773606125" lon="-8.064333145632236"><ele>428.0</ele><time>2026-04-03T16:13:31Z</time></trkpt><trkpt lat="42.37018256349267" lon="-8.064193259758028"><ele>427.28571428571433</ele><time>2026-04-03T16:13:33.001Z</time></trkpt><trkpt lat="42.37014965793631" lon="-8.06410735846659"><ele>426.57142857142856</ele><time>2026-04-03T16:13:34.001Z</time></trkpt><trkpt lat="42.37010905409508" lon="-8.064030373921037"><ele>425.8571428571429</ele><time>2026-04-03T16:13:35.001Z</time></trkpt><trkpt lat="42.3700670107225" lon="-8.063956713233864"><ele>425.14285714285717</ele><time>2026-04-03T16:13:36.001Z</time></trkpt><trkpt lat="42.3700216437211" lon="-8.063883924665985"><ele>424.42857142857144</ele><time>2026-04-03T16:13:37.001Z</time></trkpt><trkpt lat="42.36997151720478" lon="-8.063808623802695"><ele>423.7142857142857</ele><time>2026-04-03T16:13:38.001Z</time></trkpt><trkpt lat="42.36992244316184" lon="-8.063735128240294"><ele>423.0</ele><time>2026-04-03T16:13:39.001Z</time></trkpt><trkpt lat="42.36987532133713" lon="-8.063661699685337"><ele>423.0</ele><time>2026-04-03T16:13:40.001Z</time></trkpt><trkpt lat="42.36983474412561" lon="-8.063577361437474"><ele>423.0</ele><time>2026-04-03T16:13:41.001Z</time></trkpt><trkpt lat="42.369807375552774" lon="-8.063492833108528"><ele>423.0</ele><time>2026-04-03T16:13:42.001Z</time></trkpt><trkpt lat="42.3697859938547" lon="-8.063403250435902"><ele>423.0</ele><time>2026-04-03T16:13:43.001Z</time></trkpt><trkpt lat="42.369768512732904" lon="-8.063314379052846"><ele>423.0</ele><time>2026-04-03T16:13:44.001Z</time></trkpt><trkpt lat="42.369757821067815" lon="-8.063225398466605"><ele>423.0</ele><time>2026-04-03T16:13:45.001Z</time></trkpt><trkpt lat="42.36975413233839" lon="-8.063074824827096"><ele>421.79999999999995</ele><time>2026-04-03T16:13:47Z</time></trkpt><trkpt lat="42.369767020996214" lon="-8.062952993427139"><ele>420.6</ele><time>2026-04-03T16:13:49Z</time></trkpt><trkpt lat="42.36976088105361" lon="-8.0628482814326"><ele>419.4</ele><time>2026-04-03T16:13:51Z</time></trkpt><trkpt lat="42.36962650165555" lon="-8.062795401414377"><ele>418.20000000000005</ele><time>2026-04-03T16:13:54Z</time></trkpt><trkpt lat="42.36953593621939" lon="-8.06275600586908"><ele>417.0</ele><time>2026-04-03T16:13:56Z</time></trkpt><trkpt lat="42.369474734438555" lon="-8.062690957777837"><ele>416.0</ele><time>2026-04-03T16:13:58Z</time></trkpt><trkpt lat="42.369399454276866" lon="-8.06265412555476"><ele>415.0</ele><time>2026-04-03T16:14:00Z</time></trkpt><trkpt lat="42.36931593165747" lon="-8.06260582745899"><ele>414.0</ele><time>2026-04-03T16:14:02Z</time></trkpt><trkpt lat="42.36920032993833" lon="-8.062573726323846"><ele>413.0</ele><time>2026-04-03T16:14:04Z</time></trkpt><trkpt lat="42.36906822032965" lon="-8.062551892009036"><ele>412.0</ele><time>2026-04-03T16:14:06Z</time></trkpt><trkpt lat="42.36898674596567" lon="-8.062539683313167"><ele>412.0</ele><time>2026-04-03T16:14:07Z</time></trkpt><trkpt lat="42.36890175660102" lon="-8.06252599180719"><ele>412.0</ele><time>2026-04-03T16:14:08Z</time></trkpt><trkpt lat="42.368803696864475" lon="-8.06251009324059"><ele>412.0</ele><time>2026-04-03T16:14:09Z</time></trkpt><trkpt lat="42.368699712382295" lon="-8.062492760912333"><ele>412.0</ele><time>2026-04-03T16:14:10Z</time></trkpt><trkpt lat="42.36857557517918" lon="-8.0624489648826"><ele>412.0</ele><time>2026-04-03T16:14:11Z</time></trkpt><trkpt lat="42.3684449165605" lon="-8.062431668538293"><ele>412.0</ele><time>2026-04-03T16:14:12Z</time></trkpt><trkpt lat="42.368324202411465" lon="-8.06240602425736"><ele>412.0</ele><time>2026-04-03T16:14:13Z</time></trkpt><trkpt lat="42.368223498303834" lon="-8.062393724053194"><ele>412.0</ele><time>2026-04-03T16:14:14Z</time></trkpt><trkpt lat="42.36813736157525" lon="-8.062374876010788"><ele>412.0</ele><time>2026-04-03T16:14:15Z</time></trkpt><trkpt lat="42.36806245558162" lon="-8.062366081042631"><ele>412.0</ele><time>2026-04-03T16:14:16Z</time></trkpt><trkpt lat="42.367983528217465" lon="-8.062369108497036"><ele>411.99999999999994</ele><time>2026-04-03T16:14:17Z</time></trkpt><trkpt lat="42.367902995219644" lon="-8.062386596847958"><ele>412.0</ele><time>2026-04-03T16:14:18Z</time></trkpt><trkpt lat="42.36782256414628" lon="-8.062406617281043"><ele>412.0</ele><time>2026-04-03T16:14:19Z</time></trkpt><trkpt lat="42.36774863192003" lon="-8.062407797479924"><ele>412.0</ele><time>2026-04-03T16:14:20Z</time></trkpt><trkpt lat="42.36768014719848" lon="-8.062393320102563"><ele>412.0</ele><time>2026-04-03T16:14:21Z</time></trkpt><trkpt lat="42.367619537250405" lon="-8.062363246001116"><ele>411.99999999999994</ele><time>2026-04-03T16:14:22Z</time></trkpt><trkpt lat="42.367555313627506" lon="-8.062325137272977"><ele>412.0</ele><time>2026-04-03T16:14:23Z</time></trkpt><trkpt lat="42.36749647061796" lon="-8.062272943977057"><ele>412.00000000000006</ele><time>2026-04-03T16:14:24Z</time></trkpt><trkpt lat="42.36742640906569" lon="-8.062208285451067"><ele>412.0</ele><time>2026-04-03T16:14:25Z</time></trkpt><trkpt lat="42.36735238918236" lon="-8.062176453149158"><ele>412.0</ele><time>2026-04-03T16:14:26Z</time></trkpt><trkpt lat="42.36727891649951" lon="-8.062136599978205"><ele>412.0</ele><time>2026-04-03T16:14:27Z</time></trkpt><trkpt lat="42.36721039414089" lon="-8.06211186801286"><ele>412.00000000000006</ele><time>2026-04-03T16:14:28Z</time></trkpt><trkpt lat="42.367142984194565" lon="-8.062097685298095"><ele>412.0</ele><time>2026-04-03T16:14:29Z</time></trkpt><trkpt lat="42.36707428709627" lon="-8.062090961415183"><ele>411.50000000000006</ele><time>2026-04-03T16:14:30Z</time></trkpt><trkpt lat="42.366997610860764" lon="-8.062095604958252"><ele>411.0</ele><time>2026-04-03T16:14:31Z</time></trkpt><trkpt lat="42.366923460637786" lon="-8.062115193642521"><ele>410.5</ele><time>2026-04-03T16:14:32Z</time></trkpt><trkpt lat="42.36684802159953" lon="-8.0621378824457"><ele>410.0</ele><time>2026-04-03T16:14:33Z</time></trkpt><trkpt lat="42.36677588359198" lon="-8.062163141180298"><ele>409.50000000000006</ele><time>2026-04-03T16:14:34Z</time></trkpt><trkpt lat="42.36669643337439" lon="-8.062174565844305"><ele>409.0</ele><time>2026-04-03T16:14:35Z</time></trkpt><trkpt lat="42.36663140679405" lon="-8.062207274312621"><ele>409.0</ele><time>2026-04-03T16:14:36Z</time></trkpt><trkpt lat="42.36652277676508" lon="-8.06227123414118"><ele>409.0</ele><time>2026-04-03T16:14:38Z</time></trkpt><trkpt lat="42.366450207647674" lon="-8.062285738564944"><ele>409.0</ele><time>2026-04-03T16:14:40Z</time></trkpt><trkpt lat="42.36633811900835" lon="-8.062277921127155"><ele>409.0</ele><time>2026-04-03T16:14:42Z</time></trkpt><trkpt lat="42.366273237479824" lon="-8.06222600320343"><ele>409.0</ele><time>2026-04-03T16:14:43Z</time></trkpt><trkpt lat="42.36620703792909" lon="-8.062174599711433"><ele>408.6</ele><time>2026-04-03T16:14:44Z</time></trkpt><trkpt lat="42.36613938045707" lon="-8.062117749700029"><ele>408.2</ele><time>2026-04-03T16:14:45Z</time></trkpt><trkpt lat="42.366075296069916" lon="-8.062056641766556"><ele>407.8</ele><time>2026-04-03T16:14:46Z</time></trkpt><trkpt lat="42.36602065810347" lon="-8.062003072944588"><ele>407.40000000000003</ele><time>2026-04-03T16:14:47Z</time></trkpt><trkpt lat="42.3659260160812" lon="-8.061916272098564"><ele>407.0</ele><time>2026-04-03T16:14:49Z</time></trkpt><trkpt lat="42.365827440877005" lon="-8.061835201096816"><ele>407.0</ele><time>2026-04-03T16:14:51Z</time></trkpt><trkpt lat="42.36576989799773" lon="-8.061791660415738"><ele>407.0</ele><time>2026-04-03T16:14:52Z</time></trkpt><trkpt lat="42.36566936669248" lon="-8.061719577604457"><ele>407.0</ele><time>2026-04-03T16:14:54Z</time></trkpt><trkpt lat="42.36557711250576" lon="-8.061656847112562"><ele>407.0</ele><time>2026-04-03T16:14:56Z</time></trkpt><trkpt lat="42.36549411868992" lon="-8.061612107583635"><ele>407.0</ele><time>2026-04-03T16:14:58Z</time></trkpt><trkpt lat="42.36541152135756" lon="-8.061571187994874"><ele>405.8333333333333</ele><time>2026-04-03T16:15:00Z</time></trkpt><trkpt lat="42.3653609616799" lon="-8.061416522042435"><ele>404.66666666666663</ele><time>2026-04-03T16:15:02Z</time></trkpt><trkpt lat="42.36530663414678" lon="-8.061315989140374"><ele>403.5</ele><time>2026-04-03T16:15:04Z</time></trkpt><trkpt lat="42.36524534007217" lon="-8.061252398636812"><ele>402.33333333333337</ele><time>2026-04-03T16:15:06Z</time></trkpt><trkpt lat="42.36518525354909" lon="-8.061226623373928"><ele>401.1666666666667</ele><time>2026-04-03T16:15:08Z</time></trkpt><trkpt lat="42.3651131948026" lon="-8.061191286870482"><ele>400.0</ele><time>2026-04-03T16:15:10Z</time></trkpt><trkpt lat="42.36503233984398" lon="-8.061137789176174"><ele>400.00000000000006</ele><time>2026-04-03T16:15:12Z</time></trkpt><trkpt lat="42.36496530780729" lon="-8.061065456275214"><ele>400.0</ele><time>2026-04-03T16:15:14Z</time></trkpt><trkpt lat="42.36490181935383" lon="-8.061022700817604"><ele>400.0</ele><time>2026-04-03T16:15:16Z</time></trkpt><trkpt lat="42.36483160694565" lon="-8.061009430225665"><ele>400.0</ele><time>2026-04-03T16:15:18Z</time></trkpt><trkpt lat="42.36475835759981" lon="-8.060998385579616"><ele>400.0</ele><time>2026-04-03T16:15:21Z</time></trkpt><trkpt lat="42.36468827911311" lon="-8.060988746431553"><ele>400.00000000000006</ele><time>2026-04-03T16:15:24Z</time></trkpt><trkpt lat="42.3646233379441" lon="-8.0609604920395"><ele>400.0</ele><time>2026-04-03T16:15:29Z</time></trkpt><trkpt lat="42.36456186175415" lon="-8.060914139499747"><ele>394.0</ele><time>2026-04-03T16:15:39Z</time></trkpt><trkpt lat="42.364499764735484" lon="-8.060849729821234"><ele>394.0</ele><time>2026-04-03T16:15:42Z</time></trkpt><trkpt lat="42.364438712213556" lon="-8.060803546987133"><ele>394.0</ele><time>2026-04-03T16:15:46Z</time></trkpt><trkpt lat="42.364556673337304" lon="-8.060908237370924"><ele>394.0</ele><time>2026-04-03T16:16:03Z</time></trkpt><trkpt lat="42.364621671641125" lon="-8.060946120168023"><ele>394.0</ele><time>2026-04-03T16:16:05Z</time></trkpt></trkseg><trkseg><trkpt lat="42.36456936680009" lon="-8.060441101024471"><ele>387.0</ele><time>2026-04-03T17:15:47.765Z</time></trkpt><trkpt lat="42.364489284671635" lon="-8.060490699256817"><ele>387.0</ele><time>2026-04-03T17:15:52Z</time></trkpt><trkpt lat="42.36447133621161" lon="-8.060590359333471"><ele>387.0</ele><time>2026-04-03T17:15:54Z</time></trkpt><trkpt lat="42.36445282770847" lon="-8.060698397634038"><ele>387.0</ele><time>2026-04-03T17:16:23.999Z</time></trkpt><trkpt lat="42.36447571885652" lon="-8.060810863619738"><ele>387.0</ele><time>2026-04-03T17:16:26.999Z</time></trkpt><trkpt lat="42.36459321015852" lon="-8.060919558432627"><ele>388.1666666666667</ele><time>2026-04-03T17:16:28.999Z</time></trkpt><trkpt lat="42.364670151896625" lon="-8.060969632638429"><ele>389.33333333333337</ele><time>2026-04-03T17:16:30.999Z</time></trkpt><trkpt lat="42.36475520254202" lon="-8.060985683793398"><ele>390.5</ele><time>2026-04-03T17:16:32.999Z</time></trkpt><trkpt lat="42.36483350204815" lon="-8.060992735840165"><ele>391.6666666666667</ele><time>2026-04-03T17:16:34.999Z</time></trkpt><trkpt lat="42.364905908391485" lon="-8.061012483070574"><ele>392.83333333333337</ele><time>2026-04-03T17:16:36.999Z</time></trkpt><trkpt lat="42.3649806665647" lon="-8.061049288374033"><ele>394.0</ele><time>2026-04-03T17:16:38.999Z</time></trkpt><trkpt lat="42.36503493804619" lon="-8.0611141093164"><ele>395.00000000000006</ele><time>2026-04-03T17:16:40.999Z</time></trkpt><trkpt lat="42.36510392656379" lon="-8.061177569573642"><ele>396.0</ele><time>2026-04-03T17:16:43.999Z</time></trkpt><trkpt lat="42.365181722573006" lon="-8.061208317129246"><ele>397.0</ele><time>2026-04-03T17:16:46.999Z</time></trkpt><trkpt lat="42.36526876192139" lon="-8.06124504473187"><ele>398.0</ele><time>2026-04-03T17:16:49.999Z</time></trkpt><trkpt lat="42.36531777371649" lon="-8.061312541489418"><ele>399.00000000000006</ele><time>2026-04-03T17:16:52.999Z</time></trkpt><trkpt lat="42.36535342634302" lon="-8.061384971075304"><ele>400.0</ele><time>2026-04-03T17:16:55.999Z</time></trkpt><trkpt lat="42.3653987999083" lon="-8.061463136592192"><ele>400.00000000000006</ele><time>2026-04-03T17:16:58.999Z</time></trkpt><trkpt lat="42.36544263601365" lon="-8.061530307955152"><ele>400.0</ele><time>2026-04-03T17:17:01.999Z</time></trkpt><trkpt lat="42.36540944049238" lon="-8.06162064304771"><ele>400.0</ele><time>2026-04-03T17:17:04.999Z</time></trkpt><trkpt lat="42.365324737588935" lon="-8.061645701357854"><ele>400.0</ele><time>2026-04-03T17:17:07.999Z</time></trkpt><trkpt lat="42.36524351957523" lon="-8.061631677197786"><ele>400.00000000000006</ele><time>2026-04-03T17:17:10.999Z</time></trkpt><trkpt lat="42.365165223036875" lon="-8.061656282087718"><ele>400.0</ele><time>2026-04-03T17:17:13.998Z</time></trkpt><trkpt lat="42.36510428788612" lon="-8.06174455697528"><ele>400.7142857142857</ele><time>2026-04-03T17:17:16.998Z</time></trkpt><trkpt lat="42.36508142130164" lon="-8.06182431590562"><ele>401.42857142857144</ele><time>2026-04-03T17:17:18.998Z</time></trkpt><trkpt lat="42.36503621940226" lon="-8.06189811134408"><ele>402.1428571428571</ele><time>2026-04-03T17:17:20.998Z</time></trkpt><trkpt lat="42.36498190175772" lon="-8.061967079793359"><ele>402.8571428571429</ele><time>2026-04-03T17:17:22.998Z</time></trkpt><trkpt lat="42.36492917722788" lon="-8.062030901248203"><ele>403.57142857142856</ele><time>2026-04-03T17:17:24.998Z</time></trkpt><trkpt lat="42.36487509732377" lon="-8.062101888024511"><ele>404.2857142857143</ele><time>2026-04-03T17:17:26.998Z</time></trkpt><trkpt lat="42.36482118306173" lon="-8.062178377224233"><ele>405.0</ele><time>2026-04-03T17:17:28.998Z</time></trkpt><trkpt lat="42.36476355276914" lon="-8.062250253304905"><ele>405.0</ele><time>2026-04-03T17:17:30.998Z</time></trkpt><trkpt lat="42.364717627651636" lon="-8.062328426906092"><ele>405.0</ele><time>2026-04-03T17:17:32.998Z</time></trkpt><trkpt lat="42.364669835996004" lon="-8.062408101753649"><ele>405.0</ele><time>2026-04-03T17:17:34.998Z</time></trkpt><trkpt lat="42.36461750647394" lon="-8.062509637625272"><ele>405.0</ele><time>2026-04-03T17:17:36.998Z</time></trkpt><trkpt lat="42.3645581455538" lon="-8.062611549524114"><ele>405.0</ele><time>2026-04-03T17:17:38.998Z</time></trkpt><trkpt lat="42.36449365539982" lon="-8.062695567786568"><ele>405.0</ele><time>2026-04-03T17:17:40.998Z</time></trkpt><trkpt lat="42.3644339727241" lon="-8.06278636873396"><ele>404.3333333333333</ele><time>2026-04-03T17:17:42.998Z</time></trkpt><trkpt lat="42.36437615164839" lon="-8.062839534167525"><ele>403.66666666666663</ele><time>2026-04-03T17:17:44.998Z</time></trkpt><trkpt lat="42.36430522135441" lon="-8.062866265375673"><ele>403.0</ele><time>2026-04-03T17:17:47.998Z</time></trkpt><trkpt lat="42.36422237413326" lon="-8.062874066326557"><ele>402.3333333333333</ele><time>2026-04-03T17:17:50.998Z</time></trkpt><trkpt lat="42.36413292308451" lon="-8.062845009832134"><ele>401.66666666666663</ele><time>2026-04-03T17:17:53.998Z</time></trkpt><trkpt lat="42.36404526182098" lon="-8.062814672311077"><ele>401.0</ele><time>2026-04-03T17:17:56.997Z</time></trkpt><trkpt lat="42.363978031538515" lon="-8.062799838639902"><ele>401.0</ele><time>2026-04-03T17:17:58.997Z</time></trkpt><trkpt lat="42.36390292438433" lon="-8.062797536460778"><ele>401.0</ele><time>2026-04-03T17:18:00.997Z</time></trkpt><trkpt lat="42.363833856105934" lon="-8.062806007102617"><ele>401.0</ele><time>2026-04-03T17:18:02.997Z</time></trkpt><trkpt lat="42.36376460154912" lon="-8.062814872711119"><ele>401.0</ele><time>2026-04-03T17:18:04.998Z</time></trkpt><trkpt lat="42.36369785210478" lon="-8.062822230794795"><ele>401.0</ele><time>2026-04-03T17:18:06.998Z</time></trkpt><trkpt lat="42.363613953752036" lon="-8.062843101929557"><ele>401.0</ele><time>2026-04-03T17:18:09.998Z</time></trkpt><trkpt lat="42.363550222714544" lon="-8.062842926017916"><ele>401.0</ele><time>2026-04-03T17:18:11.998Z</time></trkpt><trkpt lat="42.36348386614416" lon="-8.062824507819661"><ele>400.66666666666663</ele><time>2026-04-03T17:18:13.998Z</time></trkpt><trkpt lat="42.36341795235015" lon="-8.062777474412737"><ele>400.3333333333333</ele><time>2026-04-03T17:18:15.998Z</time></trkpt><trkpt lat="42.3633523498973" lon="-8.062704580898771"><ele>400.0</ele><time>2026-04-03T17:18:17.998Z</time></trkpt><trkpt lat="42.36329900867339" lon="-8.062628889153645"><ele>399.66666666666663</ele><time>2026-04-03T17:18:19.998Z</time></trkpt><trkpt lat="42.36326941902348" lon="-8.062535595171221"><ele>399.3333333333333</ele><time>2026-04-03T17:18:21.998Z</time></trkpt><trkpt lat="42.36323376881573" lon="-8.06245740828857"><ele>399.0</ele><time>2026-04-03T17:18:23.998Z</time></trkpt><trkpt lat="42.36317500890651" lon="-8.062349184567825"><ele>398.4</ele><time>2026-04-03T17:18:26.999Z</time></trkpt><trkpt lat="42.363079581339896" lon="-8.062264495658075"><ele>397.79999999999995</ele><time>2026-04-03T17:18:28.999Z</time></trkpt><trkpt lat="42.36298290954926" lon="-8.062232254511908"><ele>397.20000000000005</ele><time>2026-04-03T17:18:29.999Z</time></trkpt><trkpt lat="42.36290413580317" lon="-8.06224517610675"><ele>396.6</ele><time>2026-04-03T17:18:30.999Z</time></trkpt><trkpt lat="42.36282561414354" lon="-8.062258851069041"><ele>396.0</ele><time>2026-04-03T17:18:32.999Z</time></trkpt><trkpt lat="42.36274375566255" lon="-8.062276171959123"><ele>397.42857142857144</ele><time>2026-04-03T17:18:35.999Z</time></trkpt><trkpt lat="42.36265722223605" lon="-8.062329427669095"><ele>398.85714285714283</ele><time>2026-04-03T17:18:38.999Z</time></trkpt><trkpt lat="42.362608570513196" lon="-8.062383683805272"><ele>400.2857142857143</ele><time>2026-04-03T17:18:40.999Z</time></trkpt><trkpt lat="42.362553069335256" lon="-8.062479545559782"><ele>401.7142857142857</ele><time>2026-04-03T17:18:43.999Z</time></trkpt><trkpt lat="42.36249099566911" lon="-8.062521164590539"><ele>403.1428571428571</ele><time>2026-04-03T17:18:45.999Z</time></trkpt><trkpt lat="42.36243566364366" lon="-8.062566644600974"><ele>404.57142857142856</ele><time>2026-04-03T17:18:47.999Z</time></trkpt><trkpt lat="42.36237770387524" lon="-8.06260624631847"><ele>406.0</ele><time>2026-04-03T17:18:49.999Z</time></trkpt><trkpt lat="42.36231418810228" lon="-8.062668278322803"><ele>406.2857142857143</ele><time>2026-04-03T17:18:51.999Z</time></trkpt><trkpt lat="42.362249452032366" lon="-8.06271179293852"><ele>406.57142857142856</ele><time>2026-04-03T17:18:53.999Z</time></trkpt><trkpt lat="42.36218888082033" lon="-8.062756877594719"><ele>406.8571428571429</ele><time>2026-04-03T17:18:55.999Z</time></trkpt><trkpt lat="42.36214340817342" lon="-8.062816838316246"><ele>407.1428571428571</ele><time>2026-04-03T17:18:57.999Z</time></trkpt><trkpt lat="42.36211773145772" lon="-8.062902252272242"><ele>407.42857142857144</ele><time>2026-04-03T17:18:59.999Z</time></trkpt><trkpt lat="42.362131079715915" lon="-8.063004492919946"><ele>407.7142857142857</ele><time>2026-04-03T17:19:01.999Z</time></trkpt><trkpt lat="42.36212003457964" lon="-8.063104075476723"><ele>408.0</ele><time>2026-04-03T17:19:03.999Z</time></trkpt><trkpt lat="42.36209310400453" lon="-8.063190650653652"><ele>409.79999999999995</ele><time>2026-04-03T17:19:05.999Z</time></trkpt><trkpt lat="42.36209097555011" lon="-8.063316530838758"><ele>411.6</ele><time>2026-04-03T17:19:08.999Z</time></trkpt><trkpt lat="42.362153569041475" lon="-8.063412897505376"><ele>413.4</ele><time>2026-04-03T17:19:11.999Z</time></trkpt><trkpt lat="42.36220604334412" lon="-8.06351120588843"><ele>415.20000000000005</ele><time>2026-04-03T17:19:13.999Z</time></trkpt><trkpt lat="42.36224524424542" lon="-8.06362712046907"><ele>417.0</ele><time>2026-04-03T17:19:15.999Z</time></trkpt><trkpt lat="42.36225399421066" lon="-8.063765018725825"><ele>417.0</ele><time>2026-04-03T17:19:17.999Z</time></trkpt><trkpt lat="42.36223882098567" lon="-8.063900764794045"><ele>417.0</ele><time>2026-04-03T17:19:19.999Z</time></trkpt><trkpt lat="42.362229479473534" lon="-8.064023418273639"><ele>417.0</ele><time>2026-04-03T17:19:21.999Z</time></trkpt><trkpt lat="42.36223822334384" lon="-8.064133733212406"><ele>417.0</ele><time>2026-04-03T17:19:23.999Z</time></trkpt><trkpt lat="42.36222435908475" lon="-8.06425071380533"><ele>417.0</ele><time>2026-04-03T17:19:25.999Z</time></trkpt><trkpt lat="42.36221982458172" lon="-8.064356734940905"><ele>417.0</ele><time>2026-04-03T17:19:27.998Z</time></trkpt><trkpt lat="42.36219058678294" lon="-8.06445258512644"><ele>420.0</ele><time>2026-04-03T17:19:29.998Z</time></trkpt><trkpt lat="42.36218571002826" lon="-8.064572287809215"><ele>423.0</ele><time>2026-04-03T17:19:31.998Z</time></trkpt><trkpt lat="42.36217272691547" lon="-8.064722900211024"><ele>426.00000000000006</ele><time>2026-04-03T17:19:33.998Z</time></trkpt><trkpt lat="42.362133826988796" lon="-8.064848037838576"><ele>429.0</ele><time>2026-04-03T17:19:35.998Z</time></trkpt><trkpt lat="42.36207989109633" lon="-8.064950085802813"><ele>432.0</ele><time>2026-04-03T17:19:37.998Z</time></trkpt><trkpt lat="42.362034748745984" lon="-8.06503815883396"><ele>432.3333333333333</ele><time>2026-04-03T17:19:39.998Z</time></trkpt><trkpt lat="42.36200105957018" lon="-8.065140538364492"><ele>432.66666666666663</ele><time>2026-04-03T17:19:41.998Z</time></trkpt><trkpt lat="42.36194961106828" lon="-8.06523344112565"><ele>433.0</ele><time>2026-04-03T17:19:43.998Z</time></trkpt><trkpt lat="42.36192606485142" lon="-8.065350889013018"><ele>433.3333333333333</ele><time>2026-04-03T17:19:45.998Z</time></trkpt><trkpt lat="42.36187895966348" lon="-8.065427663190082"><ele>433.66666666666663</ele><time>2026-04-03T17:19:50.998Z</time></trkpt><trkpt lat="42.3617717317496" lon="-8.065407807979946"><ele>434.0</ele><time>2026-04-03T17:19:51.998Z</time></trkpt><trkpt lat="42.361711755771026" lon="-8.065305299230102"><ele>434.0</ele><time>2026-04-03T17:19:53.998Z</time></trkpt><trkpt lat="42.361659012668035" lon="-8.065229283457354"><ele>434.0</ele><time>2026-04-03T17:19:56.998Z</time></trkpt><trkpt lat="42.36158471941136" lon="-8.065143534129707"><ele>434.0</ele><time>2026-04-03T17:19:58.998Z</time></trkpt><trkpt lat="42.36149054441893" lon="-8.065049278737934"><ele>434.0</ele><time>2026-04-03T17:20:00.998Z</time></trkpt><trkpt lat="42.36141817812509" lon="-8.064968882862262"><ele>434.0</ele><time>2026-04-03T17:20:02.998Z</time></trkpt><trkpt lat="42.361336079016944" lon="-8.064894042371389"><ele>433.6</ele><time>2026-04-03T17:20:04.998Z</time></trkpt><trkpt lat="42.36124200186186" lon="-8.064836292777217"><ele>433.2</ele><time>2026-04-03T17:20:06.998Z</time></trkpt><trkpt lat="42.36118895749" lon="-8.064784888641038"><ele>432.80000000000007</ele><time>2026-04-03T17:20:07.998Z</time></trkpt><trkpt lat="42.36109278634421" lon="-8.064702860368909"><ele>432.40000000000003</ele><time>2026-04-03T17:20:09.998Z</time></trkpt><trkpt lat="42.36099617445957" lon="-8.064637055734936"><ele>432.0</ele><time>2026-04-03T17:20:11.998Z</time></trkpt><trkpt lat="42.36092789643004" lon="-8.064580669135449"><ele>432.0</ele><time>2026-04-03T17:20:13.998Z</time></trkpt><trkpt lat="42.36085260974978" lon="-8.064523838941918"><ele>432.0</ele><time>2026-04-03T17:20:15.999Z</time></trkpt><trkpt lat="42.360793321026975" lon="-8.064478259312505"><ele>432.0</ele><time>2026-04-03T17:20:17.999Z</time></trkpt><trkpt lat="42.36076241705615" lon="-8.064387388272833"><ele>432.0</ele><time>2026-04-03T17:20:18.999Z</time></trkpt><trkpt lat="42.36073472073364" lon="-8.064307651668745"><ele>432.0</ele><time>2026-04-03T17:20:20.999Z</time></trkpt><trkpt lat="42.36070396797891" lon="-8.064231009000833"><ele>432.0</ele><time>2026-04-03T17:20:22.999Z</time></trkpt><trkpt lat="42.36065641873894" lon="-8.064144131964005"><ele>432.0</ele><time>2026-04-03T17:20:26.999Z</time></trkpt><trkpt lat="42.36061401085813" lon="-8.064075840245838"><ele>431.0</ele><time>2026-04-03T17:20:29.999Z</time></trkpt><trkpt lat="42.36056429081818" lon="-8.063998103859081"><ele>430.0</ele><time>2026-04-03T17:20:32.999Z</time></trkpt><trkpt lat="42.36050496914489" lon="-8.063913886319199"><ele>429.0</ele><time>2026-04-03T17:20:35.999Z</time></trkpt><trkpt lat="42.36045379610329" lon="-8.063842774829437"><ele>428.0</ele><time>2026-04-03T17:20:37.999Z</time></trkpt><trkpt lat="42.360394024019946" lon="-8.06376368684049"><ele>427.0</ele><time>2026-04-03T17:20:39.999Z</time></trkpt><trkpt lat="42.36033746898306" lon="-8.063691895843487"><ele>426.0</ele><time>2026-04-03T17:20:41.999Z</time></trkpt><trkpt lat="42.360271707991984" lon="-8.06360841880133"><ele>426.0</ele><time>2026-04-03T17:20:43.999Z</time></trkpt><trkpt lat="42.36021795362534" lon="-8.06351274113658"><ele>426.0</ele><time>2026-04-03T17:20:45.999Z</time></trkpt><trkpt lat="42.36014388205215" lon="-8.063451149864694"><ele>426.0</ele><time>2026-04-03T17:20:47.999Z</time></trkpt><trkpt lat="42.36008094389366" lon="-8.063338747254805"><ele>426.0</ele><time>2026-04-03T17:20:49.999Z</time></trkpt><trkpt lat="42.360037671391645" lon="-8.063198916667815"><ele>426.0</ele><time>2026-04-03T17:20:51.999Z</time></trkpt><trkpt lat="42.35993254765574" lon="-8.063144724732476"><ele>424.6666666666667</ele><time>2026-04-03T17:20:53.999Z</time></trkpt><trkpt lat="42.359836891553066" lon="-8.063084813164773"><ele>423.33333333333337</ele><time>2026-04-03T17:20:56Z</time></trkpt><trkpt lat="42.35974946034227" lon="-8.063061028797549"><ele>422.0</ele><time>2026-04-03T17:20:58Z</time></trkpt><trkpt lat="42.35965838617964" lon="-8.063013974772826"><ele>420.6666666666667</ele><time>2026-04-03T17:21:00Z</time></trkpt><trkpt lat="42.359599895636165" lon="-8.062948243559452"><ele>419.33333333333337</ele><time>2026-04-03T17:21:02Z</time></trkpt><trkpt lat="42.35955069573482" lon="-8.0628922985843"><ele>418.0</ele><time>2026-04-03T17:21:04Z</time></trkpt><trkpt lat="42.35957619709773" lon="-8.062723565019034"><ele>417.83333333333337</ele><time>2026-04-03T17:21:06Z</time></trkpt><trkpt lat="42.359536790513516" lon="-8.062615385419605"><ele>417.6666666666667</ele><time>2026-04-03T17:21:08Z</time></trkpt><trkpt lat="42.35951590919623" lon="-8.062510802591154"><ele>417.5</ele><time>2026-04-03T17:21:10Z</time></trkpt><trkpt lat="42.35949745243336" lon="-8.062400807773727"><ele>417.33333333333337</ele><time>2026-04-03T17:21:12Z</time></trkpt><trkpt lat="42.35948950988287" lon="-8.062280689469201"><ele>417.1666666666667</ele><time>2026-04-03T17:21:14Z</time></trkpt><trkpt lat="42.35952681605487" lon="-8.062147619561932"><ele>417.0</ele><time>2026-04-03T17:21:16Z</time></trkpt><trkpt lat="42.35960618485042" lon="-8.062061645769463"><ele>416.1666666666667</ele><time>2026-04-03T17:21:18Z</time></trkpt><trkpt lat="42.35967948707501" lon="-8.0619879578116"><ele>415.33333333333337</ele><time>2026-04-03T17:21:20Z</time></trkpt><trkpt lat="42.359751312053895" lon="-8.061920019454142"><ele>414.5</ele><time>2026-04-03T17:21:22Z</time></trkpt><trkpt lat="42.35980841553867" lon="-8.061841796906927"><ele>413.6666666666667</ele><time>2026-04-03T17:21:24Z</time></trkpt><trkpt lat="42.35985084923162" lon="-8.061760139486923"><ele>412.83333333333337</ele><time>2026-04-03T17:21:27Z</time></trkpt><trkpt lat="42.35988182645226" lon="-8.061674469505318"><ele>412.0</ele><time>2026-04-03T17:21:34Z</time></trkpt><trkpt lat="42.35994582680322" lon="-8.061531441446236"><ele>406.0</ele><time>2026-04-03T17:21:36Z</time></trkpt><trkpt lat="42.36001849049822" lon="-8.061490960792085"><ele>406.0</ele><time>2026-04-03T17:21:38Z</time></trkpt><trkpt lat="42.360087574005355" lon="-8.061480955708042"><ele>406.0</ele><time>2026-04-03T17:21:40Z</time></trkpt></trkseg><trkseg><trkpt lat="42.36002569186371" lon="-8.061502725649238"><ele>406.0</ele><time>2026-04-03T17:55:20.998Z</time></trkpt><trkpt lat="42.35998289213899" lon="-8.061567294092765"><ele>406.0</ele><time>2026-04-03T17:55:21.998Z</time></trkpt><trkpt lat="42.35990365216407" lon="-8.061692254204191"><ele>406.0</ele><time>2026-04-03T17:55:23.999Z</time></trkpt><trkpt lat="42.35986238054991" lon="-8.061780756346907"><ele>406.0</ele><time>2026-04-03T17:55:25.999Z</time></trkpt><trkpt lat="42.35979770813537" lon="-8.061895205882712"><ele>406.0</ele><time>2026-04-03T17:55:27.999Z</time></trkpt><trkpt lat="42.35988317789839" lon="-8.061802150101705"><ele>406.6</ele><time>2026-04-03T17:55:29.999Z</time></trkpt><trkpt lat="42.359804245384616" lon="-8.061823316732646"><ele>407.20000000000005</ele><time>2026-04-03T17:55:48.999Z</time></trkpt><trkpt lat="42.359724530817786" lon="-8.061954235741577"><ele>407.79999999999995</ele><time>2026-04-03T17:56:17.999Z</time></trkpt><trkpt lat="42.359655961362414" lon="-8.062028502524253"><ele>408.4</ele><time>2026-04-03T17:56:18.999Z</time></trkpt><trkpt lat="42.35959097833963" lon="-8.062134345418935"><ele>409.0</ele><time>2026-04-03T17:56:19.999Z</time></trkpt><trkpt lat="42.35952090150627" lon="-8.062196950391877"><ele>409.0</ele><time>2026-04-03T17:56:20.999Z</time></trkpt><trkpt lat="42.35950344361894" lon="-8.062299661042102"><ele>409.0</ele><time>2026-04-03T17:56:21.999Z</time></trkpt><trkpt lat="42.35953328224109" lon="-8.062435319174023"><ele>409.0</ele><time>2026-04-03T17:56:22.999Z</time></trkpt><trkpt lat="42.359547394432695" lon="-8.0625770755945"><ele>409.0</ele><time>2026-04-03T17:56:23.999Z</time></trkpt><trkpt lat="42.359586275496255" lon="-8.062711419317145"><ele>409.0</ele><time>2026-04-03T17:56:24.999Z</time></trkpt><trkpt lat="42.359616961010616" lon="-8.062822097391372"><ele>410.6</ele><time>2026-04-03T17:56:25.999Z</time></trkpt><trkpt lat="42.35964622181767" lon="-8.062933402870174"><ele>412.2</ele><time>2026-04-03T17:56:26.999Z</time></trkpt><trkpt lat="42.359683670237445" lon="-8.063041648363138"><ele>413.8</ele><time>2026-04-03T17:56:27.999Z</time></trkpt><trkpt lat="42.359793526930645" lon="-8.063047678590474"><ele>415.40000000000003</ele><time>2026-04-03T17:56:28.999Z</time></trkpt><trkpt lat="42.35990951896677" lon="-8.06308407996871"><ele>417.0</ele><time>2026-04-03T17:56:29.999Z</time></trkpt><trkpt lat="42.36001768810865" lon="-8.063143720352878"><ele>417.25</ele><time>2026-04-03T17:56:30.999Z</time></trkpt><trkpt lat="42.36009719946867" lon="-8.06324469053623"><ele>417.5</ele><time>2026-04-03T17:56:31.999Z</time></trkpt><trkpt lat="42.36017000595311" lon="-8.063371555251097"><ele>417.75</ele><time>2026-04-03T17:56:32.999Z</time></trkpt><trkpt lat="42.360239714523395" lon="-8.063504070919457"><ele>418.0</ele><time>2026-04-03T17:56:33.999Z</time></trkpt><trkpt lat="42.36032853548307" lon="-8.063644044466722"><ele>419.75</ele><time>2026-04-03T17:56:34.999Z</time></trkpt><trkpt lat="42.360437681289454" lon="-8.063764748377785"><ele>421.5</ele><time>2026-04-03T17:56:35.999Z</time></trkpt><trkpt lat="42.360544863201774" lon="-8.063898934798653"><ele>423.25</ele><time>2026-04-03T17:56:36.999Z</time></trkpt><trkpt lat="42.36064000256002" lon="-8.064045043156245"><ele>425.0</ele><time>2026-04-03T17:56:37.999Z</time></trkpt><trkpt lat="42.360720392864415" lon="-8.064171541611769"><ele>426.4</ele><time>2026-04-03T17:56:38.999Z</time></trkpt><trkpt lat="42.36079642219644" lon="-8.064286819966723"><ele>427.8</ele><time>2026-04-03T17:56:39.999Z</time></trkpt><trkpt lat="42.360826413613495" lon="-8.064412929795804"><ele>429.20000000000005</ele><time>2026-04-03T17:56:40.999Z</time></trkpt><trkpt lat="42.360855103331936" lon="-8.064495720091642"><ele>430.6</ele><time>2026-04-03T17:56:41.999Z</time></trkpt><trkpt lat="42.36095897921142" lon="-8.064557572081606"><ele>432.0</ele><time>2026-04-03T17:56:45.999Z</time></trkpt><trkpt lat="42.36109115718222" lon="-8.064668544816746"><ele>432.0</ele><time>2026-04-03T17:56:47.999Z</time></trkpt><trkpt lat="42.36116130630604" lon="-8.064740474105943"><ele>432.0</ele><time>2026-04-03T17:56:48.999Z</time></trkpt><trkpt lat="42.36122998164274" lon="-8.064790766438328"><ele>432.0</ele><time>2026-04-03T17:56:49.999Z</time></trkpt><trkpt lat="42.36130117020063" lon="-8.064841373132774"><ele>432.0</ele><time>2026-04-03T17:56:50.999Z</time></trkpt><trkpt lat="42.361367235773386" lon="-8.064896937564216"><ele>432.0</ele><time>2026-04-03T17:56:51.999Z</time></trkpt><trkpt lat="42.361432889469754" lon="-8.064945448093711"><ele>432.0</ele><time>2026-04-03T17:56:52.999Z</time></trkpt><trkpt lat="42.3614909118782" lon="-8.064995360341642"><ele>432.40000000000003</ele><time>2026-04-03T17:56:53.999Z</time></trkpt><trkpt lat="42.36155987594285" lon="-8.065047992291039"><ele>432.80000000000007</ele><time>2026-04-03T17:56:54.998Z</time></trkpt><trkpt lat="42.361609630822656" lon="-8.065107190526325"><ele>433.2</ele><time>2026-04-03T17:56:55.998Z</time></trkpt><trkpt lat="42.361701345649834" lon="-8.06519891785593"><ele>433.6</ele><time>2026-04-03T17:56:57.998Z</time></trkpt><trkpt lat="42.36178231944559" lon="-8.065304698861887"><ele>434.0</ele><time>2026-04-03T17:56:59.998Z</time></trkpt><trkpt lat="42.361840318578004" lon="-8.065406745387362"><ele>434.0</ele><time>2026-04-03T17:57:01.998Z</time></trkpt><trkpt lat="42.36187030544739" lon="-8.065490240840347"><ele>434.0</ele><time>2026-04-03T17:57:04.998Z</time></trkpt><trkpt lat="42.36195355795088" lon="-8.065550901382004"><ele>434.0</ele><time>2026-04-03T17:59:45Z</time></trkpt><trkpt lat="42.36197410601429" lon="-8.06567813598462"><ele>434.0</ele><time>2026-04-03T17:59:47Z</time></trkpt><trkpt lat="42.36202354189731" lon="-8.065842202502683"><ele>434.0</ele><time>2026-04-03T17:59:48Z</time></trkpt><trkpt lat="42.3621284748456" lon="-8.065974609606227"><ele>433.75</ele><time>2026-04-03T17:59:49Z</time></trkpt><trkpt lat="42.362187368742376" lon="-8.066087783893241"><ele>433.5</ele><time>2026-04-03T17:59:50Z</time></trkpt><trkpt lat="42.362275247943074" lon="-8.066241424530656"><ele>433.25</ele><time>2026-04-03T17:59:51Z</time></trkpt><trkpt lat="42.36212177622463" lon="-8.066175738908345"><ele>433.0</ele><time>2026-04-03T17:59:52Z</time></trkpt><trkpt lat="42.36212350566022" lon="-8.066286476430944"><ele>433.0</ele><time>2026-04-03T17:59:53Z</time></trkpt><trkpt lat="42.362129418036986" lon="-8.066408966931876"><ele>432.99999999999994</ele><time>2026-04-03T17:59:54Z</time></trkpt><trkpt lat="42.36212587352119" lon="-8.066535275437877"><ele>432.99999999999994</ele><time>2026-04-03T17:59:55Z</time></trkpt><trkpt lat="42.36211418895268" lon="-8.066668112347916"><ele>433.0</ele><time>2026-04-03T17:59:56Z</time></trkpt><trkpt lat="42.36210352671892" lon="-8.066811079372368"><ele>433.0</ele><time>2026-04-03T17:59:57Z</time></trkpt><trkpt lat="42.36209563366187" lon="-8.066963372025992"><ele>433.00000000000006</ele><time>2026-04-03T17:59:58Z</time></trkpt><trkpt lat="42.36208748330276" lon="-8.06710024396927"><ele>433.0</ele><time>2026-04-03T17:59:59Z</time></trkpt><trkpt lat="42.362081947227196" lon="-8.067216860067635"><ele>433.0</ele><time>2026-04-03T18:00:00Z</time></trkpt><trkpt lat="42.36207460247048" lon="-8.06732785988444"><ele>433.0</ele><time>2026-04-03T18:00:01Z</time></trkpt><trkpt lat="42.36207078269262" lon="-8.067429506450559"><ele>433.00000000000006</ele><time>2026-04-03T18:00:02Z</time></trkpt><trkpt lat="42.36206587455154" lon="-8.067523321339753"><ele>433.0</ele><time>2026-04-03T18:00:03Z</time></trkpt><trkpt lat="42.36207087900075" lon="-8.067686764388158"><ele>433.2</ele><time>2026-04-03T18:00:05Z</time></trkpt><trkpt lat="42.36212613640325" lon="-8.06782548735656"><ele>433.4</ele><time>2026-04-03T18:00:07Z</time></trkpt><trkpt lat="42.362210150910784" lon="-8.067930464735332"><ele>433.59999999999997</ele><time>2026-04-03T18:00:08.999Z</time></trkpt><trkpt lat="42.362317880939656" lon="-8.067997858606946"><ele>433.79999999999995</ele><time>2026-04-03T18:00:10.999Z</time></trkpt><trkpt lat="42.36237045563967" lon="-8.068052909316766"><ele>434.0</ele><time>2026-04-03T18:00:11.999Z</time></trkpt><trkpt lat="42.36244033374716" lon="-8.068060842435939"><ele>434.99999999999994</ele><time>2026-04-03T18:00:12.999Z</time></trkpt><trkpt lat="42.362497909197074" lon="-8.068098746719299"><ele>436.0</ele><time>2026-04-03T18:00:13.999Z</time></trkpt><trkpt lat="42.36255122708494" lon="-8.068146524683096"><ele>437.0</ele><time>2026-04-03T18:00:14.999Z</time></trkpt><trkpt lat="42.36262986724496" lon="-8.068229695709485"><ele>438.0</ele><time>2026-04-03T18:00:16.999Z</time></trkpt><trkpt lat="42.362679108989575" lon="-8.068322850324384"><ele>438.99999999999994</ele><time>2026-04-03T18:00:18.999Z</time></trkpt><trkpt lat="42.36272549226067" lon="-8.06842942692587"><ele>440.0</ele><time>2026-04-03T18:00:20.999Z</time></trkpt><trkpt lat="42.36275701001094" lon="-8.068554746516796"><ele>440.4</ele><time>2026-04-03T18:00:22.999Z</time></trkpt><trkpt lat="42.36278934179973" lon="-8.068664034610785"><ele>440.8</ele><time>2026-04-03T18:00:24.999Z</time></trkpt><trkpt lat="42.36283854705737" lon="-8.068788780758073"><ele>441.20000000000005</ele><time>2026-04-03T18:00:26.999Z</time></trkpt><trkpt lat="42.36288362856218" lon="-8.068931036421509"><ele>441.6</ele><time>2026-04-03T18:00:28.999Z</time></trkpt><trkpt lat="42.362890302403024" lon="-8.069019577578366"><ele>442.0</ele><time>2026-04-03T18:00:29.999Z</time></trkpt><trkpt lat="42.36288088384541" lon="-8.069178780836765"><ele>443.20000000000005</ele><time>2026-04-03T18:00:31.999Z</time></trkpt><trkpt lat="42.36286340480934" lon="-8.069273114710962"><ele>444.40000000000003</ele><time>2026-04-03T18:00:33.999Z</time></trkpt><trkpt lat="42.362841839507745" lon="-8.069353262484556"><ele>445.59999999999997</ele><time>2026-04-03T18:00:35.999Z</time></trkpt><trkpt lat="42.36278539015688" lon="-8.069479351814849"><ele>446.79999999999995</ele><time>2026-04-03T18:00:37.999Z</time></trkpt><trkpt lat="42.362713326784046" lon="-8.069615033203894"><ele>448.0</ele><time>2026-04-03T18:00:39.999Z</time></trkpt><trkpt lat="42.36268762063616" lon="-8.069747315936807"><ele>448.00000000000006</ele><time>2026-04-03T18:00:41.999Z</time></trkpt><trkpt lat="42.36273783272208" lon="-8.069840246787356"><ele>448.0</ele><time>2026-04-03T18:00:43.999Z</time></trkpt><trkpt lat="42.36281547422344" lon="-8.069905228258296"><ele>448.0</ele><time>2026-04-03T18:00:45.999Z</time></trkpt><trkpt lat="42.362902309841836" lon="-8.069944398091883"><ele>448.0</ele><time>2026-04-03T18:00:47.999Z</time></trkpt><trkpt lat="42.363008733361426" lon="-8.069958188527389"><ele>448.00000000000006</ele><time>2026-04-03T18:00:49.999Z</time></trkpt><trkpt lat="42.36307417320797" lon="-8.069998120070393"><ele>448.0</ele><time>2026-04-03T18:00:50.999Z</time></trkpt><trkpt lat="42.36319769177542" lon="-8.07003233278359"><ele>449.83333333333337</ele><time>2026-04-03T18:00:52.999Z</time></trkpt><trkpt lat="42.36327680266859" lon="-8.070068342113025"><ele>451.6666666666667</ele><time>2026-04-03T18:00:53.999Z</time></trkpt><trkpt lat="42.363346805842156" lon="-8.070088784931455"><ele>453.5</ele><time>2026-04-03T18:00:54.999Z</time></trkpt><trkpt lat="42.36341772469214" lon="-8.070153267817922"><ele>455.33333333333337</ele><time>2026-04-03T18:00:55.999Z</time></trkpt><trkpt lat="42.36350099173262" lon="-8.070184693447285"><ele>457.1666666666667</ele><time>2026-04-03T18:00:56.999Z</time></trkpt><trkpt lat="42.36358244136009" lon="-8.070200931846655"><ele>459.0</ele><time>2026-04-03T18:00:57.999Z</time></trkpt><trkpt lat="42.36367827955312" lon="-8.070197660502886"><ele>459.0</ele><time>2026-04-03T18:00:58.999Z</time></trkpt><trkpt lat="42.36377071955083" lon="-8.070230519104708"><ele>459.0</ele><time>2026-04-03T18:00:59.999Z</time></trkpt><trkpt lat="42.363851048953514" lon="-8.070235800698802"><ele>459.0</ele><time>2026-04-03T18:01:00.999Z</time></trkpt><trkpt lat="42.36394051361463" lon="-8.070249200499997"><ele>459.0</ele><time>2026-04-03T18:01:01.999Z</time></trkpt><trkpt lat="42.364017542321" lon="-8.070271881194557"><ele>459.0</ele><time>2026-04-03T18:01:02.999Z</time></trkpt><trkpt lat="42.3640824543183" lon="-8.070330780609838"><ele>459.0</ele><time>2026-04-03T18:01:03.999Z</time></trkpt><trkpt lat="42.36413307981523" lon="-8.070382049763364"><ele>459.4</ele><time>2026-04-03T18:01:04.999Z</time></trkpt><trkpt lat="42.36421087973617" lon="-8.070475258771433"><ele>459.79999999999995</ele><time>2026-04-03T18:01:06.999Z</time></trkpt><trkpt lat="42.364275419589084" lon="-8.070531324153738"><ele>460.20000000000005</ele><time>2026-04-03T18:01:08.999Z</time></trkpt><trkpt lat="42.36433715654811" lon="-8.070554422590307"><ele>460.6</ele><time>2026-04-03T18:01:12.999Z</time></trkpt><trkpt lat="42.364442175661395" lon="-8.070495949326448"><ele>461.0</ele><time>2026-04-03T18:02:42.999Z</time></trkpt><trkpt lat="42.364551311184584" lon="-8.070355776821867"><ele>461.0</ele><time>2026-04-03T18:02:44.999Z</time></trkpt><trkpt lat="42.364616968117105" lon="-8.070254240249307"><ele>461.0</ele><time>2026-04-03T18:02:45.999Z</time></trkpt><trkpt lat="42.364682787120415" lon="-8.070139844394223"><ele>461.0</ele><time>2026-04-03T18:02:46.999Z</time></trkpt><trkpt lat="42.364739194245196" lon="-8.070025925683856"><ele>461.0</ele><time>2026-04-03T18:02:47.999Z</time></trkpt><trkpt lat="42.36479738324586" lon="-8.069903260067413"><ele>461.0</ele><time>2026-04-03T18:02:48.999Z</time></trkpt><trkpt lat="42.364853973263884" lon="-8.069783965195045"><ele>460.8333333333333</ele><time>2026-04-03T18:02:49.999Z</time></trkpt><trkpt lat="42.36490870366378" lon="-8.069672379598044"><ele>460.66666666666663</ele><time>2026-04-03T18:02:50.999Z</time></trkpt><trkpt lat="42.364950292094086" lon="-8.069588230413263"><ele>460.5</ele><time>2026-04-03T18:02:51.999Z</time></trkpt><trkpt lat="42.36500483407946" lon="-8.069513215541445"><ele>460.33333333333337</ele><time>2026-04-03T18:02:53.999Z</time></trkpt><trkpt lat="42.36504421906723" lon="-8.069405648777423"><ele>460.1666666666667</ele><time>2026-04-03T18:02:56.999Z</time></trkpt><trkpt lat="42.36508206601826" lon="-8.069332644964804"><ele>460.0</ele><time>2026-04-03T18:02:57.999Z</time></trkpt><trkpt lat="42.3651430437034" lon="-8.069252121929738"><ele>460.0</ele><time>2026-04-03T18:02:58.999Z</time></trkpt><trkpt lat="42.36518578355286" lon="-8.069162329528734"><ele>460.0</ele><time>2026-04-03T18:02:59.999Z</time></trkpt><trkpt lat="42.36525458670751" lon="-8.069042406524384"><ele>460.0</ele><time>2026-04-03T18:03:00.999Z</time></trkpt><trkpt lat="42.365309534011374" lon="-8.068914324902568"><ele>460.0</ele><time>2026-04-03T18:03:01.999Z</time></trkpt><trkpt lat="42.365380604849754" lon="-8.068800378019938"><ele>460.0</ele><time>2026-04-03T18:03:02.999Z</time></trkpt><trkpt lat="42.36545480952451" lon="-8.068680964181885"><ele>459.2</ele><time>2026-04-03T18:03:03.999Z</time></trkpt><trkpt lat="42.36552387087381" lon="-8.068542011876072"><ele>458.4</ele><time>2026-04-03T18:03:04.999Z</time></trkpt><trkpt lat="42.365602852970426" lon="-8.068451162421622"><ele>457.6</ele><time>2026-04-03T18:03:05.999Z</time></trkpt><trkpt lat="42.365675345100684" lon="-8.068345382627111"><ele>456.8</ele><time>2026-04-03T18:03:06.999Z</time></trkpt><trkpt lat="42.36575280803277" lon="-8.068248948029595"><ele>456.0</ele><time>2026-04-03T18:03:07.999Z</time></trkpt><trkpt lat="42.365811130490094" lon="-8.06815832818761"><ele>456.0</ele><time>2026-04-03T18:03:08.999Z</time></trkpt><trkpt lat="42.365872039456974" lon="-8.068096233471124"><ele>456.0</ele><time>2026-04-03T18:03:09.999Z</time></trkpt><trkpt lat="42.365933116394004" lon="-8.0680356983879"><ele>456.0</ele><time>2026-04-03T18:03:10.999Z</time></trkpt><trkpt lat="42.36597576239899" lon="-8.067959700479685"><ele>456.0</ele><time>2026-04-03T18:03:11.999Z</time></trkpt><trkpt lat="42.36606047428063" lon="-8.067866215480697"><ele>456.0</ele><time>2026-04-03T18:03:13.999Z</time></trkpt><trkpt lat="42.36604192656138" lon="-8.067780184096748"><ele>456.0</ele><time>2026-04-03T18:03:15.999Z</time></trkpt><trkpt lat="42.366009028674355" lon="-8.067916667388156"><ele>456.0</ele><time>2026-04-03T18:03:27.999Z</time></trkpt><trkpt lat="42.36591142247989" lon="-8.068038309738185"><ele>456.0</ele><time>2026-04-03T18:03:28.999Z</time></trkpt><trkpt lat="42.365827029401814" lon="-8.068128536452136"><ele>456.0</ele><time>2026-04-03T18:03:29.999Z</time></trkpt><trkpt lat="42.36573899219394" lon="-8.068235303241819"><ele>456.0</ele><time>2026-04-03T18:03:30.999Z</time></trkpt><trkpt lat="42.36565785632695" lon="-8.068380490251474"><ele>456.0</ele><time>2026-04-03T18:03:31.998Z</time></trkpt><trkpt lat="42.36555078179041" lon="-8.068488846180905"><ele>456.0</ele><time>2026-04-03T18:03:32.998Z</time></trkpt><trkpt lat="42.36545061274865" lon="-8.06861892846402"><ele>456.0</ele><time>2026-04-03T18:03:33.998Z</time></trkpt><trkpt lat="42.36536603713006" lon="-8.068794288608276"><ele>456.0</ele><time>2026-04-03T18:03:34.998Z</time></trkpt><trkpt lat="42.36527438450505" lon="-8.068954362532573"><ele>457.0</ele><time>2026-04-03T18:03:35.998Z</time></trkpt><trkpt lat="42.36518599237211" lon="-8.069123032420903"><ele>458.0</ele><time>2026-04-03T18:03:36.998Z</time></trkpt><trkpt lat="42.3650983298712" lon="-8.069293502517137"><ele>459.0</ele><time>2026-04-03T18:03:37.998Z</time></trkpt><trkpt lat="42.36502172786998" lon="-8.069447494540396"><ele>460.0</ele><time>2026-04-03T18:03:38.998Z</time></trkpt><trkpt lat="42.36495718151318" lon="-8.069570354541163"><ele>460.0</ele><time>2026-04-03T18:03:39.998Z</time></trkpt><trkpt lat="42.36490526323288" lon="-8.069674739438623"><ele>460.0</ele><time>2026-04-03T18:03:40.998Z</time></trkpt><trkpt lat="42.36485161458287" lon="-8.069778631181014"><ele>460.0</ele><time>2026-04-03T18:03:41.998Z</time></trkpt><trkpt lat="42.36479476972882" lon="-8.06990291079835"><ele>460.0</ele><time>2026-04-03T18:03:42.998Z</time></trkpt><trkpt lat="42.36473288067901" lon="-8.070028135769558"><ele>460.0</ele><time>2026-04-03T18:03:43.999Z</time></trkpt><trkpt lat="42.36466637293268" lon="-8.07020052525322"><ele>460.25</ele><time>2026-04-03T18:03:44.999Z</time></trkpt><trkpt lat="42.364571626185956" lon="-8.070333595964838"><ele>460.5</ele><time>2026-04-03T18:03:45.999Z</time></trkpt><trkpt lat="42.36450637922343" lon="-8.070475038261073"><ele>460.75</ele><time>2026-04-03T18:03:46.999Z</time></trkpt><trkpt lat="42.36443051249058" lon="-8.070588320922054"><ele>461.0</ele><time>2026-04-03T18:03:47.999Z</time></trkpt><trkpt lat="42.364342746581876" lon="-8.07068820319454"><ele>463.5</ele><time>2026-04-03T18:03:48.999Z</time></trkpt><trkpt lat="42.36425628834132" lon="-8.070795141744727"><ele>466.0</ele><time>2026-04-03T18:03:49.999Z</time></trkpt><trkpt lat="42.3641542454877" lon="-8.070892135000152"><ele>468.5</ele><time>2026-04-03T18:03:50.999Z</time></trkpt><trkpt lat="42.36414629507127" lon="-8.071126006706587"><ele>471.0</ele><time>2026-04-03T18:03:51.999Z</time></trkpt><trkpt lat="42.36406772870325" lon="-8.071279897816167"><ele>471.0</ele><time>2026-04-03T18:03:52.999Z</time></trkpt><trkpt lat="42.36399569573069" lon="-8.07143838553162"><ele>471.0</ele><time>2026-04-03T18:03:53.999Z</time></trkpt><trkpt lat="42.36392598597496" lon="-8.071608367186219"><ele>471.0</ele><time>2026-04-03T18:03:54.999Z</time></trkpt><trkpt lat="42.3638544627454" lon="-8.071771668173174"><ele>471.0</ele><time>2026-04-03T18:03:55.999Z</time></trkpt><trkpt lat="42.363780798765134" lon="-8.071955893326642"><ele>473.66666666666663</ele><time>2026-04-03T18:03:56.999Z</time></trkpt><trkpt lat="42.363697242453526" lon="-8.07211305319839"><ele>476.3333333333333</ele><time>2026-04-03T18:03:57.999Z</time></trkpt><trkpt lat="42.36360580943555" lon="-8.072284099034219"><ele>479.0</ele><time>2026-04-03T18:03:58.999Z</time></trkpt><trkpt lat="42.3635059145897" lon="-8.072443607461853"><ele>480.3333333333333</ele><time>2026-04-03T18:03:59.999Z</time></trkpt><trkpt lat="42.36340500902808" lon="-8.072607645059938"><ele>481.66666666666663</ele><time>2026-04-03T18:04:00.999Z</time></trkpt><trkpt lat="42.36329284055889" lon="-8.072760391520879"><ele>483.0</ele><time>2026-04-03T18:04:01.999Z</time></trkpt><trkpt lat="42.363201392038086" lon="-8.07291008203534"><ele>483.0</ele><time>2026-04-03T18:04:02.999Z</time></trkpt><trkpt lat="42.36312024052045" lon="-8.073033613445128"><ele>482.99999999999994</ele><time>2026-04-03T18:04:03.999Z</time></trkpt><trkpt lat="42.36304924068357" lon="-8.073142250687395"><ele>482.99999999999994</ele><time>2026-04-03T18:04:04.999Z</time></trkpt><trkpt lat="42.36300166752525" lon="-8.073245461586682"><ele>483.0</ele><time>2026-04-03T18:04:05.999Z</time></trkpt><trkpt lat="42.36298118230974" lon="-8.073370014792802"><ele>483.0</ele><time>2026-04-03T18:04:06.999Z</time></trkpt><trkpt lat="42.36296503864497" lon="-8.073492748963186"><ele>483.0</ele><time>2026-04-03T18:04:07.999Z</time></trkpt><trkpt lat="42.36296102207513" lon="-8.073612089686659"><ele>483.0</ele><time>2026-04-03T18:04:08.999Z</time></trkpt><trkpt lat="42.36295656398556" lon="-8.073733277638725"><ele>483.0</ele><time>2026-04-03T18:04:09.999Z</time></trkpt><trkpt lat="42.362939772011075" lon="-8.073856886797742"><ele>483.0</ele><time>2026-04-03T18:04:10.999Z</time></trkpt><trkpt lat="42.362960222230335" lon="-8.07397468651377"><ele>483.0</ele><time>2026-04-03T18:04:11.999Z</time></trkpt><trkpt lat="42.36296148647173" lon="-8.074075891939557"><ele>483.0</ele><time>2026-04-03T18:04:12.999Z</time></trkpt><trkpt lat="42.362958995172846" lon="-8.074172641872094"><ele>482.79999999999995</ele><time>2026-04-03T18:04:13.999Z</time></trkpt><trkpt lat="42.36295485714846" lon="-8.074342108286789"><ele>482.59999999999997</ele><time>2026-04-03T18:04:15.999Z</time></trkpt><trkpt lat="42.36295882494418" lon="-8.074445418006512"><ele>482.40000000000003</ele><time>2026-04-03T18:04:16.999Z</time></trkpt><trkpt lat="42.36296407307115" lon="-8.074537220384556"><ele>482.20000000000005</ele><time>2026-04-03T18:04:17.999Z</time></trkpt><trkpt lat="42.36298257945038" lon="-8.074686584969664"><ele>482.0</ele><time>2026-04-03T18:04:19.999Z</time></trkpt><trkpt lat="42.36299925536437" lon="-8.07478831846805"><ele>483.40000000000003</ele><time>2026-04-03T18:04:21.999Z</time></trkpt><trkpt lat="42.363156470209674" lon="-8.074749968531092"><ele>484.80000000000007</ele><time>2026-04-03T18:04:24.999Z</time></trkpt><trkpt lat="42.36322809725092" lon="-8.07468622001839"><ele>486.2</ele><time>2026-04-03T18:04:25.999Z</time></trkpt><trkpt lat="42.363307712993645" lon="-8.07460679891161"><ele>487.6</ele><time>2026-04-03T18:04:26.999Z</time></trkpt><trkpt lat="42.36339505154225" lon="-8.074529214566168"><ele>489.0</ele><time>2026-04-03T18:04:27.999Z</time></trkpt><trkpt lat="42.36348838244956" lon="-8.074448341408576"><ele>489.0</ele><time>2026-04-03T18:04:28.999Z</time></trkpt><trkpt lat="42.36359189999769" lon="-8.07436357260199"><ele>489.0</ele><time>2026-04-03T18:04:29.999Z</time></trkpt><trkpt lat="42.363700167231855" lon="-8.074272906625357"><ele>489.0</ele><time>2026-04-03T18:04:30.999Z</time></trkpt><trkpt lat="42.36382299701922" lon="-8.074206752425294"><ele>489.0</ele><time>2026-04-03T18:04:31.999Z</time></trkpt><trkpt lat="42.36395007106183" lon="-8.074151009687025"><ele>490.5</ele><time>2026-04-03T18:04:32.999Z</time></trkpt><trkpt lat="42.364088474684124" lon="-8.074128159764346"><ele>492.0</ele><time>2026-04-03T18:04:33.999Z</time></trkpt><trkpt lat="42.3642358315625" lon="-8.074134640159137"><ele>493.5</ele><time>2026-04-03T18:04:34.999Z</time></trkpt><trkpt lat="42.36437991957641" lon="-8.074166762249513"><ele>495.0</ele><time>2026-04-03T18:04:35.999Z</time></trkpt><trkpt lat="42.36452385624744" lon="-8.074223359410922"><ele>495.0</ele><time>2026-04-03T18:04:36.999Z</time></trkpt><trkpt lat="42.364667183118996" lon="-8.074306940410874"><ele>495.0</ele><time>2026-04-03T18:04:37.999Z</time></trkpt><trkpt lat="42.36480393777008" lon="-8.074417756833519"><ele>495.0</ele><time>2026-04-03T18:04:38.999Z</time></trkpt><trkpt lat="42.36493346954372" lon="-8.074527332520844"><ele>495.25</ele><time>2026-04-03T18:04:39.999Z</time></trkpt><trkpt lat="42.36504763198814" lon="-8.074625710008482"><ele>495.5</ele><time>2026-04-03T18:04:40.999Z</time></trkpt><trkpt lat="42.36516200360256" lon="-8.074701619887387"><ele>495.75</ele><time>2026-04-03T18:04:41.999Z</time></trkpt><trkpt lat="42.365282901021054" lon="-8.074756417493296"><ele>496.0</ele><time>2026-04-03T18:04:42.999Z</time></trkpt><trkpt lat="42.3654058342198" lon="-8.074727413666183"><ele>496.75</ele><time>2026-04-03T18:04:43.999Z</time></trkpt><trkpt lat="42.365545587659966" lon="-8.074692948615615"><ele>497.5</ele><time>2026-04-03T18:04:44.999Z</time></trkpt><trkpt lat="42.3657021236047" lon="-8.074657433559903"><ele>498.25</ele><time>2026-04-03T18:04:45.999Z</time></trkpt><trkpt lat="42.36584309677344" lon="-8.074627538043833"><ele>499.0</ele><time>2026-04-03T18:04:46.999Z</time></trkpt><trkpt lat="42.36599774294621" lon="-8.074600153976487"><ele>499.0</ele><time>2026-04-03T18:04:47.999Z</time></trkpt><trkpt lat="42.36615821002723" lon="-8.074573433857065"><ele>499.0</ele><time>2026-04-03T18:04:48.999Z</time></trkpt><trkpt lat="42.36629151960591" lon="-8.074524085306413"><ele>499.0</ele><time>2026-04-03T18:04:49.999Z</time></trkpt><trkpt lat="42.36642855274963" lon="-8.074507509097378"><ele>499.0</ele><time>2026-04-03T18:04:50.999Z</time></trkpt><trkpt lat="42.36656302359773" lon="-8.074474479475157"><ele>498.75</ele><time>2026-04-03T18:04:51.999Z</time></trkpt><trkpt lat="42.36669428829414" lon="-8.074438556513712"><ele>498.5</ele><time>2026-04-03T18:04:52.999Z</time></trkpt><trkpt lat="42.366824710390354" lon="-8.07440242021252"><ele>498.25</ele><time>2026-04-03T18:04:53.999Z</time></trkpt><trkpt lat="42.36695903536399" lon="-8.074363204339269"><ele>498.0</ele><time>2026-04-03T18:04:54.999Z</time></trkpt><trkpt lat="42.36710126645884" lon="-8.07433316922924"><ele>498.25</ele><time>2026-04-03T18:04:55.999Z</time></trkpt><trkpt lat="42.36722813751094" lon="-8.074299311898795"><ele>498.5</ele><time>2026-04-03T18:04:56.999Z</time></trkpt><trkpt lat="42.36736131697149" lon="-8.074269859945327"><ele>498.75</ele><time>2026-04-03T18:04:57.999Z</time></trkpt><trkpt lat="42.36749194793122" lon="-8.07423013927849"><ele>499.0</ele><time>2026-04-03T18:04:58.999Z</time></trkpt><trkpt lat="42.367624254081264" lon="-8.074190821373554"><ele>499.0</ele><time>2026-04-03T18:04:59.999Z</time></trkpt><trkpt lat="42.367750221741254" lon="-8.074152790776532"><ele>499.0</ele><time>2026-04-03T18:05:00.999Z</time></trkpt><trkpt lat="42.36787537257283" lon="-8.074103871708735"><ele>499.0</ele><time>2026-04-03T18:05:01.999Z</time></trkpt><trkpt lat="42.36800231146859" lon="-8.074055742114858"><ele>499.0</ele><time>2026-04-03T18:05:02.999Z</time></trkpt><trkpt lat="42.36813230888578" lon="-8.073989912686567"><ele>498.0</ele><time>2026-04-03T18:05:03.999Z</time></trkpt><trkpt lat="42.36826814204807" lon="-8.073888391463406"><ele>497.0</ele><time>2026-04-03T18:05:04.999Z</time></trkpt><trkpt lat="42.36841935364354" lon="-8.073796101108254"><ele>496.0</ele><time>2026-04-03T18:05:05.999Z</time></trkpt><trkpt lat="42.36857869623784" lon="-8.07372157471977"><ele>496.0</ele><time>2026-04-03T18:05:06.999Z</time></trkpt><trkpt lat="42.368738049701534" lon="-8.07362218728801"><ele>496.0</ele><time>2026-04-03T18:05:07.999Z</time></trkpt><trkpt lat="42.36889368810732" lon="-8.073531728753794"><ele>496.0</ele><time>2026-04-03T18:05:08.999Z</time></trkpt><trkpt lat="42.36903618323751" lon="-8.073439965458952"><ele>495.25</ele><time>2026-04-03T18:05:09.999Z</time></trkpt><trkpt lat="42.36916974151285" lon="-8.073353146836965"><ele>494.5</ele><time>2026-04-03T18:05:10.999Z</time></trkpt><trkpt lat="42.36930119417376" lon="-8.073262236438694"><ele>493.75</ele><time>2026-04-03T18:05:11.999Z</time></trkpt><trkpt lat="42.36942749731552" lon="-8.073187760435163"><ele>493.0</ele><time>2026-04-03T18:05:12.999Z</time></trkpt><trkpt lat="42.36954897493834" lon="-8.073123500027453"><ele>492.75</ele><time>2026-04-03T18:05:13.999Z</time></trkpt><trkpt lat="42.36967066590976" lon="-8.073073258666685"><ele>492.5</ele><time>2026-04-03T18:05:14.999Z</time></trkpt><trkpt lat="42.369786099047744" lon="-8.073047570995845"><ele>492.25</ele><time>2026-04-03T18:05:15.999Z</time></trkpt><trkpt lat="42.369901155962395" lon="-8.073028733202822"><ele>492.0</ele><time>2026-04-03T18:05:16.999Z</time></trkpt><trkpt lat="42.37001996011038" lon="-8.073028129831599"><ele>491.6</ele><time>2026-04-03T18:05:17.999Z</time></trkpt><trkpt lat="42.37013317081521" lon="-8.073025209297997"><ele>491.20000000000005</ele><time>2026-04-03T18:05:18.999Z</time></trkpt><trkpt lat="42.370234173830845" lon="-8.07301462228462"><ele>490.8</ele><time>2026-04-03T18:05:19.999Z</time></trkpt><trkpt lat="42.37034421152949" lon="-8.073011620576935"><ele>490.4</ele><time>2026-04-03T18:05:20.999Z</time></trkpt><trkpt lat="42.37044427194783" lon="-8.072995180083103"><ele>490.0</ele><time>2026-04-03T18:05:21.999Z</time></trkpt><trkpt lat="42.37054395692985" lon="-8.072974907425802"><ele>489.2</ele><time>2026-04-03T18:05:22.999Z</time></trkpt><trkpt lat="42.37063458773928" lon="-8.072945740217717"><ele>488.4</ele><time>2026-04-03T18:05:23.999Z</time></trkpt><trkpt lat="42.37071325186988" lon="-8.072889422150062"><ele>487.6</ele><time>2026-04-03T18:05:24.999Z</time></trkpt><trkpt lat="42.37077881949354" lon="-8.072864404574949"><ele>486.8</ele><time>2026-04-03T18:05:26.999Z</time></trkpt><trkpt lat="42.37087976906206" lon="-8.07278670697068"><ele>486.0</ele><time>2026-04-03T18:05:30.999Z</time></trkpt><trkpt lat="42.37096967774319" lon="-8.072721775107393"><ele>486.0</ele><time>2026-04-03T18:05:31.999Z</time></trkpt><trkpt lat="42.37106803103044" lon="-8.072647106602634"><ele>486.0</ele><time>2026-04-03T18:05:32.999Z</time></trkpt><trkpt lat="42.371180327629986" lon="-8.072563951695816"><ele>486.0</ele><time>2026-04-03T18:05:33.999Z</time></trkpt><trkpt lat="42.37130143160938" lon="-8.0724861486479"><ele>486.0</ele><time>2026-04-03T18:05:34.999Z</time></trkpt><trkpt lat="42.37142839484174" lon="-8.072420752414322"><ele>485.5</ele><time>2026-04-03T18:05:35.999Z</time></trkpt><trkpt lat="42.37156957705567" lon="-8.072365084947952"><ele>485.0</ele><time>2026-04-03T18:05:36.999Z</time></trkpt><trkpt lat="42.371685579871915" lon="-8.07231515116871"><ele>484.5</ele><time>2026-04-03T18:05:37.999Z</time></trkpt><trkpt lat="42.37179888698567" lon="-8.072269565452784"><ele>484.0</ele><time>2026-04-03T18:05:38.999Z</time></trkpt><trkpt lat="42.37189444692245" lon="-8.072232967212493"><ele>484.00000000000006</ele><time>2026-04-03T18:05:39.999Z</time></trkpt><trkpt lat="42.37196966168336" lon="-8.072212680549594"><ele>484.0</ele><time>2026-04-03T18:05:40.999Z</time></trkpt><trkpt lat="42.372063997833855" lon="-8.072172512625995"><ele>484.0</ele><time>2026-04-03T18:05:42.999Z</time></trkpt><trkpt lat="42.37214578977702" lon="-8.07213816781485"><ele>484.0</ele><time>2026-04-03T18:05:45.998Z</time></trkpt><trkpt lat="42.37223109208343" lon="-8.072121804049461"><ele>484.00000000000006</ele><time>2026-04-03T18:05:47.998Z</time></trkpt><trkpt lat="42.372294801080706" lon="-8.072087307558569"><ele>484.0</ele><time>2026-04-03T18:05:48.998Z</time></trkpt><trkpt lat="42.372356423780225" lon="-8.072049405708208"><ele>484.1666666666667</ele><time>2026-04-03T18:05:49.999Z</time></trkpt><trkpt lat="42.37242942095454" lon="-8.072011377285243"><ele>484.33333333333337</ele><time>2026-04-03T18:05:50.999Z</time></trkpt><trkpt lat="42.3724952566415" lon="-8.071972196028524"><ele>484.5</ele><time>2026-04-03T18:05:51.999Z</time></trkpt><trkpt lat="42.3725624052446" lon="-8.071943629036738"><ele>484.66666666666663</ele><time>2026-04-03T18:05:52.999Z</time></trkpt><trkpt lat="42.37261904218335" lon="-8.071897627103828"><ele>484.8333333333333</ele><time>2026-04-03T18:06:58.999Z</time></trkpt><trkpt lat="42.37268628637754" lon="-8.07186685752667"><ele>485.0</ele><time>2026-04-03T18:10:14Z</time></trkpt><trkpt lat="42.3728350188407" lon="-8.07188276152769"><ele>485.0</ele><time>2026-04-03T18:10:16Z</time></trkpt><trkpt lat="42.372921669278455" lon="-8.071916425852462"><ele>485.0</ele><time>2026-04-03T18:10:17Z</time></trkpt><trkpt lat="42.37303088048075" lon="-8.071957449744232"><ele>485.0</ele><time>2026-04-03T18:10:18Z</time></trkpt><trkpt lat="42.37312455556739" lon="-8.072020791898208"><ele>485.0</ele><time>2026-04-03T18:10:19Z</time></trkpt><trkpt lat="42.37321547192556" lon="-8.072067227938232"><ele>485.0</ele><time>2026-04-03T18:10:20Z</time></trkpt><trkpt lat="42.37331240151787" lon="-8.072128534119454"><ele>484.49999999999994</ele><time>2026-04-03T18:10:21Z</time></trkpt><trkpt lat="42.37340831728583" lon="-8.07215119763811"><ele>484.0</ele><time>2026-04-03T18:10:22Z</time></trkpt><trkpt lat="42.37349679537563" lon="-8.072179520550572"><ele>483.5</ele><time>2026-04-03T18:10:23Z</time></trkpt><trkpt lat="42.37356623406887" lon="-8.072210145173878"><ele>483.0</ele><time>2026-04-03T18:10:24Z</time></trkpt><trkpt lat="42.373637416786295" lon="-8.072228881376006"><ele>482.49999999999994</ele><time>2026-04-03T18:10:25Z</time></trkpt><trkpt lat="42.37370414183196" lon="-8.072242896586014"><ele>482.0</ele><time>2026-04-03T18:10:26Z</time></trkpt><trkpt lat="42.37380093592098" lon="-8.0722538762852"><ele>481.8333333333333</ele><time>2026-04-03T18:10:28Z</time></trkpt><trkpt lat="42.37386791647471" lon="-8.072240913616469"><ele>481.66666666666663</ele><time>2026-04-03T18:10:29Z</time></trkpt><trkpt lat="42.37393933406116" lon="-8.072226185734035"><ele>481.5</ele><time>2026-04-03T18:10:30Z</time></trkpt><trkpt lat="42.37401976245128" lon="-8.072209176237825"><ele>481.33333333333337</ele><time>2026-04-03T18:10:31Z</time></trkpt><trkpt lat="42.37409963525398" lon="-8.07217845784819"><ele>481.1666666666667</ele><time>2026-04-03T18:10:32Z</time></trkpt><trkpt lat="42.37417958285268" lon="-8.072151928754185"><ele>481.0</ele><time>2026-04-03T18:10:33Z</time></trkpt><trkpt lat="42.37425752354801" lon="-8.072124720128523"><ele>481.00000000000006</ele><time>2026-04-03T18:10:34Z</time></trkpt><trkpt lat="42.374339899813634" lon="-8.07209746603915"><ele>481.0</ele><time>2026-04-03T18:10:35Z</time></trkpt><trkpt lat="42.37442236498039" lon="-8.072098380767398"><ele>481.0</ele><time>2026-04-03T18:10:36Z</time></trkpt><trkpt lat="42.374505375652525" lon="-8.07211455853725"><ele>481.0</ele><time>2026-04-03T18:10:37Z</time></trkpt><trkpt lat="42.37458170370493" lon="-8.072167484504082"><ele>481.00000000000006</ele><time>2026-04-03T18:10:38Z</time></trkpt><trkpt lat="42.374635994617364" lon="-8.072260211431967"><ele>481.0</ele><time>2026-04-03T18:10:39Z</time></trkpt><trkpt lat="42.37467140766283" lon="-8.072350126623641"><ele>481.25</ele><time>2026-04-03T18:10:40Z</time></trkpt><trkpt lat="42.374809822834386" lon="-8.072389576749046"><ele>481.5</ele><time>2026-04-03T18:10:42Z</time></trkpt><trkpt lat="42.37491342566149" lon="-8.072411360726672"><ele>481.75</ele><time>2026-04-03T18:10:43Z</time></trkpt><trkpt lat="42.37502038761371" lon="-8.07242143234074"><ele>482.0</ele><time>2026-04-03T18:10:44Z</time></trkpt><trkpt lat="42.37513555197992" lon="-8.072421694328993"><ele>482.0</ele><time>2026-04-03T18:10:45Z</time></trkpt><trkpt lat="42.375252549896835" lon="-8.072401554870643"><ele>482.00000000000006</ele><time>2026-04-03T18:10:46Z</time></trkpt><trkpt lat="42.37536890931049" lon="-8.07237855699914"><ele>482.00000000000006</ele><time>2026-04-03T18:10:47Z</time></trkpt><trkpt lat="42.37547878163634" lon="-8.072397690228232"><ele>482.0</ele><time>2026-04-03T18:10:48Z</time></trkpt><trkpt lat="42.37557665303089" lon="-8.072370669313251"><ele>482.0</ele><time>2026-04-03T18:10:49Z</time></trkpt><trkpt lat="42.37567191100636" lon="-8.072339164442988"><ele>481.8</ele><time>2026-04-03T18:10:50Z</time></trkpt><trkpt lat="42.37576587586502" lon="-8.072349514959953"><ele>481.6</ele><time>2026-04-03T18:10:51Z</time></trkpt><trkpt lat="42.37585312456048" lon="-8.072388030863355"><ele>481.40000000000003</ele><time>2026-04-03T18:10:52Z</time></trkpt><trkpt lat="42.37594558976943" lon="-8.072427435998973"><ele>481.20000000000005</ele><time>2026-04-03T18:10:53Z</time></trkpt><trkpt lat="42.37603313915462" lon="-8.072443934902928"><ele>481.0</ele><time>2026-04-03T18:10:54Z</time></trkpt><trkpt lat="42.376116461158304" lon="-8.072435882634503"><ele>481.0</ele><time>2026-04-03T18:10:55Z</time></trkpt><trkpt lat="42.376198084623894" lon="-8.072369281744905"><ele>481.0</ele><time>2026-04-03T18:10:56Z</time></trkpt><trkpt lat="42.37624290798189" lon="-8.072223643859807"><ele>481.0</ele><time>2026-04-03T18:10:57Z</time></trkpt><trkpt lat="42.37633036697186" lon="-8.072131486288022"><ele>481.0</ele><time>2026-04-03T18:10:58Z</time></trkpt><trkpt lat="42.376427246906175" lon="-8.072065754410493"><ele>481.0</ele><time>2026-04-03T18:10:59Z</time></trkpt><trkpt lat="42.3765256616518" lon="-8.072005249284432"><ele>481.5</ele><time>2026-04-03T18:11:00Z</time></trkpt><trkpt lat="42.3766453356692" lon="-8.071983725303076"><ele>482.0</ele><time>2026-04-03T18:11:01Z</time></trkpt><trkpt lat="42.3767819455491" lon="-8.07197102881999"><ele>482.5</ele><time>2026-04-03T18:11:02Z</time></trkpt><trkpt lat="42.376915493431994" lon="-8.071960751483086"><ele>483.0</ele><time>2026-04-03T18:11:03Z</time></trkpt><trkpt lat="42.377063553822445" lon="-8.071959782944894"><ele>481.66666666666663</ele><time>2026-04-03T18:11:04Z</time></trkpt><trkpt lat="42.377231711020954" lon="-8.071966067484482"><ele>480.3333333333333</ele><time>2026-04-03T18:11:05Z</time></trkpt><trkpt lat="42.37740291593062" lon="-8.071974710347979"><ele>479.0</ele><time>2026-04-03T18:11:06Z</time></trkpt><trkpt lat="42.3775868629669" lon="-8.071972594574785"><ele>479.0</ele><time>2026-04-03T18:11:07Z</time></trkpt><trkpt lat="42.37776930542302" lon="-8.07195685453879"><ele>479.0</ele><time>2026-04-03T18:11:08Z</time></trkpt><trkpt lat="42.37793456003695" lon="-8.071934037437813"><ele>479.0</ele><time>2026-04-03T18:11:09Z</time></trkpt><trkpt lat="42.378072938525314" lon="-8.071842467030583"><ele>479.5</ele><time>2026-04-03T18:11:10Z</time></trkpt><trkpt lat="42.37821229252361" lon="-8.071754793481755"><ele>480.0</ele><time>2026-04-03T18:11:11Z</time></trkpt><trkpt lat="42.378342416528646" lon="-8.071689387140722"><ele>480.5</ele><time>2026-04-03T18:11:12Z</time></trkpt><trkpt lat="42.37845645338196" lon="-8.07160539928784"><ele>481.0</ele><time>2026-04-03T18:11:13Z</time></trkpt><trkpt lat="42.37854918217174" lon="-8.071546791087853"><ele>475.0</ele><time>2026-04-03T18:11:14Z</time></trkpt><trkpt lat="42.378615959286805" lon="-8.071502394106899"><ele>475.0</ele><time>2026-04-03T18:11:15Z</time></trkpt><trkpt lat="42.378692402120116" lon="-8.07144843146883"><ele>475.0</ele><time>2026-04-03T18:11:17Z</time></trkpt><trkpt lat="42.378761638286214" lon="-8.071362035888274"><ele>475.0</ele><time>2026-04-03T18:11:20Z</time></trkpt><trkpt lat="42.37884971483631" lon="-8.071312894059147"><ele>475.0</ele><time>2026-04-03T18:11:23Z</time></trkpt><trkpt lat="42.37891912433027" lon="-8.071272890234432"><ele>477.0</ele><time>2026-04-03T18:11:26Z</time></trkpt></trkseg><trkseg><trkpt lat="42.391960408080436" lon="-8.076491681528786"><ele>412.0</ele><time>2026-04-03T18:19:15Z</time></trkpt><trkpt lat="42.39204268553484" lon="-8.076599113134353"><ele>412.0</ele><time>2026-04-03T18:19:17Z</time></trkpt><trkpt lat="42.39212366864468" lon="-8.076712512055408"><ele>412.0</ele><time>2026-04-03T18:19:19Z</time></trkpt><trkpt lat="42.39221718481075" lon="-8.07683099693897"><ele>412.0</ele><time>2026-04-03T18:19:21Z</time></trkpt><trkpt lat="42.39227075041014" lon="-8.076893361641797"><ele>412.0</ele><time>2026-04-03T18:19:22Z</time></trkpt><trkpt lat="42.392319925118" lon="-8.076958679637952"><ele>411.2857142857143</ele><time>2026-04-03T18:19:23Z</time></trkpt><trkpt lat="42.392366331643636" lon="-8.077021461904831"><ele>410.57142857142856</ele><time>2026-04-03T18:19:24Z</time></trkpt><trkpt lat="42.392420443704886" lon="-8.077087690961017"><ele>409.8571428571429</ele><time>2026-04-03T18:19:25Z</time></trkpt><trkpt lat="42.39247234328315" lon="-8.077154374567932"><ele>409.1428571428571</ele><time>2026-04-03T18:19:26Z</time></trkpt><trkpt lat="42.39252646877557" lon="-8.077224076726221"><ele>408.42857142857144</ele><time>2026-04-03T18:19:26.999Z</time></trkpt><trkpt lat="42.39257867002428" lon="-8.07728783617989"><ele>407.7142857142857</ele><time>2026-04-03T18:19:27.999Z</time></trkpt><trkpt lat="42.39262725510404" lon="-8.07735462981073"><ele>407.0</ele><time>2026-04-03T18:19:28.999Z</time></trkpt><trkpt lat="42.392672232544484" lon="-8.077416408012947"><ele>406.00000000000006</ele><time>2026-04-03T18:19:29.999Z</time></trkpt><trkpt lat="42.392719655830334" lon="-8.077483437169168"><ele>405.0</ele><time>2026-04-03T18:19:30.999Z</time></trkpt><trkpt lat="42.39277748738325" lon="-8.077536300856138"><ele>404.0</ele><time>2026-04-03T18:19:31.999Z</time></trkpt><trkpt lat="42.392821051208465" lon="-8.077608790413258"><ele>403.0</ele><time>2026-04-03T18:19:32.999Z</time></trkpt><trkpt lat="42.392876541753374" lon="-8.077661871216899"><ele>402.0</ele><time>2026-04-03T18:19:33.999Z</time></trkpt><trkpt lat="42.392922553574536" lon="-8.077731236384974"><ele>401.00000000000006</ele><time>2026-04-03T18:19:34.999Z</time></trkpt><trkpt lat="42.39297602675392" lon="-8.077791661849698"><ele>400.0</ele><time>2026-04-03T18:19:35.999Z</time></trkpt><trkpt lat="42.39302387088873" lon="-8.077851092019749"><ele>400.00000000000006</ele><time>2026-04-03T18:19:36.999Z</time></trkpt><trkpt lat="42.393069579702455" lon="-8.077911231020625"><ele>400.0</ele><time>2026-04-03T18:19:37.999Z</time></trkpt><trkpt lat="42.39311780253088" lon="-8.077974783028441"><ele>400.0</ele><time>2026-04-03T18:19:38.999Z</time></trkpt><trkpt lat="42.393170736858" lon="-8.078039337713756"><ele>400.0</ele><time>2026-04-03T18:19:39.999Z</time></trkpt><trkpt lat="42.3932679475346" lon="-8.078145392056099"><ele>400.00000000000006</ele><time>2026-04-03T18:19:41.999Z</time></trkpt><trkpt lat="42.39331884660913" lon="-8.078211339325595"><ele>400.0</ele><time>2026-04-03T18:19:42.999Z</time></trkpt><trkpt lat="42.39336400434128" lon="-8.078282220623686"><ele>399.42857142857144</ele><time>2026-04-03T18:19:43.999Z</time></trkpt><trkpt lat="42.39341852211416" lon="-8.078341414860093"><ele>398.8571428571429</ele><time>2026-04-03T18:19:44.999Z</time></trkpt><trkpt lat="42.39346558557709" lon="-8.078407701152418"><ele>398.28571428571433</ele><time>2026-04-03T18:19:45.999Z</time></trkpt><trkpt lat="42.39352039910578" lon="-8.078468963441797"><ele>397.7142857142857</ele><time>2026-04-03T18:19:46.999Z</time></trkpt><trkpt lat="42.39357608192008" lon="-8.078527520336264"><ele>397.1428571428571</ele><time>2026-04-03T18:19:47.999Z</time></trkpt><trkpt lat="42.39362902922261" lon="-8.078586976493916"><ele>396.5714285714286</ele><time>2026-04-03T18:19:48.999Z</time></trkpt><trkpt lat="42.393696511147034" lon="-8.078629098827411"><ele>396.0</ele><time>2026-04-03T18:19:49.999Z</time></trkpt><trkpt lat="42.39375849957994" lon="-8.078679725448199"><ele>396.0</ele><time>2026-04-03T18:19:50.999Z</time></trkpt><trkpt lat="42.39382939344957" lon="-8.078718710527149"><ele>396.0</ele><time>2026-04-03T18:19:51.999Z</time></trkpt><trkpt lat="42.393897054159524" lon="-8.078765880660773"><ele>396.0</ele><time>2026-04-03T18:19:52.999Z</time></trkpt><trkpt lat="42.39397462564965" lon="-8.078807996756927"><ele>396.0</ele><time>2026-04-03T18:19:53.999Z</time></trkpt><trkpt lat="42.394050527830075" lon="-8.078847263571062"><ele>396.0</ele><time>2026-04-03T18:19:54.999Z</time></trkpt><trkpt lat="42.394129040213535" lon="-8.078875315096168"><ele>396.0</ele><time>2026-04-03T18:19:55.999Z</time></trkpt><trkpt lat="42.39420066908019" lon="-8.078905768995565"><ele>395.6666666666667</ele><time>2026-04-03T18:19:56.999Z</time></trkpt><trkpt lat="42.39426794663584" lon="-8.078959510612433"><ele>395.33333333333337</ele><time>2026-04-03T18:19:57.999Z</time></trkpt><trkpt lat="42.39434491078249" lon="-8.079002847864885"><ele>395.0</ele><time>2026-04-03T18:19:58.999Z</time></trkpt><trkpt lat="42.39441984305942" lon="-8.079049920890437"><ele>394.6666666666667</ele><time>2026-04-03T18:19:59.999Z</time></trkpt><trkpt lat="42.39449224550954" lon="-8.079092210415693"><ele>394.33333333333337</ele><time>2026-04-03T18:20:00.999Z</time></trkpt><trkpt lat="42.39456611173977" lon="-8.079161455143748"><ele>394.0</ele><time>2026-04-03T18:20:01.999Z</time></trkpt><trkpt lat="42.394639777909504" lon="-8.079229691027455"><ele>391.4</ele><time>2026-04-03T18:20:02.999Z</time></trkpt><trkpt lat="42.394711573834044" lon="-8.079302604464099"><ele>388.79999999999995</ele><time>2026-04-03T18:20:03.999Z</time></trkpt><trkpt lat="42.39478158952541" lon="-8.079394113905966"><ele>386.20000000000005</ele><time>2026-04-03T18:20:04.999Z</time></trkpt><trkpt lat="42.394869111863706" lon="-8.079509753158105"><ele>383.6</ele><time>2026-04-03T18:20:05.999Z</time></trkpt><trkpt lat="42.39495928290421" lon="-8.07965400795443"><ele>381.0</ele><time>2026-04-03T18:20:06.999Z</time></trkpt><trkpt lat="42.39504355097301" lon="-8.079787326939309"><ele>381.0</ele><time>2026-04-03T18:20:08Z</time></trkpt><trkpt lat="42.395107065884694" lon="-8.079921381340643"><ele>381.0</ele><time>2026-04-03T18:20:09Z</time></trkpt><trkpt lat="42.395180572058386" lon="-8.08005335060486"><ele>381.0</ele><time>2026-04-03T18:20:10Z</time></trkpt><trkpt lat="42.39525105660428" lon="-8.080181317141832"><ele>381.0</ele><time>2026-04-03T18:20:11Z</time></trkpt><trkpt lat="42.39531628036528" lon="-8.080304098483138"><ele>380.6</ele><time>2026-04-03T18:20:12Z</time></trkpt><trkpt lat="42.395375896732794" lon="-8.080435654155325"><ele>380.20000000000005</ele><time>2026-04-03T18:20:13Z</time></trkpt><trkpt lat="42.39543420061077" lon="-8.08056179025731"><ele>379.79999999999995</ele><time>2026-04-03T18:20:14Z</time></trkpt><trkpt lat="42.395480884490325" lon="-8.08068584941899"><ele>379.4</ele><time>2026-04-03T18:20:15Z</time></trkpt><trkpt lat="42.39552636755092" lon="-8.080823827236081"><ele>379.0</ele><time>2026-04-03T18:20:16Z</time></trkpt><trkpt lat="42.39556126560845" lon="-8.080954464858667"><ele>377.4</ele><time>2026-04-03T18:20:17Z</time></trkpt><trkpt lat="42.39559627700224" lon="-8.08107943849953"><ele>375.79999999999995</ele><time>2026-04-03T18:20:18Z</time></trkpt><trkpt lat="42.39562989871446" lon="-8.081207313399682"><ele>374.20000000000005</ele><time>2026-04-03T18:20:19Z</time></trkpt><trkpt lat="42.395654865041486" lon="-8.081325359096194"><ele>372.6</ele><time>2026-04-03T18:20:20Z</time></trkpt><trkpt lat="42.395682017614064" lon="-8.081444997947592"><ele>371.0</ele><time>2026-04-03T18:20:21Z</time></trkpt><trkpt lat="42.395711915804235" lon="-8.081550496837817"><ele>370.33333333333337</ele><time>2026-04-03T18:20:22Z</time></trkpt><trkpt lat="42.39573978751285" lon="-8.081656913124995"><ele>369.6666666666667</ele><time>2026-04-03T18:20:23Z</time></trkpt><trkpt lat="42.39576164474454" lon="-8.081757061939014"><ele>369.0</ele><time>2026-04-03T18:20:24Z</time></trkpt><trkpt lat="42.395782519376965" lon="-8.081858103476446"><ele>368.3333333333333</ele><time>2026-04-03T18:20:25Z</time></trkpt><trkpt lat="42.39580662281648" lon="-8.081958301573437"><ele>367.66666666666663</ele><time>2026-04-03T18:20:26Z</time></trkpt><trkpt lat="42.39582934800185" lon="-8.082059301854219"><ele>367.0</ele><time>2026-04-03T18:20:27Z</time></trkpt><trkpt lat="42.39585455332687" lon="-8.08216253264057"><ele>367.0</ele><time>2026-04-03T18:20:28Z</time></trkpt><trkpt lat="42.39588303435612" lon="-8.082266783234388"><ele>367.0</ele><time>2026-04-03T18:20:29Z</time></trkpt><trkpt lat="42.395910720323215" lon="-8.082363634926473"><ele>367.0</ele><time>2026-04-03T18:20:30Z</time></trkpt><trkpt lat="42.39593460894055" lon="-8.082468651805911"><ele>367.0</ele><time>2026-04-03T18:20:31Z</time></trkpt><trkpt lat="42.39596630988816" lon="-8.082566517519878"><ele>367.0</ele><time>2026-04-03T18:20:32Z</time></trkpt><trkpt lat="42.39599171967644" lon="-8.082656780422463"><ele>367.0</ele><time>2026-04-03T18:20:33Z</time></trkpt><trkpt lat="42.39601989139416" lon="-8.082746689507756"><ele>367.2857142857143</ele><time>2026-04-03T18:20:34Z</time></trkpt><trkpt lat="42.3960527685193" lon="-8.082831515329211"><ele>367.5714285714286</ele><time>2026-04-03T18:20:35Z</time></trkpt><trkpt lat="42.396087433247004" lon="-8.082926313055593"><ele>367.8571428571429</ele><time>2026-04-03T18:20:36Z</time></trkpt><trkpt lat="42.396119667717265" lon="-8.083018143817966"><ele>368.1428571428571</ele><time>2026-04-03T18:20:37Z</time></trkpt><trkpt lat="42.396163563955554" lon="-8.083089180780313"><ele>368.42857142857144</ele><time>2026-04-03T18:20:38Z</time></trkpt><trkpt lat="42.396213263830916" lon="-8.083165296369769"><ele>368.7142857142857</ele><time>2026-04-03T18:20:39Z</time></trkpt><trkpt lat="42.39626965644752" lon="-8.083234536555088"><ele>369.0</ele><time>2026-04-03T18:20:40Z</time></trkpt><trkpt lat="42.39632810704782" lon="-8.083289463845151"><ele>366.0</ele><time>2026-04-03T18:20:41Z</time></trkpt><trkpt lat="42.39638734082533" lon="-8.083336558436228"><ele>363.0</ele><time>2026-04-03T18:20:42Z</time></trkpt><trkpt lat="42.3964586289943" lon="-8.083388474704458"><ele>360.0</ele><time>2026-04-03T18:20:43Z</time></trkpt><trkpt lat="42.3965263833979" lon="-8.083429484531925"><ele>357.0</ele><time>2026-04-03T18:20:44Z</time></trkpt><trkpt lat="42.396601777284154" lon="-8.083477286658832"><ele>354.0</ele><time>2026-04-03T18:20:45Z</time></trkpt><trkpt lat="42.396673485356466" lon="-8.08350820313"><ele>351.0</ele><time>2026-04-03T18:20:46Z</time></trkpt><trkpt lat="42.396751713174126" lon="-8.083532335849748"><ele>351.0</ele><time>2026-04-03T18:20:47Z</time></trkpt><trkpt lat="42.39682682763565" lon="-8.083570732051438"><ele>351.0</ele><time>2026-04-03T18:20:48Z</time></trkpt><trkpt lat="42.39690221642219" lon="-8.08360719999071"><ele>351.0</ele><time>2026-04-03T18:20:49Z</time></trkpt><trkpt lat="42.396976046837864" lon="-8.083646906009106"><ele>351.0</ele><time>2026-04-03T18:20:50Z</time></trkpt><trkpt lat="42.397046454181826" lon="-8.083680452153962"><ele>351.0</ele><time>2026-04-03T18:20:51Z</time></trkpt><trkpt lat="42.397128930245074" lon="-8.083718612184146"><ele>351.0</ele><time>2026-04-03T18:20:52Z</time></trkpt><trkpt lat="42.3972017382125" lon="-8.08374492915187"><ele>349.8571428571429</ele><time>2026-04-03T18:20:53Z</time></trkpt><trkpt lat="42.39727503308115" lon="-8.08378306989475"><ele>348.7142857142857</ele><time>2026-04-03T18:20:54Z</time></trkpt><trkpt lat="42.39734227417168" lon="-8.083828530718497"><ele>347.57142857142856</ele><time>2026-04-03T18:20:55Z</time></trkpt><trkpt lat="42.39741315711453" lon="-8.083871983645512"><ele>346.42857142857144</ele><time>2026-04-03T18:20:56Z</time></trkpt><trkpt lat="42.39747418371439" lon="-8.083909894120637"><ele>345.2857142857143</ele><time>2026-04-03T18:20:57Z</time></trkpt><trkpt lat="42.397539792924434" lon="-8.083957607808877"><ele>344.14285714285717</ele><time>2026-04-03T18:20:58Z</time></trkpt><trkpt lat="42.397607135163675" lon="-8.08399753979153"><ele>343.0</ele><time>2026-04-03T18:20:59Z</time></trkpt><trkpt lat="42.3976669770976" lon="-8.08404627019476"><ele>343.8333333333333</ele><time>2026-04-03T18:21:00Z</time></trkpt><trkpt lat="42.397722727858046" lon="-8.084100393041057"><ele>344.66666666666663</ele><time>2026-04-03T18:21:01Z</time></trkpt><trkpt lat="42.397771095703476" lon="-8.084164704753357"><ele>345.5</ele><time>2026-04-03T18:21:02Z</time></trkpt><trkpt lat="42.397817357615786" lon="-8.084225856429994"><ele>346.3333333333333</ele><time>2026-04-03T18:21:03Z</time></trkpt><trkpt lat="42.397922556766396" lon="-8.084330766081948"><ele>347.1666666666667</ele><time>2026-04-03T18:21:05Z</time></trkpt><trkpt lat="42.39795762854748" lon="-8.084404675525148"><ele>348.0</ele><time>2026-04-03T18:21:06Z</time></trkpt><trkpt lat="42.39805194235651" lon="-8.084512671391904"><ele>345.59999999999997</ele><time>2026-04-03T18:21:08Z</time></trkpt><trkpt lat="42.398095640418084" lon="-8.0845782882027"><ele>343.2</ele><time>2026-04-03T18:21:09Z</time></trkpt><trkpt lat="42.39817720307773" lon="-8.084693729528698"><ele>340.8</ele><time>2026-04-03T18:21:11Z</time></trkpt><trkpt lat="42.39825546362387" lon="-8.084810204867797"><ele>338.4</ele><time>2026-04-03T18:21:13Z</time></trkpt><trkpt lat="42.398337322290104" lon="-8.084926190298887"><ele>336.0</ele><time>2026-04-03T18:21:15Z</time></trkpt><trkpt lat="42.398415694406786" lon="-8.085035077747976"><ele>336.0</ele><time>2026-04-03T18:21:17Z</time></trkpt><trkpt lat="42.398488663043594" lon="-8.085140202994257"><ele>336.0</ele><time>2026-04-03T18:21:19Z</time></trkpt><trkpt lat="42.39854899702499" lon="-8.08525709045004"><ele>336.0</ele><time>2026-04-03T18:21:20.999Z</time></trkpt><trkpt lat="42.398629002637016" lon="-8.085375640080064"><ele>336.0</ele><time>2026-04-03T18:21:22.999Z</time></trkpt><trkpt lat="42.39870014353974" lon="-8.085481416042878"><ele>336.0</ele><time>2026-04-03T18:21:24.999Z</time></trkpt><trkpt lat="42.39876696814259" lon="-8.085584085339955"><ele>336.0</ele><time>2026-04-03T18:21:26.999Z</time></trkpt><trkpt lat="42.39882600910382" lon="-8.08571261074338"><ele>336.0</ele><time>2026-04-03T18:21:28.999Z</time></trkpt><trkpt lat="42.39885536678559" lon="-8.085789808358642"><ele>336.0</ele><time>2026-04-03T18:21:29.999Z</time></trkpt><trkpt lat="42.398885304265264" lon="-8.085945805785908"><ele>336.0</ele><time>2026-04-03T18:21:31.999Z</time></trkpt><trkpt lat="42.39890464695481" lon="-8.086100529723764"><ele>336.0</ele><time>2026-04-03T18:21:33.999Z</time></trkpt><trkpt lat="42.39891429205925" lon="-8.086237987680322"><ele>333.0</ele><time>2026-04-03T18:21:35.999Z</time></trkpt><trkpt lat="42.39893015317655" lon="-8.086364289935036"><ele>330.0</ele><time>2026-04-03T18:21:37.999Z</time></trkpt><trkpt lat="42.398934815404616" lon="-8.086501299252784"><ele>327.0</ele><time>2026-04-03T18:21:39.999Z</time></trkpt><trkpt lat="42.398932895735875" lon="-8.086652176549611"><ele>324.0</ele><time>2026-04-03T18:21:41.999Z</time></trkpt><trkpt lat="42.39893743073899" lon="-8.086786853570269"><ele>321.0</ele><time>2026-04-03T18:21:43.999Z</time></trkpt><trkpt lat="42.3989751539228" lon="-8.086881866090076"><ele>321.0</ele><time>2026-04-03T18:21:46.999Z</time></trkpt><trkpt lat="42.399006960239774" lon="-8.086958100757633"><ele>321.0</ele><time>2026-04-03T18:21:50.999Z</time></trkpt><trkpt lat="42.39906494623218" lon="-8.086832103838054"><ele>321.0</ele><time>2026-04-03T18:21:52.999Z</time></trkpt><trkpt lat="42.39912538314652" lon="-8.086754648176758"><ele>321.0</ele><time>2026-04-03T18:22:02.999Z</time></trkpt><trkpt lat="42.39919030651548" lon="-8.08665714743219"><ele>321.0</ele><time>2026-04-03T18:22:04.999Z</time></trkpt><trkpt lat="42.399231057196104" lon="-8.086573437329179"><ele>321.0</ele><time>2026-04-03T18:22:05.999Z</time></trkpt><trkpt lat="42.39926688033715" lon="-8.086497190377722"><ele>320.99999999999994</ele><time>2026-04-03T18:22:06.999Z</time></trkpt><trkpt lat="42.39930246017277" lon="-8.08642262488799"><ele>321.0</ele><time>2026-04-03T18:22:07.999Z</time></trkpt><trkpt lat="42.39933846358741" lon="-8.086349476175707"><ele>321.0</ele><time>2026-04-03T18:22:08.999Z</time></trkpt><trkpt lat="42.39937387262227" lon="-8.086277535091904"><ele>321.0</ele><time>2026-04-03T18:22:09.999Z</time></trkpt><trkpt lat="42.39941087217023" lon="-8.086202362552175"><ele>321.0</ele><time>2026-04-03T18:22:10.999Z</time></trkpt><trkpt lat="42.39944952522638" lon="-8.08612397642947"><ele>320.99999999999994</ele><time>2026-04-03T18:22:11.999Z</time></trkpt><trkpt lat="42.39948789839423" lon="-8.086047266981511"><ele>321.0</ele><time>2026-04-03T18:22:12.999Z</time></trkpt><trkpt lat="42.39952486342084" lon="-8.085973372474013"><ele>321.0</ele><time>2026-04-03T18:22:14Z</time></trkpt><trkpt lat="42.399560996276854" lon="-8.085902017825228"><ele>321.0</ele><time>2026-04-03T18:22:15Z</time></trkpt><trkpt lat="42.39963164322893" lon="-8.085766030338618"><ele>321.0</ele><time>2026-04-03T18:22:17Z</time></trkpt><trkpt lat="42.399714640628204" lon="-8.085653891322378"><ele>321.0</ele><time>2026-04-03T18:22:19Z</time></trkpt><trkpt lat="42.39978750257339" lon="-8.085541011597906"><ele>321.0</ele><time>2026-04-03T18:22:21Z</time></trkpt><trkpt lat="42.39984473103365" lon="-8.085502887271614"><ele>319.85714285714283</ele><time>2026-04-03T18:22:22Z</time></trkpt><trkpt lat="42.39990929785514" lon="-8.085475668249718"><ele>318.7142857142857</ele><time>2026-04-03T18:22:23Z</time></trkpt><trkpt lat="42.39997655442697" lon="-8.085447269809977"><ele>317.57142857142856</ele><time>2026-04-03T18:22:24Z</time></trkpt><trkpt lat="42.40005208402749" lon="-8.085426945367114"><ele>316.42857142857144</ele><time>2026-04-03T18:22:25Z</time></trkpt><trkpt lat="42.4001273359352" lon="-8.085412098607096"><ele>315.2857142857143</ele><time>2026-04-03T18:22:26Z</time></trkpt><trkpt lat="42.400197118990604" lon="-8.085399215300002"><ele>314.1428571428571</ele><time>2026-04-03T18:22:27Z</time></trkpt><trkpt lat="42.40026940201903" lon="-8.085379570781713"><ele>313.0</ele><time>2026-04-03T18:22:28Z</time></trkpt><trkpt lat="42.400334198784336" lon="-8.085366946695922"><ele>313.0</ele><time>2026-04-03T18:22:29Z</time></trkpt><trkpt lat="42.40040332016099" lon="-8.085358697814971"><ele>313.0</ele><time>2026-04-03T18:22:30Z</time></trkpt><trkpt lat="42.40047147892943" lon="-8.085344090477536"><ele>313.0</ele><time>2026-04-03T18:22:31Z</time></trkpt><trkpt lat="42.400541693325984" lon="-8.085332651953449"><ele>313.0</ele><time>2026-04-03T18:22:32Z</time></trkpt><trkpt lat="42.400610486700884" lon="-8.08531769328959"><ele>313.0</ele><time>2026-04-03T18:22:33Z</time></trkpt><trkpt lat="42.40067707682123" lon="-8.085301605474955"><ele>313.0</ele><time>2026-04-03T18:22:34Z</time></trkpt><trkpt lat="42.400739542236195" lon="-8.085284114455229"><ele>313.0</ele><time>2026-04-03T18:22:35Z</time></trkpt><trkpt lat="42.400803258567194" lon="-8.085265277762058"><ele>312.42857142857144</ele><time>2026-04-03T18:22:36Z</time></trkpt><trkpt lat="42.40086663796119" lon="-8.085251966788348"><ele>311.8571428571429</ele><time>2026-04-03T18:22:37Z</time></trkpt><trkpt lat="42.400932531144086" lon="-8.085235695162007"><ele>311.28571428571433</ele><time>2026-04-03T18:22:38Z</time></trkpt><trkpt lat="42.4010018711965" lon="-8.085217848034127"><ele>310.7142857142857</ele><time>2026-04-03T18:22:39Z</time></trkpt><trkpt lat="42.4010671400297" lon="-8.085203301807686"><ele>310.14285714285717</ele><time>2026-04-03T18:22:40Z</time></trkpt><trkpt lat="42.40113467805501" lon="-8.085195481686819"><ele>309.5714285714286</ele><time>2026-04-03T18:22:41Z</time></trkpt><trkpt lat="42.401203783425586" lon="-8.085187254419374"><ele>309.0</ele><time>2026-04-03T18:22:42Z</time></trkpt><trkpt lat="42.401272845244" lon="-8.085168717885702"><ele>309.42857142857144</ele><time>2026-04-03T18:22:43Z</time></trkpt><trkpt lat="42.401342245594975" lon="-8.085158964382826"><ele>309.8571428571429</ele><time>2026-04-03T18:22:44Z</time></trkpt><trkpt lat="42.401410146433946" lon="-8.085149693477153"><ele>310.28571428571433</ele><time>2026-04-03T18:22:45Z</time></trkpt><trkpt lat="42.40147882128988" lon="-8.085133376019296"><ele>310.7142857142857</ele><time>2026-04-03T18:22:46Z</time></trkpt><trkpt lat="42.40154323198932" lon="-8.08510639416619"><ele>311.1428571428571</ele><time>2026-04-03T18:22:47Z</time></trkpt><trkpt lat="42.40161375915775" lon="-8.085061750040536"><ele>311.5714285714286</ele><time>2026-04-03T18:22:48Z</time></trkpt><trkpt lat="42.40167691478182" lon="-8.08500813739609"><ele>312.0</ele><time>2026-04-03T18:22:49Z</time></trkpt><trkpt lat="42.401736787321" lon="-8.084948095339007"><ele>312.0</ele><time>2026-04-03T18:22:50Z</time></trkpt><trkpt lat="42.4017892240142" lon="-8.084885969045583"><ele>312.0</ele><time>2026-04-03T18:22:51Z</time></trkpt><trkpt lat="42.4018391100674" lon="-8.084828785417713"><ele>312.0</ele><time>2026-04-03T18:22:52Z</time></trkpt><trkpt lat="42.40188995274809" lon="-8.084768701679552"><ele>312.0</ele><time>2026-04-03T18:22:53Z</time></trkpt><trkpt lat="42.40193801974985" lon="-8.084708471122505"><ele>312.0</ele><time>2026-04-03T18:22:54Z</time></trkpt><trkpt lat="42.401987341733665" lon="-8.084650794551077"><ele>312.0</ele><time>2026-04-03T18:22:55Z</time></trkpt><trkpt lat="42.40204076060231" lon="-8.084592239909403"><ele>312.0</ele><time>2026-04-03T18:22:56Z</time></trkpt><trkpt lat="42.40208881874622" lon="-8.08453706917363"><ele>312.0</ele><time>2026-04-03T18:22:57Z</time></trkpt><trkpt lat="42.40214306157959" lon="-8.084475321936745"><ele>312.0</ele><time>2026-04-03T18:22:58Z</time></trkpt><trkpt lat="42.40219494968929" lon="-8.084419923318473"><ele>312.0</ele><time>2026-04-03T18:22:59Z</time></trkpt><trkpt lat="42.40224643207092" lon="-8.084357394553228"><ele>312.0</ele><time>2026-04-03T18:23:00Z</time></trkpt><trkpt lat="42.402299786694634" lon="-8.084296466407471"><ele>312.0</ele><time>2026-04-03T18:23:01Z</time></trkpt><trkpt lat="42.40234832299499" lon="-8.08423324240784"><ele>312.0</ele><time>2026-04-03T18:23:02Z</time></trkpt><trkpt lat="42.40240808779341" lon="-8.08417236699367"><ele>312.0</ele><time>2026-04-03T18:23:03Z</time></trkpt><trkpt lat="42.40245888961774" lon="-8.084108945365665"><ele>313.7142857142857</ele><time>2026-04-03T18:23:04Z</time></trkpt><trkpt lat="42.40251267542992" lon="-8.084046501224865"><ele>315.4285714285714</ele><time>2026-04-03T18:23:05Z</time></trkpt><trkpt lat="42.40256246476207" lon="-8.08398459918395"><ele>317.1428571428571</ele><time>2026-04-03T18:23:06Z</time></trkpt><trkpt lat="42.402613737014626" lon="-8.083920247541585"><ele>318.8571428571429</ele><time>2026-04-03T18:23:07Z</time></trkpt><trkpt lat="42.40267196137156" lon="-8.083848428021943"><ele>320.57142857142856</ele><time>2026-04-03T18:23:08Z</time></trkpt><trkpt lat="42.40272377147978" lon="-8.083788177394078"><ele>322.2857142857143</ele><time>2026-04-03T18:23:09Z</time></trkpt><trkpt lat="42.4027703492011" lon="-8.0837265470528"><ele>324.0</ele><time>2026-04-03T18:23:10Z</time></trkpt><trkpt lat="42.402821915836846" lon="-8.083672777979242"><ele>324.0</ele><time>2026-04-03T18:23:11Z</time></trkpt><trkpt lat="42.40288217589896" lon="-8.083619776893782"><ele>324.0</ele><time>2026-04-03T18:23:12Z</time></trkpt><trkpt lat="42.402936231541034" lon="-8.083564586047249"><ele>324.0</ele><time>2026-04-03T18:23:13Z</time></trkpt><trkpt lat="42.40298782210923" lon="-8.083501339093669"><ele>324.0</ele><time>2026-04-03T18:23:14Z</time></trkpt><trkpt lat="42.40303959487763" lon="-8.083436736657761"><ele>324.0</ele><time>2026-04-03T18:23:15Z</time></trkpt><trkpt lat="42.40309401886855" lon="-8.083376162036656"><ele>324.0</ele><time>2026-04-03T18:23:16Z</time></trkpt><trkpt lat="42.40314489115103" lon="-8.083317810480702"><ele>324.0</ele><time>2026-04-03T18:23:17Z</time></trkpt><trkpt lat="42.4031952367799" lon="-8.083255345695626"><ele>325.5</ele><time>2026-04-03T18:23:18Z</time></trkpt><trkpt lat="42.40324751711158" lon="-8.083204071277384"><ele>327.0</ele><time>2026-04-03T18:23:18.999Z</time></trkpt><trkpt lat="42.403298959379676" lon="-8.083127778038591"><ele>328.5</ele><time>2026-04-03T18:23:19.999Z</time></trkpt><trkpt lat="42.40335128380501" lon="-8.083076300288665"><ele>330.0</ele><time>2026-04-03T18:23:20.999Z</time></trkpt><trkpt lat="42.4034067389966" lon="-8.083018551840473"><ele>331.5</ele><time>2026-04-03T18:23:21.999Z</time></trkpt><trkpt lat="42.403462089186306" lon="-8.082958457707727"><ele>333.0</ele><time>2026-04-03T18:23:22.999Z</time></trkpt><trkpt lat="42.4035447088465" lon="-8.082840496686645"><ele>333.0</ele><time>2026-04-03T18:23:24.999Z</time></trkpt><trkpt lat="42.40359528251645" lon="-8.082782898464162"><ele>333.0</ele><time>2026-04-03T18:23:25.999Z</time></trkpt><trkpt lat="42.4036491752908" lon="-8.082721520807363"><ele>333.0</ele><time>2026-04-03T18:23:26.999Z</time></trkpt><trkpt lat="42.40369874067127" lon="-8.082662627975624"><ele>333.0</ele><time>2026-04-03T18:23:27.999Z</time></trkpt><trkpt lat="42.40375490550321" lon="-8.082597045556213"><ele>333.0</ele><time>2026-04-03T18:23:28.999Z</time></trkpt><trkpt lat="42.40380799664517" lon="-8.082535052224143"><ele>333.0</ele><time>2026-04-03T18:23:29.999Z</time></trkpt><trkpt lat="42.40387039442567" lon="-8.082491895783958"><ele>333.0</ele><time>2026-04-03T18:23:30.999Z</time></trkpt><trkpt lat="42.40391031453174" lon="-8.082415578247396"><ele>334.2857142857143</ele><time>2026-04-03T18:23:31.999Z</time></trkpt><trkpt lat="42.40395873014639" lon="-8.082359004964385"><ele>335.57142857142856</ele><time>2026-04-03T18:23:32.999Z</time></trkpt><trkpt lat="42.40400960235088" lon="-8.082299571786807"><ele>336.85714285714283</ele><time>2026-04-03T18:23:33.999Z</time></trkpt><trkpt lat="42.404060186125285" lon="-8.082240475604191"><ele>338.1428571428571</ele><time>2026-04-03T18:23:34.999Z</time></trkpt><trkpt lat="42.4041091799095" lon="-8.082183236966188"><ele>339.42857142857144</ele><time>2026-04-03T18:23:35.999Z</time></trkpt><trkpt lat="42.404160110915605" lon="-8.08212373510526"><ele>340.71428571428567</ele><time>2026-04-03T18:23:36.999Z</time></trkpt><trkpt lat="42.4042123425459" lon="-8.082062713795604"><ele>342.0</ele><time>2026-04-03T18:23:37.999Z</time></trkpt><trkpt lat="42.40426625594899" lon="-8.081999727641719"><ele>341.99999999999994</ele><time>2026-04-03T18:23:38.999Z</time></trkpt><trkpt lat="42.40431571200928" lon="-8.081941948949193"><ele>342.0</ele><time>2026-04-03T18:23:39.999Z</time></trkpt><trkpt lat="42.4043676330163" lon="-8.081881290496353"><ele>342.0</ele><time>2026-04-03T18:23:40.999Z</time></trkpt><trkpt lat="42.4044174773504" lon="-8.081823573010766"><ele>342.0</ele><time>2026-04-03T18:23:41.999Z</time></trkpt><trkpt lat="42.40447722800382" lon="-8.081755457270544"><ele>342.0</ele><time>2026-04-03T18:23:42.999Z</time></trkpt><trkpt lat="42.40453083955758" lon="-8.081696180880048"><ele>341.99999999999994</ele><time>2026-04-03T18:23:43.999Z</time></trkpt><trkpt lat="42.40458476557149" lon="-8.081637874435879"><ele>342.0</ele><time>2026-04-03T18:23:44.999Z</time></trkpt><trkpt lat="42.40464081651386" lon="-8.081577270430552"><ele>343.0</ele><time>2026-04-03T18:23:45.999Z</time></trkpt><trkpt lat="42.40470027402322" lon="-8.08151410051559"><ele>344.0</ele><time>2026-04-03T18:23:46.999Z</time></trkpt><trkpt lat="42.40475198293602" lon="-8.08145971167025"><ele>345.0</ele><time>2026-04-03T18:23:47.999Z</time></trkpt><trkpt lat="42.404849922057586" lon="-8.081358109296227"><ele>346.0</ele><time>2026-04-03T18:23:49.999Z</time></trkpt><trkpt lat="42.40490438939806" lon="-8.081302901850279"><ele>347.0</ele><time>2026-04-03T18:23:50.999Z</time></trkpt><trkpt lat="42.40500885837837" lon="-8.08119701330486"><ele>347.0</ele><time>2026-04-03T18:23:52.999Z</time></trkpt><trkpt lat="42.405064751678665" lon="-8.081140360520731"><ele>347.0</ele><time>2026-04-03T18:23:53.999Z</time></trkpt><trkpt lat="42.405118785442866" lon="-8.081085592506607"><ele>347.0</ele><time>2026-04-03T18:23:54.999Z</time></trkpt><trkpt lat="42.40517326226014" lon="-8.081030375450652"><ele>347.0</ele><time>2026-04-03T18:23:55.999Z</time></trkpt><trkpt lat="42.40523037913415" lon="-8.08097248246496"><ele>347.0</ele><time>2026-04-03T18:23:56.999Z</time></trkpt><trkpt lat="42.405287065920184" lon="-8.080915025391404"><ele>347.0</ele><time>2026-04-03T18:23:57.999Z</time></trkpt><trkpt lat="42.40534174622277" lon="-8.08085960205991"><ele>347.0</ele><time>2026-04-03T18:23:58.999Z</time></trkpt><trkpt lat="42.40540098865374" lon="-8.080799554652643"><ele>346.8</ele><time>2026-04-03T18:23:59.999Z</time></trkpt><trkpt lat="42.40548091930739" lon="-8.0807185378421"><ele>346.6</ele><time>2026-04-03T18:24:00.999Z</time></trkpt><trkpt lat="42.40556319480215" lon="-8.080635144375272"><ele>346.40000000000003</ele><time>2026-04-03T18:24:01.999Z</time></trkpt><trkpt lat="42.4056537484693" lon="-8.080543360228772"><ele>346.20000000000005</ele><time>2026-04-03T18:24:02.999Z</time></trkpt><trkpt lat="42.40574818788665" lon="-8.080447637533542"><ele>346.0</ele><time>2026-04-03T18:24:03.999Z</time></trkpt><trkpt lat="42.40585211185136" lon="-8.080340099788057"><ele>348.5</ele><time>2026-04-03T18:24:04.999Z</time></trkpt><trkpt lat="42.405955891226384" lon="-8.080232137130281"><ele>351.0</ele><time>2026-04-03T18:24:05.999Z</time></trkpt><trkpt lat="42.406073178797605" lon="-8.080135891317063"><ele>353.5</ele><time>2026-04-03T18:24:06.999Z</time></trkpt><trkpt lat="42.40618216349242" lon="-8.080008956765132"><ele>356.0</ele><time>2026-04-03T18:24:07.999Z</time></trkpt><trkpt lat="42.406294173290945" lon="-8.07989387619504"><ele>357.4</ele><time>2026-04-03T18:24:08.999Z</time></trkpt><trkpt lat="42.4063939513339" lon="-8.079788855524297"><ele>358.8</ele><time>2026-04-03T18:24:09.999Z</time></trkpt><trkpt lat="42.40648966588284" lon="-8.079696385856568"><ele>360.2</ele><time>2026-04-03T18:24:10.999Z</time></trkpt><trkpt lat="42.40657041994409" lon="-8.079609567308598"><ele>361.59999999999997</ele><time>2026-04-03T18:24:11.999Z</time></trkpt><trkpt lat="42.40664630880365" lon="-8.079533983620841"><ele>363.0</ele><time>2026-04-03T18:24:12.999Z</time></trkpt><trkpt lat="42.40671524949938" lon="-8.079454646827239"><ele>363.0</ele><time>2026-04-03T18:24:13.999Z</time></trkpt><trkpt lat="42.40678218121756" lon="-8.07938530706754"><ele>363.0</ele><time>2026-04-03T18:24:14.999Z</time></trkpt><trkpt lat="42.406847213124955" lon="-8.079312945047551"><ele>363.0</ele><time>2026-04-03T18:24:15.999Z</time></trkpt><trkpt lat="42.406909808815165" lon="-8.07925473454827"><ele>363.0</ele><time>2026-04-03T18:24:16.999Z</time></trkpt><trkpt lat="42.40697191856847" lon="-8.079188525047146"><ele>363.0</ele><time>2026-04-03T18:24:17.999Z</time></trkpt><trkpt lat="42.40703185794776" lon="-8.079120108631303"><ele>363.0</ele><time>2026-04-03T18:24:18.999Z</time></trkpt><trkpt lat="42.4070966247938" lon="-8.079067669029348"><ele>364.0</ele><time>2026-04-03T18:24:20Z</time></trkpt><trkpt lat="42.407162608033154" lon="-8.079026331345514"><ele>365.0</ele><time>2026-04-03T18:24:21Z</time></trkpt><trkpt lat="42.40723461663831" lon="-8.07898985426879"><ele>366.0</ele><time>2026-04-03T18:24:22Z</time></trkpt><trkpt lat="42.407305237414384" lon="-8.07896676575087"><ele>367.0</ele><time>2026-04-03T18:24:23Z</time></trkpt><trkpt lat="42.407375735634716" lon="-8.078948172423411"><ele>368.0</ele><time>2026-04-03T18:24:24Z</time></trkpt><trkpt lat="42.40748103209605" lon="-8.07891966455613"><ele>369.0</ele><time>2026-04-03T18:24:26Z</time></trkpt><trkpt lat="42.40754406322185" lon="-8.078904139790609"><ele>369.0</ele><time>2026-04-03T18:24:28Z</time></trkpt><trkpt lat="42.40762635934414" lon="-8.078888385591526"><ele>369.0</ele><time>2026-04-03T18:24:31Z</time></trkpt><trkpt lat="42.40769489708073" lon="-8.078850957721032"><ele>369.0</ele><time>2026-04-03T18:24:34Z</time></trkpt><trkpt lat="42.4077974875248" lon="-8.078818545278487"><ele>369.0</ele><time>2026-04-03T18:24:36Z</time></trkpt><trkpt lat="42.40792372953162" lon="-8.078775608426477"><ele>369.0</ele><time>2026-04-03T18:24:38Z</time></trkpt><trkpt lat="42.40798979396651" lon="-8.078753138944819"><ele>370.1666666666667</ele><time>2026-04-03T18:24:39Z</time></trkpt><trkpt lat="42.40805901769803" lon="-8.07872917848934"><ele>371.3333333333333</ele><time>2026-04-03T18:24:40Z</time></trkpt><trkpt lat="42.408132506856" lon="-8.07870572431661"><ele>372.5</ele><time>2026-04-03T18:24:41Z</time></trkpt><trkpt lat="42.4082083402844" lon="-8.078680804002435"><ele>373.66666666666663</ele><time>2026-04-03T18:24:42Z</time></trkpt><trkpt lat="42.40828589928655" lon="-8.078656257893162"><ele>374.8333333333333</ele><time>2026-04-03T18:24:43Z</time></trkpt><trkpt lat="42.40835853552146" lon="-8.078632044821639"><ele>376.0</ele><time>2026-04-03T18:24:44Z</time></trkpt><trkpt lat="42.40842880353159" lon="-8.078629287679487"><ele>376.0</ele><time>2026-04-03T18:24:45Z</time></trkpt><trkpt lat="42.408491554357845" lon="-8.078598229928328"><ele>376.0</ele><time>2026-04-03T18:24:46Z</time></trkpt><trkpt lat="42.40855856909254" lon="-8.078574775849305"><ele>376.0</ele><time>2026-04-03T18:24:47Z</time></trkpt><trkpt lat="42.40862374491298" lon="-8.078551100485912"><ele>376.0</ele><time>2026-04-03T18:24:48Z</time></trkpt><trkpt lat="42.40869027819076" lon="-8.078518772631565"><ele>376.0</ele><time>2026-04-03T18:24:49Z</time></trkpt><trkpt lat="42.408753400214636" lon="-8.07848956814572"><ele>376.0</ele><time>2026-04-03T18:24:50Z</time></trkpt><trkpt lat="42.40881577283852" lon="-8.078456564368008"><ele>376.0</ele><time>2026-04-03T18:24:51Z</time></trkpt><trkpt lat="42.40887792107504" lon="-8.07842483119112"><ele>376.8</ele><time>2026-04-03T18:24:52Z</time></trkpt><trkpt lat="42.408992761666596" lon="-8.078369764295276"><ele>377.6</ele><time>2026-04-03T18:24:54Z</time></trkpt><trkpt lat="42.40905434848027" lon="-8.078339012435004"><ele>378.4</ele><time>2026-04-03T18:24:55Z</time></trkpt><trkpt lat="42.409128397913605" lon="-8.078307807148619"><ele>379.2</ele><time>2026-04-03T18:24:56Z</time></trkpt><trkpt lat="42.40921594838206" lon="-8.078261423998113"><ele>380.0</ele><time>2026-04-03T18:24:57Z</time></trkpt><trkpt lat="42.409308804633085" lon="-8.078222084835298"><ele>381.0</ele><time>2026-04-03T18:24:58Z</time></trkpt><trkpt lat="42.409411157883426" lon="-8.07815250035627"><ele>382.0</ele><time>2026-04-03T18:24:59Z</time></trkpt><trkpt lat="42.40951051539512" lon="-8.078097917228666"><ele>383.0</ele><time>2026-04-03T18:25:00Z</time></trkpt><trkpt lat="42.40961907974669" lon="-8.078045937177679"><ele>384.0</ele><time>2026-04-03T18:25:01Z</time></trkpt><trkpt lat="42.40970823514576" lon="-8.078008522758056"><ele>385.0</ele><time>2026-04-03T18:25:02Z</time></trkpt><trkpt lat="42.409781357595854" lon="-8.077974754397811"><ele>385.85714285714283</ele><time>2026-04-03T18:25:03Z</time></trkpt><trkpt lat="42.40984909704067" lon="-8.07794516729781"><ele>386.7142857142857</ele><time>2026-04-03T18:25:04Z</time></trkpt><trkpt lat="42.40991821409449" lon="-8.077913628041756"><ele>387.57142857142856</ele><time>2026-04-03T18:25:05Z</time></trkpt><trkpt lat="42.40999510040155" lon="-8.077874308772161"><ele>388.42857142857144</ele><time>2026-04-03T18:25:06Z</time></trkpt><trkpt lat="42.41005730114085" lon="-8.077846933158588"><ele>389.2857142857143</ele><time>2026-04-03T18:25:07Z</time></trkpt><trkpt lat="42.41011989019618" lon="-8.077801419765647"><ele>390.1428571428571</ele><time>2026-04-03T18:25:08Z</time></trkpt><trkpt lat="42.41018066506128" lon="-8.077774175177874"><ele>391.0</ele><time>2026-04-03T18:25:09Z</time></trkpt><trkpt lat="42.410285026434885" lon="-8.077728297631399"><ele>391.00000000000006</ele><time>2026-04-03T18:25:11Z</time></trkpt><trkpt lat="42.410378496602064" lon="-8.077687303037289"><ele>391.0</ele><time>2026-04-03T18:25:13Z</time></trkpt><trkpt lat="42.41044629463782" lon="-8.077660426898154"><ele>391.0</ele><time>2026-04-03T18:25:15Z</time></trkpt><trkpt lat="42.41052844135892" lon="-8.07763233304637"><ele>391.0</ele><time>2026-04-03T18:25:22Z</time></trkpt><trkpt lat="42.41062627513497" lon="-8.077603470665656"><ele>391.00000000000006</ele><time>2026-04-03T18:25:24Z</time></trkpt><trkpt lat="42.410686126657524" lon="-8.077574328034768"><ele>391.0</ele><time>2026-04-03T18:25:25Z</time></trkpt><trkpt lat="42.41074609012173" lon="-8.077546984895468"><ele>392.20000000000005</ele><time>2026-04-03T18:25:26Z</time></trkpt><trkpt lat="42.41084977261982" lon="-8.077504303104725"><ele>393.40000000000003</ele><time>2026-04-03T18:25:28Z</time></trkpt><trkpt lat="42.41092612569972" lon="-8.077463213791592"><ele>394.6</ele><time>2026-04-03T18:25:30Z</time></trkpt><trkpt lat="42.41101392322482" lon="-8.077443239474944"><ele>395.8</ele><time>2026-04-03T18:25:33Z</time></trkpt><trkpt lat="42.41111178417678" lon="-8.07742399435211"><ele>397.0</ele><time>2026-04-03T18:25:35Z</time></trkpt><trkpt lat="42.41119197374988" lon="-8.077406947143666"><ele>397.00000000000006</ele><time>2026-04-03T18:25:36.999Z</time></trkpt><trkpt lat="42.41130152133019" lon="-8.077370185974159"><ele>397.0</ele><time>2026-04-03T18:25:38.999Z</time></trkpt><trkpt lat="42.411368133345796" lon="-8.077350967497939"><ele>397.0</ele><time>2026-04-03T18:25:39.999Z</time></trkpt><trkpt lat="42.411442787518155" lon="-8.077326843236131"><ele>397.0</ele><time>2026-04-03T18:25:40.999Z</time></trkpt><trkpt lat="42.4115207309412" lon="-8.077307056115908"><ele>397.00000000000006</ele><time>2026-04-03T18:25:41.999Z</time></trkpt><trkpt lat="42.41160118778831" lon="-8.07727983982129"><ele>397.0</ele><time>2026-04-03T18:25:42.999Z</time></trkpt><trkpt lat="42.41168666940113" lon="-8.077252652951186"><ele>397.8</ele><time>2026-04-03T18:25:43.999Z</time></trkpt><trkpt lat="42.411774790769634" lon="-8.077224915551492"><ele>398.6</ele><time>2026-04-03T18:25:44.999Z</time></trkpt><trkpt lat="42.411882907871494" lon="-8.077199583988456"><ele>399.40000000000003</ele><time>2026-04-03T18:25:45.999Z</time></trkpt><trkpt lat="42.412000156066085" lon="-8.077167781785002"><ele>400.20000000000005</ele><time>2026-04-03T18:25:46.999Z</time></trkpt><trkpt lat="42.4120937936188" lon="-8.077136039926662"><ele>401.0</ele><time>2026-04-03T18:25:47.999Z</time></trkpt><trkpt lat="42.41217142450004" lon="-8.07710133043466"><ele>401.8</ele><time>2026-04-03T18:25:48.999Z</time></trkpt><trkpt lat="42.412274360784714" lon="-8.077077287834756"><ele>402.6</ele><time>2026-04-03T18:25:50.999Z</time></trkpt><trkpt lat="42.41235604452362" lon="-8.077047795327909"><ele>403.4</ele><time>2026-04-03T18:25:52.999Z</time></trkpt><trkpt lat="42.41247597794484" lon="-8.077008031115362"><ele>404.2</ele><time>2026-04-03T18:25:54.999Z</time></trkpt><trkpt lat="42.41257817576713" lon="-8.076977343133825"><ele>405.0</ele><time>2026-04-03T18:25:56.999Z</time></trkpt><trkpt lat="42.41266456859306" lon="-8.076950187093725"><ele>405.0</ele><time>2026-04-03T18:25:58.999Z</time></trkpt><trkpt lat="42.41275539411981" lon="-8.076926329537383"><ele>405.0</ele><time>2026-04-03T18:26:00.999Z</time></trkpt><trkpt lat="42.41285577878039" lon="-8.076899524722798"><ele>405.0</ele><time>2026-04-03T18:26:02.999Z</time></trkpt><trkpt lat="42.41296815809678" lon="-8.076868546040105"><ele>405.0</ele><time>2026-04-03T18:26:04.999Z</time></trkpt><trkpt lat="42.413083281800866" lon="-8.076827664593393"><ele>405.0</ele><time>2026-04-03T18:26:06.999Z</time></trkpt><trkpt lat="42.413144306815255" lon="-8.076806148321632"><ele>405.75</ele><time>2026-04-03T18:26:07.999Z</time></trkpt><trkpt lat="42.41326049773676" lon="-8.076772212820758"><ele>406.5</ele><time>2026-04-03T18:26:09.999Z</time></trkpt><trkpt lat="42.41336489306658" lon="-8.076732785058008"><ele>407.25</ele><time>2026-04-03T18:26:11.999Z</time></trkpt><trkpt lat="42.41347530831103" lon="-8.076689813090313"><ele>408.0</ele><time>2026-04-03T18:26:13.999Z</time></trkpt><trkpt lat="42.41358321589733" lon="-8.07664973606248"><ele>408.0</ele><time>2026-04-03T18:26:15.999Z</time></trkpt><trkpt lat="42.41369628333519" lon="-8.076602788985085"><ele>408.0</ele><time>2026-04-03T18:26:17.999Z</time></trkpt><trkpt lat="42.41379886247009" lon="-8.076561181120862"><ele>408.0</ele><time>2026-04-03T18:26:19.999Z</time></trkpt><trkpt lat="42.413891514818474" lon="-8.076526230293867"><ele>408.0</ele><time>2026-04-03T18:26:21.999Z</time></trkpt><trkpt lat="42.41397617442369" lon="-8.076489203644295"><ele>408.0</ele><time>2026-04-03T18:26:23.999Z</time></trkpt><trkpt lat="42.41406422746645" lon="-8.076461733984516"><ele>408.0</ele><time>2026-04-03T18:26:27Z</time></trkpt><trkpt lat="42.41414933023397" lon="-8.076439888865913"><ele>408.0</ele><time>2026-04-03T18:26:29Z</time></trkpt><trkpt lat="42.4142324250506" lon="-8.076415688320042"><ele>408.0</ele><time>2026-04-03T18:26:30Z</time></trkpt><trkpt lat="42.414330573146316" lon="-8.076381786416961"><ele>408.0</ele><time>2026-04-03T18:26:31Z</time></trkpt><trkpt lat="42.414427861345075" lon="-8.076342320604706"><ele>408.0</ele><time>2026-04-03T18:26:32Z</time></trkpt><trkpt lat="42.41451703733726" lon="-8.076305655232076"><ele>408.0</ele><time>2026-04-03T18:26:33Z</time></trkpt><trkpt lat="42.41459997111311" lon="-8.076274352244933"><ele>408.0</ele><time>2026-04-03T18:26:34Z</time></trkpt><trkpt lat="42.41467749192692" lon="-8.07625440183777"><ele>408.0</ele><time>2026-04-03T18:26:35Z</time></trkpt><trkpt lat="42.41479133308365" lon="-8.076218130267922"><ele>408.0</ele><time>2026-04-03T18:26:37Z</time></trkpt><trkpt lat="42.41488799556349" lon="-8.076186768822776"><ele>408.0</ele><time>2026-04-03T18:26:39Z</time></trkpt><trkpt lat="42.41498184007617" lon="-8.076170947664584"><ele>407.59999999999997</ele><time>2026-04-03T18:26:41Z</time></trkpt><trkpt lat="42.415082421697136" lon="-8.076150519738647"><ele>407.2</ele><time>2026-04-03T18:26:43Z</time></trkpt><trkpt lat="42.41520289987799" lon="-8.076126810033413"><ele>406.8</ele><time>2026-04-03T18:26:45Z</time></trkpt><trkpt lat="42.41528656617189" lon="-8.07611265289571"><ele>406.4</ele><time>2026-04-03T18:26:46Z</time></trkpt><trkpt lat="42.415399158150294" lon="-8.076111138944437"><ele>406.0</ele><time>2026-04-03T18:26:47Z</time></trkpt><trkpt lat="42.415500330927806" lon="-8.07608864666961"><ele>406.0</ele><time>2026-04-03T18:26:48Z</time></trkpt><trkpt lat="42.41561644834445" lon="-8.076070602406686"><ele>406.0</ele><time>2026-04-03T18:26:49Z</time></trkpt><trkpt lat="42.415736575916384" lon="-8.07605681097379"><ele>406.0</ele><time>2026-04-03T18:26:50Z</time></trkpt><trkpt lat="42.41584652448358" lon="-8.076042799829999"><ele>406.0</ele><time>2026-04-03T18:26:51Z</time></trkpt><trkpt lat="42.415949910536256" lon="-8.07603573182682"><ele>406.00000000000006</ele><time>2026-04-03T18:26:52Z</time></trkpt><trkpt lat="42.41604623911363" lon="-8.076033066330202"><ele>406.0</ele><time>2026-04-03T18:26:53Z</time></trkpt><trkpt lat="42.41613724196581" lon="-8.0760280149379"><ele>406.0</ele><time>2026-04-03T18:26:54Z</time></trkpt><trkpt lat="42.416220251978956" lon="-8.076026586843339"><ele>406.0</ele><time>2026-04-03T18:26:55Z</time></trkpt><trkpt lat="42.41630326623417" lon="-8.076025789392183"><ele>406.00000000000006</ele><time>2026-04-03T18:26:56Z</time></trkpt><trkpt lat="42.41637459484393" lon="-8.07603209013838"><ele>406.0</ele><time>2026-04-03T18:26:57Z</time></trkpt><trkpt lat="42.41644278531475" lon="-8.076038810992692"><ele>406.33333333333337</ele><time>2026-04-03T18:26:58Z</time></trkpt><trkpt lat="42.41651360473426" lon="-8.076043689591236"><ele>406.6666666666667</ele><time>2026-04-03T18:26:59Z</time></trkpt><trkpt lat="42.41657666557007" lon="-8.076058328695567"><ele>407.0</ele><time>2026-04-03T18:27:00Z</time></trkpt><trkpt lat="42.41669535501643" lon="-8.0760725874845"><ele>407.33333333333337</ele><time>2026-04-03T18:27:02Z</time></trkpt><trkpt lat="42.416802508975756" lon="-8.076102537480821"><ele>407.6666666666667</ele><time>2026-04-03T18:27:04Z</time></trkpt><trkpt lat="42.41687007379002" lon="-8.076113746021372"><ele>408.0</ele><time>2026-04-03T18:27:05Z</time></trkpt><trkpt lat="42.41698702801632" lon="-8.076137363116848"><ele>408.0</ele><time>2026-04-03T18:27:07Z</time></trkpt><trkpt lat="42.41710601644609" lon="-8.076167045322919"><ele>408.0</ele><time>2026-04-03T18:27:09Z</time></trkpt><trkpt lat="42.41720928471865" lon="-8.07618745925674"><ele>408.0</ele><time>2026-04-03T18:27:11Z</time></trkpt><trkpt lat="42.417293173424625" lon="-8.076208953282256"><ele>408.0</ele><time>2026-04-03T18:27:13Z</time></trkpt><trkpt lat="42.41737741043501" lon="-8.076231886251124"><ele>408.0</ele><time>2026-04-03T18:27:15Z</time></trkpt><trkpt lat="42.41748278536317" lon="-8.076255929640674"><ele>408.2</ele><time>2026-04-03T18:27:17Z</time></trkpt><trkpt lat="42.4175940118514" lon="-8.076277854912975"><ele>408.4</ele><time>2026-04-03T18:27:19Z</time></trkpt><trkpt lat="42.41766065152059" lon="-8.076297705453165"><ele>408.59999999999997</ele><time>2026-04-03T18:27:20Z</time></trkpt><trkpt lat="42.41779594674121" lon="-8.07633746976592"><ele>408.79999999999995</ele><time>2026-04-03T18:27:22Z</time></trkpt><trkpt lat="42.41787422837525" lon="-8.076350001073633"><ele>409.0</ele><time>2026-04-03T18:27:23Z</time></trkpt><trkpt lat="42.41794697438989" lon="-8.076367117397469"><ele>408.83333333333337</ele><time>2026-04-03T18:27:24Z</time></trkpt><trkpt lat="42.41801106752095" lon="-8.076384653263213"><ele>408.6666666666667</ele><time>2026-04-03T18:27:25Z</time></trkpt><trkpt lat="42.418076255072364" lon="-8.076400605473907"><ele>408.5</ele><time>2026-04-03T18:27:26Z</time></trkpt><trkpt lat="42.418203662770026" lon="-8.076425357676884"><ele>408.33333333333337</ele><time>2026-04-03T18:27:28Z</time></trkpt><trkpt lat="42.41828311684139" lon="-8.076449247876646"><ele>408.1666666666667</ele><time>2026-04-03T18:27:29Z</time></trkpt><trkpt lat="42.418366873863185" lon="-8.076471794195486"><ele>408.0</ele><time>2026-04-03T18:27:30Z</time></trkpt><trkpt lat="42.418451639822365" lon="-8.076488951465825"><ele>408.0</ele><time>2026-04-03T18:27:31Z</time></trkpt><trkpt lat="42.41853054998134" lon="-8.076504123230357"><ele>408.0</ele><time>2026-04-03T18:27:32Z</time></trkpt><trkpt lat="42.418603394955895" lon="-8.076525652462392"><ele>408.0</ele><time>2026-04-03T18:27:33Z</time></trkpt><trkpt lat="42.418679570542984" lon="-8.076548060251165"><ele>408.0</ele><time>2026-04-03T18:27:34Z</time></trkpt><trkpt lat="42.41875397953822" lon="-8.076563853321009"><ele>408.0</ele><time>2026-04-03T18:27:35Z</time></trkpt><trkpt lat="42.41882226124861" lon="-8.076582243213995"><ele>408.0</ele><time>2026-04-03T18:27:36Z</time></trkpt><trkpt lat="42.41889481589018" lon="-8.076596000089404"><ele>407.6666666666667</ele><time>2026-04-03T18:27:37Z</time></trkpt><trkpt lat="42.41895954401161" lon="-8.076598038699448"><ele>407.33333333333337</ele><time>2026-04-03T18:27:38Z</time></trkpt><trkpt lat="42.419071767529296" lon="-8.076620112762294"><ele>407.0</ele><time>2026-04-03T18:27:40Z</time></trkpt><trkpt lat="42.419171732847616" lon="-8.076649187965804"><ele>406.6666666666667</ele><time>2026-04-03T18:27:41.999Z</time></trkpt><trkpt lat="42.41923463277466" lon="-8.076658044258687"><ele>406.33333333333337</ele><time>2026-04-03T18:27:42.999Z</time></trkpt><trkpt lat="42.41929994431058" lon="-8.076681284874535"><ele>406.0</ele><time>2026-04-03T18:27:43.999Z</time></trkpt><trkpt lat="42.41937491347296" lon="-8.076699231135015"><ele>406.00000000000006</ele><time>2026-04-03T18:27:44.999Z</time></trkpt><trkpt lat="42.4194478458573" lon="-8.076725087234145"><ele>406.0</ele><time>2026-04-03T18:27:45.999Z</time></trkpt><trkpt lat="42.41953024607014" lon="-8.076747095144338"><ele>406.0</ele><time>2026-04-03T18:27:46.999Z</time></trkpt><trkpt lat="42.41961120093435" lon="-8.076767027794702"><ele>406.0</ele><time>2026-04-03T18:27:47.999Z</time></trkpt><trkpt lat="42.419692493644995" lon="-8.076794522869314"><ele>406.00000000000006</ele><time>2026-04-03T18:27:48.999Z</time></trkpt><trkpt lat="42.419771787762954" lon="-8.076814278197538"><ele>406.0</ele><time>2026-04-03T18:27:49.999Z</time></trkpt><trkpt lat="42.41984325038877" lon="-8.076830060221209"><ele>405.50000000000006</ele><time>2026-04-03T18:27:50.999Z</time></trkpt><trkpt lat="42.41991089936075" lon="-8.076854204513541"><ele>405.0</ele><time>2026-04-03T18:27:51.999Z</time></trkpt><trkpt lat="42.41997842202414" lon="-8.07687514469434"><ele>404.5</ele><time>2026-04-03T18:27:52.999Z</time></trkpt><trkpt lat="42.42004886158605" lon="-8.076888668132979"><ele>404.0</ele><time>2026-04-03T18:27:53.999Z</time></trkpt><trkpt lat="42.42013073735781" lon="-8.076904885464257"><ele>403.50000000000006</ele><time>2026-04-03T18:27:54.999Z</time></trkpt><trkpt lat="42.420210230322795" lon="-8.076931135420267"><ele>403.0</ele><time>2026-04-03T18:27:55.999Z</time></trkpt><trkpt lat="42.42029661269026" lon="-8.076958141711936"><ele>403.00000000000006</ele><time>2026-04-03T18:27:56.999Z</time></trkpt><trkpt lat="42.42038477902055" lon="-8.076965849261516"><ele>403.0</ele><time>2026-04-03T18:27:57.999Z</time></trkpt><trkpt lat="42.420474996076386" lon="-8.076945952235176"><ele>403.0</ele><time>2026-04-03T18:27:58.999Z</time></trkpt><trkpt lat="42.42056123544078" lon="-8.076927656387832"><ele>403.0</ele><time>2026-04-03T18:27:59.999Z</time></trkpt><trkpt lat="42.42064473082031" lon="-8.076914491108363"><ele>403.00000000000006</ele><time>2026-04-03T18:28:00.999Z</time></trkpt><trkpt lat="42.42072741450816" lon="-8.076905522498908"><ele>403.0</ele><time>2026-04-03T18:28:01.999Z</time></trkpt><trkpt lat="42.420806583002594" lon="-8.076898185359083"><ele>401.50000000000006</ele><time>2026-04-03T18:28:02.999Z</time></trkpt><trkpt lat="42.420882007842216" lon="-8.076889314945888"><ele>400.0</ele><time>2026-04-03T18:28:03.999Z</time></trkpt><trkpt lat="42.420959227265605" lon="-8.0768739871246"><ele>398.5</ele><time>2026-04-03T18:28:04.999Z</time></trkpt><trkpt lat="42.421027562420946" lon="-8.076869463531585"><ele>397.0</ele><time>2026-04-03T18:28:05.999Z</time></trkpt><trkpt lat="42.42109908434576" lon="-8.076865277051521"><ele>395.50000000000006</ele><time>2026-04-03T18:28:06.999Z</time></trkpt><trkpt lat="42.421216315183486" lon="-8.076879856616863"><ele>394.0</ele><time>2026-04-03T18:28:08.999Z</time></trkpt><trkpt lat="42.42131884499361" lon="-8.076925096797131"><ele>392.83333333333337</ele><time>2026-04-03T18:28:10.999Z</time></trkpt><trkpt lat="42.42142369890219" lon="-8.07695445821757"><ele>391.6666666666667</ele><time>2026-04-03T18:28:12.999Z</time></trkpt><trkpt lat="42.42152904714777" lon="-8.077019870633432"><ele>390.5</ele><time>2026-04-03T18:28:14.999Z</time></trkpt><trkpt lat="42.42158307051133" lon="-8.077069468405488"><ele>389.33333333333337</ele><time>2026-04-03T18:28:15.999Z</time></trkpt><trkpt lat="42.42164048280365" lon="-8.077125721037287"><ele>388.1666666666667</ele><time>2026-04-03T18:28:16.999Z</time></trkpt><trkpt lat="42.42171111053785" lon="-8.077199744622483"><ele>387.0</ele><time>2026-04-03T18:28:17.999Z</time></trkpt><trkpt lat="42.42178711679437" lon="-8.077260652195411"><ele>387.0</ele><time>2026-04-03T18:28:18.999Z</time></trkpt><trkpt lat="42.42188160027359" lon="-8.077334960243592"><ele>387.0</ele><time>2026-04-03T18:28:19.999Z</time></trkpt><trkpt lat="42.42198458612568" lon="-8.07742279168492"><ele>387.0</ele><time>2026-04-03T18:28:20.999Z</time></trkpt><trkpt lat="42.42210020506364" lon="-8.077518490312631"><ele>387.0</ele><time>2026-04-03T18:28:21.999Z</time></trkpt><trkpt lat="42.42223690943784" lon="-8.077608970983466"><ele>384.3333333333333</ele><time>2026-04-03T18:28:22.999Z</time></trkpt><trkpt lat="42.42239266895895" lon="-8.077686840169573"><ele>381.66666666666663</ele><time>2026-04-03T18:28:23.999Z</time></trkpt><trkpt lat="42.42256068741882" lon="-8.077749371290516"><ele>379.0</ele><time>2026-04-03T18:28:24.999Z</time></trkpt><trkpt lat="42.42273762677048" lon="-8.077808781250129"><ele>379.0</ele><time>2026-04-03T18:28:25.999Z</time></trkpt><trkpt lat="42.422920868689765" lon="-8.07787459359392"><ele>379.0</ele><time>2026-04-03T18:28:26.999Z</time></trkpt><trkpt lat="42.42310598403786" lon="-8.077935833748862"><ele>379.0</ele><time>2026-04-03T18:28:27.999Z</time></trkpt><trkpt lat="42.42329843719641" lon="-8.078003742908995"><ele>378.0</ele><time>2026-04-03T18:28:28.999Z</time></trkpt><trkpt lat="42.423480529771325" lon="-8.078068165645359"><ele>377.0</ele><time>2026-04-03T18:28:29.999Z</time></trkpt><trkpt lat="42.42364508956759" lon="-8.078135793897301"><ele>376.0</ele><time>2026-04-03T18:28:30.999Z</time></trkpt><trkpt lat="42.423799921085795" lon="-8.078192367224169"><ele>376.0</ele><time>2026-04-03T18:28:32Z</time></trkpt><trkpt lat="42.42395072849687" lon="-8.078244566419945"><ele>376.0</ele><time>2026-04-03T18:28:33Z</time></trkpt><trkpt lat="42.4240894042653" lon="-8.078292721416757"><ele>376.0</ele><time>2026-04-03T18:28:34Z</time></trkpt><trkpt lat="42.42422322966666" lon="-8.078350562132282"><ele>376.0</ele><time>2026-04-03T18:28:35Z</time></trkpt><trkpt lat="42.42434539299342" lon="-8.078386641075083"><ele>375.25</ele><time>2026-04-03T18:28:36Z</time></trkpt><trkpt lat="42.424470050834486" lon="-8.078426046498782"><ele>374.5</ele><time>2026-04-03T18:28:37Z</time></trkpt><trkpt lat="42.424578384048864" lon="-8.07846352575855"><ele>373.75</ele><time>2026-04-03T18:28:38Z</time></trkpt><trkpt lat="42.424689548816154" lon="-8.078499220850965"><ele>373.0</ele><time>2026-04-03T18:28:39Z</time></trkpt><trkpt lat="42.42478387025267" lon="-8.078531140396965"><ele>373.0</ele><time>2026-04-03T18:28:40Z</time></trkpt><trkpt lat="42.42487607795464" lon="-8.078546866067285"><ele>373.0</ele><time>2026-04-03T18:28:41Z</time></trkpt><trkpt lat="42.42495588458402" lon="-8.078600133349955"><ele>373.0</ele><time>2026-04-03T18:28:43Z</time></trkpt><trkpt lat="42.425041323704455" lon="-8.078623646061663"><ele>373.0</ele><time>2026-04-03T18:28:45Z</time></trkpt><trkpt lat="42.42512098992542" lon="-8.078650545666116"><ele>373.0</ele><time>2026-04-03T18:28:47Z</time></trkpt><trkpt lat="42.42521580647191" lon="-8.078673799388978"><ele>373.0</ele><time>2026-04-03T18:28:49Z</time></trkpt><trkpt lat="42.4253043934054" lon="-8.078683171891193"><ele>373.0</ele><time>2026-04-03T18:28:51Z</time></trkpt><trkpt lat="42.42536671530635" lon="-8.078732383974415"><ele>373.0</ele><time>2026-04-03T18:29:09Z</time></trkpt><trkpt lat="42.4254546227183" lon="-8.078763511540371"><ele>373.0</ele><time>2026-04-03T18:29:11Z</time></trkpt><trkpt lat="42.425578230629505" lon="-8.078811013543774"><ele>373.0</ele><time>2026-04-03T18:29:13Z</time></trkpt><trkpt lat="42.425655138653724" lon="-8.078839469585146"><ele>373.0</ele><time>2026-04-03T18:29:14Z</time></trkpt><trkpt lat="42.42573926643909" lon="-8.078877830016673"><ele>373.3333333333333</ele><time>2026-04-03T18:29:15Z</time></trkpt><trkpt lat="42.42582138887019" lon="-8.07890976949244"><ele>373.66666666666663</ele><time>2026-04-03T18:29:16Z</time></trkpt><trkpt lat="42.42590876515692" lon="-8.078941340408294"><ele>374.0</ele><time>2026-04-03T18:29:17Z</time></trkpt><trkpt lat="42.42599517410075" lon="-8.078972766018527"><ele>374.3333333333333</ele><time>2026-04-03T18:29:18Z</time></trkpt><trkpt lat="42.426081919155436" lon="-8.078998944192863"><ele>374.6666666666667</ele><time>2026-04-03T18:29:19Z</time></trkpt><trkpt lat="42.42616385769041" lon="-8.079023471821237"><ele>375.0</ele><time>2026-04-03T18:29:20Z</time></trkpt><trkpt lat="42.426243269075805" lon="-8.079053453318206"><ele>375.0</ele><time>2026-04-03T18:29:21Z</time></trkpt><trkpt lat="42.42632372600885" lon="-8.07908385019349"><ele>375.0</ele><time>2026-04-03T18:29:22Z</time></trkpt><trkpt lat="42.42639377952808" lon="-8.079102001506175"><ele>375.0</ele><time>2026-04-03T18:29:23Z</time></trkpt><trkpt lat="42.42648631267161" lon="-8.079132372675266"><ele>375.0</ele><time>2026-04-03T18:29:24Z</time></trkpt><trkpt lat="42.426590994084584" lon="-8.079170022343868"><ele>375.0</ele><time>2026-04-03T18:29:25Z</time></trkpt><trkpt lat="42.42667170568224" lon="-8.07919058389117"><ele>375.0</ele><time>2026-04-03T18:29:26Z</time></trkpt><trkpt lat="42.426739167905346" lon="-8.079230746107187"><ele>376.5</ele><time>2026-04-03T18:29:27Z</time></trkpt><trkpt lat="42.42680393196956" lon="-8.079250662739632"><ele>378.0</ele><time>2026-04-03T18:29:28Z</time></trkpt><trkpt lat="42.42689166965231" lon="-8.07927573837795"><ele>379.5</ele><time>2026-04-03T18:29:30Z</time></trkpt><trkpt lat="42.42697331794562" lon="-8.079306346749528"><ele>381.0</ele><time>2026-04-03T18:29:33Z</time></trkpt><trkpt lat="42.427046309061666" lon="-8.079335531448697"><ele>382.5</ele><time>2026-04-03T18:29:35Z</time></trkpt><trkpt lat="42.42712016275274" lon="-8.079362940230011"><ele>384.0</ele><time>2026-04-03T18:29:37Z</time></trkpt><trkpt lat="42.42721181442105" lon="-8.079392311291079"><ele>386.0</ele><time>2026-04-03T18:29:39Z</time></trkpt><trkpt lat="42.42731203220217" lon="-8.079423485528148"><ele>388.0</ele><time>2026-04-03T18:29:40.999Z</time></trkpt><trkpt lat="42.42743209192311" lon="-8.079463624522939"><ele>390.0</ele><time>2026-04-03T18:29:42.999Z</time></trkpt><trkpt lat="42.4274962777345" lon="-8.079483938504293"><ele>392.0</ele><time>2026-04-03T18:29:43.999Z</time></trkpt><trkpt lat="42.42755830802439" lon="-8.079504960526211"><ele>394.0</ele><time>2026-04-03T18:29:44.999Z</time></trkpt><trkpt lat="42.42767717010509" lon="-8.079542669393346"><ele>394.00000000000006</ele><time>2026-04-03T18:29:46.999Z</time></trkpt><trkpt lat="42.4277398225592" lon="-8.07956854807651"><ele>394.0</ele><time>2026-04-03T18:29:47.999Z</time></trkpt><trkpt lat="42.42780678425448" lon="-8.079588125009048"><ele>394.0</ele><time>2026-04-03T18:29:48.999Z</time></trkpt><trkpt lat="42.427907771878246" lon="-8.079616554185142"><ele>394.0</ele><time>2026-04-03T18:29:50.999Z</time></trkpt><trkpt lat="42.4280041748777" lon="-8.079651663154328"><ele>394.00000000000006</ele><time>2026-04-03T18:29:52.999Z</time></trkpt><trkpt lat="42.42810211599844" lon="-8.079696733882724"><ele>394.0</ele><time>2026-04-03T18:29:54.999Z</time></trkpt><trkpt lat="42.42818686514865" lon="-8.079799017515514"><ele>394.83333333333337</ele><time>2026-04-03T18:29:56.999Z</time></trkpt><trkpt lat="42.428233751523784" lon="-8.079888020558467"><ele>395.6666666666667</ele><time>2026-04-03T18:29:58.999Z</time></trkpt><trkpt lat="42.428260103382044" lon="-8.079965557539719"><ele>396.5</ele><time>2026-04-03T18:30:00.999Z</time></trkpt><trkpt lat="42.42831934146261" lon="-8.080063670654518"><ele>397.33333333333337</ele><time>2026-04-03T18:30:03.999Z</time></trkpt><trkpt lat="42.428367753275495" lon="-8.080151601047277"><ele>398.1666666666667</ele><time>2026-04-03T18:30:05.999Z</time></trkpt><trkpt lat="42.42842061377003" lon="-8.080265295326631"><ele>399.0</ele><time>2026-04-03T18:30:07.999Z</time></trkpt><trkpt lat="42.428478307477974" lon="-8.08037168220407"><ele>399.1666666666667</ele><time>2026-04-03T18:30:09.999Z</time></trkpt><trkpt lat="42.42853097870416" lon="-8.080449459916569"><ele>399.33333333333337</ele><time>2026-04-03T18:30:11.999Z</time></trkpt><trkpt lat="42.42857271034523" lon="-8.080530015272313"><ele>399.5</ele><time>2026-04-03T18:30:13.999Z</time></trkpt><trkpt lat="42.42861303555504" lon="-8.080607280298903"><ele>399.6666666666667</ele><time>2026-04-03T18:30:15.999Z</time></trkpt><trkpt lat="42.42865670335202" lon="-8.080704264833562"><ele>399.83333333333337</ele><time>2026-04-03T18:30:18.999Z</time></trkpt><trkpt lat="42.42869827275757" lon="-8.080800320391228"><ele>400.0</ele><time>2026-04-03T18:30:21.999Z</time></trkpt><trkpt lat="42.42874109729253" lon="-8.08087102425896"><ele>399.33333333333337</ele><time>2026-04-03T18:30:24.999Z</time></trkpt><trkpt lat="42.42881868158551" lon="-8.080785639988331"><ele>398.6666666666667</ele><time>2026-04-03T18:30:28.999Z</time></trkpt><trkpt lat="42.42888168031397" lon="-8.080731585526824"><ele>398.0</ele><time>2026-04-03T18:30:31.999Z</time></trkpt><trkpt lat="42.428936831451885" lon="-8.080684264467429"><ele>397.33333333333337</ele><time>2026-04-03T18:30:34.999Z</time></trkpt><trkpt lat="42.42899861054323" lon="-8.080631256475455"><ele>396.6666666666667</ele><time>2026-04-03T18:30:39Z</time></trkpt><trkpt lat="42.4290771442454" lon="-8.080563872988389"><ele>396.0</ele><time>2026-04-03T18:30:42Z</time></trkpt><trkpt lat="42.42914316948654" lon="-8.080507224142245"><ele>396.0</ele><time>2026-04-03T18:30:44Z</time></trkpt><trkpt lat="42.429220075882164" lon="-8.080442451632226"><ele>396.0</ele><time>2026-04-03T18:30:46Z</time></trkpt><trkpt lat="42.429304918387686" lon="-8.0803703528118"><ele>396.0</ele><time>2026-04-03T18:30:48Z</time></trkpt><trkpt lat="42.42938198932731" lon="-8.080306340526098"><ele>396.0</ele><time>2026-04-03T18:30:50Z</time></trkpt><trkpt lat="42.429449425361916" lon="-8.080251825358562"><ele>396.0</ele><time>2026-04-03T18:30:52Z</time></trkpt><trkpt lat="42.42951148027394" lon="-8.080201993369835"><ele>396.0</ele><time>2026-04-03T18:30:54Z</time></trkpt><trkpt lat="42.42957103304833" lon="-8.080154174439837"><ele>396.0</ele><time>2026-04-03T18:30:56Z</time></trkpt><trkpt lat="42.42963448867519" lon="-8.080103355643622"><ele>396.0</ele><time>2026-04-03T18:30:58Z</time></trkpt><trkpt lat="42.42969424431933" lon="-8.080053602463451"><ele>396.0</ele><time>2026-04-03T18:31:00Z</time></trkpt><trkpt lat="42.42975503144283" lon="-8.080015102740012"><ele>396.0</ele><time>2026-04-03T18:31:03Z</time></trkpt><trkpt lat="42.429802441429494" lon="-8.080134054675531"><ele>396.0</ele><time>2026-04-03T18:31:04Z</time></trkpt><trkpt lat="42.42981842395772" lon="-8.080227132999804"><ele>396.0</ele><time>2026-04-03T18:31:08Z</time></trkpt><trkpt lat="42.429838950143875" lon="-8.080313139450032"><ele>396.0</ele><time>2026-04-03T18:31:14Z</time></trkpt><trkpt lat="42.429862198029454" lon="-8.080395188696876"><ele>395.4</ele><time>2026-04-03T18:31:15Z</time></trkpt><trkpt lat="42.429913264912074" lon="-8.080514071648778"><ele>394.8</ele><time>2026-04-03T18:31:16Z</time></trkpt><trkpt lat="42.42996814060611" lon="-8.080656190218939"><ele>394.2</ele><time>2026-04-03T18:31:17Z</time></trkpt><trkpt lat="42.43001525752952" lon="-8.080780705970096"><ele>393.59999999999997</ele><time>2026-04-03T18:31:18Z</time></trkpt><trkpt lat="42.430066138068646" lon="-8.080905921643916"><ele>393.0</ele><time>2026-04-03T18:31:19Z</time></trkpt><trkpt lat="42.4301170316231" lon="-8.081030285621184"><ele>393.0</ele><time>2026-04-03T18:31:20Z</time></trkpt><trkpt lat="42.43016103676269" lon="-8.081153126415906"><ele>393.0</ele><time>2026-04-03T18:31:21Z</time></trkpt><trkpt lat="42.43020296238574" lon="-8.081284940915705"><ele>393.0</ele><time>2026-04-03T18:31:22Z</time></trkpt><trkpt lat="42.43024999540821" lon="-8.081409879645326"><ele>393.0</ele><time>2026-04-03T18:31:23Z</time></trkpt><trkpt lat="42.43029520847022" lon="-8.081517883762814"><ele>393.0</ele><time>2026-04-03T18:31:24Z</time></trkpt><trkpt lat="42.430330033524044" lon="-8.081613100314764"><ele>392.0</ele><time>2026-04-03T18:31:25Z</time></trkpt><trkpt lat="42.43036394235241" lon="-8.081701168167625"><ele>391.0</ele><time>2026-04-03T18:31:26Z</time></trkpt><trkpt lat="42.43041670980997" lon="-8.081851559172485"><ele>390.0</ele><time>2026-04-03T18:31:28Z</time></trkpt><trkpt lat="42.43047415823147" lon="-8.081984505656242"><ele>389.0</ele><time>2026-04-03T18:31:30Z</time></trkpt><trkpt lat="42.430516184669585" lon="-8.08207675415299"><ele>388.0</ele><time>2026-04-03T18:31:32Z</time></trkpt><trkpt lat="42.430550000391484" lon="-8.082155258134597"><ele>388.00000000000006</ele><time>2026-04-03T18:31:35Z</time></trkpt><trkpt lat="42.4305913792278" lon="-8.082246512659278"><ele>388.0</ele><time>2026-04-03T18:31:38Z</time></trkpt><trkpt lat="42.43063008866016" lon="-8.082356093868261"><ele>388.0</ele><time>2026-04-03T18:31:41Z</time></trkpt><trkpt lat="42.43067493580115" lon="-8.082490708021691"><ele>388.0</ele><time>2026-04-03T18:31:43Z</time></trkpt><trkpt lat="42.43070792391304" lon="-8.08258362104288"><ele>388.00000000000006</ele><time>2026-04-03T18:31:44Z</time></trkpt><trkpt lat="42.43073998214839" lon="-8.082679495574263"><ele>388.0</ele><time>2026-04-03T18:31:45Z</time></trkpt><trkpt lat="42.43077272701426" lon="-8.08277421570485"><ele>386.50000000000006</ele><time>2026-04-03T18:31:46Z</time></trkpt><trkpt lat="42.4308075034551" lon="-8.08286307639964"><ele>385.0</ele><time>2026-04-03T18:31:47Z</time></trkpt><trkpt lat="42.430836778130015" lon="-8.082949919941555"><ele>383.5</ele><time>2026-04-03T18:31:48Z</time></trkpt><trkpt lat="42.43086584068316" lon="-8.083031467096978"><ele>382.0</ele><time>2026-04-03T18:31:48.999Z</time></trkpt><trkpt lat="42.43089743884381" lon="-8.083109344470024"><ele>380.5</ele><time>2026-04-03T18:31:49.999Z</time></trkpt><trkpt lat="42.430954301293006" lon="-8.08324331390754"><ele>379.0</ele><time>2026-04-03T18:31:51.999Z</time></trkpt><trkpt lat="42.43100828001016" lon="-8.083382741537191"><ele>377.5</ele><time>2026-04-03T18:31:53.999Z</time></trkpt><trkpt lat="42.43106851248856" lon="-8.083536453354762"><ele>376.0</ele><time>2026-04-03T18:31:55.999Z</time></trkpt><trkpt lat="42.43110004116228" lon="-8.083617008519896"><ele>374.5</ele><time>2026-04-03T18:31:56.999Z</time></trkpt><trkpt lat="42.431134019070285" lon="-8.083703991934637"><ele>373.0</ele><time>2026-04-03T18:31:57.999Z</time></trkpt><trkpt lat="42.431172622315806" lon="-8.083791659687503"><ele>371.5</ele><time>2026-04-03T18:31:58.999Z</time></trkpt><trkpt lat="42.431205547146774" lon="-8.083875939577004"><ele>370.0</ele><time>2026-04-03T18:31:59.999Z</time></trkpt><trkpt lat="42.4312329698465" lon="-8.08395819237243"><ele>370.0</ele><time>2026-04-03T18:32:00.999Z</time></trkpt><trkpt lat="42.43126332078277" lon="-8.08404406710179"><ele>370.0</ele><time>2026-04-03T18:32:01.999Z</time></trkpt><trkpt lat="42.43129548166045" lon="-8.084126472075654"><ele>370.0</ele><time>2026-04-03T18:32:02.999Z</time></trkpt><trkpt lat="42.43132832406977" lon="-8.084207713377745"><ele>370.0</ele><time>2026-04-03T18:32:03.999Z</time></trkpt><trkpt lat="42.43137717484499" lon="-8.084335461785537"><ele>370.0</ele><time>2026-04-03T18:32:05.999Z</time></trkpt><trkpt lat="42.43141771168204" lon="-8.084432583694483"><ele>370.0</ele><time>2026-04-03T18:32:07.999Z</time></trkpt><trkpt lat="42.431476747889214" lon="-8.084576556493156"><ele>370.16666666666663</ele><time>2026-04-03T18:32:09.999Z</time></trkpt><trkpt lat="42.43151449850276" lon="-8.084666312036248"><ele>370.3333333333333</ele><time>2026-04-03T18:32:10.999Z</time></trkpt><trkpt lat="42.43155555029303" lon="-8.08476250950229"><ele>370.5</ele><time>2026-04-03T18:32:11.999Z</time></trkpt><trkpt lat="42.43159327610898" lon="-8.084868973615022"><ele>370.6666666666667</ele><time>2026-04-03T18:32:12.999Z</time></trkpt><trkpt lat="42.431642389024525" lon="-8.084984540782935"><ele>370.83333333333337</ele><time>2026-04-03T18:32:13.999Z</time></trkpt><trkpt lat="42.431696470649214" lon="-8.085107128873537"><ele>371.0</ele><time>2026-04-03T18:32:14.999Z</time></trkpt><trkpt lat="42.43176543269902" lon="-8.085241778109749"><ele>371.8</ele><time>2026-04-03T18:32:15.999Z</time></trkpt><trkpt lat="42.431844634038676" lon="-8.085373624190131"><ele>372.6</ele><time>2026-04-03T18:32:16.999Z</time></trkpt><trkpt lat="42.4319230620715" lon="-8.085487069448337"><ele>373.4</ele><time>2026-04-03T18:32:17.999Z</time></trkpt><trkpt lat="42.4319837595596" lon="-8.085581621718012"><ele>374.2</ele><time>2026-04-03T18:32:18.999Z</time></trkpt><trkpt lat="42.4320344765555" lon="-8.085660242537923"><ele>375.0</ele><time>2026-04-03T18:32:19.999Z</time></trkpt><trkpt lat="42.43208621229192" lon="-8.085716674282112"><ele>375.0</ele><time>2026-04-03T18:32:20.999Z</time></trkpt><trkpt lat="42.43212971804507" lon="-8.085790530682202"><ele>375.0</ele><time>2026-04-03T18:32:21.999Z</time></trkpt><trkpt lat="42.432188774602416" lon="-8.085859373608844"><ele>375.0</ele><time>2026-04-03T18:32:22.999Z</time></trkpt><trkpt lat="42.43224342000852" lon="-8.085933833428907"><ele>375.0</ele><time>2026-04-03T18:32:23.999Z</time></trkpt><trkpt lat="42.43228384846915" lon="-8.086000474979384"><ele>375.0</ele><time>2026-04-03T18:32:24.999Z</time></trkpt><trkpt lat="42.43236091168232" lon="-8.086099388844199"><ele>375.0</ele><time>2026-04-03T18:32:26.999Z</time></trkpt><trkpt lat="42.43241412884246" lon="-8.086160339092462"><ele>376.42857142857144</ele><time>2026-04-03T18:32:28.999Z</time></trkpt><trkpt lat="42.43247569691641" lon="-8.086234140254675"><ele>377.85714285714283</ele><time>2026-04-03T18:32:31.999Z</time></trkpt><trkpt lat="42.43252638392756" lon="-8.086297307408627"><ele>379.2857142857143</ele><time>2026-04-03T18:32:34.999Z</time></trkpt><trkpt lat="42.43260515918817" lon="-8.086328575901497"><ele>380.7142857142857</ele><time>2026-04-03T18:32:36.999Z</time></trkpt><trkpt lat="42.43261785767805" lon="-8.086412243194339"><ele>382.1428571428571</ele><time>2026-04-03T18:33:21Z</time></trkpt><trkpt lat="42.43263642489099" lon="-8.086505273411905"><ele>383.57142857142856</ele><time>2026-04-03T18:33:24Z</time></trkpt><trkpt lat="42.43266158758326" lon="-8.086597964124119"><ele>385.0</ele><time>2026-04-03T18:33:28Z</time></trkpt><trkpt lat="42.43267866888529" lon="-8.086718778991365"><ele>385.50000000000006</ele><time>2026-04-03T18:33:31Z</time></trkpt><trkpt lat="42.4326899117162" lon="-8.086827718763757"><ele>386.0</ele><time>2026-04-03T18:33:34Z</time></trkpt><trkpt lat="42.43268832927749" lon="-8.086936686934196"><ele>386.5</ele><time>2026-04-03T18:33:37Z</time></trkpt><trkpt lat="42.432687589209756" lon="-8.08705913560355"><ele>387.0</ele><time>2026-04-03T18:33:41Z</time></trkpt><trkpt lat="42.43268797365328" lon="-8.087199367734321"><ele>387.50000000000006</ele><time>2026-04-03T18:33:43Z</time></trkpt><trkpt lat="42.432700522813754" lon="-8.087290412947338"><ele>388.0</ele><time>2026-04-03T18:33:44Z</time></trkpt><trkpt lat="42.432764085457215" lon="-8.087378100492542"><ele>389.2</ele><time>2026-04-03T18:33:44.999Z</time></trkpt><trkpt lat="42.43282915555883" lon="-8.087456050624864"><ele>390.4</ele><time>2026-04-03T18:33:45.999Z</time></trkpt><trkpt lat="42.43293504205796" lon="-8.08749691933455"><ele>391.59999999999997</ele><time>2026-04-03T18:33:46.999Z</time></trkpt><trkpt lat="42.43304321310576" lon="-8.087530344008961"><ele>392.79999999999995</ele><time>2026-04-03T18:33:47.999Z</time></trkpt><trkpt lat="42.43314350884154" lon="-8.08758664734625"><ele>394.0</ele><time>2026-04-03T18:33:48.999Z</time></trkpt><trkpt lat="42.433213932663634" lon="-8.087648625725988"><ele>394.14285714285717</ele><time>2026-04-03T18:33:49.999Z</time></trkpt><trkpt lat="42.4332667587011" lon="-8.087720070252633"><ele>394.28571428571433</ele><time>2026-04-03T18:33:50.999Z</time></trkpt><trkpt lat="42.433305152972274" lon="-8.087794183161284"><ele>394.42857142857144</ele><time>2026-04-03T18:33:51.999Z</time></trkpt><trkpt lat="42.433339697297846" lon="-8.087868368240752"><ele>394.57142857142856</ele><time>2026-04-03T18:33:52.999Z</time></trkpt><trkpt lat="42.43336112524741" lon="-8.087962237948167"><ele>394.7142857142857</ele><time>2026-04-03T18:33:53.999Z</time></trkpt><trkpt lat="42.433372700029956" lon="-8.088062289235927"><ele>394.85714285714283</ele><time>2026-04-03T18:33:54.999Z</time></trkpt><trkpt lat="42.43338321106522" lon="-8.088157647382486"><ele>395.0</ele><time>2026-04-03T18:33:55.999Z</time></trkpt><trkpt lat="42.43339502527848" lon="-8.08826119096106"><ele>396.49999999999994</ele><time>2026-04-03T18:33:56.999Z</time></trkpt><trkpt lat="42.433404955678064" lon="-8.088347344502221"><ele>398.0</ele><time>2026-04-03T18:33:57.999Z</time></trkpt><trkpt lat="42.433414216717" lon="-8.08843460262838"><ele>399.5</ele><time>2026-04-03T18:33:58.999Z</time></trkpt><trkpt lat="42.43342815208108" lon="-8.088571110479537"><ele>401.0</ele><time>2026-04-03T18:34:00.999Z</time></trkpt><trkpt lat="42.43343595818842" lon="-8.088698873287584"><ele>402.49999999999994</ele><time>2026-04-03T18:34:02.999Z</time></trkpt><trkpt lat="42.433434145885975" lon="-8.08882167661577"><ele>404.0</ele><time>2026-04-03T18:34:04.999Z</time></trkpt><trkpt lat="42.43342601239558" lon="-8.088920736480754"><ele>404.0</ele><time>2026-04-03T18:34:06.999Z</time></trkpt><trkpt lat="42.43341904021094" lon="-8.08901066212213"><ele>404.0</ele><time>2026-04-03T18:34:08.999Z</time></trkpt><trkpt lat="42.43341349943431" lon="-8.089106304164437"><ele>404.0</ele><time>2026-04-03T18:34:10.999Z</time></trkpt><trkpt lat="42.43340108349508" lon="-8.089195489962814"><ele>404.0</ele><time>2026-04-03T18:34:12.999Z</time></trkpt><trkpt lat="42.43339291061987" lon="-8.089283799843425"><ele>404.0</ele><time>2026-04-03T18:34:14.999Z</time></trkpt><trkpt lat="42.43338376813073" lon="-8.08940435253925"><ele>404.0</ele><time>2026-04-03T18:34:17.999Z</time></trkpt><trkpt lat="42.433382702432084" lon="-8.08949018149243"><ele>404.0</ele><time>2026-04-03T18:34:20.999Z</time></trkpt><trkpt lat="42.433360197740605" lon="-8.089570456124708"><ele>404.8333333333333</ele><time>2026-04-03T18:34:23.999Z</time></trkpt><trkpt lat="42.433351912406245" lon="-8.089716328628121"><ele>405.66666666666663</ele><time>2026-04-03T18:34:25.999Z</time></trkpt><trkpt lat="42.433347356016924" lon="-8.089841441008245"><ele>406.5</ele><time>2026-04-03T18:34:27.999Z</time></trkpt><trkpt lat="42.43333618283442" lon="-8.089931402427693"><ele>407.33333333333337</ele><time>2026-04-03T18:34:29.999Z</time></trkpt><trkpt lat="42.43330317843367" lon="-8.090025459661494"><ele>408.1666666666667</ele><time>2026-04-03T18:34:31.999Z</time></trkpt><trkpt lat="42.43326253894557" lon="-8.090126984780179"><ele>409.0</ele><time>2026-04-03T18:34:34.999Z</time></trkpt><trkpt lat="42.43322584943577" lon="-8.09020521733436"><ele>409.33333333333337</ele><time>2026-04-03T18:34:36.999Z</time></trkpt><trkpt lat="42.433176927031326" lon="-8.090270487119229"><ele>409.6666666666667</ele><time>2026-04-03T18:34:38.999Z</time></trkpt><trkpt lat="42.433124519742826" lon="-8.090350843180014"><ele>410.0</ele><time>2026-04-03T18:34:40.999Z</time></trkpt><trkpt lat="42.433063317275824" lon="-8.090430002475427"><ele>410.33333333333337</ele><time>2026-04-03T18:34:42.999Z</time></trkpt><trkpt lat="42.433000029925125" lon="-8.090508532466247"><ele>410.6666666666667</ele><time>2026-04-03T18:34:44.999Z</time></trkpt><trkpt lat="42.43294245255224" lon="-8.090576508980599"><ele>411.0</ele><time>2026-04-03T18:34:46.999Z</time></trkpt><trkpt lat="42.43288887401394" lon="-8.090644274296974"><ele>411.0</ele><time>2026-04-03T18:34:48.999Z</time></trkpt><trkpt lat="42.4328370125459" lon="-8.090707563558585"><ele>411.0</ele><time>2026-04-03T18:34:51Z</time></trkpt><trkpt lat="42.432777755918536" lon="-8.090795805701466"><ele>411.0</ele><time>2026-04-03T18:34:53Z</time></trkpt><trkpt lat="42.43271405287286" lon="-8.0908549790087"><ele>411.0</ele><time>2026-04-03T18:34:55Z</time></trkpt><trkpt lat="42.4326514080679" lon="-8.090940162810343"><ele>411.0</ele><time>2026-04-03T18:34:57Z</time></trkpt><trkpt lat="42.43258823178776" lon="-8.091027714624806"><ele>411.0</ele><time>2026-04-03T18:34:59Z</time></trkpt><trkpt lat="42.432517166459135" lon="-8.091108687673248"><ele>412.0</ele><time>2026-04-03T18:35:01Z</time></trkpt><trkpt lat="42.432449794745224" lon="-8.091193991310057"><ele>413.0</ele><time>2026-04-03T18:35:03Z</time></trkpt><trkpt lat="42.43239256142256" lon="-8.091326924410042"><ele>414.0</ele><time>2026-04-03T18:35:05Z</time></trkpt><trkpt lat="42.432404784210036" lon="-8.091471620445558"><ele>415.0</ele><time>2026-04-03T18:35:07Z</time></trkpt><trkpt lat="42.43243343656315" lon="-8.091550355004514"><ele>416.0</ele><time>2026-04-03T18:35:08Z</time></trkpt><trkpt lat="42.43249029299863" lon="-8.091624342311071"><ele>416.8</ele><time>2026-04-03T18:35:10Z</time></trkpt><trkpt lat="42.43255460101153" lon="-8.091719330703404"><ele>417.6</ele><time>2026-04-03T18:35:12Z</time></trkpt><trkpt lat="42.43263673998077" lon="-8.091827301576455"><ele>418.4</ele><time>2026-04-03T18:35:14Z</time></trkpt><trkpt lat="42.43270448480459" lon="-8.091949955009962"><ele>419.2</ele><time>2026-04-03T18:35:16Z</time></trkpt><trkpt lat="42.43274297054062" lon="-8.092085779220094"><ele>420.0</ele><time>2026-04-03T18:35:18Z</time></trkpt><trkpt lat="42.4327756806357" lon="-8.092216026551961"><ele>420.0</ele><time>2026-04-03T18:35:20Z</time></trkpt><trkpt lat="42.432786989888506" lon="-8.092331681630068"><ele>420.0</ele><time>2026-04-03T18:35:22Z</time></trkpt><trkpt lat="42.43280302737138" lon="-8.092435067201713"><ele>420.0</ele><time>2026-04-03T18:35:24Z</time></trkpt><trkpt lat="42.4328325487191" lon="-8.092528104833903"><ele>420.0</ele><time>2026-04-03T18:35:26Z</time></trkpt><trkpt lat="42.43287496259192" lon="-8.09261410405669"><ele>420.0</ele><time>2026-04-03T18:35:28Z</time></trkpt><trkpt lat="42.432928886379706" lon="-8.092682604365018"><ele>420.0</ele><time>2026-04-03T18:35:30Z</time></trkpt><trkpt lat="42.43298796702255" lon="-8.092744381887092"><ele>422.8</ele><time>2026-04-03T18:35:32Z</time></trkpt><trkpt lat="42.43306541787494" lon="-8.092828312825475"><ele>425.6</ele><time>2026-04-03T18:35:34Z</time></trkpt><trkpt lat="42.433144117760904" lon="-8.092889679956727"><ele>428.4</ele><time>2026-04-03T18:35:35Z</time></trkpt><trkpt lat="42.43322638285416" lon="-8.092956025181977"><ele>431.2</ele><time>2026-04-03T18:35:36Z</time></trkpt><trkpt lat="42.43330757326794" lon="-8.093014161781173"><ele>434.0</ele><time>2026-04-03T18:35:37Z</time></trkpt><trkpt lat="42.43338549206214" lon="-8.09305450900327"><ele>433.99999999999994</ele><time>2026-04-03T18:35:38Z</time></trkpt><trkpt lat="42.43345079679532" lon="-8.09308020224095"><ele>434.0</ele><time>2026-04-03T18:35:39Z</time></trkpt><trkpt lat="42.43351445305701" lon="-8.093099239771616"><ele>434.0</ele><time>2026-04-03T18:35:40Z</time></trkpt><trkpt lat="42.43361885580465" lon="-8.093157544258203"><ele>434.0</ele><time>2026-04-03T18:35:42Z</time></trkpt><trkpt lat="42.43371047469435" lon="-8.09320531301608"><ele>433.99999999999994</ele><time>2026-04-03T18:35:44Z</time></trkpt><trkpt lat="42.43379717551837" lon="-8.093252809313185"><ele>434.0</ele><time>2026-04-03T18:35:46Z</time></trkpt><trkpt lat="42.43388093988481" lon="-8.093308798186314"><ele>434.8333333333333</ele><time>2026-04-03T18:35:47.999Z</time></trkpt><trkpt lat="42.433959472924194" lon="-8.093355684655492"><ele>435.66666666666663</ele><time>2026-04-03T18:35:49.999Z</time></trkpt><trkpt lat="42.434030241426676" lon="-8.093401840431671"><ele>436.5</ele><time>2026-04-03T18:35:51.999Z</time></trkpt><trkpt lat="42.4341010261398" lon="-8.093452904587059"><ele>437.33333333333337</ele><time>2026-04-03T18:35:53.999Z</time></trkpt><trkpt lat="42.43418250741561" lon="-8.093492519843073"><ele>438.1666666666667</ele><time>2026-04-03T18:35:55.999Z</time></trkpt><trkpt lat="42.43425435204553" lon="-8.093531385233101"><ele>439.0</ele><time>2026-04-03T18:35:57.999Z</time></trkpt><trkpt lat="42.434335823400055" lon="-8.09358806406053"><ele>439.00000000000006</ele><time>2026-04-03T18:35:59.999Z</time></trkpt><trkpt lat="42.43441242327111" lon="-8.093629171281151"><ele>439.0</ele><time>2026-04-03T18:36:01.999Z</time></trkpt><trkpt lat="42.43448521676636" lon="-8.093680418567914"><ele>439.0</ele><time>2026-04-03T18:36:03.999Z</time></trkpt><trkpt lat="42.434555733667025" lon="-8.093747104296131"><ele>439.0</ele><time>2026-04-03T18:36:05.999Z</time></trkpt><trkpt lat="42.43461717907343" lon="-8.093833909285829"><ele>439.00000000000006</ele><time>2026-04-03T18:36:07.999Z</time></trkpt><trkpt lat="42.43467892085145" lon="-8.093943393649306"><ele>439.0</ele><time>2026-04-03T18:36:09.999Z</time></trkpt><trkpt lat="42.4347327670638" lon="-8.09408300316298"><ele>440.4</ele><time>2026-04-03T18:36:11.999Z</time></trkpt><trkpt lat="42.434760692179985" lon="-8.094165983385315"><ele>441.79999999999995</ele><time>2026-04-03T18:36:12.999Z</time></trkpt><trkpt lat="42.43481412086477" lon="-8.094298621614753"><ele>443.20000000000005</ele><time>2026-04-03T18:36:14.999Z</time></trkpt><trkpt lat="42.43486226617402" lon="-8.094429119996546"><ele>444.6</ele><time>2026-04-03T18:36:16.999Z</time></trkpt><trkpt lat="42.43490521401416" lon="-8.094568371969082"><ele>446.0</ele><time>2026-04-03T18:36:18.999Z</time></trkpt><trkpt lat="42.4349591594127" lon="-8.094694886288783"><ele>446.0</ele><time>2026-04-03T18:36:20.999Z</time></trkpt><trkpt lat="42.434998917291594" lon="-8.094831599631545"><ele>446.0</ele><time>2026-04-03T18:36:22.999Z</time></trkpt><trkpt lat="42.43503245952494" lon="-8.094948841493284"><ele>446.0</ele><time>2026-04-03T18:36:24.999Z</time></trkpt><trkpt lat="42.43506569398216" lon="-8.095047978579583"><ele>446.0</ele><time>2026-04-03T18:36:26.999Z</time></trkpt><trkpt lat="42.43510387840171" lon="-8.095162638340096"><ele>446.0</ele><time>2026-04-03T18:36:28.999Z</time></trkpt><trkpt lat="42.435127953582054" lon="-8.095275437791459"><ele>446.6</ele><time>2026-04-03T18:36:30.999Z</time></trkpt><trkpt lat="42.43516087087791" lon="-8.095402534829374"><ele>447.20000000000005</ele><time>2026-04-03T18:36:32.999Z</time></trkpt><trkpt lat="42.435187135859756" lon="-8.095528999213702"><ele>447.79999999999995</ele><time>2026-04-03T18:36:34.999Z</time></trkpt><trkpt lat="42.435219587929964" lon="-8.095661933361912"><ele>448.4</ele><time>2026-04-03T18:36:36.999Z</time></trkpt><trkpt lat="42.43523781895777" lon="-8.095753385959581"><ele>449.0</ele><time>2026-04-03T18:36:37.999Z</time></trkpt><trkpt lat="42.435271654415345" lon="-8.095870246683708"><ele>450.6</ele><time>2026-04-03T18:36:38.999Z</time></trkpt><trkpt lat="42.43531755010163" lon="-8.09598589336728"><ele>452.2</ele><time>2026-04-03T18:36:39.999Z</time></trkpt><trkpt lat="42.43538507949366" lon="-8.096091612553868"><ele>453.80000000000007</ele><time>2026-04-03T18:36:40.999Z</time></trkpt><trkpt lat="42.43546637763325" lon="-8.096194504439426"><ele>455.40000000000003</ele><time>2026-04-03T18:36:41.999Z</time></trkpt><trkpt lat="42.435541394108675" lon="-8.09627366948345"><ele>457.0</ele><time>2026-04-03T18:36:42.999Z</time></trkpt><trkpt lat="42.43560211804879" lon="-8.096373028729118"><ele>457.33333333333337</ele><time>2026-04-03T18:36:43.999Z</time></trkpt><trkpt lat="42.4356411664729" lon="-8.096471613919272"><ele>457.6666666666667</ele><time>2026-04-03T18:36:44.999Z</time></trkpt><trkpt lat="42.43564443543197" lon="-8.096576636890477"><ele>458.0</ele><time>2026-04-03T18:36:45.999Z</time></trkpt><trkpt lat="42.435622093753686" lon="-8.096735931307888"><ele>458.33333333333337</ele><time>2026-04-03T18:36:47.999Z</time></trkpt><trkpt lat="42.43561789450319" lon="-8.096821561808863"><ele>458.6666666666667</ele><time>2026-04-03T18:36:48.999Z</time></trkpt><trkpt lat="42.435600858943495" lon="-8.096959859301105"><ele>459.0</ele><time>2026-04-03T18:36:50.999Z</time></trkpt><trkpt lat="42.43560685003996" lon="-8.097057415753342"><ele>459.5</ele><time>2026-04-03T18:36:52.999Z</time></trkpt><trkpt lat="42.43562548263893" lon="-8.097161040001604"><ele>460.0</ele><time>2026-04-03T18:36:56Z</time></trkpt><trkpt lat="42.43563759202456" lon="-8.097253197582976"><ele>460.5</ele><time>2026-04-03T18:37:00Z</time></trkpt><trkpt lat="42.43567521979903" lon="-8.097335479485816"><ele>461.0</ele><time>2026-04-03T18:37:03Z</time></trkpt><trkpt lat="42.435711440136444" lon="-8.097428626495446"><ele>461.5</ele><time>2026-04-03T18:37:05Z</time></trkpt><trkpt lat="42.43576181314503" lon="-8.097537602243488"><ele>462.0</ele><time>2026-04-03T18:37:07Z</time></trkpt><trkpt lat="42.435831972051744" lon="-8.097581021706608"><ele>462.5</ele><time>2026-04-03T18:37:09Z</time></trkpt><trkpt lat="42.43590554762793" lon="-8.097598017560406"><ele>463.0</ele><time>2026-04-03T18:37:11Z</time></trkpt><trkpt lat="42.43596185477502" lon="-8.097705332831143"><ele>463.5</ele><time>2026-04-03T18:37:14Z</time></trkpt><trkpt lat="42.43599670092329" lon="-8.097781515039102"><ele>464.0</ele><time>2026-04-03T18:37:15Z</time></trkpt><trkpt lat="42.436007932171655" lon="-8.097883407539673"><ele>464.5</ele><time>2026-04-03T18:37:16Z</time></trkpt><trkpt lat="42.4360125675378" lon="-8.098006168673518"><ele>465.0</ele><time>2026-04-03T18:37:17Z</time></trkpt><trkpt lat="42.43597397985734" lon="-8.098144810492807"><ele>466.2</ele><time>2026-04-03T18:37:18Z</time></trkpt><trkpt lat="42.43592881576106" lon="-8.098290462232706"><ele>467.4</ele><time>2026-04-03T18:37:19Z</time></trkpt><trkpt lat="42.43584497053087" lon="-8.098403766066701"><ele>468.6</ele><time>2026-04-03T18:37:20Z</time></trkpt><trkpt lat="42.43575110971642" lon="-8.09848988897754"><ele>469.8</ele><time>2026-04-03T18:37:21Z</time></trkpt><trkpt lat="42.43567729726787" lon="-8.098570879928957"><ele>471.0</ele><time>2026-04-03T18:37:22Z</time></trkpt><trkpt lat="42.43561314034656" lon="-8.098628753244459"><ele>471.0</ele><time>2026-04-03T18:37:23Z</time></trkpt><trkpt lat="42.435560600758826" lon="-8.098694591592801"><ele>471.0</ele><time>2026-04-03T18:37:24Z</time></trkpt><trkpt lat="42.435505348042035" lon="-8.098815511942068"><ele>471.0</ele><time>2026-04-03T18:37:26Z</time></trkpt><trkpt lat="42.43548865771827" lon="-8.09890245108375"><ele>471.0</ele><time>2026-04-03T18:37:28Z</time></trkpt><trkpt lat="42.435478872203696" lon="-8.098997251663587"><ele>471.0</ele><time>2026-04-03T18:37:33Z</time></trkpt><trkpt lat="42.43546119546313" lon="-8.099082991954418"><ele>471.0</ele><time>2026-04-03T18:37:38Z</time></trkpt><trkpt lat="42.43542715141382" lon="-8.099221784768043"><ele>471.8</ele><time>2026-04-03T18:37:41Z</time></trkpt><trkpt lat="42.43540795707888" lon="-8.099355096258915"><ele>472.6</ele><time>2026-04-03T18:37:43Z</time></trkpt><trkpt lat="42.43540031795133" lon="-8.099502159119979"><ele>473.4</ele><time>2026-04-03T18:37:45Z</time></trkpt><trkpt lat="42.435377305878845" lon="-8.099632491654782"><ele>474.2</ele><time>2026-04-03T18:37:47Z</time></trkpt><trkpt lat="42.435378328777006" lon="-8.099780419347189"><ele>475.0</ele><time>2026-04-03T18:37:49Z</time></trkpt><trkpt lat="42.43538166531793" lon="-8.099929830101317"><ele>475.6666666666667</ele><time>2026-04-03T18:37:51Z</time></trkpt><trkpt lat="42.43539163951383" lon="-8.100018721682474"><ele>476.33333333333337</ele><time>2026-04-03T18:37:52Z</time></trkpt><trkpt lat="42.43539956691063" lon="-8.100104916294756"><ele>477.0</ele><time>2026-04-03T18:37:53Z</time></trkpt><trkpt lat="42.43541242106755" lon="-8.100249627171637"><ele>477.66666666666663</ele><time>2026-04-03T18:37:55Z</time></trkpt><trkpt lat="42.435428280000785" lon="-8.100355857367502"><ele>478.3333333333333</ele><time>2026-04-03T18:37:57Z</time></trkpt><trkpt lat="42.43544834190968" lon="-8.100444636502957"><ele>479.0</ele><time>2026-04-03T18:37:59Z</time></trkpt><trkpt lat="42.435491334540195" lon="-8.100530178872956"><ele>480.49999999999994</ele><time>2026-04-03T18:38:01Z</time></trkpt><trkpt lat="42.43552642299962" lon="-8.100606641947804"><ele>482.0</ele><time>2026-04-03T18:38:02.999Z</time></trkpt><trkpt lat="42.43558108360402" lon="-8.100661814517569"><ele>483.5</ele><time>2026-04-03T18:38:04.999Z</time></trkpt><trkpt lat="42.43569910632068" lon="-8.100746009061307"><ele>485.0</ele><time>2026-04-03T18:38:06.999Z</time></trkpt><trkpt lat="42.43576472054811" lon="-8.100832878094703"><ele>486.49999999999994</ele><time>2026-04-03T18:38:07.999Z</time></trkpt><trkpt lat="42.43582537298089" lon="-8.100901967616855"><ele>488.0</ele><time>2026-04-03T18:38:08.999Z</time></trkpt><trkpt lat="42.43588843391759" lon="-8.100955340302258"><ele>488.16666666666663</ele><time>2026-04-03T18:38:09.999Z</time></trkpt><trkpt lat="42.43593386151281" lon="-8.101033441256925"><ele>488.3333333333333</ele><time>2026-04-03T18:38:10.999Z</time></trkpt><trkpt lat="42.43601863552541" lon="-8.101131767553332"><ele>488.5</ele><time>2026-04-03T18:38:12.999Z</time></trkpt><trkpt lat="42.4360832033425" lon="-8.101223092235502"><ele>488.66666666666663</ele><time>2026-04-03T18:38:14.999Z</time></trkpt><trkpt lat="42.4361209395676" lon="-8.101321772379118"><ele>488.8333333333333</ele><time>2026-04-03T18:38:16.999Z</time></trkpt><trkpt lat="42.43616871283318" lon="-8.101406973542117"><ele>489.0</ele><time>2026-04-03T18:38:18.999Z</time></trkpt><trkpt lat="42.43619924304578" lon="-8.101504698387213"><ele>488.79999999999995</ele><time>2026-04-03T18:38:20.999Z</time></trkpt><trkpt lat="42.436226169645344" lon="-8.101598377153257"><ele>488.59999999999997</ele><time>2026-04-03T18:38:22.999Z</time></trkpt><trkpt lat="42.43625892685254" lon="-8.10171804240945"><ele>488.4</ele><time>2026-04-03T18:38:24.999Z</time></trkpt><trkpt lat="42.43628871706229" lon="-8.101878225739533"><ele>488.2</ele><time>2026-04-03T18:38:26.999Z</time></trkpt><trkpt lat="42.436312240415404" lon="-8.10202162620306"><ele>488.0</ele><time>2026-04-03T18:38:28.999Z</time></trkpt><trkpt lat="42.43634292223569" lon="-8.102128614943812"><ele>489.0</ele><time>2026-04-03T18:38:30.999Z</time></trkpt><trkpt lat="42.43636553843707" lon="-8.102234859339188"><ele>489.99999999999994</ele><time>2026-04-03T18:38:32.999Z</time></trkpt><trkpt lat="42.4363922492545" lon="-8.102359369367392"><ele>490.99999999999994</ele><time>2026-04-03T18:38:34.999Z</time></trkpt><trkpt lat="42.43641560461632" lon="-8.10249953501577"><ele>492.0</ele><time>2026-04-03T18:38:36.999Z</time></trkpt><trkpt lat="42.43645306812218" lon="-8.102657302271446"><ele>493.0</ele><time>2026-04-03T18:38:38.999Z</time></trkpt><trkpt lat="42.436485518805966" lon="-8.10273132218096"><ele>493.00000000000006</ele><time>2026-04-03T18:38:39.999Z</time></trkpt><trkpt lat="42.43650514767145" lon="-8.10281731470585"><ele>493.0</ele><time>2026-04-03T18:38:40.999Z</time></trkpt><trkpt lat="42.436542409218596" lon="-8.102961524696456"><ele>493.0</ele><time>2026-04-03T18:38:42.999Z</time></trkpt><trkpt lat="42.436575928873545" lon="-8.103090548413304"><ele>493.0</ele><time>2026-04-03T18:38:44.999Z</time></trkpt><trkpt lat="42.43659843339593" lon="-8.103177172683251"><ele>493.00000000000006</ele><time>2026-04-03T18:38:46.999Z</time></trkpt><trkpt lat="42.43662829791607" lon="-8.103292127083975"><ele>493.0</ele><time>2026-04-03T18:38:48.999Z</time></trkpt><trkpt lat="42.436666922073606" lon="-8.10340906524829"><ele>493.2</ele><time>2026-04-03T18:38:50.999Z</time></trkpt><trkpt lat="42.43671387917894" lon="-8.10350805436406"><ele>493.4</ele><time>2026-04-03T18:38:52.999Z</time></trkpt><trkpt lat="42.43679241141914" lon="-8.103605808773608"><ele>493.59999999999997</ele><time>2026-04-03T18:38:54.999Z</time></trkpt><trkpt lat="42.436844689369686" lon="-8.103655528079512"><ele>493.79999999999995</ele><time>2026-04-03T18:38:55.999Z</time></trkpt><trkpt lat="42.4369514330659" lon="-8.103718889040604"><ele>494.0</ele><time>2026-04-03T18:38:57.999Z</time></trkpt><trkpt lat="42.43704209285073" lon="-8.103765226331285"><ele>494.0</ele><time>2026-04-03T18:38:59.999Z</time></trkpt><trkpt lat="42.43713014612319" lon="-8.103805008122453"><ele>494.0</ele><time>2026-04-03T18:39:02Z</time></trkpt><trkpt lat="42.43723435610063" lon="-8.10384213456828"><ele>494.0</ele><time>2026-04-03T18:39:04Z</time></trkpt><trkpt lat="42.43732332783435" lon="-8.103902693090287"><ele>494.0</ele><time>2026-04-03T18:39:06Z</time></trkpt><trkpt lat="42.43741929820158" lon="-8.103943768911712"><ele>494.0</ele><time>2026-04-03T18:39:08Z</time></trkpt><trkpt lat="42.43749964986924" lon="-8.103985294295706"><ele>493.99999999999994</ele><time>2026-04-03T18:39:10Z</time></trkpt><trkpt lat="42.43755564154152" lon="-8.104045063948545"><ele>494.0</ele><time>2026-04-03T18:39:12Z</time></trkpt><trkpt lat="42.43760818797123" lon="-8.104123561470175"><ele>494.0</ele><time>2026-04-03T18:39:15Z</time></trkpt><trkpt lat="42.43760988639636" lon="-8.104236044208708"><ele>494.0</ele><time>2026-04-03T18:39:21Z</time></trkpt><trkpt lat="42.43756432453149" lon="-8.104299741326441"><ele>493.99999999999994</ele><time>2026-04-03T18:39:22Z</time></trkpt><trkpt lat="42.43749883398833" lon="-8.104397861348092"><ele>494.0</ele><time>2026-04-03T18:39:24Z</time></trkpt><trkpt lat="42.43740284295722" lon="-8.104487445499432"><ele>493.66666666666663</ele><time>2026-04-03T18:39:26Z</time></trkpt><trkpt lat="42.43730306660508" lon="-8.104554799575787"><ele>493.3333333333333</ele><time>2026-04-03T18:39:28Z</time></trkpt><trkpt lat="42.43720683124839" lon="-8.10460843237992"><ele>493.0</ele><time>2026-04-03T18:39:30Z</time></trkpt><trkpt lat="42.43714640660057" lon="-8.104656575066086"><ele>492.66666666666663</ele><time>2026-04-03T18:39:32Z</time></trkpt><trkpt lat="42.437079379857316" lon="-8.10473270159673"><ele>492.3333333333333</ele><time>2026-04-03T18:39:36Z</time></trkpt><trkpt lat="42.4370336824108" lon="-8.1047955690609"><ele>492.0</ele><time>2026-04-03T18:39:38Z</time></trkpt><trkpt lat="42.43698260584117" lon="-8.104911071041338"><ele>491.8</ele><time>2026-04-03T18:39:40Z</time></trkpt><trkpt lat="42.43696733745511" lon="-8.105003766233136"><ele>491.6</ele><time>2026-04-03T18:39:41Z</time></trkpt><trkpt lat="42.43698459122919" lon="-8.105136305376877"><ele>491.40000000000003</ele><time>2026-04-03T18:39:43Z</time></trkpt><trkpt lat="42.43701661346406" lon="-8.105243273472404"><ele>491.20000000000005</ele><time>2026-04-03T18:39:45Z</time></trkpt><trkpt lat="42.437072756852416" lon="-8.105398468043125"><ele>491.0</ele><time>2026-04-03T18:39:47Z</time></trkpt><trkpt lat="42.43710951327491" lon="-8.105484419276285"><ele>489.6</ele><time>2026-04-03T18:39:49Z</time></trkpt><trkpt lat="42.43714778173699" lon="-8.105568881151095"><ele>488.20000000000005</ele><time>2026-04-03T18:39:50Z</time></trkpt><trkpt lat="42.43719318251765" lon="-8.105664803983727"><ele>486.79999999999995</ele><time>2026-04-03T18:39:53Z</time></trkpt><trkpt lat="42.43725190487197" lon="-8.105783656144247"><ele>485.4</ele><time>2026-04-03T18:39:55Z</time></trkpt><trkpt lat="42.43730785719486" lon="-8.105889212402293"><ele>484.0</ele><time>2026-04-03T18:39:57Z</time></trkpt><trkpt lat="42.437382921280246" lon="-8.105992750706658"><ele>484.0</ele><time>2026-04-03T18:39:58Z</time></trkpt><trkpt lat="42.43743121826417" lon="-8.106048895141157"><ele>484.0</ele><time>2026-04-03T18:40:00Z</time></trkpt><trkpt lat="42.43777254093416" lon="-8.105742878105035"><ele>484.0</ele><time>2026-04-03T18:40:02Z</time></trkpt><trkpt lat="42.43785547746489" lon="-8.105693263005133"><ele>484.0</ele><time>2026-04-03T18:40:04Z</time></trkpt><trkpt lat="42.437914477656804" lon="-8.10564648248974"><ele>484.0</ele><time>2026-04-03T18:40:05.999Z</time></trkpt><trkpt lat="42.43799808894627" lon="-8.105623840376289"><ele>484.0</ele><time>2026-04-03T18:40:07.999Z</time></trkpt><trkpt lat="42.43809633438382" lon="-8.105600761068647"><ele>484.0</ele><time>2026-04-03T18:40:09.999Z</time></trkpt><trkpt lat="42.438204697947384" lon="-8.105559906266775"><ele>480.79999999999995</ele><time>2026-04-03T18:40:11.999Z</time></trkpt><trkpt lat="42.43829581672033" lon="-8.105462844311242"><ele>477.59999999999997</ele><time>2026-04-03T18:40:13.999Z</time></trkpt><trkpt lat="42.43836556510508" lon="-8.105354001336785"><ele>474.4</ele><time>2026-04-03T18:40:15.999Z</time></trkpt><trkpt lat="42.43844310819583" lon="-8.105241465000399"><ele>471.2</ele><time>2026-04-03T18:40:17.999Z</time></trkpt><trkpt lat="42.438531794962266" lon="-8.105148670383345"><ele>468.0</ele><time>2026-04-03T18:40:19.999Z</time></trkpt><trkpt lat="42.43859095835517" lon="-8.105101805033847"><ele>468.0</ele><time>2026-04-03T18:40:20.999Z</time></trkpt><trkpt lat="42.43870377815977" lon="-8.105116888084572"><ele>467.99999999999994</ele><time>2026-04-03T18:40:22.999Z</time></trkpt><trkpt lat="42.438802119752935" lon="-8.10515184208547"><ele>467.99999999999994</ele><time>2026-04-03T18:40:24.999Z</time></trkpt><trkpt lat="42.43889811467307" lon="-8.105216446133552"><ele>468.0</ele><time>2026-04-03T18:40:26.999Z</time></trkpt><trkpt lat="42.438968938116965" lon="-8.105244265148421"><ele>468.0</ele><time>2026-04-03T18:40:28.999Z</time></trkpt><trkpt lat="42.439043178047235" lon="-8.105257774080943"><ele>467.1666666666667</ele><time>2026-04-03T18:40:30.999Z</time></trkpt><trkpt lat="42.439147870394294" lon="-8.105266025197794"><ele>466.33333333333337</ele><time>2026-04-03T18:40:32.999Z</time></trkpt><trkpt lat="42.439214832916484" lon="-8.105301748785482"><ele>465.5</ele><time>2026-04-03T18:40:33.999Z</time></trkpt><trkpt lat="42.43928930571045" lon="-8.105332095997667"><ele>464.6666666666667</ele><time>2026-04-03T18:40:34.999Z</time></trkpt><trkpt lat="42.439359462227664" lon="-8.105367541694688"><ele>463.83333333333337</ele><time>2026-04-03T18:40:35.999Z</time></trkpt><trkpt lat="42.43942768325129" lon="-8.105388472175148"><ele>463.0</ele><time>2026-04-03T18:40:36.999Z</time></trkpt><trkpt lat="42.43949461149763" lon="-8.10541705581373"><ele>463.00000000000006</ele><time>2026-04-03T18:40:37.999Z</time></trkpt><trkpt lat="42.4395640126422" lon="-8.105454968142919"><ele>463.0</ele><time>2026-04-03T18:40:38.999Z</time></trkpt><trkpt lat="42.43962791579987" lon="-8.105499825172911"><ele>463.0</ele><time>2026-04-03T18:40:39.999Z</time></trkpt><trkpt lat="42.43969580273285" lon="-8.105545180411372"><ele>463.0</ele><time>2026-04-03T18:40:40.999Z</time></trkpt><trkpt lat="42.43974498424736" lon="-8.105601360924247"><ele>463.00000000000006</ele><time>2026-04-03T18:40:41.999Z</time></trkpt><trkpt lat="42.4397927564698" lon="-8.105658966179485"><ele>463.0</ele><time>2026-04-03T18:40:42.999Z</time></trkpt><trkpt lat="42.439886563171626" lon="-8.105772170735811"><ele>461.4</ele><time>2026-04-03T18:40:44.999Z</time></trkpt><trkpt lat="42.43993410616879" lon="-8.10583279418541"><ele>459.79999999999995</ele><time>2026-04-03T18:40:45.999Z</time></trkpt><trkpt lat="42.44002039945631" lon="-8.105961251394868"><ele>458.2</ele><time>2026-04-03T18:40:47.999Z</time></trkpt><trkpt lat="42.44009487877213" lon="-8.106089420049233"><ele>456.6</ele><time>2026-04-03T18:40:49.999Z</time></trkpt><trkpt lat="42.44015276752557" lon="-8.106217428237654"><ele>455.0</ele><time>2026-04-03T18:40:51.999Z</time></trkpt><trkpt lat="42.4402076899183" lon="-8.106348247712486"><ele>455.0</ele><time>2026-04-03T18:40:53.999Z</time></trkpt><trkpt lat="42.44023840255233" lon="-8.106486890997028"><ele>455.0</ele><time>2026-04-03T18:40:55.999Z</time></trkpt><trkpt lat="42.44023506466366" lon="-8.10663638650754"><ele>455.0</ele><time>2026-04-03T18:40:57.999Z</time></trkpt><trkpt lat="42.44021359537254" lon="-8.106802840914272"><ele>455.0</ele><time>2026-04-03T18:40:59.999Z</time></trkpt><trkpt lat="42.440193961736085" lon="-8.106897379681794"><ele>455.0</ele><time>2026-04-03T18:41:00.999Z</time></trkpt><trkpt lat="42.44016963557216" lon="-8.106993370339008"><ele>454.66666666666663</ele><time>2026-04-03T18:41:01.999Z</time></trkpt><trkpt lat="42.44014181032075" lon="-8.107087775256389"><ele>454.3333333333333</ele><time>2026-04-03T18:41:02.999Z</time></trkpt><trkpt lat="42.44011137772207" lon="-8.107169219594528"><ele>454.0</ele><time>2026-04-03T18:41:03.999Z</time></trkpt><trkpt lat="42.44007781339267" lon="-8.107244444564527"><ele>453.66666666666663</ele><time>2026-04-03T18:41:04.999Z</time></trkpt><trkpt lat="42.44003857600765" lon="-8.10731199086283"><ele>453.3333333333333</ele><time>2026-04-03T18:41:05.999Z</time></trkpt><trkpt lat="42.43995629965697" lon="-8.10745536815566"><ele>453.0</ele><time>2026-04-03T18:41:08Z</time></trkpt><trkpt lat="42.439918647068076" lon="-8.107525721725214"><ele>453.0</ele><time>2026-04-03T18:41:09Z</time></trkpt><trkpt lat="42.439885266358175" lon="-8.107602579292294"><ele>453.0</ele><time>2026-04-03T18:41:10Z</time></trkpt><trkpt lat="42.43986023136923" lon="-8.10769068941599"><ele>453.0</ele><time>2026-04-03T18:41:11Z</time></trkpt><trkpt lat="42.43983852986428" lon="-8.107775112724712"><ele>453.0</ele><time>2026-04-03T18:41:12Z</time></trkpt><trkpt lat="42.439810629575746" lon="-8.107936669776741"><ele>453.0</ele><time>2026-04-03T18:41:14Z</time></trkpt><trkpt lat="42.43978663577377" lon="-8.108091171401675"><ele>453.0</ele><time>2026-04-03T18:41:16Z</time></trkpt><trkpt lat="42.43976201477592" lon="-8.108250600179268"><ele>453.0</ele><time>2026-04-03T18:41:18Z</time></trkpt><trkpt lat="42.439740146929076" lon="-8.108412334983031"><ele>452.99999999999994</ele><time>2026-04-03T18:41:20Z</time></trkpt><trkpt lat="42.43974826331122" lon="-8.108590009258277"><ele>452.99999999999994</ele><time>2026-04-03T18:41:22Z</time></trkpt><trkpt lat="42.43976288179684" lon="-8.108681848733502"><ele>453.0</ele><time>2026-04-03T18:41:23Z</time></trkpt><trkpt lat="42.43979069231318" lon="-8.108797931777245"><ele>453.0</ele><time>2026-04-03T18:41:25Z</time></trkpt><trkpt lat="42.43983162262353" lon="-8.10890899742695"><ele>453.0</ele><time>2026-04-03T18:41:28Z</time></trkpt><trkpt lat="42.43980180350631" lon="-8.10905078969133"><ele>453.0</ele><time>2026-04-03T18:41:30Z</time></trkpt><trkpt lat="42.43979582599177" lon="-8.109144102645184"><ele>453.0</ele><time>2026-04-03T18:41:32Z</time></trkpt><trkpt lat="42.43977682589401" lon="-8.109236907104629"><ele>453.0</ele><time>2026-04-03T18:41:34Z</time></trkpt><trkpt lat="42.43973510167573" lon="-8.10933033302373"><ele>453.0</ele><time>2026-04-03T18:41:36Z</time></trkpt><trkpt lat="42.43968499563426" lon="-8.10940850449842"><ele>453.0</ele><time>2026-04-03T18:41:38Z</time></trkpt><trkpt lat="42.43963422953208" lon="-8.1094899577948"><ele>452.5</ele><time>2026-04-03T18:41:40Z</time></trkpt><trkpt lat="42.43959167810718" lon="-8.109568057387584"><ele>452.0</ele><time>2026-04-03T18:41:42Z</time></trkpt><trkpt lat="42.43955605912287" lon="-8.109657620272957"><ele>451.5</ele><time>2026-04-03T18:41:44Z</time></trkpt><trkpt lat="42.43952959584411" lon="-8.109744214556688"><ele>451.0</ele><time>2026-04-03T18:41:46Z</time></trkpt><trkpt lat="42.43949446872285" lon="-8.109838309126642"><ele>450.5</ele><time>2026-04-03T18:41:48Z</time></trkpt><trkpt lat="42.43947108187908" lon="-8.109948811594387"><ele>450.0</ele><time>2026-04-03T18:41:50Z</time></trkpt><trkpt lat="42.4394507821355" lon="-8.110059381572668"><ele>450.00000000000006</ele><time>2026-04-03T18:41:52Z</time></trkpt><trkpt lat="42.43944302081078" lon="-8.110161134609973"><ele>450.0</ele><time>2026-04-03T18:41:54Z</time></trkpt><trkpt lat="42.439439271000346" lon="-8.110255259098853"><ele>450.00000000000006</ele><time>2026-04-03T18:41:56Z</time></trkpt><trkpt lat="42.4394400453745" lon="-8.110345232161235"><ele>450.00000000000006</ele><time>2026-04-03T18:41:58Z</time></trkpt><trkpt lat="42.439464482561" lon="-8.110437798017768"><ele>450.0</ele><time>2026-04-03T18:42:00Z</time></trkpt><trkpt lat="42.43951010716902" lon="-8.110501675571259"><ele>450.00000000000006</ele><time>2026-04-03T18:42:03Z</time></trkpt><trkpt lat="42.43957142259662" lon="-8.110576391206989"><ele>450.00000000000006</ele><time>2026-04-03T18:42:06.999Z</time></trkpt><trkpt lat="42.43961592377778" lon="-8.110646425990709"><ele>450.0</ele><time>2026-04-03T18:42:09.999Z</time></trkpt><trkpt lat="42.43967000112731" lon="-8.110722255835679"><ele>458.0</ele><time>2026-04-03T18:42:13.999Z</time></trkpt><trkpt lat="42.43970029864887" lon="-8.110820951374015"><ele>458.0</ele><time>2026-04-03T18:42:26.999Z</time></trkpt><trkpt lat="42.4397469836171" lon="-8.110883383843282"><ele>458.0</ele><time>2026-04-03T18:42:29.999Z</time></trkpt></trkseg><trkseg><trkpt lat="42.43983388416696" lon="-8.108040243394774"><ele>453.0</ele><time>2026-04-03T19:25:42.999Z</time></trkpt><trkpt lat="42.439792861989254" lon="-8.1079146635576"><ele>452.99999999999994</ele><time>2026-04-03T19:25:43.999Z</time></trkpt><trkpt lat="42.43981057581155" lon="-8.107810538843514"><ele>452.99999999999994</ele><time>2026-04-03T19:25:45Z</time></trkpt><trkpt lat="42.43983190065209" lon="-8.107699786967764"><ele>453.0</ele><time>2026-04-03T19:25:46Z</time></trkpt><trkpt lat="42.43986064694166" lon="-8.107588971820187"><ele>453.0</ele><time>2026-04-03T19:25:47Z</time></trkpt><trkpt lat="42.43991701244866" lon="-8.107473517618711"><ele>453.0</ele><time>2026-04-03T19:25:48Z</time></trkpt><trkpt lat="42.43997598417488" lon="-8.107362621823569"><ele>452.99999999999994</ele><time>2026-04-03T19:25:49Z</time></trkpt><trkpt lat="42.44004018292099" lon="-8.107250132891552"><ele>452.99999999999994</ele><time>2026-04-03T19:25:50Z</time></trkpt><trkpt lat="42.44009211932023" lon="-8.107145169366937"><ele>453.0</ele><time>2026-04-03T19:25:51Z</time></trkpt><trkpt lat="42.440132577891504" lon="-8.10703318667357"><ele>453.0</ele><time>2026-04-03T19:25:52Z</time></trkpt><trkpt lat="42.440164962064344" lon="-8.106913294967516"><ele>453.0</ele><time>2026-04-03T19:25:53Z</time></trkpt><trkpt lat="42.44018814782617" lon="-8.106795273498308"><ele>453.0</ele><time>2026-04-03T19:25:54Z</time></trkpt><trkpt lat="42.44020711431575" lon="-8.106672545033424"><ele>453.0</ele><time>2026-04-03T19:25:55Z</time></trkpt><trkpt lat="42.44021361542867" lon="-8.106555771608047"><ele>453.0</ele><time>2026-04-03T19:25:56Z</time></trkpt><trkpt lat="42.440204017074294" lon="-8.106447637766893"><ele>453.0</ele><time>2026-04-03T19:25:57Z</time></trkpt><trkpt lat="42.44016975364047" lon="-8.106358102013457"><ele>453.0</ele><time>2026-04-03T19:25:58Z</time></trkpt><trkpt lat="42.44012654487322" lon="-8.106245720275675"><ele>453.5</ele><time>2026-04-03T19:25:59Z</time></trkpt><trkpt lat="42.44007561896906" lon="-8.106141541722808"><ele>454.0</ele><time>2026-04-03T19:26:00Z</time></trkpt><trkpt lat="42.44000327261743" lon="-8.106019566302475"><ele>454.5</ele><time>2026-04-03T19:26:01Z</time></trkpt><trkpt lat="42.43991224308261" lon="-8.105891404374736"><ele>455.0</ele><time>2026-04-03T19:26:02Z</time></trkpt><trkpt lat="42.439823930158894" lon="-8.105781684074316"><ele>457.0</ele><time>2026-04-03T19:26:03Z</time></trkpt><trkpt lat="42.43973355259861" lon="-8.105685017722726"><ele>459.0</ele><time>2026-04-03T19:26:04Z</time></trkpt><trkpt lat="42.439643869057264" lon="-8.105603554870418"><ele>461.0</ele><time>2026-04-03T19:26:05Z</time></trkpt><trkpt lat="42.439545928129846" lon="-8.105536252875387"><ele>463.0</ele><time>2026-04-03T19:26:06Z</time></trkpt><trkpt lat="42.43943064422418" lon="-8.105471502422041"><ele>463.0</ele><time>2026-04-03T19:26:07Z</time></trkpt><trkpt lat="42.4393000508765" lon="-8.105410849622467"><ele>463.0</ele><time>2026-04-03T19:26:08Z</time></trkpt><trkpt lat="42.43914955454958" lon="-8.105347891529766"><ele>463.0</ele><time>2026-04-03T19:26:09Z</time></trkpt><trkpt lat="42.43903206398957" lon="-8.105293077694876"><ele>463.0</ele><time>2026-04-03T19:26:10Z</time></trkpt><trkpt lat="42.438924932921545" lon="-8.105241525344994"><ele>463.0</ele><time>2026-04-03T19:26:11Z</time></trkpt><trkpt lat="42.43882443570011" lon="-8.10520800625253"><ele>462.99999999999994</ele><time>2026-04-03T19:26:12Z</time></trkpt><trkpt lat="42.438725673577096" lon="-8.105174443976114"><ele>462.99999999999994</ele><time>2026-04-03T19:26:13Z</time></trkpt><trkpt lat="42.43863153597214" lon="-8.105141553902167"><ele>463.0</ele><time>2026-04-03T19:26:14Z</time></trkpt><trkpt lat="42.43854078154894" lon="-8.105146317910355"><ele>463.0</ele><time>2026-04-03T19:26:15Z</time></trkpt><trkpt lat="42.438457365099175" lon="-8.105200801798924"><ele>464.0</ele><time>2026-04-03T19:26:16Z</time></trkpt><trkpt lat="42.43841611981979" lon="-8.105345222154272"><ele>464.99999999999994</ele><time>2026-04-03T19:26:17Z</time></trkpt><trkpt lat="42.438334610575986" lon="-8.105442474085656"><ele>465.99999999999994</ele><time>2026-04-03T19:26:18Z</time></trkpt><trkpt lat="42.43826264592846" lon="-8.105564367178742"><ele>467.0</ele><time>2026-04-03T19:26:19Z</time></trkpt><trkpt lat="42.43816689176541" lon="-8.105619803372107"><ele>468.0</ele><time>2026-04-03T19:26:20Z</time></trkpt><trkpt lat="42.438060931516354" lon="-8.105642357473045"><ele>468.8333333333333</ele><time>2026-04-03T19:26:21Z</time></trkpt><trkpt lat="42.43796625703468" lon="-8.10570036153083"><ele>469.66666666666663</ele><time>2026-04-03T19:26:22Z</time></trkpt><trkpt lat="42.43789022801288" lon="-8.10574624580892"><ele>470.5</ele><time>2026-04-03T19:26:23Z</time></trkpt><trkpt lat="42.43784135888599" lon="-8.105838334703423"><ele>471.3333333333333</ele><time>2026-04-03T19:26:23.999Z</time></trkpt><trkpt lat="42.43778694726129" lon="-8.105917785445685"><ele>472.16666666666663</ele><time>2026-04-03T19:26:24.999Z</time></trkpt><trkpt lat="42.437744666600764" lon="-8.106013870770715"><ele>473.0</ele><time>2026-04-03T19:26:25.999Z</time></trkpt><trkpt lat="42.43769982312158" lon="-8.106075083698379"><ele>473.0</ele><time>2026-04-03T19:26:26.999Z</time></trkpt><trkpt lat="42.437573622498256" lon="-8.106116319188454"><ele>472.99999999999994</ele><time>2026-04-03T19:26:28.999Z</time></trkpt><trkpt lat="42.43748549569301" lon="-8.106109307917174"><ele>472.99999999999994</ele><time>2026-04-03T19:26:29.999Z</time></trkpt><trkpt lat="42.4373781251753" lon="-8.106075199216507"><ele>473.0</ele><time>2026-04-03T19:26:30.999Z</time></trkpt><trkpt lat="42.43728260497582" lon="-8.105988602204889"><ele>473.0</ele><time>2026-04-03T19:26:31.999Z</time></trkpt><trkpt lat="42.43722609768482" lon="-8.105851477378161"><ele>475.75</ele><time>2026-04-03T19:26:32.999Z</time></trkpt><trkpt lat="42.437166420832426" lon="-8.10573241133375"><ele>478.5</ele><time>2026-04-03T19:26:33.999Z</time></trkpt><trkpt lat="42.43710820279265" lon="-8.105610619002512"><ele>481.25</ele><time>2026-04-03T19:26:34.999Z</time></trkpt><trkpt lat="42.43704477739831" lon="-8.105467938322557"><ele>484.0</ele><time>2026-04-03T19:26:35.999Z</time></trkpt><trkpt lat="42.43698998955397" lon="-8.105323460847982"><ele>485.4</ele><time>2026-04-03T19:26:36.999Z</time></trkpt><trkpt lat="42.4369487543865" lon="-8.10518220641468"><ele>486.79999999999995</ele><time>2026-04-03T19:26:37.999Z</time></trkpt><trkpt lat="42.43692656070067" lon="-8.105060842533016"><ele>488.20000000000005</ele><time>2026-04-03T19:26:38.999Z</time></trkpt><trkpt lat="42.43695892642749" lon="-8.104925998224473"><ele>489.6</ele><time>2026-04-03T19:26:39.999Z</time></trkpt><trkpt lat="42.436996876791014" lon="-8.104799084401384"><ele>491.0</ele><time>2026-04-03T19:26:40.999Z</time></trkpt><trkpt lat="42.4370622414011" lon="-8.10468186398304"><ele>491.20000000000005</ele><time>2026-04-03T19:26:41.999Z</time></trkpt><trkpt lat="42.43715327742878" lon="-8.104606928164225"><ele>491.40000000000003</ele><time>2026-04-03T19:26:42.999Z</time></trkpt><trkpt lat="42.43725865755019" lon="-8.104549769441002"><ele>491.6</ele><time>2026-04-03T19:26:43.999Z</time></trkpt><trkpt lat="42.43737198846475" lon="-8.104499639146384"><ele>491.8</ele><time>2026-04-03T19:26:44.999Z</time></trkpt><trkpt lat="42.43745048219551" lon="-8.104411602366715"><ele>492.0</ele><time>2026-04-03T19:26:45.999Z</time></trkpt><trkpt lat="42.43750085631384" lon="-8.104337572475162"><ele>492.0</ele><time>2026-04-03T19:26:46.999Z</time></trkpt><trkpt lat="42.43754146445446" lon="-8.104267136573304"><ele>492.0</ele><time>2026-04-03T19:26:47.999Z</time></trkpt><trkpt lat="42.43756880008361" lon="-8.10411689300759"><ele>492.0</ele><time>2026-04-03T19:26:49.999Z</time></trkpt><trkpt lat="42.43753386590701" lon="-8.104027415842497"><ele>492.0</ele><time>2026-04-03T19:26:50.999Z</time></trkpt><trkpt lat="42.43747286837315" lon="-8.103973119741608"><ele>492.0</ele><time>2026-04-03T19:26:51.999Z</time></trkpt><trkpt lat="42.43737972964453" lon="-8.103965981991811"><ele>492.0</ele><time>2026-04-03T19:26:52.999Z</time></trkpt><trkpt lat="42.43728031953822" lon="-8.10392503008836"><ele>492.5</ele><time>2026-04-03T19:26:53.999Z</time></trkpt><trkpt lat="42.437169068719314" lon="-8.103880937192853"><ele>493.0</ele><time>2026-04-03T19:26:54.999Z</time></trkpt><trkpt lat="42.437058921656316" lon="-8.10381622243805"><ele>493.5</ele><time>2026-04-03T19:26:55.999Z</time></trkpt><trkpt lat="42.43693603899965" lon="-8.103781525486442"><ele>494.0</ele><time>2026-04-03T19:26:56.999Z</time></trkpt><trkpt lat="42.43682672948011" lon="-8.103691818428938"><ele>494.0</ele><time>2026-04-03T19:26:57.999Z</time></trkpt><trkpt lat="42.43673611987576" lon="-8.103613166774439"><ele>494.0</ele><time>2026-04-03T19:26:58.999Z</time></trkpt><trkpt lat="42.43666686754499" lon="-8.10351897940436"><ele>494.0</ele><time>2026-04-03T19:26:59.999Z</time></trkpt><trkpt lat="42.43662114864284" lon="-8.103404477211816"><ele>494.0</ele><time>2026-04-03T19:27:00.999Z</time></trkpt><trkpt lat="42.436585749640244" lon="-8.103279460789151"><ele>494.0</ele><time>2026-04-03T19:27:01.999Z</time></trkpt><trkpt lat="42.436554480078605" lon="-8.103138084925595"><ele>493.75</ele><time>2026-04-03T19:27:02.999Z</time></trkpt><trkpt lat="42.436528695432706" lon="-8.102985466086976"><ele>493.5</ele><time>2026-04-03T19:27:03.999Z</time></trkpt><trkpt lat="42.43647469984279" lon="-8.102836608193654"><ele>493.25</ele><time>2026-04-03T19:27:04.999Z</time></trkpt><trkpt lat="42.43643903995873" lon="-8.102680385131839"><ele>493.0</ele><time>2026-04-03T19:27:05.999Z</time></trkpt><trkpt lat="42.436404921963494" lon="-8.102530916971519"><ele>493.1666666666667</ele><time>2026-04-03T19:27:06.999Z</time></trkpt><trkpt lat="42.436390308234294" lon="-8.10239097805384"><ele>493.33333333333337</ele><time>2026-04-03T19:27:07.999Z</time></trkpt><trkpt lat="42.43635322700142" lon="-8.102273964741347"><ele>493.5</ele><time>2026-04-03T19:27:08.999Z</time></trkpt><trkpt lat="42.43633789068432" lon="-8.102172878726904"><ele>493.66666666666663</ele><time>2026-04-03T19:27:09.999Z</time></trkpt><trkpt lat="42.436310976762705" lon="-8.102078930316141"><ele>493.8333333333333</ele><time>2026-04-03T19:27:10.999Z</time></trkpt><trkpt lat="42.43627795762357" lon="-8.101974373453709"><ele>494.0</ele><time>2026-04-03T19:27:11.999Z</time></trkpt><trkpt lat="42.436240326539924" lon="-8.101875808038962"><ele>493.0</ele><time>2026-04-03T19:27:12.999Z</time></trkpt><trkpt lat="42.43621510357975" lon="-8.101753115566959"><ele>492.0</ele><time>2026-04-03T19:27:13.999Z</time></trkpt><trkpt lat="42.43619041234687" lon="-8.10162065471769"><ele>491.0</ele><time>2026-04-03T19:27:14.999Z</time></trkpt><trkpt lat="42.43616521587296" lon="-8.101479930403972"><ele>490.0</ele><time>2026-04-03T19:27:15.999Z</time></trkpt><trkpt lat="42.436127959289955" lon="-8.101363925870057"><ele>489.0</ele><time>2026-04-03T19:27:16.999Z</time></trkpt><trkpt lat="42.436072996295735" lon="-8.101272426282526"><ele>489.0</ele><time>2026-04-03T19:27:17.999Z</time></trkpt><trkpt lat="42.435998486019955" lon="-8.101162662533762"><ele>489.0</ele><time>2026-04-03T19:27:18.999Z</time></trkpt><trkpt lat="42.43593466258543" lon="-8.101068986546078"><ele>489.0</ele><time>2026-04-03T19:27:19.999Z</time></trkpt><trkpt lat="42.43587364220849" lon="-8.10100129382326"><ele>489.0</ele><time>2026-04-03T19:27:20.999Z</time></trkpt><trkpt lat="42.43581109104024" lon="-8.100937321730182"><ele>489.0</ele><time>2026-04-03T19:27:21.999Z</time></trkpt><trkpt lat="42.43574452327037" lon="-8.10088495545462"><ele>489.0</ele><time>2026-04-03T19:27:22.999Z</time></trkpt><trkpt lat="42.43567726078085" lon="-8.100812444085516"><ele>488.8333333333333</ele><time>2026-04-03T19:27:23.999Z</time></trkpt><trkpt lat="42.4356171916971" lon="-8.100738613586639"><ele>488.66666666666663</ele><time>2026-04-03T19:27:24.999Z</time></trkpt><trkpt lat="42.43556666701376" lon="-8.100676763285968"><ele>488.5</ele><time>2026-04-03T19:27:25.999Z</time></trkpt><trkpt lat="42.43549801164827" lon="-8.10060161954279"><ele>488.3333333333333</ele><time>2026-04-03T19:27:26.999Z</time></trkpt><trkpt lat="42.43544746390345" lon="-8.100529303524956"><ele>488.16666666666663</ele><time>2026-04-03T19:27:27.999Z</time></trkpt><trkpt lat="42.43539824781132" lon="-8.100420155395046"><ele>488.0</ele><time>2026-04-03T19:27:28.999Z</time></trkpt><trkpt lat="42.43538067007206" lon="-8.100295583243426"><ele>486.49999999999994</ele><time>2026-04-03T19:27:29.999Z</time></trkpt><trkpt lat="42.43535598249686" lon="-8.100184160890999"><ele>485.0</ele><time>2026-04-03T19:27:30.999Z</time></trkpt><trkpt lat="42.435347616362705" lon="-8.10007811070093"><ele>483.5</ele><time>2026-04-03T19:27:31.999Z</time></trkpt><trkpt lat="42.435341330505445" lon="-8.099971836066741"><ele>482.0</ele><time>2026-04-03T19:27:32.999Z</time></trkpt><trkpt lat="42.435336591133996" lon="-8.099860902977184"><ele>480.49999999999994</ele><time>2026-04-03T19:27:33.999Z</time></trkpt><trkpt lat="42.43533546642259" lon="-8.09976287563581"><ele>479.0</ele><time>2026-04-03T19:27:34.999Z</time></trkpt><trkpt lat="42.435337235221766" lon="-8.099648445478552"><ele>478.2</ele><time>2026-04-03T19:27:35.999Z</time></trkpt><trkpt lat="42.435354758009666" lon="-8.099463690029207"><ele>477.4</ele><time>2026-04-03T19:27:37.999Z</time></trkpt><trkpt lat="42.435368966990914" lon="-8.099361758134636"><ele>476.6</ele><time>2026-04-03T19:27:38.999Z</time></trkpt><trkpt lat="42.43539868911242" lon="-8.0992529047952"><ele>475.8</ele><time>2026-04-03T19:27:39.999Z</time></trkpt><trkpt lat="42.435414874510364" lon="-8.099144482233447"><ele>475.0</ele><time>2026-04-03T19:27:40.999Z</time></trkpt><trkpt lat="42.43541550929542" lon="-8.099028326415638"><ele>474.33333333333337</ele><time>2026-04-03T19:27:41.999Z</time></trkpt><trkpt lat="42.43544589511966" lon="-8.098907456093784"><ele>473.6666666666667</ele><time>2026-04-03T19:27:42.999Z</time></trkpt><trkpt lat="42.43548253501583" lon="-8.09879675703827"><ele>473.0</ele><time>2026-04-03T19:27:43.999Z</time></trkpt><trkpt lat="42.43552986191814" lon="-8.098694936916349"><ele>472.33333333333337</ele><time>2026-04-03T19:27:44.999Z</time></trkpt><trkpt lat="42.435580007673636" lon="-8.098620317417993"><ele>471.6666666666667</ele><time>2026-04-03T19:27:45.999Z</time></trkpt><trkpt lat="42.43566129558961" lon="-8.098563621636899"><ele>471.0</ele><time>2026-04-03T19:27:46.999Z</time></trkpt><trkpt lat="42.43571451005756" lon="-8.098481288458368"><ele>471.00000000000006</ele><time>2026-04-03T19:27:47.999Z</time></trkpt><trkpt lat="42.43576852230649" lon="-8.098425282701363"><ele>471.0</ele><time>2026-04-03T19:27:48.999Z</time></trkpt><trkpt lat="42.4358282714124" lon="-8.098363328333058"><ele>471.00000000000006</ele><time>2026-04-03T19:27:49.999Z</time></trkpt><trkpt lat="42.4358801332649" lon="-8.098297497557859"><ele>471.00000000000006</ele><time>2026-04-03T19:27:50.999Z</time></trkpt><trkpt lat="42.43592523299011" lon="-8.098226396489656"><ele>471.0</ele><time>2026-04-03T19:27:51.999Z</time></trkpt><trkpt lat="42.43595256782864" lon="-8.098143480753592"><ele>471.00000000000006</ele><time>2026-04-03T19:27:52.999Z</time></trkpt><trkpt lat="42.43597653587757" lon="-8.098044455303855"><ele>471.00000000000006</ele><time>2026-04-03T19:27:53.999Z</time></trkpt><trkpt lat="42.43596957284083" lon="-8.097904929842537"><ele>470.0</ele><time>2026-04-03T19:27:55.999Z</time></trkpt><trkpt lat="42.43595154127743" lon="-8.097816126867283"><ele>469.0</ele><time>2026-04-03T19:27:56.999Z</time></trkpt><trkpt lat="42.43592415568931" lon="-8.09773780538734"><ele>468.0</ele><time>2026-04-03T19:27:57.999Z</time></trkpt><trkpt lat="42.435876534818064" lon="-8.097675451354132"><ele>467.0</ele><time>2026-04-03T19:27:58.999Z</time></trkpt><trkpt lat="42.43581998302461" lon="-8.097627862252534"><ele>466.0</ele><time>2026-04-03T19:27:59.999Z</time></trkpt><trkpt lat="42.435715796739984" lon="-8.097513751469846"><ele>465.0</ele><time>2026-04-03T19:28:01.999Z</time></trkpt><trkpt lat="42.435629006793285" lon="-8.097402562352853"><ele>464.57142857142856</ele><time>2026-04-03T19:28:03.999Z</time></trkpt><trkpt lat="42.435601741431995" lon="-8.097323183574556"><ele>464.14285714285717</ele><time>2026-04-03T19:28:04.999Z</time></trkpt><trkpt lat="42.43558085455407" lon="-8.097224026518209"><ele>463.7142857142857</ele><time>2026-04-03T19:28:05.999Z</time></trkpt><trkpt lat="42.435567137478614" lon="-8.09712935690054"><ele>463.2857142857143</ele><time>2026-04-03T19:28:06.999Z</time></trkpt><trkpt lat="42.435560631264636" lon="-8.097033954945474"><ele>462.8571428571429</ele><time>2026-04-03T19:28:07.999Z</time></trkpt><trkpt lat="42.435581506652504" lon="-8.096932542258187"><ele>462.42857142857144</ele><time>2026-04-03T19:28:08.999Z</time></trkpt><trkpt lat="42.43557518780987" lon="-8.09682623619675"><ele>462.0</ele><time>2026-04-03T19:28:09.999Z</time></trkpt><trkpt lat="42.43558658617376" lon="-8.09671940941167"><ele>462.0</ele><time>2026-04-03T19:28:10.999Z</time></trkpt><trkpt lat="42.43559869544075" lon="-8.096617885213107"><ele>462.0</ele><time>2026-04-03T19:28:11.999Z</time></trkpt><trkpt lat="42.43560213668114" lon="-8.096519637558712"><ele>462.0</ele><time>2026-04-03T19:28:12.999Z</time></trkpt><trkpt lat="42.43557817005954" lon="-8.096427467912367"><ele>462.0</ele><time>2026-04-03T19:28:13.999Z</time></trkpt><trkpt lat="42.43554429236982" lon="-8.096326531652933"><ele>462.0</ele><time>2026-04-03T19:28:14.999Z</time></trkpt><trkpt lat="42.435452514123455" lon="-8.096248826498845"><ele>462.0</ele><time>2026-04-03T19:28:16.999Z</time></trkpt><trkpt lat="42.435374692228656" lon="-8.09614331974012"><ele>460.75</ele><time>2026-04-03T19:28:18.999Z</time></trkpt><trkpt lat="42.4352962284355" lon="-8.096022902475518"><ele>459.5</ele><time>2026-04-03T19:28:20.999Z</time></trkpt><trkpt lat="42.435239434414" lon="-8.095875024960012"><ele>458.25</ele><time>2026-04-03T19:28:22.999Z</time></trkpt><trkpt lat="42.43519481684595" lon="-8.095728044080472"><ele>457.0</ele><time>2026-04-03T19:28:24.999Z</time></trkpt><trkpt lat="42.43516854702631" lon="-8.09557863808724"><ele>455.40000000000003</ele><time>2026-04-03T19:28:26.999Z</time></trkpt><trkpt lat="42.435129994135316" lon="-8.095437250915293"><ele>453.80000000000007</ele><time>2026-04-03T19:28:28.999Z</time></trkpt><trkpt lat="42.43508696715767" lon="-8.095303382135054"><ele>452.2</ele><time>2026-04-03T19:28:30.999Z</time></trkpt><trkpt lat="42.435069611370714" lon="-8.095178975423932"><ele>450.6</ele><time>2026-04-03T19:28:32.999Z</time></trkpt><trkpt lat="42.43504706882434" lon="-8.095092071772832"><ele>449.0</ele><time>2026-04-03T19:28:34.999Z</time></trkpt><trkpt lat="42.43499941951654" lon="-8.094987222301487"><ele>448.4</ele><time>2026-04-03T19:28:36.999Z</time></trkpt><trkpt lat="42.43497317112025" lon="-8.094901549695178"><ele>447.79999999999995</ele><time>2026-04-03T19:28:38.999Z</time></trkpt><trkpt lat="42.43513739786302" lon="-8.09478430692683"><ele>447.20000000000005</ele><time>2026-04-03T19:28:40.999Z</time></trkpt><trkpt lat="42.43522427261165" lon="-8.094723812253246"><ele>446.6</ele><time>2026-04-03T19:28:42.999Z</time></trkpt><trkpt lat="42.43530655799138" lon="-8.09467915071091"><ele>446.0</ele><time>2026-04-03T19:28:44.999Z</time></trkpt><trkpt lat="42.435377118271234" lon="-8.094640423369057"><ele>446.0</ele><time>2026-04-03T19:28:47.999Z</time></trkpt><trkpt lat="42.43545910132437" lon="-8.094612968196271"><ele>446.0</ele><time>2026-04-03T19:28:50.999Z</time></trkpt><trkpt lat="42.435354292716916" lon="-8.094689312418133"><ele>446.0</ele><time>2026-04-03T19:30:02.999Z</time></trkpt><trkpt lat="42.435257788449206" lon="-8.094743990428869"><ele>446.0</ele><time>2026-04-03T19:30:04.999Z</time></trkpt><trkpt lat="42.43518792161725" lon="-8.094793830461596"><ele>446.0</ele><time>2026-04-03T19:30:06.999Z</time></trkpt><trkpt lat="42.435117264319395" lon="-8.094822990086543"><ele>446.0</ele><time>2026-04-03T19:30:09Z</time></trkpt><trkpt lat="42.43505711550085" lon="-8.094872989653435"><ele>446.0</ele><time>2026-04-03T19:30:12Z</time></trkpt><trkpt lat="42.43499845029726" lon="-8.094840620964149"><ele>446.0</ele><time>2026-04-03T19:30:41.999Z</time></trkpt><trkpt lat="42.43496209444263" lon="-8.094757358578237"><ele>446.0</ele><time>2026-04-03T19:30:42.999Z</time></trkpt><trkpt lat="42.43492125445574" lon="-8.094654006751524"><ele>446.0</ele><time>2026-04-03T19:30:43.999Z</time></trkpt><trkpt lat="42.43489501192671" lon="-8.09456249122538"><ele>446.0</ele><time>2026-04-03T19:30:44.999Z</time></trkpt><trkpt lat="42.43483943563826" lon="-8.09451608948887"><ele>446.0</ele><time>2026-04-03T19:30:45.999Z</time></trkpt><trkpt lat="42.43478786258265" lon="-8.094373966801852"><ele>445.99999999999994</ele><time>2026-04-03T19:30:47.999Z</time></trkpt><trkpt lat="42.43474110327525" lon="-8.094245109656077"><ele>446.0</ele><time>2026-04-03T19:30:49.999Z</time></trkpt><trkpt lat="42.43469953626488" lon="-8.094131577812268"><ele>446.0</ele><time>2026-04-03T19:30:51.999Z</time></trkpt><trkpt lat="42.43465857692687" lon="-8.09402842642916"><ele>446.0</ele><time>2026-04-03T19:30:53.999Z</time></trkpt><trkpt lat="42.43462028330436" lon="-8.093940085461497"><ele>445.99999999999994</ele><time>2026-04-03T19:30:55.999Z</time></trkpt><trkpt lat="42.43457474325368" lon="-8.093854101412143"><ele>446.0</ele><time>2026-04-03T19:30:57.999Z</time></trkpt><trkpt lat="42.434505270408565" lon="-8.093770710202971"><ele>444.8333333333333</ele><time>2026-04-03T19:30:59.999Z</time></trkpt><trkpt lat="42.434442706776636" lon="-8.093719593970501"><ele>443.66666666666663</ele><time>2026-04-03T19:31:01.999Z</time></trkpt><trkpt lat="42.434368838631364" lon="-8.093667542340317"><ele>442.5</ele><time>2026-04-03T19:31:03.999Z</time></trkpt><trkpt lat="42.43430088234332" lon="-8.09362442961425"><ele>441.33333333333337</ele><time>2026-04-03T19:31:05.999Z</time></trkpt><trkpt lat="42.434235593140315" lon="-8.093585429970426"><ele>440.1666666666667</ele><time>2026-04-03T19:31:07.999Z</time></trkpt><trkpt lat="42.43417287333602" lon="-8.09354701936675"><ele>439.0</ele><time>2026-04-03T19:31:09.999Z</time></trkpt><trkpt lat="42.43408986394045" lon="-8.093496183074453"><ele>439.00000000000006</ele><time>2026-04-03T19:31:12.999Z</time></trkpt><trkpt lat="42.43401714232702" lon="-8.09343036366501"><ele>439.0</ele><time>2026-04-03T19:31:15.999Z</time></trkpt><trkpt lat="42.43394495025864" lon="-8.093401569539735"><ele>439.0</ele><time>2026-04-03T19:31:18.999Z</time></trkpt><trkpt lat="42.43384899629374" lon="-8.093318940037749"><ele>439.0</ele><time>2026-04-03T19:31:37.999Z</time></trkpt><trkpt lat="42.433783308777166" lon="-8.09327772558803"><ele>439.00000000000006</ele><time>2026-04-03T19:31:38.999Z</time></trkpt><trkpt lat="42.433713949802325" lon="-8.09323495883899"><ele>439.0</ele><time>2026-04-03T19:31:39.999Z</time></trkpt><trkpt lat="42.43362901571115" lon="-8.093238375580345"><ele>438.2857142857143</ele><time>2026-04-03T19:31:40.999Z</time></trkpt><trkpt lat="42.43355600551841" lon="-8.093205149205897"><ele>437.57142857142856</ele><time>2026-04-03T19:31:41.999Z</time></trkpt><trkpt lat="42.43348314128031" lon="-8.093171989226548"><ele>436.8571428571429</ele><time>2026-04-03T19:31:42.999Z</time></trkpt><trkpt lat="42.43341144563278" lon="-8.093138634836997"><ele>436.1428571428571</ele><time>2026-04-03T19:31:43.999Z</time></trkpt><trkpt lat="42.43334553531213" lon="-8.093105237663565"><ele>435.42857142857144</ele><time>2026-04-03T19:31:44.999Z</time></trkpt><trkpt lat="42.43328660380981" lon="-8.093074383847293"><ele>434.7142857142857</ele><time>2026-04-03T19:31:45.999Z</time></trkpt><trkpt lat="42.433226603977246" lon="-8.093035929907069"><ele>434.0</ele><time>2026-04-03T19:31:46.999Z</time></trkpt><trkpt lat="42.43311715131421" lon="-8.092942999940712"><ele>434.0</ele><time>2026-04-03T19:31:48.999Z</time></trkpt><trkpt lat="42.43302201437621" lon="-8.092846607558636"><ele>434.0</ele><time>2026-04-03T19:31:50.999Z</time></trkpt><trkpt lat="42.43292508631614" lon="-8.092748495782235"><ele>434.0</ele><time>2026-04-03T19:31:52.999Z</time></trkpt><trkpt lat="42.43287692857169" lon="-8.092690521447146"><ele>434.0</ele><time>2026-04-03T19:31:53.999Z</time></trkpt><trkpt lat="42.43279097431193" lon="-8.09256392882449"><ele>434.0</ele><time>2026-04-03T19:31:55.999Z</time></trkpt><trkpt lat="42.43276141622966" lon="-8.092478230845451"><ele>432.0</ele><time>2026-04-03T19:31:57Z</time></trkpt><trkpt lat="42.43274185684776" lon="-8.092387002635629"><ele>430.0</ele><time>2026-04-03T19:31:58Z</time></trkpt><trkpt lat="42.432722471725505" lon="-8.092295628622962"><ele>428.0</ele><time>2026-04-03T19:31:59Z</time></trkpt><trkpt lat="42.432707068617525" lon="-8.092202126534954"><ele>426.0</ele><time>2026-04-03T19:32:00Z</time></trkpt><trkpt lat="42.43268773181346" lon="-8.092084745209851"><ele>424.0</ele><time>2026-04-03T19:32:01Z</time></trkpt><trkpt lat="42.43265780355534" lon="-8.091990939923402"><ele>422.0</ele><time>2026-04-03T19:32:02Z</time></trkpt><trkpt lat="42.4326172035936" lon="-8.091913271614093"><ele>420.0</ele><time>2026-04-03T19:32:03Z</time></trkpt><trkpt lat="42.43257251467357" lon="-8.091839235073031"><ele>420.0</ele><time>2026-04-03T19:32:04Z</time></trkpt><trkpt lat="42.4325258328631" lon="-8.091770034981918"><ele>420.0</ele><time>2026-04-03T19:32:05Z</time></trkpt><trkpt lat="42.43247487225484" lon="-8.091695060232293"><ele>420.0</ele><time>2026-04-03T19:32:06Z</time></trkpt><trkpt lat="42.43238591502303" lon="-8.091559424318005"><ele>420.0</ele><time>2026-04-03T19:32:08Z</time></trkpt><trkpt lat="42.432347832367704" lon="-8.091386043873824"><ele>420.0</ele><time>2026-04-03T19:32:10Z</time></trkpt><trkpt lat="42.4323535545633" lon="-8.091277010234291"><ele>419.0</ele><time>2026-04-03T19:32:11Z</time></trkpt><trkpt lat="42.43241099451431" lon="-8.091180041035527"><ele>418.0</ele><time>2026-04-03T19:32:12Z</time></trkpt><trkpt lat="42.432489301487045" lon="-8.0910676393836"><ele>417.0</ele><time>2026-04-03T19:32:13Z</time></trkpt><trkpt lat="42.432591243509485" lon="-8.090962604832242"><ele>416.0</ele><time>2026-04-03T19:32:14Z</time></trkpt><trkpt lat="42.432703800602425" lon="-8.090838507604234"><ele>414.3333333333333</ele><time>2026-04-03T19:32:15Z</time></trkpt><trkpt lat="42.432812352189956" lon="-8.090683356480772"><ele>412.66666666666663</ele><time>2026-04-03T19:32:16Z</time></trkpt><trkpt lat="42.43294652700676" lon="-8.09053841677332"><ele>411.0</ele><time>2026-04-03T19:32:17Z</time></trkpt><trkpt lat="42.43306604451797" lon="-8.090387341435745"><ele>411.0</ele><time>2026-04-03T19:32:18Z</time></trkpt><trkpt lat="42.43316129649609" lon="-8.090222561550549"><ele>411.0</ele><time>2026-04-03T19:32:19Z</time></trkpt><trkpt lat="42.43325077864421" lon="-8.090066203142172"><ele>411.0</ele><time>2026-04-03T19:32:20Z</time></trkpt><trkpt lat="42.4333002696107" lon="-8.089890864203744"><ele>411.0</ele><time>2026-04-03T19:32:21Z</time></trkpt><trkpt lat="42.43331697242025" lon="-8.089704451150121"><ele>410.5</ele><time>2026-04-03T19:32:22Z</time></trkpt><trkpt lat="42.433333594546674" lon="-8.089519351247544"><ele>410.0</ele><time>2026-04-03T19:32:23Z</time></trkpt><trkpt lat="42.43336587644575" lon="-8.089338165616098"><ele>409.5</ele><time>2026-04-03T19:32:24Z</time></trkpt><trkpt lat="42.43337749609549" lon="-8.08916156085576"><ele>409.0</ele><time>2026-04-03T19:32:25Z</time></trkpt><trkpt lat="42.433378791660715" lon="-8.089029895818253"><ele>407.75</ele><time>2026-04-03T19:32:26Z</time></trkpt><trkpt lat="42.4334043699867" lon="-8.088821092198922"><ele>406.5</ele><time>2026-04-03T19:32:27Z</time></trkpt><trkpt lat="42.43339120614203" lon="-8.088651955840291"><ele>405.25</ele><time>2026-04-03T19:32:28Z</time></trkpt><trkpt lat="42.43337159441898" lon="-8.088479947428853"><ele>404.0</ele><time>2026-04-03T19:32:29Z</time></trkpt><trkpt lat="42.433350624808504" lon="-8.08828589629166"><ele>402.2</ele><time>2026-04-03T19:32:30Z</time></trkpt><trkpt lat="42.43334656543332" lon="-8.088138106041908"><ele>400.4</ele><time>2026-04-03T19:32:31Z</time></trkpt><trkpt lat="42.43330425916914" lon="-8.087983299829721"><ele>398.6</ele><time>2026-04-03T19:32:32Z</time></trkpt><trkpt lat="42.43327067916505" lon="-8.087839745873664"><ele>396.8</ele><time>2026-04-03T19:32:33Z</time></trkpt><trkpt lat="42.433220381503" lon="-8.087726438690881"><ele>395.0</ele><time>2026-04-03T19:32:34Z</time></trkpt><trkpt lat="42.43313472635347" lon="-8.087649781878758"><ele>395.0</ele><time>2026-04-03T19:32:35Z</time></trkpt><trkpt lat="42.433036070602434" lon="-8.08760192885461"><ele>395.0</ele><time>2026-04-03T19:32:36Z</time></trkpt><trkpt lat="42.43292783577824" lon="-8.08754651343917"><ele>395.0</ele><time>2026-04-03T19:32:37Z</time></trkpt><trkpt lat="42.43283466287951" lon="-8.087468357189726"><ele>395.0</ele><time>2026-04-03T19:32:38Z</time></trkpt><trkpt lat="42.43275307872945" lon="-8.087399385701277"><ele>395.0</ele><time>2026-04-03T19:32:39Z</time></trkpt><trkpt lat="42.43267257804202" lon="-8.087309230137219"><ele>393.6</ele><time>2026-04-03T19:32:40Z</time></trkpt><trkpt lat="42.43265420975911" lon="-8.087168523403218"><ele>392.2</ele><time>2026-04-03T19:32:41Z</time></trkpt><trkpt lat="42.4326533350678" lon="-8.087039751496224"><ele>390.79999999999995</ele><time>2026-04-03T19:32:42Z</time></trkpt><trkpt lat="42.43263873671462" lon="-8.086911115482204"><ele>389.4</ele><time>2026-04-03T19:32:43Z</time></trkpt><trkpt lat="42.432633037041185" lon="-8.086787538890663"><ele>388.0</ele><time>2026-04-03T19:32:44Z</time></trkpt><trkpt lat="42.43261918627184" lon="-8.086667863669328"><ele>387.50000000000006</ele><time>2026-04-03T19:32:45Z</time></trkpt><trkpt lat="42.43259978159858" lon="-8.086553300897052"><ele>387.0</ele><time>2026-04-03T19:32:46Z</time></trkpt><trkpt lat="42.432595064731906" lon="-8.086457005730491"><ele>386.5</ele><time>2026-04-03T19:32:47Z</time></trkpt><trkpt lat="42.43254946391491" lon="-8.086386305238086"><ele>386.0</ele><time>2026-04-03T19:33:04Z</time></trkpt><trkpt lat="42.432497917412356" lon="-8.08630554820689"><ele>385.50000000000006</ele><time>2026-04-03T19:33:06Z</time></trkpt><trkpt lat="42.43241933368126" lon="-8.086230481440749"><ele>385.0</ele><time>2026-04-03T19:33:08Z</time></trkpt><trkpt lat="42.432360863905785" lon="-8.08615884799517"><ele>385.00000000000006</ele><time>2026-04-03T19:33:09Z</time></trkpt><trkpt lat="42.432311909174906" lon="-8.08605794937187"><ele>385.0</ele><time>2026-04-03T19:33:10Z</time></trkpt><trkpt lat="42.432252453737405" lon="-8.085979246243728"><ele>385.0</ele><time>2026-04-03T19:33:10.999Z</time></trkpt><trkpt lat="42.43219202673847" lon="-8.085895367604788"><ele>385.0</ele><time>2026-04-03T19:33:11.999Z</time></trkpt><trkpt lat="42.43213416103333" lon="-8.085810577170998"><ele>385.00000000000006</ele><time>2026-04-03T19:33:12.999Z</time></trkpt><trkpt lat="42.43206418133296" lon="-8.085744470202147"><ele>385.0</ele><time>2026-04-03T19:33:13.999Z</time></trkpt><trkpt lat="42.43200719137108" lon="-8.085664514345828"><ele>383.0</ele><time>2026-04-03T19:33:14.999Z</time></trkpt><trkpt lat="42.431951217605544" lon="-8.085585984223021"><ele>381.0</ele><time>2026-04-03T19:33:15.999Z</time></trkpt><trkpt lat="42.43189459865317" lon="-8.085506548888475"><ele>379.0</ele><time>2026-04-03T19:33:16.999Z</time></trkpt><trkpt lat="42.43182314321336" lon="-8.085406298224923"><ele>377.0</ele><time>2026-04-03T19:33:17.999Z</time></trkpt><trkpt lat="42.43174884049775" lon="-8.08529798687835"><ele>375.0</ele><time>2026-04-03T19:33:18.999Z</time></trkpt><trkpt lat="42.43167812810459" lon="-8.08516969354123"><ele>375.0</ele><time>2026-04-03T19:33:19.999Z</time></trkpt><trkpt lat="42.43161451895054" lon="-8.085037232183296"><ele>375.0</ele><time>2026-04-03T19:33:20.999Z</time></trkpt><trkpt lat="42.431560207128676" lon="-8.084900566222512"><ele>375.0</ele><time>2026-04-03T19:33:21.999Z</time></trkpt><trkpt lat="42.431508861356704" lon="-8.08477000473395"><ele>375.0</ele><time>2026-04-03T19:33:22.999Z</time></trkpt><trkpt lat="42.43145913949536" lon="-8.084643452607166"><ele>375.0</ele><time>2026-04-03T19:33:23.999Z</time></trkpt><trkpt lat="42.43140616968057" lon="-8.08450863376654"><ele>374.0</ele><time>2026-04-03T19:33:24.999Z</time></trkpt><trkpt lat="42.43135164623029" lon="-8.084369859451542"><ele>373.0</ele><time>2026-04-03T19:33:25.999Z</time></trkpt><trkpt lat="42.43129428461119" lon="-8.084225726351903"><ele>372.0</ele><time>2026-04-03T19:33:26.999Z</time></trkpt><trkpt lat="42.43123215228109" lon="-8.084068792139163"><ele>371.0</ele><time>2026-04-03T19:33:27.999Z</time></trkpt><trkpt lat="42.43116848210021" lon="-8.08390797344903"><ele>370.75</ele><time>2026-04-03T19:33:28.999Z</time></trkpt><trkpt lat="42.43110759978181" lon="-8.083752437008314"><ele>370.5</ele><time>2026-04-03T19:33:29.999Z</time></trkpt><trkpt lat="42.43104913549149" lon="-8.083600350968277"><ele>370.25</ele><time>2026-04-03T19:33:30.999Z</time></trkpt><trkpt lat="42.43099361599815" lon="-8.083455732911329"><ele>370.0</ele><time>2026-04-03T19:33:31.999Z</time></trkpt><trkpt lat="42.430937598622016" lon="-8.083309563997288"><ele>372.25</ele><time>2026-04-03T19:33:32.999Z</time></trkpt><trkpt lat="42.43087841714276" lon="-8.083154483720998"><ele>374.5</ele><time>2026-04-03T19:33:33.999Z</time></trkpt><trkpt lat="42.430821806674864" lon="-8.083006993097724"><ele>376.75</ele><time>2026-04-03T19:33:34.999Z</time></trkpt><trkpt lat="42.43076532861835" lon="-8.082860017287024"><ele>379.0</ele><time>2026-04-03T19:33:35.999Z</time></trkpt><trkpt lat="42.43070936655145" lon="-8.082714384434034"><ele>379.0</ele><time>2026-04-03T19:33:36.999Z</time></trkpt><trkpt lat="42.43065925808202" lon="-8.08258399996009"><ele>379.0</ele><time>2026-04-03T19:33:37.999Z</time></trkpt><trkpt lat="42.430609105636755" lon="-8.082453519564673"><ele>379.0</ele><time>2026-04-03T19:33:38.999Z</time></trkpt><trkpt lat="42.43055943254722" lon="-8.082324286509795"><ele>379.0</ele><time>2026-04-03T19:33:39.999Z</time></trkpt><trkpt lat="42.43051046013888" lon="-8.082196876501877"><ele>379.0</ele><time>2026-04-03T19:33:40.999Z</time></trkpt><trkpt lat="42.430462556139" lon="-8.082072245986183"><ele>380.0</ele><time>2026-04-03T19:33:41.999Z</time></trkpt><trkpt lat="42.43043364873415" lon="-8.081948673306801"><ele>381.0</ele><time>2026-04-03T19:33:42.999Z</time></trkpt><trkpt lat="42.430382988298945" lon="-8.081865236698132"><ele>382.0</ele><time>2026-04-03T19:33:43.999Z</time></trkpt><trkpt lat="42.43034795156585" lon="-8.081774228803761"><ele>383.0</ele><time>2026-04-03T19:33:44.999Z</time></trkpt><trkpt lat="42.430311151540074" lon="-8.081678641485317"><ele>384.00000000000006</ele><time>2026-04-03T19:33:45.999Z</time></trkpt><trkpt lat="42.43027980203273" lon="-8.08156624972225"><ele>385.0</ele><time>2026-04-03T19:33:46.999Z</time></trkpt><trkpt lat="42.43022483904408" lon="-8.081454446423821"><ele>386.6</ele><time>2026-04-03T19:33:47.999Z</time></trkpt><trkpt lat="42.43017637643669" lon="-8.081328565915044"><ele>388.2</ele><time>2026-04-03T19:33:48.999Z</time></trkpt><trkpt lat="42.43012778591977" lon="-8.081202352805418"><ele>389.79999999999995</ele><time>2026-04-03T19:33:49.999Z</time></trkpt><trkpt lat="42.4300800669361" lon="-8.081078403552484"><ele>391.4</ele><time>2026-04-03T19:33:50.999Z</time></trkpt><trkpt lat="42.43003259173199" lon="-8.08095508764659"><ele>393.0</ele><time>2026-04-03T19:33:51.999Z</time></trkpt><trkpt lat="42.429997892449464" lon="-8.080823961579611"><ele>394.59999999999997</ele><time>2026-04-03T19:33:52.999Z</time></trkpt><trkpt lat="42.42994578641458" lon="-8.080705399049744"><ele>396.2</ele><time>2026-04-03T19:33:53.999Z</time></trkpt><trkpt lat="42.42990509837054" lon="-8.080581937775532"><ele>397.8</ele><time>2026-04-03T19:33:54.999Z</time></trkpt><trkpt lat="42.42986250177394" lon="-8.080473206048019"><ele>399.4</ele><time>2026-04-03T19:33:55.999Z</time></trkpt><trkpt lat="42.4298313050811" lon="-8.080377407173707"><ele>401.0</ele><time>2026-04-03T19:33:56.999Z</time></trkpt><trkpt lat="42.42977760021781" lon="-8.080243451742861"><ele>401.0</ele><time>2026-04-03T19:33:58.999Z</time></trkpt><trkpt lat="42.4297419561251" lon="-8.080146491304284"><ele>401.0</ele><time>2026-04-03T19:34:01.999Z</time></trkpt><trkpt lat="42.42969928161766" lon="-8.080042107155421"><ele>401.0</ele><time>2026-04-03T19:34:06Z</time></trkpt><trkpt lat="42.42980992332638" lon="-8.07995874053778"><ele>401.0</ele><time>2026-04-03T19:34:07Z</time></trkpt><trkpt lat="42.42990991622554" lon="-8.079859866813809"><ele>401.0</ele><time>2026-04-03T19:34:09Z</time></trkpt><trkpt lat="42.42996470598658" lon="-8.079809276217073"><ele>401.3333333333333</ele><time>2026-04-03T19:34:10Z</time></trkpt><trkpt lat="42.43001909207408" lon="-8.079760779726625"><ele>401.66666666666663</ele><time>2026-04-03T19:34:11Z</time></trkpt><trkpt lat="42.43007754288675" lon="-8.079710271725691"><ele>402.0</ele><time>2026-04-03T19:34:12Z</time></trkpt><trkpt lat="42.43013988581789" lon="-8.07965839584981"><ele>402.33333333333337</ele><time>2026-04-03T19:34:13Z</time></trkpt><trkpt lat="42.430204315726" lon="-8.07960672240774"><ele>402.6666666666667</ele><time>2026-04-03T19:34:14Z</time></trkpt><trkpt lat="42.430268421455956" lon="-8.079555308988535"><ele>403.0</ele><time>2026-04-03T19:34:15Z</time></trkpt><trkpt lat="42.43037118646101" lon="-8.079495316119733"><ele>403.00000000000006</ele><time>2026-04-03T19:34:17Z</time></trkpt><trkpt lat="42.430433780876314" lon="-8.079433319548007"><ele>403.0</ele><time>2026-04-03T19:34:19Z</time></trkpt><trkpt lat="42.43050887641455" lon="-8.079381734729337"><ele>403.0</ele><time>2026-04-03T19:34:21Z</time></trkpt><trkpt lat="42.43060567940401" lon="-8.079300193361552"><ele>403.0</ele><time>2026-04-03T19:34:23Z</time></trkpt><trkpt lat="42.43066167261013" lon="-8.07925312216561"><ele>403.00000000000006</ele><time>2026-04-03T19:34:24Z</time></trkpt><trkpt lat="42.430719404717294" lon="-8.079204601783207"><ele>403.0</ele><time>2026-04-03T19:34:25Z</time></trkpt><trkpt lat="42.43078368917827" lon="-8.079156346670691"><ele>403.1666666666667</ele><time>2026-04-03T19:34:26Z</time></trkpt><trkpt lat="42.430847720353114" lon="-8.079102475137534"><ele>403.33333333333337</ele><time>2026-04-03T19:34:27Z</time></trkpt><trkpt lat="42.430906995177104" lon="-8.079042009967928"><ele>403.5</ele><time>2026-04-03T19:34:28Z</time></trkpt><trkpt lat="42.430960008672244" lon="-8.078992796898802"><ele>403.66666666666663</ele><time>2026-04-03T19:34:29Z</time></trkpt><trkpt lat="42.431056715048676" lon="-8.07890455110931"><ele>403.8333333333333</ele><time>2026-04-03T19:34:31Z</time></trkpt><trkpt lat="42.43114546425195" lon="-8.078823218816726"><ele>404.0</ele><time>2026-04-03T19:34:33Z</time></trkpt><trkpt lat="42.431212598100835" lon="-8.078745823668267"><ele>404.79999999999995</ele><time>2026-04-03T19:34:35Z</time></trkpt><trkpt lat="42.431303969210575" lon="-8.07864258377041"><ele>405.59999999999997</ele><time>2026-04-03T19:34:37Z</time></trkpt><trkpt lat="42.43136446400392" lon="-8.078538326506433"><ele>406.4</ele><time>2026-04-03T19:34:39Z</time></trkpt><trkpt lat="42.43139610536784" lon="-8.078428049295473"><ele>407.2</ele><time>2026-04-03T19:34:41Z</time></trkpt><trkpt lat="42.43141561269287" lon="-8.07827952273884"><ele>408.0</ele><time>2026-04-03T19:34:43Z</time></trkpt><trkpt lat="42.4314122848875" lon="-8.078137899077838"><ele>408.0</ele><time>2026-04-03T19:34:45Z</time></trkpt><trkpt lat="42.431392339886514" lon="-8.078031605010501"><ele>408.0</ele><time>2026-04-03T19:34:47Z</time></trkpt><trkpt lat="42.43136278736191" lon="-8.077907440180184"><ele>408.0</ele><time>2026-04-03T19:34:50Z</time></trkpt><trkpt lat="42.43130969770373" lon="-8.077846922501243"><ele>408.0</ele><time>2026-04-03T19:34:52Z</time></trkpt><trkpt lat="42.4312488172636" lon="-8.077779711727707"><ele>408.0</ele><time>2026-04-03T19:34:54Z</time></trkpt><trkpt lat="42.431220056741815" lon="-8.077702278286939"><ele>408.0</ele><time>2026-04-03T19:34:56Z</time></trkpt><trkpt lat="42.431227036990954" lon="-8.077617200803688"><ele>408.0</ele><time>2026-04-03T19:34:58Z</time></trkpt><trkpt lat="42.431288629762385" lon="-8.077576765799325"><ele>408.0</ele><time>2026-04-03T19:35:00Z</time></trkpt><trkpt lat="42.43139201242514" lon="-8.077618280902513"><ele>408.0</ele><time>2026-04-03T19:35:02Z</time></trkpt><trkpt lat="42.43150771903113" lon="-8.07755963117326"><ele>408.0</ele><time>2026-04-03T19:35:04Z</time></trkpt><trkpt lat="42.43156262295119" lon="-8.077678369364438"><ele>408.0</ele><time>2026-04-03T19:35:05Z</time></trkpt><trkpt lat="42.431678904494845" lon="-8.077703156071937"><ele>408.0</ele><time>2026-04-03T19:35:06.999Z</time></trkpt><trkpt lat="42.43179395240153" lon="-8.077715386522588"><ele>408.0</ele><time>2026-04-03T19:35:08.999Z</time></trkpt><trkpt lat="42.431900049680195" lon="-8.077714462137363"><ele>408.0</ele><time>2026-04-03T19:35:10.999Z</time></trkpt><trkpt lat="42.432008101549805" lon="-8.077727423718084"><ele>408.0</ele><time>2026-04-03T19:35:12.999Z</time></trkpt><trkpt lat="42.4321025772563" lon="-8.077718369058777"><ele>408.0</ele><time>2026-04-03T19:35:14.999Z</time></trkpt><trkpt lat="42.43216566588367" lon="-8.077722271866477"><ele>408.0</ele><time>2026-04-03T19:35:16.999Z</time></trkpt><trkpt lat="42.43225890738198" lon="-8.077721501820411"><ele>408.0</ele><time>2026-04-03T19:35:24.999Z</time></trkpt><trkpt lat="42.43233853077328" lon="-8.077723923652577"><ele>408.0</ele><time>2026-04-03T19:35:25.999Z</time></trkpt><trkpt lat="42.43242639811878" lon="-8.077722401553197"><ele>408.0</ele><time>2026-04-03T19:35:26.999Z</time></trkpt><trkpt lat="42.43250231938363" lon="-8.077724427021591"><ele>408.0</ele><time>2026-04-03T19:35:27.999Z</time></trkpt><trkpt lat="42.43257265265755" lon="-8.077732078560231"><ele>408.0</ele><time>2026-04-03T19:35:28.999Z</time></trkpt><trkpt lat="42.43264031125103" lon="-8.077740683928917"><ele>408.0</ele><time>2026-04-03T19:35:29.999Z</time></trkpt><trkpt lat="42.43270755082325" lon="-8.077721078036362"><ele>408.0</ele><time>2026-04-03T19:35:30.999Z</time></trkpt><trkpt lat="42.43281711344569" lon="-8.077741057368447"><ele>408.0</ele><time>2026-04-03T19:35:32.999Z</time></trkpt><trkpt lat="42.4329352175409" lon="-8.077746428543907"><ele>408.0</ele><time>2026-04-03T19:35:34.999Z</time></trkpt><trkpt lat="42.43301046209226" lon="-8.07775028593995"><ele>408.0</ele><time>2026-04-03T19:35:35.999Z</time></trkpt><trkpt lat="42.43309215498806" lon="-8.077754362688793"><ele>407.2</ele><time>2026-04-03T19:35:36.999Z</time></trkpt><trkpt lat="42.433187564907406" lon="-8.07773517317277"><ele>406.4</ele><time>2026-04-03T19:35:37.999Z</time></trkpt><trkpt lat="42.43328951694509" lon="-8.077758384880626"><ele>405.59999999999997</ele><time>2026-04-03T19:35:38.999Z</time></trkpt><trkpt lat="42.43339496039095" lon="-8.077740920966468"><ele>404.79999999999995</ele><time>2026-04-03T19:35:39.999Z</time></trkpt><trkpt lat="42.43350427142188" lon="-8.077742719906825"><ele>404.0</ele><time>2026-04-03T19:35:40.999Z</time></trkpt><trkpt lat="42.43361217879742" lon="-8.077764836410832"><ele>404.0</ele><time>2026-04-03T19:35:41.999Z</time></trkpt><trkpt lat="42.43371395695322" lon="-8.07774271990481"><ele>404.0</ele><time>2026-04-03T19:35:42.999Z</time></trkpt><trkpt lat="42.433807693123015" lon="-8.077742719902387"><ele>404.0</ele><time>2026-04-03T19:35:43.999Z</time></trkpt><trkpt lat="42.433903296446225" lon="-8.077742719900987"><ele>404.0</ele><time>2026-04-03T19:35:44.999Z</time></trkpt><trkpt lat="42.433989649420106" lon="-8.077742719899883"><ele>404.0</ele><time>2026-04-03T19:35:45.999Z</time></trkpt><trkpt lat="42.434073182496576" lon="-8.077744445110453"><ele>404.3333333333333</ele><time>2026-04-03T19:35:46.999Z</time></trkpt><trkpt lat="42.434144267465385" lon="-8.07774794109652"><ele>404.66666666666663</ele><time>2026-04-03T19:35:47.999Z</time></trkpt><trkpt lat="42.43426994669193" lon="-8.077751663724365"><ele>405.0</ele><time>2026-04-03T19:35:49.999Z</time></trkpt><trkpt lat="42.434339981560264" lon="-8.077751084923026"><ele>405.33333333333337</ele><time>2026-04-03T19:35:50.999Z</time></trkpt><trkpt lat="42.43441228416793" lon="-8.077750259811841"><ele>405.6666666666667</ele><time>2026-04-03T19:35:51.999Z</time></trkpt><trkpt lat="42.43448182484561" lon="-8.077749124627145"><ele>406.0</ele><time>2026-04-03T19:35:52.999Z</time></trkpt><trkpt lat="42.43454726959201" lon="-8.077769225996555"><ele>406.0</ele><time>2026-04-03T19:35:53.999Z</time></trkpt><trkpt lat="42.43462410925938" lon="-8.077730441999615"><ele>406.0</ele><time>2026-04-03T19:35:55.999Z</time></trkpt><trkpt lat="42.43468707705791" lon="-8.0776217429409"><ele>406.0</ele><time>2026-04-03T19:35:57.999Z</time></trkpt><trkpt lat="42.43471790537391" lon="-8.07748076559201"><ele>406.0</ele><time>2026-04-03T19:35:59.999Z</time></trkpt><trkpt lat="42.4347048120223" lon="-8.077348643629252"><ele>406.0</ele><time>2026-04-03T19:36:01.999Z</time></trkpt><trkpt lat="42.434642951106675" lon="-8.077234247718966"><ele>406.20000000000005</ele><time>2026-04-03T19:36:03.999Z</time></trkpt><trkpt lat="42.43460958294638" lon="-8.077157241300664"><ele>406.40000000000003</ele><time>2026-04-03T19:36:04.999Z</time></trkpt><trkpt lat="42.43457095851037" lon="-8.077054033214859"><ele>406.6</ele><time>2026-04-03T19:36:05.999Z</time></trkpt><trkpt lat="42.434521330133684" lon="-8.076944402622717"><ele>406.8</ele><time>2026-04-03T19:36:06.999Z</time></trkpt><trkpt lat="42.43446595301171" lon="-8.076828312785793"><ele>407.0</ele><time>2026-04-03T19:36:07.999Z</time></trkpt><trkpt lat="42.434412498176094" lon="-8.076710989348342"><ele>407.20000000000005</ele><time>2026-04-03T19:36:09Z</time></trkpt><trkpt lat="42.43436055307911" lon="-8.07659068443651"><ele>407.4</ele><time>2026-04-03T19:36:10Z</time></trkpt><trkpt lat="42.43430769170506" lon="-8.076467264596653"><ele>407.6</ele><time>2026-04-03T19:36:11Z</time></trkpt><trkpt lat="42.434255181570606" lon="-8.076345270414897"><ele>407.79999999999995</ele><time>2026-04-03T19:36:12Z</time></trkpt><trkpt lat="42.434202482978534" lon="-8.076225226973124"><ele>408.0</ele><time>2026-04-03T19:36:13Z</time></trkpt><trkpt lat="42.43414225412755" lon="-8.076090342808833"><ele>408.0</ele><time>2026-04-03T19:36:14Z</time></trkpt><trkpt lat="42.434073886200416" lon="-8.075948416040905"><ele>408.0</ele><time>2026-04-03T19:36:15Z</time></trkpt><trkpt lat="42.43400566104207" lon="-8.075804028115073"><ele>408.0</ele><time>2026-04-03T19:36:16Z</time></trkpt><trkpt lat="42.43394452659049" lon="-8.075677535615842"><ele>408.0</ele><time>2026-04-03T19:36:17Z</time></trkpt><trkpt lat="42.43389323358769" lon="-8.075566746762505"><ele>408.0</ele><time>2026-04-03T19:36:18Z</time></trkpt><trkpt lat="42.43385391936294" lon="-8.075475933692417"><ele>408.0</ele><time>2026-04-03T19:36:19Z</time></trkpt><trkpt lat="42.43381990691999" lon="-8.07539873235463"><ele>408.0</ele><time>2026-04-03T19:36:20Z</time></trkpt><trkpt lat="42.433778446884574" lon="-8.075276581280091"><ele>408.0</ele><time>2026-04-03T19:37:08Z</time></trkpt><trkpt lat="42.433707860195824" lon="-8.075163689143544"><ele>408.0</ele><time>2026-04-03T19:37:10Z</time></trkpt><trkpt lat="42.433669820711096" lon="-8.075080633774126"><ele>408.0</ele><time>2026-04-03T19:37:11Z</time></trkpt><trkpt lat="42.433623550994476" lon="-8.074980019828672"><ele>408.0</ele><time>2026-04-03T19:37:12Z</time></trkpt><trkpt lat="42.43357536243269" lon="-8.074871858851358"><ele>408.0</ele><time>2026-04-03T19:37:13Z</time></trkpt><trkpt lat="42.433526525515184" lon="-8.074761577080794"><ele>408.0</ele><time>2026-04-03T19:37:14Z</time></trkpt><trkpt lat="42.43348291784064" lon="-8.074663103805422"><ele>408.0</ele><time>2026-04-03T19:37:15Z</time></trkpt><trkpt lat="42.43343566215287" lon="-8.074556392767315"><ele>408.0</ele><time>2026-04-03T19:37:16Z</time></trkpt><trkpt lat="42.43338865612959" lon="-8.074450682156757"><ele>408.0</ele><time>2026-04-03T19:37:17Z</time></trkpt><trkpt lat="42.433342049489106" lon="-8.074346094013183"><ele>408.0</ele><time>2026-04-03T19:37:18Z</time></trkpt><trkpt lat="42.43329569598963" lon="-8.07424207398821"><ele>408.0</ele><time>2026-04-03T19:37:19Z</time></trkpt><trkpt lat="42.43324881402593" lon="-8.074136868026212"><ele>408.0</ele><time>2026-04-03T19:37:20Z</time></trkpt><trkpt lat="42.43320081866639" lon="-8.074029163525429"><ele>408.0</ele><time>2026-04-03T19:37:21Z</time></trkpt><trkpt lat="42.43315302999013" lon="-8.073921922867575"><ele>407.1666666666667</ele><time>2026-04-03T19:37:22Z</time></trkpt><trkpt lat="42.43310745171019" lon="-8.073819642422912"><ele>406.33333333333337</ele><time>2026-04-03T19:37:23Z</time></trkpt><trkpt lat="42.433064802206744" lon="-8.073723934390431"><ele>405.5</ele><time>2026-04-03T19:37:24Z</time></trkpt><trkpt lat="42.43302024637033" lon="-8.073623948393282"><ele>404.6666666666667</ele><time>2026-04-03T19:37:25Z</time></trkpt><trkpt lat="42.432980366062054" lon="-8.073534454618692"><ele>403.83333333333337</ele><time>2026-04-03T19:37:26Z</time></trkpt><trkpt lat="42.4329416961434" lon="-8.07344767696159"><ele>403.0</ele><time>2026-04-03T19:37:27Z</time></trkpt><trkpt lat="42.43290781201894" lon="-8.07337163890928"><ele>402.79999999999995</ele><time>2026-04-03T19:37:28Z</time></trkpt><trkpt lat="42.432840570167535" lon="-8.073255285602551"><ele>402.6</ele><time>2026-04-03T19:37:29.999Z</time></trkpt><trkpt lat="42.432766889426325" lon="-8.073238471312225"><ele>402.4</ele><time>2026-04-03T19:37:31.999Z</time></trkpt><trkpt lat="42.432692204053275" lon="-8.073319092012566"><ele>402.20000000000005</ele><time>2026-04-03T19:37:32.999Z</time></trkpt><trkpt lat="42.43262987397464" lon="-8.073346100568735"><ele>402.0</ele><time>2026-04-03T19:37:33.999Z</time></trkpt><trkpt lat="42.43253204913294" lon="-8.073445324126668"><ele>402.0</ele><time>2026-04-03T19:37:35.999Z</time></trkpt><trkpt lat="42.43243662819554" lon="-8.07351321868223"><ele>402.0</ele><time>2026-04-03T19:37:37.999Z</time></trkpt><trkpt lat="42.43233962114577" lon="-8.073588871084887"><ele>402.0</ele><time>2026-04-03T19:37:39.999Z</time></trkpt><trkpt lat="42.43227546335481" lon="-8.073622000185908"><ele>402.0</ele><time>2026-04-03T19:37:40.999Z</time></trkpt><trkpt lat="42.43221032738879" lon="-8.073697083181651"><ele>402.0</ele><time>2026-04-03T19:37:43.999Z</time></trkpt><trkpt lat="42.432276481542814" lon="-8.07388051437739"><ele>402.0</ele><time>2026-04-03T19:37:51.999Z</time></trkpt><trkpt lat="42.432330273959536" lon="-8.073959116989505"><ele>402.0</ele><time>2026-04-03T19:37:52.999Z</time></trkpt><trkpt lat="42.4323932309466" lon="-8.074045451106349"><ele>402.0</ele><time>2026-04-03T19:37:53.999Z</time></trkpt><trkpt lat="42.43244916594555" lon="-8.074119282385283"><ele>402.0</ele><time>2026-04-03T19:37:54.999Z</time></trkpt><trkpt lat="42.432517436100454" lon="-8.07420939660897"><ele>402.0</ele><time>2026-04-03T19:37:56.999Z</time></trkpt><trkpt lat="42.432596595210875" lon="-8.074308392722209"><ele>402.8</ele><time>2026-04-03T19:37:58.999Z</time></trkpt><trkpt lat="42.43265803702782" lon="-8.07439555174088"><ele>403.6</ele><time>2026-04-03T19:37:59.999Z</time></trkpt><trkpt lat="42.43270558811416" lon="-8.074461737120075"><ele>404.40000000000003</ele><time>2026-04-03T19:38:00.999Z</time></trkpt><trkpt lat="42.43277329340581" lon="-8.074560644604214"><ele>405.20000000000005</ele><time>2026-04-03T19:38:02.999Z</time></trkpt><trkpt lat="42.43286943824386" lon="-8.074678001455247"><ele>406.0</ele><time>2026-04-03T19:38:04.999Z</time></trkpt><trkpt lat="42.43292431301821" lon="-8.074766727996279"><ele>406.00000000000006</ele><time>2026-04-03T19:38:05.999Z</time></trkpt><trkpt lat="42.43295886463316" lon="-8.074854019701542"><ele>406.0</ele><time>2026-04-03T19:38:06.999Z</time></trkpt><trkpt lat="42.433030335019176" lon="-8.074960827606354"><ele>406.0</ele><time>2026-04-03T19:38:08.999Z</time></trkpt><trkpt lat="42.433066153917856" lon="-8.075040260698092"><ele>406.0</ele><time>2026-04-03T19:38:10.999Z</time></trkpt><trkpt lat="42.43311152001421" lon="-8.07511850032302"><ele>406.00000000000006</ele><time>2026-04-03T19:38:13.999Z</time></trkpt><trkpt lat="42.4331334555857" lon="-8.075212053511581"><ele>406.0</ele><time>2026-04-03T19:38:18Z</time></trkpt><trkpt lat="42.433023543997066" lon="-8.075318713892992"><ele>407.0</ele><time>2026-04-03T19:38:19Z</time></trkpt><trkpt lat="42.4329372995158" lon="-8.075383252840833"><ele>408.0</ele><time>2026-04-03T19:38:20Z</time></trkpt><trkpt lat="42.43288521285312" lon="-8.075444872439078"><ele>409.0</ele><time>2026-04-03T19:38:21Z</time></trkpt><trkpt lat="42.432773045195106" lon="-8.075504586482266"><ele>410.0</ele><time>2026-04-03T19:38:23Z</time></trkpt><trkpt lat="42.432678950837776" lon="-8.075595532556916"><ele>411.0</ele><time>2026-04-03T19:38:25Z</time></trkpt><trkpt lat="42.4325967638412" lon="-8.075669270595885"><ele>411.0</ele><time>2026-04-03T19:38:27Z</time></trkpt><trkpt lat="42.43253789476681" lon="-8.075735866229119"><ele>411.0</ele><time>2026-04-03T19:38:29Z</time></trkpt><trkpt lat="42.43247684560728" lon="-8.075828764610835"><ele>411.0</ele><time>2026-04-03T19:38:32Z</time></trkpt><trkpt lat="42.432410644636455" lon="-8.07590110632762"><ele>411.0</ele><time>2026-04-03T19:38:35Z</time></trkpt><trkpt lat="42.432360001461674" lon="-8.07595754024263"><ele>411.0</ele><time>2026-04-03T19:38:38Z</time></trkpt><trkpt lat="42.43238936394185" lon="-8.07607288129611"><ele>411.0</ele><time>2026-04-03T19:38:40Z</time></trkpt><trkpt lat="42.43247629953104" lon="-8.076105308868502"><ele>411.0</ele><time>2026-04-03T19:38:42Z</time></trkpt><trkpt lat="42.43254008314243" lon="-8.076082963914397"><ele>411.0</ele><time>2026-04-03T19:38:43Z</time></trkpt><trkpt lat="42.432606397752636" lon="-8.076018602911605"><ele>411.0</ele><time>2026-04-03T19:38:44Z</time></trkpt><trkpt lat="42.43268743701957" lon="-8.075938255736169"><ele>411.0</ele><time>2026-04-03T19:38:45Z</time></trkpt><trkpt lat="42.432782839766176" lon="-8.075854509475752"><ele>411.0</ele><time>2026-04-03T19:38:46Z</time></trkpt><trkpt lat="42.43288642095885" lon="-8.075767202237015"><ele>411.25</ele><time>2026-04-03T19:38:47Z</time></trkpt><trkpt lat="42.432998082054176" lon="-8.075672326255184"><ele>411.5</ele><time>2026-04-03T19:38:48Z</time></trkpt><trkpt lat="42.43311340380715" lon="-8.075573344148241"><ele>411.75</ele><time>2026-04-03T19:38:49Z</time></trkpt><trkpt lat="42.43321085494394" lon="-8.075487890750372"><ele>412.0</ele><time>2026-04-03T19:38:50Z</time></trkpt><trkpt lat="42.43328359152559" lon="-8.075424039736086"><ele>412.00000000000006</ele><time>2026-04-03T19:38:51Z</time></trkpt><trkpt lat="42.433335819001094" lon="-8.075354516820031"><ele>412.0</ele><time>2026-04-03T19:38:52Z</time></trkpt><trkpt lat="42.433406795535944" lon="-8.075300335451933"><ele>412.0</ele><time>2026-04-03T19:38:55Z</time></trkpt><trkpt lat="42.43348073700302" lon="-8.075277826026472"><ele>412.0</ele><time>2026-04-03T19:39:35Z</time></trkpt><trkpt lat="42.43356170858386" lon="-8.075195993865474"><ele>412.00000000000006</ele><time>2026-04-03T19:39:37Z</time></trkpt><trkpt lat="42.433615543121626" lon="-8.075130469362431"><ele>412.0</ele><time>2026-04-03T19:39:39Z</time></trkpt><trkpt lat="42.43366900036198" lon="-8.075072929787332"><ele>412.0</ele><time>2026-04-03T19:39:41Z</time></trkpt><trkpt lat="42.433606802337124" lon="-8.074943594830135"><ele>412.0</ele><time>2026-04-03T19:39:43Z</time></trkpt><trkpt lat="42.43354016918868" lon="-8.074792386643551"><ele>412.0</ele><time>2026-04-03T19:39:45Z</time></trkpt><trkpt lat="42.4334997232121" lon="-8.074701053149253"><ele>412.0</ele><time>2026-04-03T19:39:46Z</time></trkpt><trkpt lat="42.433458075642456" lon="-8.074607006059749"><ele>412.0</ele><time>2026-04-03T19:39:47Z</time></trkpt><trkpt lat="42.43341315310198" lon="-8.074505654792821"><ele>411.20000000000005</ele><time>2026-04-03T19:39:48Z</time></trkpt><trkpt lat="42.43335898775829" lon="-8.074384104551092"><ele>410.4</ele><time>2026-04-03T19:39:49Z</time></trkpt><trkpt lat="42.433304802400144" lon="-8.074262509293641"><ele>409.6</ele><time>2026-04-03T19:39:50Z</time></trkpt><trkpt lat="42.43325641120867" lon="-8.074153916611706"><ele>408.79999999999995</ele><time>2026-04-03T19:39:51Z</time></trkpt><trkpt lat="42.43320408545767" lon="-8.074036494468773"><ele>408.0</ele><time>2026-04-03T19:39:52Z</time></trkpt><trkpt lat="42.4331587882769" lon="-8.073934844831788"><ele>407.0</ele><time>2026-04-03T19:39:53Z</time></trkpt><trkpt lat="42.433112710173184" lon="-8.073831442764316"><ele>406.0</ele><time>2026-04-03T19:39:54Z</time></trkpt><trkpt lat="42.433071354282234" lon="-8.073738637618373"><ele>405.0</ele><time>2026-04-03T19:39:55Z</time></trkpt><trkpt lat="42.433035030532125" lon="-8.073657124948964"><ele>404.0</ele><time>2026-04-03T19:39:56Z</time></trkpt><trkpt lat="42.43297345124344" lon="-8.073518937356932"><ele>403.0</ele><time>2026-04-03T19:39:58Z</time></trkpt><trkpt lat="42.43290865408483" lon="-8.073373528570922"><ele>402.83333333333337</ele><time>2026-04-03T19:40:00Z</time></trkpt><trkpt lat="42.43287379596776" lon="-8.073295304852518"><ele>402.6666666666667</ele><time>2026-04-03T19:40:01Z</time></trkpt><trkpt lat="42.43283695400147" lon="-8.073212629263745"><ele>402.5</ele><time>2026-04-03T19:40:01.999Z</time></trkpt><trkpt lat="42.43279997957141" lon="-8.073129655710822"><ele>402.33333333333337</ele><time>2026-04-03T19:40:02.999Z</time></trkpt><trkpt lat="42.43276108816056" lon="-8.073043354943401"><ele>402.1666666666667</ele><time>2026-04-03T19:40:03.999Z</time></trkpt><trkpt lat="42.43271953034569" lon="-8.07295081053243"><ele>402.0</ele><time>2026-04-03T19:40:04.999Z</time></trkpt><trkpt lat="42.43267325019658" lon="-8.07284775003758"><ele>401.6</ele><time>2026-04-03T19:40:05.999Z</time></trkpt><trkpt lat="42.43262614758916" lon="-8.072742858022536"><ele>401.20000000000005</ele><time>2026-04-03T19:40:06.999Z</time></trkpt><trkpt lat="42.4325754346056" lon="-8.072629926115848"><ele>400.8</ele><time>2026-04-03T19:40:07.999Z</time></trkpt><trkpt lat="42.43251987005677" lon="-8.072506190385031"><ele>400.4</ele><time>2026-04-03T19:40:08.999Z</time></trkpt><trkpt lat="42.43246619751451" lon="-8.072386837987178"><ele>400.0</ele><time>2026-04-03T19:40:09.999Z</time></trkpt><trkpt lat="42.43241413850203" lon="-8.072271586015097"><ele>399.6666666666667</ele><time>2026-04-03T19:40:10.999Z</time></trkpt><trkpt lat="42.43236347396074" lon="-8.072159421255657"><ele>399.33333333333337</ele><time>2026-04-03T19:40:11.999Z</time></trkpt><trkpt lat="42.43233084082712" lon="-8.072045408716354"><ele>399.0</ele><time>2026-04-03T19:40:12.999Z</time></trkpt><trkpt lat="42.43228190495288" lon="-8.07194995804286"><ele>398.66666666666663</ele><time>2026-04-03T19:40:13.999Z</time></trkpt><trkpt lat="42.432240705928386" lon="-8.071856314932687"><ele>398.3333333333333</ele><time>2026-04-03T19:40:14.999Z</time></trkpt><trkpt lat="42.432201614878615" lon="-8.07177386532245"><ele>398.0</ele><time>2026-04-03T19:40:15.999Z</time></trkpt><trkpt lat="42.43214468971361" lon="-8.071647846336248"><ele>397.59999999999997</ele><time>2026-04-03T19:40:17.999Z</time></trkpt><trkpt lat="42.43210642856989" lon="-8.071570400240951"><ele>397.2</ele><time>2026-04-03T19:40:21.001Z</time></trkpt><trkpt lat="42.432057378054296" lon="-8.071466062706405"><ele>396.8</ele><time>2026-04-03T19:40:30Z</time></trkpt><trkpt lat="42.43201573677416" lon="-8.071372518309389"><ele>396.4</ele><time>2026-04-03T19:40:32Z</time></trkpt><trkpt lat="42.43194396501902" lon="-8.07120086479695"><ele>396.0</ele><time>2026-04-03T19:40:34Z</time></trkpt><trkpt lat="42.43188899668657" lon="-8.071087028843941"><ele>396.0</ele><time>2026-04-03T19:40:35Z</time></trkpt><trkpt lat="42.4318405385032" lon="-8.070982644112089"><ele>396.0</ele><time>2026-04-03T19:40:36Z</time></trkpt><trkpt lat="42.431799278520685" lon="-8.070882338747738"><ele>396.0</ele><time>2026-04-03T19:40:37Z</time></trkpt><trkpt lat="42.43176588153028" lon="-8.070802358046045"><ele>396.0</ele><time>2026-04-03T19:40:38Z</time></trkpt><trkpt lat="42.431721443056645" lon="-8.070707113192183"><ele>396.0</ele><time>2026-04-03T19:40:40Z</time></trkpt><trkpt lat="42.43162468495868" lon="-8.070695065345559"><ele>396.0</ele><time>2026-04-03T19:40:46Z</time></trkpt><trkpt lat="42.4315047539104" lon="-8.07079123557645"><ele>396.0</ele><time>2026-04-03T19:40:48Z</time></trkpt><trkpt lat="42.43141213628624" lon="-8.070869314921099"><ele>396.0</ele><time>2026-04-03T19:40:49Z</time></trkpt><trkpt lat="42.4313341589867" lon="-8.07093649865628"><ele>396.0</ele><time>2026-04-03T19:40:50Z</time></trkpt><trkpt lat="42.431265027611936" lon="-8.07099606091412"><ele>396.0</ele><time>2026-04-03T19:40:51Z</time></trkpt><trkpt lat="42.43119397682959" lon="-8.071082946764417"><ele>396.0</ele><time>2026-04-03T19:40:53Z</time></trkpt><trkpt lat="42.43113051604814" lon="-8.071130518453295"><ele>395.3333333333333</ele><time>2026-04-03T19:40:58Z</time></trkpt><trkpt lat="42.43104316414001" lon="-8.071187215007537"><ele>394.66666666666663</ele><time>2026-04-03T19:41:00Z</time></trkpt><trkpt lat="42.430977284826824" lon="-8.07124106524909"><ele>394.0</ele><time>2026-04-03T19:41:01Z</time></trkpt><trkpt lat="42.43090895045214" lon="-8.071298836826546"><ele>393.3333333333333</ele><time>2026-04-03T19:41:02Z</time></trkpt><trkpt lat="42.43085336735799" lon="-8.071345828078552"><ele>392.66666666666663</ele><time>2026-04-03T19:41:03Z</time></trkpt><trkpt lat="42.43079656955291" lon="-8.071393846339454"><ele>392.0</ele><time>2026-04-03T19:41:04Z</time></trkpt><trkpt lat="42.430746085362564" lon="-8.071447350511123"><ele>391.99999999999994</ele><time>2026-04-03T19:41:05Z</time></trkpt><trkpt lat="42.430668126639" lon="-8.071552810319574"><ele>392.0</ele><time>2026-04-03T19:41:07Z</time></trkpt><trkpt lat="42.43061553995487" lon="-8.071602195956212"><ele>392.0</ele><time>2026-04-03T19:41:08Z</time></trkpt><trkpt lat="42.43055134974995" lon="-8.071655478634293"><ele>392.0</ele><time>2026-04-03T19:41:09Z</time></trkpt><trkpt lat="42.43048686938878" lon="-8.071712779796739"><ele>391.99999999999994</ele><time>2026-04-03T19:41:10Z</time></trkpt><trkpt lat="42.430422667592936" lon="-8.07177288227177"><ele>392.0</ele><time>2026-04-03T19:41:11Z</time></trkpt><trkpt lat="42.43036092383851" lon="-8.071828757602665"><ele>391.66666666666663</ele><time>2026-04-03T19:41:12Z</time></trkpt><trkpt lat="42.43030584246207" lon="-8.071877856037542"><ele>391.3333333333333</ele><time>2026-04-03T19:41:13Z</time></trkpt><trkpt lat="42.43025305774292" lon="-8.071926432377138"><ele>391.0</ele><time>2026-04-03T19:41:14Z</time></trkpt><trkpt lat="42.43015761166574" lon="-8.072010782476692"><ele>390.66666666666663</ele><time>2026-04-03T19:41:16Z</time></trkpt><trkpt lat="42.43009301058752" lon="-8.072074052273454"><ele>390.3333333333333</ele><time>2026-04-03T19:41:18Z</time></trkpt><trkpt lat="42.43003176730654" lon="-8.072195649729546"><ele>390.0</ele><time>2026-04-03T19:41:21Z</time></trkpt><trkpt lat="42.43002164119583" lon="-8.07233786888083"><ele>391.0</ele><time>2026-04-03T19:41:22Z</time></trkpt><trkpt lat="42.43003625645868" lon="-8.072473026733018"><ele>392.0</ele><time>2026-04-03T19:41:23Z</time></trkpt><trkpt lat="42.43007731844677" lon="-8.072619391231939"><ele>393.0</ele><time>2026-04-03T19:41:24Z</time></trkpt><trkpt lat="42.43010248631609" lon="-8.072779822841342"><ele>394.0</ele><time>2026-04-03T19:41:25Z</time></trkpt><trkpt lat="42.4301388900964" lon="-8.07295616568088"><ele>394.0</ele><time>2026-04-03T19:41:26Z</time></trkpt><trkpt lat="42.43017744918431" lon="-8.073137821298829"><ele>394.0</ele><time>2026-04-03T19:41:27Z</time></trkpt><trkpt lat="42.43021534536769" lon="-8.073313696586087"><ele>394.0</ele><time>2026-04-03T19:41:28Z</time></trkpt><trkpt lat="42.430252396401144" lon="-8.073488536403476"><ele>394.0</ele><time>2026-04-03T19:41:29Z</time></trkpt><trkpt lat="42.430284513756355" lon="-8.073617864959289"><ele>394.6</ele><time>2026-04-03T19:41:30Z</time></trkpt><trkpt lat="42.43030918213896" lon="-8.07372380296319"><ele>395.2</ele><time>2026-04-03T19:41:31Z</time></trkpt><trkpt lat="42.43033806913287" lon="-8.073869923841059"><ele>395.8</ele><time>2026-04-03T19:41:33Z</time></trkpt><trkpt lat="42.43022646584331" lon="-8.073958323511397"><ele>396.40000000000003</ele><time>2026-04-03T19:41:37Z</time></trkpt><trkpt lat="42.4301255516267" lon="-8.073964690469818"><ele>397.0</ele><time>2026-04-03T19:41:38Z</time></trkpt><trkpt lat="42.43005356331597" lon="-8.073995202383982"><ele>397.0</ele><time>2026-04-03T19:41:39Z</time></trkpt><trkpt lat="42.4299982347363" lon="-8.074039857792874"><ele>397.0</ele><time>2026-04-03T19:41:41Z</time></trkpt><trkpt lat="42.43041087959549" lon="-8.074220552318721"><ele>397.0</ele><time>2026-04-03T19:41:46Z</time></trkpt><trkpt lat="42.43044254051205" lon="-8.074367090801431"><ele>397.0</ele><time>2026-04-03T19:41:47Z</time></trkpt><trkpt lat="42.43047523400438" lon="-8.074518416542633"><ele>397.0</ele><time>2026-04-03T19:41:48Z</time></trkpt><trkpt lat="42.43050260900383" lon="-8.074645124675767"><ele>397.0</ele><time>2026-04-03T19:41:49Z</time></trkpt><trkpt lat="42.430520968439446" lon="-8.074730103772005"><ele>397.0</ele><time>2026-04-03T19:41:50Z</time></trkpt><trkpt lat="42.43023113985441" lon="-8.074877958919023"><ele>397.0</ele><time>2026-04-03T19:41:56Z</time></trkpt><trkpt lat="42.430294264293856" lon="-8.074874446410774"><ele>397.0</ele><time>2026-04-03T19:42:07Z</time></trkpt><trkpt lat="42.43027581122666" lon="-8.074956691997894"><ele>397.0</ele><time>2026-04-03T19:45:02Z</time></trkpt><trkpt lat="42.43022650220765" lon="-8.074888779803157"><ele>397.0</ele><time>2026-04-03T19:45:35Z</time></trkpt><trkpt lat="42.43026502169745" lon="-8.07497981147007"><ele>397.0</ele><time>2026-04-03T19:46:13.999Z</time></trkpt><trkpt lat="42.43025655852953" lon="-8.075072305075928"><ele>397.0</ele><time>2026-04-03T19:47:07Z</time></trkpt><trkpt lat="42.43027368672789" lon="-8.074989017657337"><ele>397.0</ele><time>2026-04-03T19:47:21Z</time></trkpt><trkpt lat="42.43024602467004" lon="-8.07490145850729"><ele>397.0</ele><time>2026-04-03T19:48:21.999Z</time></trkpt><trkpt lat="42.43030513374947" lon="-8.074971503155938"><ele>397.0</ele><time>2026-04-03T19:50:31.999Z</time></trkpt><trkpt lat="42.43023523492074" lon="-8.074982925728458"><ele>397.0</ele><time>2026-04-03T19:51:11Z</time></trkpt><trkpt lat="42.430283626457395" lon="-8.074921872436466"><ele>397.0</ele><time>2026-04-03T19:52:01.999Z</time></trkpt><trkpt lat="42.43022163743568" lon="-8.074938831599205"><ele>397.0</ele><time>2026-04-03T19:52:25.999Z</time></trkpt><trkpt lat="42.43025056206838" lon="-8.07485870596183"><ele>397.0</ele><time>2026-04-03T19:52:33.999Z</time></trkpt><trkpt lat="42.43030420275938" lon="-8.074799863489083"><ele>397.0</ele><time>2026-04-03T19:52:44.999Z</time></trkpt><trkpt lat="42.430347649005114" lon="-8.07486209784898"><ele>397.0</ele><time>2026-04-03T19:53:04Z</time></trkpt><trkpt lat="42.43041795963554" lon="-8.074881996775211"><ele>397.0</ele><time>2026-04-03T19:53:55.999Z</time></trkpt><trkpt lat="42.43049189415815" lon="-8.074873924668992"><ele>397.0</ele><time>2026-04-03T19:54:02.999Z</time></trkpt><trkpt lat="42.43048802048388" lon="-8.074963598096748"><ele>397.0</ele><time>2026-04-03T19:54:55.999Z</time></trkpt><trkpt lat="42.43053617850558" lon="-8.074902595285197"><ele>397.0</ele><time>2026-04-03T19:55:44Z</time></trkpt><trkpt lat="42.4306078407822" lon="-8.07489298954046"><ele>397.0</ele><time>2026-04-03T19:57:31Z</time></trkpt><trkpt lat="42.43053063183292" lon="-8.074947141810378"><ele>397.0</ele><time>2026-04-03T19:57:57.999Z</time></trkpt><trkpt lat="42.43047161512335" lon="-8.075027688232188"><ele>397.00000000000006</ele><time>2026-04-03T19:58:05.999Z</time></trkpt><trkpt lat="42.430534525952986" lon="-8.074880705113644"><ele>397.0</ele><time>2026-04-03T19:58:37.999Z</time></trkpt><trkpt lat="42.43046602608442" lon="-8.074876397878143"><ele>397.0</ele><time>2026-04-03T19:58:43.999Z</time></trkpt><trkpt lat="42.430397476701614" lon="-8.074889003280887"><ele>397.0</ele><time>2026-04-03T19:58:50.999Z</time></trkpt><trkpt lat="42.43032670921457" lon="-8.074861838781452"><ele>397.00000000000006</ele><time>2026-04-03T19:58:55.999Z</time></trkpt><trkpt lat="42.4302564876247" lon="-8.074844490622826"><ele>397.0</ele><time>2026-04-03T19:58:59.999Z</time></trkpt><trkpt lat="42.4301915115561" lon="-8.07489978724942"><ele>397.0</ele><time>2026-04-03T19:59:04.999Z</time></trkpt><trkpt lat="42.43012736509375" lon="-8.074930078408944"><ele>397.0</ele><time>2026-04-03T19:59:12.999Z</time></trkpt></trkseg></trk></gpx>